<?xml version='1.0' encoding='UTF-8'?><gpx version="1.1" creator="JPX - https://github.com/jenetics/jpx" xmlns="http://www.topografix.com/GPX/1/1"><trk><trkseg><trkpt lat="43.34054341607518" lon="11.924767424598077"><ele>294.0</ele><time>2026-04-19T10:18:55.013Z</time></trkpt><trkpt lat="43.340512059370006" lon="11.924678255093372"><ele>294.0</ele><time>2026-04-19T10:19:44Z</time></trkpt><trkpt lat="43.34053253883754" lon="11.92458225193135"><ele>294.0</ele><time>2026-04-19T10:20:14.001Z</time></trkpt><trkpt lat="43.340469456052475" lon="11.924528513984422"><ele>294.0</ele><time>2026-04-19T10:20:15.001Z</time></trkpt><trkpt lat="43.34051954149206" lon="11.924659334742865"><ele>294.0</ele><time>2026-04-19T10:20:19.001Z</time></trkpt><trkpt lat="43.340238795404055" lon="11.924761683225436"><ele>294.0</ele><time>2026-04-19T10:20:28.001Z</time></trkpt><trkpt lat="43.340511412794655" lon="11.924667039569224"><ele>294.0</ele><time>2026-04-19T10:20:32.001Z</time></trkpt><trkpt lat="43.340217141774794" lon="11.924786467278567"><ele>294.0</ele><time>2026-04-19T10:21:36Z</time></trkpt><trkpt lat="43.340131008267974" lon="11.924768870114017"><ele>294.0</ele><time>2026-04-19T10:21:39Z</time></trkpt><trkpt lat="43.340038971800006" lon="11.92479906303295"><ele>294.0</ele><time>2026-04-19T10:21:42Z</time></trkpt><trkpt lat="43.33997677394894" lon="11.924818752132216"><ele>294.0</ele><time>2026-04-19T10:21:44.011Z</time></trkpt><trkpt lat="43.339911334286086" lon="11.924203972743477"><ele>294.0</ele><time>2026-04-19T10:21:50Z</time></trkpt><trkpt lat="43.34004222601085" lon="11.924273835534116"><ele>294.0</ele><time>2026-04-19T10:21:51Z</time></trkpt><trkpt lat="43.34035262699497" lon="11.9244263566889"><ele>294.0</ele><time>2026-04-19T10:21:53Z</time></trkpt><trkpt lat="43.3406083649837" lon="11.924593443184769"><ele>294.0</ele><time>2026-04-19T10:21:54Z</time></trkpt><trkpt lat="43.340521622941786" lon="11.924547792727449"><ele>294.0</ele><time>2026-04-19T10:22:11Z</time></trkpt><trkpt lat="43.34047771387265" lon="11.924471514598206"><ele>294.0</ele><time>2026-04-19T10:22:13Z</time></trkpt><trkpt lat="43.340457098885324" lon="11.924385679857279"><ele>294.0</ele><time>2026-04-19T10:22:15Z</time></trkpt><trkpt lat="43.340414177319914" lon="11.924316246199545"><ele>294.0</ele><time>2026-04-19T10:22:17Z</time></trkpt><trkpt lat="43.34037468285426" lon="11.92423782809999"><ele>294.0</ele><time>2026-04-19T10:22:19Z</time></trkpt><trkpt lat="43.34031698929664" lon="11.924122381311129"><ele>294.0</ele><time>2026-04-19T10:22:22Z</time></trkpt><trkpt lat="43.34024757124395" lon="11.92406352879087"><ele>294.0</ele><time>2026-04-19T10:22:28.001Z</time></trkpt><trkpt lat="43.34015786188549" lon="11.92405261123934"><ele>294.0</ele><time>2026-04-19T10:22:30.001Z</time></trkpt><trkpt lat="43.3400449571877" lon="11.924042745447315"><ele>292.4</ele><time>2026-04-19T10:22:32.001Z</time></trkpt><trkpt lat="43.33996275273693" lon="11.923966451151463"><ele>290.79999999999995</ele><time>2026-04-19T10:22:34.001Z</time></trkpt><trkpt lat="43.33986910372363" lon="11.923909534689388"><ele>289.20000000000005</ele><time>2026-04-19T10:22:36.001Z</time></trkpt><trkpt lat="43.33980456338524" lon="11.923907468792509"><ele>287.6</ele><time>2026-04-19T10:22:37.001Z</time></trkpt><trkpt lat="43.33971016797998" lon="11.923855851109355"><ele>286.0</ele><time>2026-04-19T10:22:39.001Z</time></trkpt><trkpt lat="43.33963022993445" lon="11.923788593871587"><ele>285.99999999999994</ele><time>2026-04-19T10:22:41.001Z</time></trkpt><trkpt lat="43.33957929239233" lon="11.92370358154207"><ele>286.0</ele><time>2026-04-19T10:22:43.001Z</time></trkpt><trkpt lat="43.3395074068293" lon="11.923686321228491"><ele>286.0</ele><time>2026-04-19T10:22:45.001Z</time></trkpt><trkpt lat="43.33943320355645" lon="11.923658806706433"><ele>286.0</ele><time>2026-04-19T10:22:47.001Z</time></trkpt><trkpt lat="43.33936291770738" lon="11.923658088691496"><ele>286.0</ele><time>2026-04-19T10:22:50.001Z</time></trkpt><trkpt lat="43.33932047442761" lon="11.92375211975546"><ele>285.99999999999994</ele><time>2026-04-19T10:22:51.001Z</time></trkpt><trkpt lat="43.33930022365395" lon="11.923840524869977"><ele>286.0</ele><time>2026-04-19T10:22:52.001Z</time></trkpt><trkpt lat="43.339236911799475" lon="11.923948924742989"><ele>286.0</ele><time>2026-04-19T10:22:54.001Z</time></trkpt><trkpt lat="43.33917566127027" lon="11.924070699534749"><ele>286.0</ele><time>2026-04-19T10:22:56.001Z</time></trkpt><trkpt lat="43.339108416490184" lon="11.924223442185511"><ele>286.0</ele><time>2026-04-19T10:22:58.001Z</time></trkpt><trkpt lat="43.33905616263762" lon="11.924297124660038"><ele>286.0</ele><time>2026-04-19T10:22:59.001Z</time></trkpt><trkpt lat="43.33903182309783" lon="11.924380990407233"><ele>286.0</ele><time>2026-04-19T10:23:00.001Z</time></trkpt><trkpt lat="43.3389844254621" lon="11.924471741367622"><ele>283.25</ele><time>2026-04-19T10:23:01.001Z</time></trkpt><trkpt lat="43.33893191107407" lon="11.9245689996625"><ele>280.5</ele><time>2026-04-19T10:23:02.001Z</time></trkpt><trkpt lat="43.33887668168399" lon="11.924672739532669"><ele>277.75</ele><time>2026-04-19T10:23:03.001Z</time></trkpt><trkpt lat="43.33874102864945" lon="11.924867369767723"><ele>275.0</ele><time>2026-04-19T10:23:05.001Z</time></trkpt><trkpt lat="43.33867539214715" lon="11.924991539872982"><ele>272.0</ele><time>2026-04-19T10:23:06.001Z</time></trkpt><trkpt lat="43.33861010898129" lon="11.925113934912382"><ele>269.0</ele><time>2026-04-19T10:23:07.001Z</time></trkpt><trkpt lat="43.338555778655056" lon="11.925242904566627"><ele>266.0</ele><time>2026-04-19T10:23:08.001Z</time></trkpt><trkpt lat="43.33846832232762" lon="11.925340179570403"><ele>263.0</ele><time>2026-04-19T10:23:09Z</time></trkpt><trkpt lat="43.33837325604692" lon="11.925432265651459"><ele>260.0</ele><time>2026-04-19T10:23:10Z</time></trkpt><trkpt lat="43.338280654334916" lon="11.925543024937255"><ele>260.0</ele><time>2026-04-19T10:23:11Z</time></trkpt><trkpt lat="43.338194247852485" lon="11.9256544876166"><ele>260.0</ele><time>2026-04-19T10:23:12Z</time></trkpt><trkpt lat="43.338144593607026" lon="11.925797858925671"><ele>260.0</ele><time>2026-04-19T10:23:13Z</time></trkpt><trkpt lat="43.33810146961509" lon="11.92593902841565"><ele>260.0</ele><time>2026-04-19T10:23:14Z</time></trkpt><trkpt lat="43.338037662896454" lon="11.92605675747653"><ele>258.8</ele><time>2026-04-19T10:23:15Z</time></trkpt><trkpt lat="43.337959335639184" lon="11.926150799300313"><ele>257.6</ele><time>2026-04-19T10:23:16Z</time></trkpt><trkpt lat="43.33786113574267" lon="11.926217408667167"><ele>256.4</ele><time>2026-04-19T10:23:17Z</time></trkpt><trkpt lat="43.33778058422717" lon="11.926317688436761"><ele>255.2</ele><time>2026-04-19T10:23:18Z</time></trkpt><trkpt lat="43.337695521685426" lon="11.926386571734463"><ele>254.0</ele><time>2026-04-19T10:23:19Z</time></trkpt><trkpt lat="43.33761355796934" lon="11.926456076438365"><ele>254.00000000000003</ele><time>2026-04-19T10:23:20Z</time></trkpt><trkpt lat="43.337534523021255" lon="11.926522644783823"><ele>254.0</ele><time>2026-04-19T10:23:21Z</time></trkpt><trkpt lat="43.33746120342354" lon="11.926593717599063"><ele>254.0</ele><time>2026-04-19T10:23:22Z</time></trkpt><trkpt lat="43.337386089301155" lon="11.926653596383684"><ele>254.0</ele><time>2026-04-19T10:23:23Z</time></trkpt><trkpt lat="43.337317593627034" lon="11.926716657454477"><ele>254.00000000000003</ele><time>2026-04-19T10:23:24Z</time></trkpt><trkpt lat="43.33725397250176" lon="11.926779872725428"><ele>254.0</ele><time>2026-04-19T10:23:25Z</time></trkpt><trkpt lat="43.337190347290154" lon="11.926840585079265"><ele>254.28571428571428</ele><time>2026-04-19T10:23:26Z</time></trkpt><trkpt lat="43.337124329534774" lon="11.926894858244356"><ele>254.57142857142856</ele><time>2026-04-19T10:23:27Z</time></trkpt><trkpt lat="43.337061497762434" lon="11.926946081292652"><ele>254.85714285714283</ele><time>2026-04-19T10:23:28Z</time></trkpt><trkpt lat="43.33700411115173" lon="11.926997541783026"><ele>255.14285714285714</ele><time>2026-04-19T10:23:29Z</time></trkpt><trkpt lat="43.3369499639772" lon="11.927045305225095"><ele>255.4285714285714</ele><time>2026-04-19T10:23:30Z</time></trkpt><trkpt lat="43.33689483627847" lon="11.927091112328162"><ele>255.7142857142857</ele><time>2026-04-19T10:23:31Z</time></trkpt><trkpt lat="43.33684095072522" lon="11.927137948075874"><ele>256.0</ele><time>2026-04-19T10:23:32Z</time></trkpt><trkpt lat="43.33673647857184" lon="11.927232950853167"><ele>256.0</ele><time>2026-04-19T10:23:34Z</time></trkpt><trkpt lat="43.33663071344229" lon="11.92732597129549"><ele>256.0</ele><time>2026-04-19T10:23:36Z</time></trkpt><trkpt lat="43.336529104321066" lon="11.927421246006434"><ele>256.0</ele><time>2026-04-19T10:23:38Z</time></trkpt><trkpt lat="43.33647667180488" lon="11.927470654609397"><ele>256.0</ele><time>2026-04-19T10:23:39Z</time></trkpt><trkpt lat="43.336372386270924" lon="11.927568087221722"><ele>256.0</ele><time>2026-04-19T10:23:41Z</time></trkpt><trkpt lat="43.33632217111971" lon="11.927620782609807"><ele>256.2</ele><time>2026-04-19T10:23:42Z</time></trkpt><trkpt lat="43.3362311114712" lon="11.927699547046277"><ele>256.40000000000003</ele><time>2026-04-19T10:23:44Z</time></trkpt><trkpt lat="43.336138447287404" lon="11.92778822182758"><ele>256.6</ele><time>2026-04-19T10:23:46Z</time></trkpt><trkpt lat="43.3360604251515" lon="11.927866042733173"><ele>256.8</ele><time>2026-04-19T10:23:48Z</time></trkpt><trkpt lat="43.33600764470449" lon="11.927924236543815"><ele>257.0</ele><time>2026-04-19T10:23:53Z</time></trkpt><trkpt lat="43.33595134961756" lon="11.92798514606471"><ele>257.0</ele><time>2026-04-19T10:23:59Z</time></trkpt><trkpt lat="43.3359047747493" lon="11.92804815461099"><ele>257.0</ele><time>2026-04-19T10:24:01Z</time></trkpt><trkpt lat="43.33586187797132" lon="11.92811430320376"><ele>257.0</ele><time>2026-04-19T10:24:03Z</time></trkpt><trkpt lat="43.335894702835496" lon="11.928038591600664"><ele>257.0</ele><time>2026-04-19T10:24:08Z</time></trkpt><trkpt lat="43.336010223632954" lon="11.928066189144413"><ele>257.0</ele><time>2026-04-19T10:24:10Z</time></trkpt><trkpt lat="43.33609825189805" lon="11.928180705472888"><ele>257.0</ele><time>2026-04-19T10:24:12Z</time></trkpt><trkpt lat="43.33617809765518" lon="11.928285506612367"><ele>257.0</ele><time>2026-04-19T10:24:14Z</time></trkpt><trkpt lat="43.33625897069688" lon="11.928387887165968"><ele>257.0</ele><time>2026-04-19T10:24:16Z</time></trkpt><trkpt lat="43.33634310147589" lon="11.9284897759129"><ele>257.0</ele><time>2026-04-19T10:24:18Z</time></trkpt><trkpt lat="43.336444914686965" lon="11.928564427627828"><ele>257.0</ele><time>2026-04-19T10:24:20Z</time></trkpt><trkpt lat="43.33654867647984" lon="11.928614102401232"><ele>257.0</ele><time>2026-04-19T10:24:22Z</time></trkpt><trkpt lat="43.33665834414356" lon="11.928643279914509"><ele>257.0</ele><time>2026-04-19T10:24:24Z</time></trkpt><trkpt lat="43.336770880834884" lon="11.928659249902568"><ele>257.0</ele><time>2026-04-19T10:24:26Z</time></trkpt><trkpt lat="43.33688491427753" lon="11.928671131249109"><ele>257.0</ele><time>2026-04-19T10:24:28Z</time></trkpt><trkpt lat="43.336984977640896" lon="11.928698694863908"><ele>257.0</ele><time>2026-04-19T10:24:30Z</time></trkpt><trkpt lat="43.33710060720206" lon="11.928709146667147"><ele>257.0</ele><time>2026-04-19T10:24:32.001Z</time></trkpt><trkpt lat="43.33720707175412" lon="11.92870515252131"><ele>257.4</ele><time>2026-04-19T10:24:34.001Z</time></trkpt><trkpt lat="43.33731845334686" lon="11.928700988897436"><ele>257.79999999999995</ele><time>2026-04-19T10:24:36.001Z</time></trkpt><trkpt lat="43.33742512703687" lon="11.92870885240029"><ele>258.2</ele><time>2026-04-19T10:24:38.001Z</time></trkpt><trkpt lat="43.337534907723985" lon="11.928717359943542"><ele>258.59999999999997</ele><time>2026-04-19T10:24:40.001Z</time></trkpt><trkpt lat="43.33764130371943" lon="11.928725769656674"><ele>259.0</ele><time>2026-04-19T10:24:42.001Z</time></trkpt><trkpt lat="43.33775148532651" lon="11.928736640274451"><ele>259.0</ele><time>2026-04-19T10:24:44.001Z</time></trkpt><trkpt lat="43.3378548199372" lon="11.928750906516608"><ele>259.0</ele><time>2026-04-19T10:24:46.001Z</time></trkpt><trkpt lat="43.33795788406599" lon="11.928770974926417"><ele>259.0</ele><time>2026-04-19T10:24:48.001Z</time></trkpt><trkpt lat="43.3380584888658" lon="11.928788173553892"><ele>259.0</ele><time>2026-04-19T10:24:50.001Z</time></trkpt><trkpt lat="43.33815770128762" lon="11.928817551711338"><ele>259.0</ele><time>2026-04-19T10:24:52.001Z</time></trkpt><trkpt lat="43.33825747965861" lon="11.928863455816735"><ele>258.8</ele><time>2026-04-19T10:24:54.001Z</time></trkpt><trkpt lat="43.3383535485975" lon="11.92890171965623"><ele>258.59999999999997</ele><time>2026-04-19T10:24:56.001Z</time></trkpt><trkpt lat="43.33844187462796" lon="11.92895825480632"><ele>258.4</ele><time>2026-04-19T10:24:58.001Z</time></trkpt><trkpt lat="43.33852735210023" lon="11.929024463853398"><ele>258.2</ele><time>2026-04-19T10:25:00.001Z</time></trkpt><trkpt lat="43.33861135192284" lon="11.929088128807548"><ele>258.0</ele><time>2026-04-19T10:25:02.001Z</time></trkpt><trkpt lat="43.33869804081587" lon="11.929151926389967"><ele>258.0</ele><time>2026-04-19T10:25:04.001Z</time></trkpt><trkpt lat="43.3387831269563" lon="11.929219951119366"><ele>258.0</ele><time>2026-04-19T10:25:06.001Z</time></trkpt><trkpt lat="43.33887093297352" lon="11.929287278814513"><ele>258.0</ele><time>2026-04-19T10:25:08.001Z</time></trkpt><trkpt lat="43.338957436256045" lon="11.929353157344117"><ele>258.0</ele><time>2026-04-19T10:25:10.001Z</time></trkpt><trkpt lat="43.33904211836981" lon="11.929416149772045"><ele>258.0</ele><time>2026-04-19T10:25:12.001Z</time></trkpt><trkpt lat="43.339128894588306" lon="11.929480965157053"><ele>258.4</ele><time>2026-04-19T10:25:14.001Z</time></trkpt><trkpt lat="43.33921187116952" lon="11.929543109482765"><ele>258.8</ele><time>2026-04-19T10:25:15.999Z</time></trkpt><trkpt lat="43.339295463413784" lon="11.929610009265028"><ele>259.2</ele><time>2026-04-19T10:25:17.999Z</time></trkpt><trkpt lat="43.33937825449267" lon="11.929672647411858"><ele>259.6</ele><time>2026-04-19T10:25:19.999Z</time></trkpt><trkpt lat="43.3394626809814" lon="11.929730665919239"><ele>260.0</ele><time>2026-04-19T10:25:21.999Z</time></trkpt><trkpt lat="43.339547046565215" lon="11.929790400982586"><ele>260.0</ele><time>2026-04-19T10:25:23.999Z</time></trkpt><trkpt lat="43.33963659509043" lon="11.929842750489486"><ele>260.0</ele><time>2026-04-19T10:25:25.999Z</time></trkpt><trkpt lat="43.33972723648889" lon="11.929891225841109"><ele>260.0</ele><time>2026-04-19T10:25:27.999Z</time></trkpt><trkpt lat="43.33981420283952" lon="11.929939945407298"><ele>260.0</ele><time>2026-04-19T10:25:30Z</time></trkpt><trkpt lat="43.33990576393286" lon="11.92998924274865"><ele>260.0</ele><time>2026-04-19T10:25:32Z</time></trkpt><trkpt lat="43.33999803634373" lon="11.930043309398421"><ele>260.8</ele><time>2026-04-19T10:25:34Z</time></trkpt><trkpt lat="43.34008809011444" lon="11.93010188129189"><ele>261.6</ele><time>2026-04-19T10:25:36Z</time></trkpt><trkpt lat="43.340173547990055" lon="11.930165857424257"><ele>262.4</ele><time>2026-04-19T10:25:38Z</time></trkpt><trkpt lat="43.34025901334202" lon="11.930230984025059"><ele>263.2</ele><time>2026-04-19T10:25:40Z</time></trkpt><trkpt lat="43.340381137704014" lon="11.930339297682364"><ele>264.0</ele><time>2026-04-19T10:25:43Z</time></trkpt><trkpt lat="43.34045690704788" lon="11.93042148110034"><ele>264.0</ele><time>2026-04-19T10:25:45Z</time></trkpt><trkpt lat="43.34052896757234" lon="11.930505263194712"><ele>264.0</ele><time>2026-04-19T10:25:47Z</time></trkpt><trkpt lat="43.34059460320097" lon="11.930596912419398"><ele>264.0</ele><time>2026-04-19T10:25:49Z</time></trkpt><trkpt lat="43.34064906748901" lon="11.930692259260866"><ele>264.0</ele><time>2026-04-19T10:25:51Z</time></trkpt><trkpt lat="43.34068904951462" lon="11.93079380898016"><ele>264.0</ele><time>2026-04-19T10:25:53Z</time></trkpt><trkpt lat="43.340723085582155" lon="11.930893982937796"><ele>264.0</ele><time>2026-04-19T10:25:55Z</time></trkpt><trkpt lat="43.34075053270133" lon="11.930986197412846"><ele>264.0</ele><time>2026-04-19T10:25:57Z</time></trkpt><trkpt lat="43.340773520066826" lon="11.931079395601666"><ele>264.0</ele><time>2026-04-19T10:25:59Z</time></trkpt><trkpt lat="43.340809642216556" lon="11.931201664947817"><ele>264.0</ele><time>2026-04-19T10:26:01Z</time></trkpt><trkpt lat="43.340855754974086" lon="11.931351803251992"><ele>264.0</ele><time>2026-04-19T10:26:03Z</time></trkpt><trkpt lat="43.34089271722293" lon="11.931514688154927"><ele>264.0</ele><time>2026-04-19T10:26:05Z</time></trkpt><trkpt lat="43.34091547913295" lon="11.931599375297244"><ele>264.0</ele><time>2026-04-19T10:26:06Z</time></trkpt><trkpt lat="43.34094139388193" lon="11.931683857473264"><ele>264.0</ele><time>2026-04-19T10:26:07Z</time></trkpt><trkpt lat="43.34096689118542" lon="11.931769405207696"><ele>264.0</ele><time>2026-04-19T10:26:08Z</time></trkpt><trkpt lat="43.34098929738959" lon="11.931854866150218"><ele>264.0</ele><time>2026-04-19T10:26:09Z</time></trkpt><trkpt lat="43.34100821792119" lon="11.931942102488767"><ele>264.0</ele><time>2026-04-19T10:26:10Z</time></trkpt><trkpt lat="43.341025388308175" lon="11.932031145441083"><ele>264.0</ele><time>2026-04-19T10:26:11Z</time></trkpt><trkpt lat="43.34104002025561" lon="11.932121205388192"><ele>264.0</ele><time>2026-04-19T10:26:12Z</time></trkpt><trkpt lat="43.341052998316435" lon="11.932211861510238"><ele>263.6666666666667</ele><time>2026-04-19T10:26:13Z</time></trkpt><trkpt lat="43.341064366149425" lon="11.932302587427529"><ele>263.3333333333333</ele><time>2026-04-19T10:26:14Z</time></trkpt><trkpt lat="43.34107654893798" lon="11.93239007141671"><ele>263.0</ele><time>2026-04-19T10:26:15Z</time></trkpt><trkpt lat="43.341084471059766" lon="11.932477886858386"><ele>262.66666666666663</ele><time>2026-04-19T10:26:16Z</time></trkpt><trkpt lat="43.341111470904394" lon="11.932642804599695"><ele>262.3333333333333</ele><time>2026-04-19T10:26:18Z</time></trkpt><trkpt lat="43.341160527959396" lon="11.93280198738716"><ele>262.0</ele><time>2026-04-19T10:26:20Z</time></trkpt><trkpt lat="43.3411966424226" lon="11.932874676546323"><ele>262.0</ele><time>2026-04-19T10:26:21Z</time></trkpt><trkpt lat="43.3412334562371" lon="11.932948177512651"><ele>262.0</ele><time>2026-04-19T10:26:22Z</time></trkpt><trkpt lat="43.341308183407556" lon="11.93308622114245"><ele>262.0</ele><time>2026-04-19T10:26:24Z</time></trkpt><trkpt lat="43.341348410133406" lon="11.933158794367523"><ele>262.0</ele><time>2026-04-19T10:26:25Z</time></trkpt><trkpt lat="43.341425250444054" lon="11.933297191424398"><ele>262.0</ele><time>2026-04-19T10:26:27Z</time></trkpt><trkpt lat="43.341460577675605" lon="11.93337154283283"><ele>262.0</ele><time>2026-04-19T10:26:28Z</time></trkpt><trkpt lat="43.3415034206429" lon="11.933437531378836"><ele>262.0</ele><time>2026-04-19T10:26:29Z</time></trkpt><trkpt lat="43.34154218739762" lon="11.933507797491773"><ele>262.0</ele><time>2026-04-19T10:26:30Z</time></trkpt><trkpt lat="43.34161407143229" lon="11.933647089614961"><ele>262.0</ele><time>2026-04-19T10:26:32Z</time></trkpt><trkpt lat="43.341688994741624" lon="11.933780585267987"><ele>262.0</ele><time>2026-04-19T10:26:34Z</time></trkpt><trkpt lat="43.3417557421992" lon="11.933907687031576"><ele>262.0</ele><time>2026-04-19T10:26:36.001Z</time></trkpt><trkpt lat="43.341819496891105" lon="11.934018062576776"><ele>262.0</ele><time>2026-04-19T10:26:38.001Z</time></trkpt><trkpt lat="43.341883930890724" lon="11.934123334959406"><ele>262.0</ele><time>2026-04-19T10:26:40.001Z</time></trkpt><trkpt lat="43.34195502278429" lon="11.93422829356428"><ele>262.0</ele><time>2026-04-19T10:26:42.001Z</time></trkpt><trkpt lat="43.342030456165126" lon="11.934322364319964"><ele>262.0</ele><time>2026-04-19T10:26:44.001Z</time></trkpt><trkpt lat="43.34210490606346" lon="11.934422871193423"><ele>262.0</ele><time>2026-04-19T10:26:46.001Z</time></trkpt><trkpt lat="43.34218462032956" lon="11.934526976605852"><ele>262.4</ele><time>2026-04-19T10:26:48.001Z</time></trkpt><trkpt lat="43.342266259876666" lon="11.934629795338136"><ele>262.79999999999995</ele><time>2026-04-19T10:26:50.001Z</time></trkpt><trkpt lat="43.34234780388698" lon="11.934730053368611"><ele>263.2</ele><time>2026-04-19T10:26:52.001Z</time></trkpt><trkpt lat="43.34243005392866" lon="11.934828063223987"><ele>263.59999999999997</ele><time>2026-04-19T10:26:54.001Z</time></trkpt><trkpt lat="43.34250804377684" lon="11.934930111882084"><ele>264.0</ele><time>2026-04-19T10:26:56.001Z</time></trkpt><trkpt lat="43.34258138074885" lon="11.935042251385754"><ele>264.4</ele><time>2026-04-19T10:26:58.001Z</time></trkpt><trkpt lat="43.34263544040093" lon="11.935169524467751"><ele>264.79999999999995</ele><time>2026-04-19T10:27:00.001Z</time></trkpt><trkpt lat="43.34268088482055" lon="11.935301170453503"><ele>265.20000000000005</ele><time>2026-04-19T10:27:02.001Z</time></trkpt><trkpt lat="43.342719277312504" lon="11.935434355231433"><ele>265.6</ele><time>2026-04-19T10:27:04.001Z</time></trkpt><trkpt lat="43.34274169902832" lon="11.935574980954154"><ele>266.0</ele><time>2026-04-19T10:27:06.001Z</time></trkpt><trkpt lat="43.342762586961705" lon="11.935683523572443"><ele>266.0</ele><time>2026-04-19T10:27:08.001Z</time></trkpt><trkpt lat="43.34268980605644" lon="11.9358246767631"><ele>266.0</ele><time>2026-04-19T10:27:10.001Z</time></trkpt><trkpt lat="43.342644432488505" lon="11.935939938781496"><ele>266.0</ele><time>2026-04-19T10:27:12.001Z</time></trkpt><trkpt lat="43.34262187590098" lon="11.936067614680113"><ele>266.0</ele><time>2026-04-19T10:27:14.001Z</time></trkpt><trkpt lat="43.34261798843817" lon="11.936196720856703"><ele>266.0</ele><time>2026-04-19T10:27:16.001Z</time></trkpt><trkpt lat="43.34261489962657" lon="11.936334093369826"><ele>266.0</ele><time>2026-04-19T10:27:18.001Z</time></trkpt><trkpt lat="43.34260795531348" lon="11.936479411382908"><ele>266.0</ele><time>2026-04-19T10:27:20.001Z</time></trkpt><trkpt lat="43.34257177731702" lon="11.936622822298277"><ele>266.0</ele><time>2026-04-19T10:27:21.999Z</time></trkpt><trkpt lat="43.342529875711286" lon="11.936772151453171"><ele>266.0</ele><time>2026-04-19T10:27:23.999Z</time></trkpt><trkpt lat="43.34248495046758" lon="11.936921899571075"><ele>265.75</ele><time>2026-04-19T10:27:25.999Z</time></trkpt><trkpt lat="43.34243647500432" lon="11.93707577548329"><ele>265.5</ele><time>2026-04-19T10:27:27.999Z</time></trkpt><trkpt lat="43.34238709262953" lon="11.937230430047133"><ele>265.25</ele><time>2026-04-19T10:27:29.999Z</time></trkpt><trkpt lat="43.34234013097614" lon="11.937387805010871"><ele>265.0</ele><time>2026-04-19T10:27:31.999Z</time></trkpt><trkpt lat="43.34228946951089" lon="11.937545827531988"><ele>264.85714285714283</ele><time>2026-04-19T10:27:33.999Z</time></trkpt><trkpt lat="43.34226539148623" lon="11.937626970350978"><ele>264.7142857142857</ele><time>2026-04-19T10:27:34.999Z</time></trkpt><trkpt lat="43.34224188411634" lon="11.937708568782979"><ele>264.57142857142856</ele><time>2026-04-19T10:27:35.999Z</time></trkpt><trkpt lat="43.342225776143124" lon="11.93779250156257"><ele>264.42857142857144</ele><time>2026-04-19T10:27:36.999Z</time></trkpt><trkpt lat="43.34221335724741" lon="11.937877894263671"><ele>264.2857142857143</ele><time>2026-04-19T10:27:37.999Z</time></trkpt><trkpt lat="43.342202271277934" lon="11.937963256156134"><ele>264.1428571428571</ele><time>2026-04-19T10:27:39Z</time></trkpt><trkpt lat="43.34218145636729" lon="11.938133153898352"><ele>264.0</ele><time>2026-04-19T10:27:41Z</time></trkpt><trkpt lat="43.34216092217681" lon="11.938303200924544"><ele>263.8333333333333</ele><time>2026-04-19T10:27:43Z</time></trkpt><trkpt lat="43.342138878885365" lon="11.93847483988223"><ele>263.6666666666667</ele><time>2026-04-19T10:27:45Z</time></trkpt><trkpt lat="43.34212668251126" lon="11.938562092541307"><ele>263.5</ele><time>2026-04-19T10:27:46Z</time></trkpt><trkpt lat="43.342111678180196" lon="11.93864892982832"><ele>263.33333333333337</ele><time>2026-04-19T10:27:47Z</time></trkpt><trkpt lat="43.3420954548965" lon="11.938732577877994"><ele>263.1666666666667</ele><time>2026-04-19T10:27:48Z</time></trkpt><trkpt lat="43.34207606310735" lon="11.938816035444873"><ele>263.0</ele><time>2026-04-19T10:27:49Z</time></trkpt><trkpt lat="43.34203515508131" lon="11.938977832697615"><ele>263.0</ele><time>2026-04-19T10:27:51Z</time></trkpt><trkpt lat="43.34198523308528" lon="11.939128216668168"><ele>263.0</ele><time>2026-04-19T10:27:53Z</time></trkpt><trkpt lat="43.34192576709432" lon="11.939271058536349"><ele>263.0</ele><time>2026-04-19T10:27:55Z</time></trkpt><trkpt lat="43.34186287229725" lon="11.939403057694255"><ele>263.0</ele><time>2026-04-19T10:27:57Z</time></trkpt><trkpt lat="43.341795307573896" lon="11.939530101391775"><ele>263.4</ele><time>2026-04-19T10:27:59Z</time></trkpt><trkpt lat="43.3417248710205" lon="11.939650742181513"><ele>263.8</ele><time>2026-04-19T10:28:01Z</time></trkpt><trkpt lat="43.34165604781298" lon="11.939765999598688"><ele>264.2</ele><time>2026-04-19T10:28:03Z</time></trkpt><trkpt lat="43.34159581119461" lon="11.939888908148015"><ele>264.6</ele><time>2026-04-19T10:28:05Z</time></trkpt><trkpt lat="43.34154523645305" lon="11.940034118741353"><ele>265.0</ele><time>2026-04-19T10:28:07Z</time></trkpt><trkpt lat="43.3414994899047" lon="11.940188404524829"><ele>265.0</ele><time>2026-04-19T10:28:09Z</time></trkpt><trkpt lat="43.34146001983672" lon="11.94034219163891"><ele>265.0</ele><time>2026-04-19T10:28:11Z</time></trkpt><trkpt lat="43.341422016058495" lon="11.940500772702777"><ele>265.0</ele><time>2026-04-19T10:28:13Z</time></trkpt><trkpt lat="43.3414020845427" lon="11.940666254681474"><ele>265.0</ele><time>2026-04-19T10:28:15Z</time></trkpt><trkpt lat="43.34140003252764" lon="11.940831971167405"><ele>264.75</ele><time>2026-04-19T10:28:17Z</time></trkpt><trkpt lat="43.34139369122956" lon="11.940999753480694"><ele>264.5</ele><time>2026-04-19T10:28:19Z</time></trkpt><trkpt lat="43.341384964695294" lon="11.941164975472386"><ele>264.25</ele><time>2026-04-19T10:28:21Z</time></trkpt><trkpt lat="43.34137642024795" lon="11.941318830459668"><ele>264.0</ele><time>2026-04-19T10:28:23Z</time></trkpt><trkpt lat="43.341365678209904" lon="11.941462545231788"><ele>263.8</ele><time>2026-04-19T10:28:25Z</time></trkpt><trkpt lat="43.341355148268384" lon="11.941590911625116"><ele>263.59999999999997</ele><time>2026-04-19T10:28:27Z</time></trkpt><trkpt lat="43.341335347525316" lon="11.941697859075502"><ele>263.4</ele><time>2026-04-19T10:28:29Z</time></trkpt><trkpt lat="43.34130005860691" lon="11.941814751134793"><ele>263.2</ele><time>2026-04-19T10:28:31Z</time></trkpt><trkpt lat="43.34125220129559" lon="11.941954875427466"><ele>263.0</ele><time>2026-04-19T10:28:33Z</time></trkpt><trkpt lat="43.34120275440215" lon="11.942106815843532"><ele>263.0</ele><time>2026-04-19T10:28:35.001Z</time></trkpt><trkpt lat="43.341154223030955" lon="11.94226599107988"><ele>263.0</ele><time>2026-04-19T10:28:37.001Z</time></trkpt><trkpt lat="43.34113022656697" lon="11.942347634814505"><ele>263.0</ele><time>2026-04-19T10:28:38.001Z</time></trkpt><trkpt lat="43.34110589333205" lon="11.942430346637863"><ele>263.0</ele><time>2026-04-19T10:28:39.001Z</time></trkpt><trkpt lat="43.34107980047962" lon="11.942513147560767"><ele>263.0</ele><time>2026-04-19T10:28:40.001Z</time></trkpt><trkpt lat="43.34105411982761" lon="11.94259876394669"><ele>263.0</ele><time>2026-04-19T10:28:41.001Z</time></trkpt><trkpt lat="43.34102984549051" lon="11.942683449462132"><ele>263.0</ele><time>2026-04-19T10:28:42.001Z</time></trkpt><trkpt lat="43.34100745333187" lon="11.94276578866289"><ele>263.0</ele><time>2026-04-19T10:28:43.001Z</time></trkpt><trkpt lat="43.34096054082538" lon="11.942927767932185"><ele>263.0</ele><time>2026-04-19T10:28:45.001Z</time></trkpt><trkpt lat="43.340938500113126" lon="11.943009991172282"><ele>263.0</ele><time>2026-04-19T10:28:46.001Z</time></trkpt><trkpt lat="43.34091161055518" lon="11.943088329897016"><ele>263.0</ele><time>2026-04-19T10:28:47.001Z</time></trkpt><trkpt lat="43.340837430581296" lon="11.943228860260511"><ele>263.0</ele><time>2026-04-19T10:28:49.001Z</time></trkpt><trkpt lat="43.340790482557864" lon="11.943287842467871"><ele>263.0</ele><time>2026-04-19T10:28:50.001Z</time></trkpt><trkpt lat="43.34068564613408" lon="11.943379555862684"><ele>263.0</ele><time>2026-04-19T10:28:52.001Z</time></trkpt><trkpt lat="43.34058199095957" lon="11.943461535516533"><ele>263.0</ele><time>2026-04-19T10:28:54.001Z</time></trkpt><trkpt lat="43.340487087542094" lon="11.943575663879775"><ele>263.0</ele><time>2026-04-19T10:28:56.001Z</time></trkpt><trkpt lat="43.34040084650279" lon="11.9436909278075"><ele>262.75</ele><time>2026-04-19T10:28:58.001Z</time></trkpt><trkpt lat="43.34033386184316" lon="11.943823989850438"><ele>262.5</ele><time>2026-04-19T10:29:00.001Z</time></trkpt><trkpt lat="43.34027666941433" lon="11.944055402291058"><ele>262.25</ele><time>2026-04-19T10:29:03.001Z</time></trkpt><trkpt lat="43.34024917769562" lon="11.944211656772147"><ele>262.0</ele><time>2026-04-19T10:29:05.001Z</time></trkpt><trkpt lat="43.34021327417494" lon="11.944370349081847"><ele>262.4</ele><time>2026-04-19T10:29:07.001Z</time></trkpt><trkpt lat="43.34018223829274" lon="11.944528935409814"><ele>262.79999999999995</ele><time>2026-04-19T10:29:09.001Z</time></trkpt><trkpt lat="43.34016029915145" lon="11.944684072336495"><ele>263.2</ele><time>2026-04-19T10:29:11.001Z</time></trkpt><trkpt lat="43.34012530038604" lon="11.944815333604442"><ele>263.59999999999997</ele><time>2026-04-19T10:29:13.001Z</time></trkpt><trkpt lat="43.34009717112746" lon="11.94494105539247"><ele>264.0</ele><time>2026-04-19T10:29:15.001Z</time></trkpt><trkpt lat="43.34009098837298" lon="11.945029024270463"><ele>263.6666666666667</ele><time>2026-04-19T10:29:18.001Z</time></trkpt><trkpt lat="43.34005625253783" lon="11.94511236104563"><ele>263.33333333333337</ele><time>2026-04-19T10:29:21.001Z</time></trkpt><trkpt lat="43.34034548426171" lon="11.945337396918182"><ele>263.0</ele><time>2026-04-19T10:29:25.001Z</time></trkpt><trkpt lat="43.34039108843933" lon="11.945431423652442"><ele>263.0</ele><time>2026-04-19T10:29:26.999Z</time></trkpt><trkpt lat="43.340451949780174" lon="11.945522545802426"><ele>263.0</ele><time>2026-04-19T10:29:28.999Z</time></trkpt><trkpt lat="43.34051264221361" lon="11.945619336394024"><ele>263.0</ele><time>2026-04-19T10:29:30.999Z</time></trkpt><trkpt lat="43.34057341283568" lon="11.945730192200362"><ele>263.0</ele><time>2026-04-19T10:29:32.999Z</time></trkpt><trkpt lat="43.34063966835958" lon="11.945843115669323"><ele>263.0</ele><time>2026-04-19T10:29:34.999Z</time></trkpt><trkpt lat="43.34070446436193" lon="11.945964128116156"><ele>263.4</ele><time>2026-04-19T10:29:36.999Z</time></trkpt><trkpt lat="43.34075702066934" lon="11.946094145322654"><ele>263.8</ele><time>2026-04-19T10:29:38.999Z</time></trkpt><trkpt lat="43.34081406347545" lon="11.946213358332184"><ele>264.2</ele><time>2026-04-19T10:29:40.999Z</time></trkpt><trkpt lat="43.340870252957785" lon="11.94633564615736"><ele>264.6</ele><time>2026-04-19T10:29:43Z</time></trkpt><trkpt lat="43.3409195509357" lon="11.946448540748975"><ele>265.0</ele><time>2026-04-19T10:29:45Z</time></trkpt><trkpt lat="43.340979853426454" lon="11.946553379543872"><ele>265.0</ele><time>2026-04-19T10:29:47Z</time></trkpt><trkpt lat="43.34103840724098" lon="11.946662017735688"><ele>265.0</ele><time>2026-04-19T10:29:49Z</time></trkpt><trkpt lat="43.341104681375434" lon="11.946774069240359"><ele>265.0</ele><time>2026-04-19T10:29:51Z</time></trkpt><trkpt lat="43.34117158907945" lon="11.946883404788212"><ele>265.0</ele><time>2026-04-19T10:29:53Z</time></trkpt><trkpt lat="43.341242789116976" lon="11.946992652448472"><ele>265.0</ele><time>2026-04-19T10:29:55Z</time></trkpt><trkpt lat="43.34131141258362" lon="11.947097372505722"><ele>265.0</ele><time>2026-04-19T10:29:57Z</time></trkpt><trkpt lat="43.341370919785966" lon="11.947189131418893"><ele>265.0</ele><time>2026-04-19T10:29:59Z</time></trkpt><trkpt lat="43.341425421337064" lon="11.947277453017616"><ele>265.0</ele><time>2026-04-19T10:30:01Z</time></trkpt><trkpt lat="43.341476718378004" lon="11.947362723254894"><ele>265.0</ele><time>2026-04-19T10:30:03Z</time></trkpt><trkpt lat="43.34152140243588" lon="11.947472734092218"><ele>265.0</ele><time>2026-04-19T10:30:05Z</time></trkpt><trkpt lat="43.34158562714227" lon="11.94759954582851"><ele>264.99999999999994</ele><time>2026-04-19T10:30:07Z</time></trkpt><trkpt lat="43.34162246807338" lon="11.947672371199136"><ele>265.0</ele><time>2026-04-19T10:30:08Z</time></trkpt><trkpt lat="43.34166195543763" lon="11.94774575458106"><ele>265.0</ele><time>2026-04-19T10:30:09Z</time></trkpt><trkpt lat="43.34170232616689" lon="11.947821302768512"><ele>265.0</ele><time>2026-04-19T10:30:10Z</time></trkpt><trkpt lat="43.34173991769526" lon="11.947896663652879"><ele>265.0</ele><time>2026-04-19T10:30:11Z</time></trkpt><trkpt lat="43.3417827866634" lon="11.947968004430361"><ele>264.99999999999994</ele><time>2026-04-19T10:30:12Z</time></trkpt><trkpt lat="43.341825791265464" lon="11.948039481370131"><ele>265.0</ele><time>2026-04-19T10:30:13Z</time></trkpt><trkpt lat="43.34186838321915" lon="11.948103567583845"><ele>265.0</ele><time>2026-04-19T10:30:14Z</time></trkpt><trkpt lat="43.34191025837717" lon="11.948176775466223"><ele>265.0</ele><time>2026-04-19T10:30:15Z</time></trkpt><trkpt lat="43.34198617401994" lon="11.94831666100865"><ele>265.0</ele><time>2026-04-19T10:30:17Z</time></trkpt><trkpt lat="43.34202391246459" lon="11.948386505064938"><ele>265.0</ele><time>2026-04-19T10:30:18Z</time></trkpt><trkpt lat="43.342066635851864" lon="11.948457932347386"><ele>265.0</ele><time>2026-04-19T10:30:19Z</time></trkpt><trkpt lat="43.342106790446486" lon="11.948526574169588"><ele>265.0</ele><time>2026-04-19T10:30:20Z</time></trkpt><trkpt lat="43.34214573754055" lon="11.948598726154072"><ele>264.8333333333333</ele><time>2026-04-19T10:30:21Z</time></trkpt><trkpt lat="43.342182901029375" lon="11.948670494594126"><ele>264.66666666666663</ele><time>2026-04-19T10:30:22Z</time></trkpt><trkpt lat="43.34222400423661" lon="11.948739244229015"><ele>264.5</ele><time>2026-04-19T10:30:23Z</time></trkpt><trkpt lat="43.342286623619934" lon="11.948890525472011"><ele>264.3333333333333</ele><time>2026-04-19T10:30:25Z</time></trkpt><trkpt lat="43.342326508323055" lon="11.948962632158711"><ele>264.1666666666667</ele><time>2026-04-19T10:30:26Z</time></trkpt><trkpt lat="43.342369119232536" lon="11.949030027847705"><ele>264.0</ele><time>2026-04-19T10:30:27Z</time></trkpt><trkpt lat="43.34241046859399" lon="11.949100674646107"><ele>264.0</ele><time>2026-04-19T10:30:28Z</time></trkpt><trkpt lat="43.342452050725356" lon="11.949168831511528"><ele>264.0</ele><time>2026-04-19T10:30:29Z</time></trkpt><trkpt lat="43.34253032762133" lon="11.94930831994353"><ele>264.0</ele><time>2026-04-19T10:30:31Z</time></trkpt><trkpt lat="43.34261295644359" lon="11.949444964041891"><ele>264.0</ele><time>2026-04-19T10:30:33.001Z</time></trkpt><trkpt lat="43.342689304488644" lon="11.94958813417136"><ele>264.0</ele><time>2026-04-19T10:30:35.001Z</time></trkpt><trkpt lat="43.34276028042896" lon="11.949718097287542"><ele>264.0</ele><time>2026-04-19T10:30:37.001Z</time></trkpt><trkpt lat="43.342840965234245" lon="11.949853623365277"><ele>264.0</ele><time>2026-04-19T10:30:39.001Z</time></trkpt><trkpt lat="43.34287906878065" lon="11.949922817649524"><ele>264.0</ele><time>2026-04-19T10:30:40.001Z</time></trkpt><trkpt lat="43.34295441337089" lon="11.950054733704974"><ele>264.0</ele><time>2026-04-19T10:30:42.001Z</time></trkpt><trkpt lat="43.34303042394816" lon="11.950182454119568"><ele>264.3333333333333</ele><time>2026-04-19T10:30:44.001Z</time></trkpt><trkpt lat="43.343108374177916" lon="11.9503164417925"><ele>264.6666666666667</ele><time>2026-04-19T10:30:46.001Z</time></trkpt><trkpt lat="43.34314990273371" lon="11.95038587389385"><ele>265.0</ele><time>2026-04-19T10:30:47.001Z</time></trkpt><trkpt lat="43.34319122709018" lon="11.950453176677518"><ele>265.33333333333337</ele><time>2026-04-19T10:30:48.001Z</time></trkpt><trkpt lat="43.3432309106644" lon="11.950521221797855"><ele>265.6666666666667</ele><time>2026-04-19T10:30:49.001Z</time></trkpt><trkpt lat="43.34330235710858" lon="11.950651975801751"><ele>266.0</ele><time>2026-04-19T10:30:51.001Z</time></trkpt><trkpt lat="43.34342729728339" lon="11.950736457649882"><ele>266.0</ele><time>2026-04-19T10:30:53.001Z</time></trkpt><trkpt lat="43.343493910631196" lon="11.950842771595351"><ele>266.0</ele><time>2026-04-19T10:30:55.001Z</time></trkpt><trkpt lat="43.343567052167415" lon="11.950972877520341"><ele>266.0</ele><time>2026-04-19T10:30:57.001Z</time></trkpt><trkpt lat="43.34363022486003" lon="11.95110842185197"><ele>266.0</ele><time>2026-04-19T10:30:59.001Z</time></trkpt><trkpt lat="43.34369510452019" lon="11.951230662139803"><ele>266.0</ele><time>2026-04-19T10:31:01.001Z</time></trkpt><trkpt lat="43.343759916038756" lon="11.951351780354193"><ele>266.0</ele><time>2026-04-19T10:31:03.001Z</time></trkpt><trkpt lat="43.34382458107716" lon="11.951468475590605"><ele>266.0</ele><time>2026-04-19T10:31:05.001Z</time></trkpt><trkpt lat="43.3438823957281" lon="11.95159868293384"><ele>266.0</ele><time>2026-04-19T10:31:07.001Z</time></trkpt><trkpt lat="43.34394698909372" lon="11.951724591945242"><ele>266.0</ele><time>2026-04-19T10:31:09.001Z</time></trkpt><trkpt lat="43.34398875675272" lon="11.951859472433087"><ele>266.0</ele><time>2026-04-19T10:31:11.001Z</time></trkpt><trkpt lat="43.34402741786044" lon="11.951998269585623"><ele>266.0</ele><time>2026-04-19T10:31:13.001Z</time></trkpt><trkpt lat="43.344066323520785" lon="11.952139560645643"><ele>266.0</ele><time>2026-04-19T10:31:15.001Z</time></trkpt><trkpt lat="43.34410631625999" lon="11.952286752213126"><ele>266.0</ele><time>2026-04-19T10:31:17.001Z</time></trkpt><trkpt lat="43.34414821209867" lon="11.952430982894736"><ele>266.0</ele><time>2026-04-19T10:31:19.001Z</time></trkpt><trkpt lat="43.34418694999533" lon="11.952588581640969"><ele>266.0</ele><time>2026-04-19T10:31:21.001Z</time></trkpt><trkpt lat="43.34423183488518" lon="11.95274435917396"><ele>266.0</ele><time>2026-04-19T10:31:23.001Z</time></trkpt><trkpt lat="43.344284070444786" lon="11.95288995360631"><ele>266.0</ele><time>2026-04-19T10:31:25.001Z</time></trkpt><trkpt lat="43.344332125670384" lon="11.953044891516225"><ele>266.0</ele><time>2026-04-19T10:31:27.001Z</time></trkpt><trkpt lat="43.34436838381926" lon="11.953205051206025"><ele>266.0</ele><time>2026-04-19T10:31:29.001Z</time></trkpt><trkpt lat="43.34438224561336" lon="11.953290075469464"><ele>266.0</ele><time>2026-04-19T10:31:30.001Z</time></trkpt><trkpt lat="43.34441627915455" lon="11.953446439198704"><ele>266.0</ele><time>2026-04-19T10:31:32.001Z</time></trkpt><trkpt lat="43.34445539742367" lon="11.953608537638878"><ele>266.0</ele><time>2026-04-19T10:31:34Z</time></trkpt><trkpt lat="43.34447082689032" lon="11.953696636404597"><ele>266.0</ele><time>2026-04-19T10:31:35Z</time></trkpt><trkpt lat="43.34449006635391" lon="11.953781804967056"><ele>266.0</ele><time>2026-04-19T10:31:36Z</time></trkpt><trkpt lat="43.344508507331085" lon="11.953869353050337"><ele>266.1666666666667</ele><time>2026-04-19T10:31:37Z</time></trkpt><trkpt lat="43.34452643896987" lon="11.953957552454183"><ele>266.33333333333337</ele><time>2026-04-19T10:31:38Z</time></trkpt><trkpt lat="43.34454703530549" lon="11.95404408798834"><ele>266.5</ele><time>2026-04-19T10:31:39Z</time></trkpt><trkpt lat="43.344573038542784" lon="11.95421859235232"><ele>266.6666666666667</ele><time>2026-04-19T10:31:41Z</time></trkpt><trkpt lat="43.344598328261505" lon="11.95429945761715"><ele>266.8333333333333</ele><time>2026-04-19T10:31:42Z</time></trkpt><trkpt lat="43.34461644520634" lon="11.954385591532791"><ele>267.0</ele><time>2026-04-19T10:31:43Z</time></trkpt><trkpt lat="43.34465844144889" lon="11.954548767419066"><ele>267.3333333333333</ele><time>2026-04-19T10:31:45Z</time></trkpt><trkpt lat="43.344676824988355" lon="11.954633345442277"><ele>267.6666666666667</ele><time>2026-04-19T10:31:46Z</time></trkpt><trkpt lat="43.34469544723057" lon="11.954718578357312"><ele>268.0</ele><time>2026-04-19T10:31:47Z</time></trkpt><trkpt lat="43.34473352958944" lon="11.954888677842611"><ele>268.33333333333337</ele><time>2026-04-19T10:31:49Z</time></trkpt><trkpt lat="43.34475383046753" lon="11.95497133117246"><ele>268.6666666666667</ele><time>2026-04-19T10:31:50Z</time></trkpt><trkpt lat="43.344778004211705" lon="11.955051857413824"><ele>269.0</ele><time>2026-04-19T10:31:51Z</time></trkpt><trkpt lat="43.34479854092374" lon="11.955135867688712"><ele>269.0</ele><time>2026-04-19T10:31:52Z</time></trkpt><trkpt lat="43.3448177497211" lon="11.955220374066608"><ele>269.0</ele><time>2026-04-19T10:31:53Z</time></trkpt><trkpt lat="43.344861175041586" lon="11.955381916987514"><ele>269.0</ele><time>2026-04-19T10:31:55Z</time></trkpt><trkpt lat="43.34488636151343" lon="11.955465174133728"><ele>269.0</ele><time>2026-04-19T10:31:56Z</time></trkpt><trkpt lat="43.34490913165478" lon="11.955546073748936"><ele>269.0</ele><time>2026-04-19T10:31:57Z</time></trkpt><trkpt lat="43.344953718474414" lon="11.955702902733844"><ele>269.0</ele><time>2026-04-19T10:31:59Z</time></trkpt><trkpt lat="43.3449739179926" lon="11.955785084723335"><ele>269.2</ele><time>2026-04-19T10:32:00Z</time></trkpt><trkpt lat="43.345012369602" lon="11.955943167829066"><ele>269.4</ele><time>2026-04-19T10:32:02Z</time></trkpt><trkpt lat="43.34504878201519" lon="11.95610427441816"><ele>269.6</ele><time>2026-04-19T10:32:04Z</time></trkpt><trkpt lat="43.34506122111947" lon="11.956189648338105"><ele>269.8</ele><time>2026-04-19T10:32:05Z</time></trkpt><trkpt lat="43.34510641920065" lon="11.956351926453063"><ele>270.0</ele><time>2026-04-19T10:32:07Z</time></trkpt><trkpt lat="43.345146825251256" lon="11.956508412925785"><ele>270.0</ele><time>2026-04-19T10:32:09Z</time></trkpt><trkpt lat="43.34518712443379" lon="11.95666756223419"><ele>270.0</ele><time>2026-04-19T10:32:11Z</time></trkpt><trkpt lat="43.34522827087974" lon="11.956825873267972"><ele>270.0</ele><time>2026-04-19T10:32:13Z</time></trkpt><trkpt lat="43.34526206105104" lon="11.956985410575623"><ele>270.0</ele><time>2026-04-19T10:32:15Z</time></trkpt><trkpt lat="43.34529644889868" lon="11.95714081556308"><ele>270.0</ele><time>2026-04-19T10:32:17Z</time></trkpt><trkpt lat="43.345331651189404" lon="11.957298409760469"><ele>270.0</ele><time>2026-04-19T10:32:19Z</time></trkpt><trkpt lat="43.3453667783318" lon="11.957451632540256"><ele>270.0</ele><time>2026-04-19T10:32:21Z</time></trkpt><trkpt lat="43.345408941502875" lon="11.957609205815901"><ele>270.0</ele><time>2026-04-19T10:32:23Z</time></trkpt><trkpt lat="43.34545260209615" lon="11.957760711223763"><ele>270.0</ele><time>2026-04-19T10:32:25Z</time></trkpt><trkpt lat="43.34548987252171" lon="11.957911082783209"><ele>270.0</ele><time>2026-04-19T10:32:27Z</time></trkpt><trkpt lat="43.34552319117565" lon="11.958061368359328"><ele>270.0</ele><time>2026-04-19T10:32:29.001Z</time></trkpt><trkpt lat="43.3455651856583" lon="11.958210996102203"><ele>270.0</ele><time>2026-04-19T10:32:31.001Z</time></trkpt><trkpt lat="43.34559772760761" lon="11.958358013876309"><ele>270.0</ele><time>2026-04-19T10:32:33.001Z</time></trkpt><trkpt lat="43.34563808021894" lon="11.958505705134858"><ele>270.0</ele><time>2026-04-19T10:32:35.001Z</time></trkpt><trkpt lat="43.34567536475581" lon="11.95864695285849"><ele>270.0</ele><time>2026-04-19T10:32:37.001Z</time></trkpt><trkpt lat="43.34571390141633" lon="11.95879673149914"><ele>270.0</ele><time>2026-04-19T10:32:39.001Z</time></trkpt><trkpt lat="43.34574846388778" lon="11.95894535934932"><ele>270.0</ele><time>2026-04-19T10:32:41.001Z</time></trkpt><trkpt lat="43.345787645238474" lon="11.959092058962293"><ele>270.0</ele><time>2026-04-19T10:32:43.001Z</time></trkpt><trkpt lat="43.34582561214247" lon="11.959236294063196"><ele>270.0</ele><time>2026-04-19T10:32:45.001Z</time></trkpt><trkpt lat="43.34586219427595" lon="11.95937214313133"><ele>270.0</ele><time>2026-04-19T10:32:47.001Z</time></trkpt><trkpt lat="43.345902616868116" lon="11.959507507825117"><ele>270.0</ele><time>2026-04-19T10:32:49.001Z</time></trkpt><trkpt lat="43.3459299542604" lon="11.959632325027407"><ele>270.1666666666667</ele><time>2026-04-19T10:32:51.001Z</time></trkpt><trkpt lat="43.34596547945041" lon="11.959750693434216"><ele>270.3333333333333</ele><time>2026-04-19T10:32:53.001Z</time></trkpt><trkpt lat="43.346012301829205" lon="11.959855844883512"><ele>270.5</ele><time>2026-04-19T10:32:55.001Z</time></trkpt><trkpt lat="43.346050290363394" lon="11.959949514153045"><ele>270.66666666666663</ele><time>2026-04-19T10:32:57.001Z</time></trkpt><trkpt lat="43.346072619926844" lon="11.960042159734773"><ele>270.8333333333333</ele><time>2026-04-19T10:33:01.001Z</time></trkpt><trkpt lat="43.346087881788435" lon="11.960140384225825"><ele>271.0</ele><time>2026-04-19T10:33:06.001Z</time></trkpt><trkpt lat="43.34608369606333" lon="11.960238657048928"><ele>271.2857142857143</ele><time>2026-04-19T10:33:11.001Z</time></trkpt><trkpt lat="43.3460585790419" lon="11.96032015941818"><ele>271.57142857142856</ele><time>2026-04-19T10:33:15.001Z</time></trkpt><trkpt lat="43.34598726944831" lon="11.960317177817766"><ele>271.8571428571429</ele><time>2026-04-19T10:33:18.001Z</time></trkpt><trkpt lat="43.345921053465865" lon="11.960315847282576"><ele>272.1428571428571</ele><time>2026-04-19T10:33:21.001Z</time></trkpt><trkpt lat="43.345858286000606" lon="11.960347227493308"><ele>272.42857142857144</ele><time>2026-04-19T10:33:24.001Z</time></trkpt><trkpt lat="43.34583432336755" lon="11.960451896386154"><ele>272.7142857142857</ele><time>2026-04-19T10:33:27.001Z</time></trkpt><trkpt lat="43.345874074752146" lon="11.960532984248102"><ele>273.0</ele><time>2026-04-19T10:33:30.002Z</time></trkpt><trkpt lat="43.34592554333601" lon="11.960616752756456"><ele>273.0</ele><time>2026-04-19T10:33:33.002Z</time></trkpt><trkpt lat="43.345969594064016" lon="11.960704661923803"><ele>273.0</ele><time>2026-04-19T10:33:36.002Z</time></trkpt><trkpt lat="43.34600762901479" lon="11.960777870342541"><ele>273.0</ele><time>2026-04-19T10:33:38.002Z</time></trkpt><trkpt lat="43.34604934184921" lon="11.96085838078909"><ele>273.0</ele><time>2026-04-19T10:33:40Z</time></trkpt><trkpt lat="43.34609393016853" lon="11.96093895166932"><ele>273.0</ele><time>2026-04-19T10:33:42Z</time></trkpt><trkpt lat="43.34614001813907" lon="11.961023856184685"><ele>273.0</ele><time>2026-04-19T10:33:44Z</time></trkpt><trkpt lat="43.346186743321525" lon="11.961115270148788"><ele>273.0</ele><time>2026-04-19T10:33:46Z</time></trkpt><trkpt lat="43.34623717462853" lon="11.961206735548675"><ele>273.0</ele><time>2026-04-19T10:33:48Z</time></trkpt><trkpt lat="43.34628983225379" lon="11.961296820389448"><ele>273.0</ele><time>2026-04-19T10:33:50Z</time></trkpt><trkpt lat="43.34633798203615" lon="11.9613931333893"><ele>273.0</ele><time>2026-04-19T10:33:52Z</time></trkpt><trkpt lat="43.3463886919104" lon="11.961487344173015"><ele>273.0</ele><time>2026-04-19T10:33:54Z</time></trkpt><trkpt lat="43.346441936831035" lon="11.961582734717036"><ele>273.0</ele><time>2026-04-19T10:33:56Z</time></trkpt><trkpt lat="43.346495555912455" lon="11.961684765894837"><ele>273.0</ele><time>2026-04-19T10:33:58Z</time></trkpt><trkpt lat="43.34655033320088" lon="11.961789325377852"><ele>272.8</ele><time>2026-04-19T10:34:00Z</time></trkpt><trkpt lat="43.34660301054468" lon="11.961890111672462"><ele>272.6</ele><time>2026-04-19T10:34:02Z</time></trkpt><trkpt lat="43.34665294961182" lon="11.96199377544063"><ele>272.4</ele><time>2026-04-19T10:34:04Z</time></trkpt><trkpt lat="43.34670366541072" lon="11.962106150593007"><ele>272.2</ele><time>2026-04-19T10:34:06Z</time></trkpt><trkpt lat="43.34675664480264" lon="11.96221867379915"><ele>272.0</ele><time>2026-04-19T10:34:08Z</time></trkpt><trkpt lat="43.34680968018702" lon="11.962336853782878"><ele>272.0</ele><time>2026-04-19T10:34:10Z</time></trkpt><trkpt lat="43.34686265307456" lon="11.962450485970365"><ele>272.0</ele><time>2026-04-19T10:34:12Z</time></trkpt><trkpt lat="43.346913829686756" lon="11.962565985708382"><ele>272.0</ele><time>2026-04-19T10:34:14Z</time></trkpt><trkpt lat="43.34697230697678" lon="11.962682999730285"><ele>272.0</ele><time>2026-04-19T10:34:16Z</time></trkpt><trkpt lat="43.34702568145651" lon="11.962798214500781"><ele>272.0</ele><time>2026-04-19T10:34:18Z</time></trkpt><trkpt lat="43.34708034383841" lon="11.962916516961227"><ele>271.8</ele><time>2026-04-19T10:34:20Z</time></trkpt><trkpt lat="43.34713757396009" lon="11.96304183256082"><ele>271.6</ele><time>2026-04-19T10:34:22.001Z</time></trkpt><trkpt lat="43.34719793949698" lon="11.96317150165303"><ele>271.40000000000003</ele><time>2026-04-19T10:34:24.001Z</time></trkpt><trkpt lat="43.34725856957542" lon="11.963303383172692"><ele>271.2</ele><time>2026-04-19T10:34:26.001Z</time></trkpt><trkpt lat="43.347316406218646" lon="11.963434926283513"><ele>271.0</ele><time>2026-04-19T10:34:28.001Z</time></trkpt><trkpt lat="43.34737442771585" lon="11.963559436979079"><ele>271.6</ele><time>2026-04-19T10:34:30.001Z</time></trkpt><trkpt lat="43.34743438003513" lon="11.963679176628574"><ele>272.20000000000005</ele><time>2026-04-19T10:34:32.001Z</time></trkpt><trkpt lat="43.34748814028531" lon="11.963799365505315"><ele>272.79999999999995</ele><time>2026-04-19T10:34:34.001Z</time></trkpt><trkpt lat="43.3475463693934" lon="11.963917591373509"><ele>273.4</ele><time>2026-04-19T10:34:36.001Z</time></trkpt><trkpt lat="43.347603589260196" lon="11.96403498268309"><ele>274.0</ele><time>2026-04-19T10:34:38.001Z</time></trkpt><trkpt lat="43.347662218803826" lon="11.964145715082768"><ele>274.0</ele><time>2026-04-19T10:34:40.001Z</time></trkpt><trkpt lat="43.347713782847656" lon="11.964263078968893"><ele>274.0</ele><time>2026-04-19T10:34:42.001Z</time></trkpt><trkpt lat="43.34777315606539" lon="11.96437390172274"><ele>274.0</ele><time>2026-04-19T10:34:44.001Z</time></trkpt><trkpt lat="43.34783557315376" lon="11.964480850457432"><ele>274.0</ele><time>2026-04-19T10:34:46.001Z</time></trkpt><trkpt lat="43.34789402674906" lon="11.964587643575124"><ele>274.0</ele><time>2026-04-19T10:34:48.001Z</time></trkpt><trkpt lat="43.347959431171375" lon="11.964691372800402"><ele>274.0</ele><time>2026-04-19T10:34:50.001Z</time></trkpt><trkpt lat="43.348021853384004" lon="11.964803192980563"><ele>274.0</ele><time>2026-04-19T10:34:52.001Z</time></trkpt><trkpt lat="43.348085653601174" lon="11.964917377959312"><ele>274.0</ele><time>2026-04-19T10:34:54.001Z</time></trkpt><trkpt lat="43.348153186374496" lon="11.965036983115365"><ele>274.0</ele><time>2026-04-19T10:34:56.001Z</time></trkpt><trkpt lat="43.34821616269515" lon="11.965155801548972"><ele>274.0</ele><time>2026-04-19T10:34:58.001Z</time></trkpt><trkpt lat="43.34827820293537" lon="11.965278641654571"><ele>274.4</ele><time>2026-04-19T10:35:00.001Z</time></trkpt><trkpt lat="43.348338218522734" lon="11.965401879498557"><ele>274.79999999999995</ele><time>2026-04-19T10:35:02.001Z</time></trkpt><trkpt lat="43.34839778721177" lon="11.965535383429176"><ele>275.20000000000005</ele><time>2026-04-19T10:35:04.001Z</time></trkpt><trkpt lat="43.348458343210574" lon="11.96566722284248"><ele>275.6</ele><time>2026-04-19T10:35:06.001Z</time></trkpt><trkpt lat="43.34851496125447" lon="11.965800112926425"><ele>276.0</ele><time>2026-04-19T10:35:08.001Z</time></trkpt><trkpt lat="43.34857738907773" lon="11.965941453254528"><ele>276.0</ele><time>2026-04-19T10:35:10.001Z</time></trkpt><trkpt lat="43.34863911166411" lon="11.966082268800086"><ele>276.0</ele><time>2026-04-19T10:35:12.001Z</time></trkpt><trkpt lat="43.3487017539146" lon="11.966218825719155"><ele>276.0</ele><time>2026-04-19T10:35:14.001Z</time></trkpt><trkpt lat="43.34876031220211" lon="11.966355907746687"><ele>276.0</ele><time>2026-04-19T10:35:16.001Z</time></trkpt><trkpt lat="43.348816734148635" lon="11.966485023219292"><ele>276.0</ele><time>2026-04-19T10:35:18.001Z</time></trkpt><trkpt lat="43.348873681816826" lon="11.96661504761883"><ele>276.0</ele><time>2026-04-19T10:35:20.001Z</time></trkpt><trkpt lat="43.34893154595358" lon="11.966744998306714"><ele>276.0</ele><time>2026-04-19T10:35:22.001Z</time></trkpt><trkpt lat="43.348987657943105" lon="11.966870523020596"><ele>276.0</ele><time>2026-04-19T10:35:24.002Z</time></trkpt><trkpt lat="43.349038413340516" lon="11.966992134721568"><ele>276.0</ele><time>2026-04-19T10:35:26.002Z</time></trkpt><trkpt lat="43.34909196929905" lon="11.967111314906699"><ele>276.3333333333333</ele><time>2026-04-19T10:35:28.002Z</time></trkpt><trkpt lat="43.34914086865133" lon="11.967226976238328"><ele>276.6666666666667</ele><time>2026-04-19T10:35:30.002Z</time></trkpt><trkpt lat="43.34918662662447" lon="11.967316935550578"><ele>277.0</ele><time>2026-04-19T10:35:32.002Z</time></trkpt><trkpt lat="43.34922819154971" lon="11.967385899867773"><ele>277.33333333333337</ele><time>2026-04-19T10:35:34.002Z</time></trkpt><trkpt lat="43.34926476343718" lon="11.967505346748526"><ele>277.6666666666667</ele><time>2026-04-19T10:35:37.002Z</time></trkpt><trkpt lat="43.349296891673625" lon="11.967603263182719"><ele>278.0</ele><time>2026-04-19T10:35:39.002Z</time></trkpt><trkpt lat="43.34932782817955" lon="11.967711728990174"><ele>278.0</ele><time>2026-04-19T10:35:41.002Z</time></trkpt><trkpt lat="43.34934317138355" lon="11.967834430083943"><ele>278.0</ele><time>2026-04-19T10:35:43.002Z</time></trkpt><trkpt lat="43.34937913386426" lon="11.96802496827567"><ele>278.0</ele><time>2026-04-19T10:35:46Z</time></trkpt><trkpt lat="43.34940098619293" lon="11.968149609241806"><ele>278.0</ele><time>2026-04-19T10:35:48Z</time></trkpt><trkpt lat="43.349419150504936" lon="11.968281868452301"><ele>278.0</ele><time>2026-04-19T10:35:50Z</time></trkpt><trkpt lat="43.34943741224437" lon="11.96841950371461"><ele>277.8</ele><time>2026-04-19T10:35:52Z</time></trkpt><trkpt lat="43.34944794219174" lon="11.968554341226119"><ele>277.6</ele><time>2026-04-19T10:35:54Z</time></trkpt><trkpt lat="43.34947042992691" lon="11.968687174896099"><ele>277.4</ele><time>2026-04-19T10:35:56Z</time></trkpt><trkpt lat="43.34949383476639" lon="11.968811308382614"><ele>277.2</ele><time>2026-04-19T10:35:58Z</time></trkpt><trkpt lat="43.3495045960436" lon="11.968941760414454"><ele>277.0</ele><time>2026-04-19T10:36:00Z</time></trkpt><trkpt lat="43.34952188712834" lon="11.96906998805742"><ele>277.2</ele><time>2026-04-19T10:36:02Z</time></trkpt><trkpt lat="43.34954280381893" lon="11.96919756459777"><ele>277.4</ele><time>2026-04-19T10:36:04Z</time></trkpt><trkpt lat="43.34956051516087" lon="11.969333390412597"><ele>277.6</ele><time>2026-04-19T10:36:06Z</time></trkpt><trkpt lat="43.34957584402792" lon="11.969476086228141"><ele>277.8</ele><time>2026-04-19T10:36:08Z</time></trkpt><trkpt lat="43.349596911029494" lon="11.969615325668403"><ele>278.0</ele><time>2026-04-19T10:36:10Z</time></trkpt><trkpt lat="43.349617186255124" lon="11.96975118569812"><ele>278.0</ele><time>2026-04-19T10:36:12Z</time></trkpt><trkpt lat="43.3496309176477" lon="11.969890893463702"><ele>278.0</ele><time>2026-04-19T10:36:14Z</time></trkpt><trkpt lat="43.349647444727275" lon="11.97003148151483"><ele>278.0</ele><time>2026-04-19T10:36:16Z</time></trkpt><trkpt lat="43.34965723501894" lon="11.970172774122416"><ele>278.0</ele><time>2026-04-19T10:36:18Z</time></trkpt><trkpt lat="43.34966127220124" lon="11.970312861600844"><ele>278.0</ele><time>2026-04-19T10:36:20Z</time></trkpt><trkpt lat="43.34966713555892" lon="11.970455906479673"><ele>277.8</ele><time>2026-04-19T10:36:22.001Z</time></trkpt><trkpt lat="43.3496704404211" lon="11.970602708281598"><ele>277.6</ele><time>2026-04-19T10:36:24.001Z</time></trkpt><trkpt lat="43.34967498874265" lon="11.970742230922454"><ele>277.4</ele><time>2026-04-19T10:36:26.001Z</time></trkpt><trkpt lat="43.34967909337253" lon="11.970880757854314"><ele>277.2</ele><time>2026-04-19T10:36:28.001Z</time></trkpt><trkpt lat="43.34968521401114" lon="11.971027304838826"><ele>277.0</ele><time>2026-04-19T10:36:30.001Z</time></trkpt><trkpt lat="43.34968988704691" lon="11.971169792012489"><ele>277.4</ele><time>2026-04-19T10:36:32.001Z</time></trkpt><trkpt lat="43.34969548778364" lon="11.971313958907318"><ele>277.79999999999995</ele><time>2026-04-19T10:36:34.001Z</time></trkpt><trkpt lat="43.349695948281585" lon="11.97145816137438"><ele>278.2</ele><time>2026-04-19T10:36:36.001Z</time></trkpt><trkpt lat="43.34970153938832" lon="11.971606034711325"><ele>278.59999999999997</ele><time>2026-04-19T10:36:38.001Z</time></trkpt><trkpt lat="43.34970517655598" lon="11.971754279214414"><ele>279.0</ele><time>2026-04-19T10:36:40.001Z</time></trkpt><trkpt lat="43.34971065666148" lon="11.971902769270816"><ele>279.4</ele><time>2026-04-19T10:36:42.001Z</time></trkpt><trkpt lat="43.349714905029465" lon="11.972048061351153"><ele>279.79999999999995</ele><time>2026-04-19T10:36:44.001Z</time></trkpt><trkpt lat="43.34971705673556" lon="11.972196291594514"><ele>280.20000000000005</ele><time>2026-04-19T10:36:46.001Z</time></trkpt><trkpt lat="43.34972376626362" lon="11.972347413146803"><ele>280.6</ele><time>2026-04-19T10:36:48.001Z</time></trkpt><trkpt lat="43.34972847288984" lon="11.972499152235516"><ele>281.0</ele><time>2026-04-19T10:36:50.001Z</time></trkpt><trkpt lat="43.349732408303126" lon="11.972648310792595"><ele>281.0</ele><time>2026-04-19T10:36:52.001Z</time></trkpt><trkpt lat="43.34973575298259" lon="11.972804559739172"><ele>281.0</ele><time>2026-04-19T10:36:54.001Z</time></trkpt><trkpt lat="43.349737909419574" lon="11.972951526088718"><ele>281.0</ele><time>2026-04-19T10:36:56.001Z</time></trkpt><trkpt lat="43.349740657376884" lon="11.973096297388292"><ele>281.0</ele><time>2026-04-19T10:36:58.001Z</time></trkpt><trkpt lat="43.34974330802507" lon="11.97323938542998"><ele>281.0</ele><time>2026-04-19T10:37:00.001Z</time></trkpt><trkpt lat="43.34973857928211" lon="11.973381163816986"><ele>281.2</ele><time>2026-04-19T10:37:02.001Z</time></trkpt><trkpt lat="43.349734102417386" lon="11.973525396890906"><ele>281.40000000000003</ele><time>2026-04-19T10:37:04.001Z</time></trkpt><trkpt lat="43.34973038506606" lon="11.97366435020332"><ele>281.6</ele><time>2026-04-19T10:37:06.001Z</time></trkpt><trkpt lat="43.3497291183649" lon="11.973804578315605"><ele>281.8</ele><time>2026-04-19T10:37:08.001Z</time></trkpt><trkpt lat="43.349727893178056" lon="11.973940066926936"><ele>282.0</ele><time>2026-04-19T10:37:10.001Z</time></trkpt><trkpt lat="43.34972658187716" lon="11.97407872759787"><ele>282.6</ele><time>2026-04-19T10:37:12.001Z</time></trkpt><trkpt lat="43.34972472444589" lon="11.974223006783983"><ele>283.2</ele><time>2026-04-19T10:37:14.001Z</time></trkpt><trkpt lat="43.34972286184074" lon="11.974376392754095"><ele>283.8</ele><time>2026-04-19T10:37:16.001Z</time></trkpt><trkpt lat="43.349720701119324" lon="11.974528132917671"><ele>284.4</ele><time>2026-04-19T10:37:18.001Z</time></trkpt><trkpt lat="43.349717889737924" lon="11.974678196236798"><ele>285.0</ele><time>2026-04-19T10:37:20.001Z</time></trkpt><trkpt lat="43.34971999830172" lon="11.974825818643454"><ele>285.0</ele><time>2026-04-19T10:37:22.001Z</time></trkpt><trkpt lat="43.34973590875979" lon="11.97498465386234"><ele>285.0</ele><time>2026-04-19T10:37:24.001Z</time></trkpt><trkpt lat="43.349740640675726" lon="11.975143883911164"><ele>285.0</ele><time>2026-04-19T10:37:26.001Z</time></trkpt><trkpt lat="43.34974199120218" lon="11.975298112850169"><ele>285.0</ele><time>2026-04-19T10:37:28.002Z</time></trkpt><trkpt lat="43.34973361674157" lon="11.975461937156783"><ele>285.0</ele><time>2026-04-19T10:37:30.002Z</time></trkpt><trkpt lat="43.34974818411012" lon="11.975616156387423"><ele>285.0</ele><time>2026-04-19T10:37:32.002Z</time></trkpt><trkpt lat="43.34976267098988" lon="11.975780396630803"><ele>285.0</ele><time>2026-04-19T10:37:34.002Z</time></trkpt><trkpt lat="43.34977791017027" lon="11.975877135962513"><ele>285.0</ele><time>2026-04-19T10:37:35.002Z</time></trkpt><trkpt lat="43.34980510790054" lon="11.975974716394589"><ele>285.0</ele><time>2026-04-19T10:37:36.002Z</time></trkpt><trkpt lat="43.3498566459842" lon="11.976103349666584"><ele>284.6</ele><time>2026-04-19T10:37:38.002Z</time></trkpt><trkpt lat="43.349882687276896" lon="11.9762271525959"><ele>284.2</ele><time>2026-04-19T10:37:40.002Z</time></trkpt><trkpt lat="43.34991230094308" lon="11.976354610894095"><ele>283.8</ele><time>2026-04-19T10:37:42.002Z</time></trkpt><trkpt lat="43.34993959964961" lon="11.976485392431737"><ele>283.4</ele><time>2026-04-19T10:37:44.002Z</time></trkpt><trkpt lat="43.34996833709112" lon="11.97661216093012"><ele>283.0</ele><time>2026-04-19T10:37:46.002Z</time></trkpt><trkpt lat="43.3499986903471" lon="11.976749868903697"><ele>282.8</ele><time>2026-04-19T10:37:48.002Z</time></trkpt><trkpt lat="43.35002701933123" lon="11.976889893155272"><ele>282.6</ele><time>2026-04-19T10:37:50.002Z</time></trkpt><trkpt lat="43.35005999010055" lon="11.977035600071734"><ele>282.4</ele><time>2026-04-19T10:37:52Z</time></trkpt><trkpt lat="43.35008746324484" lon="11.97718176385878"><ele>282.2</ele><time>2026-04-19T10:37:54Z</time></trkpt><trkpt lat="43.35011742782644" lon="11.977316829093523"><ele>282.0</ele><time>2026-04-19T10:37:56Z</time></trkpt><trkpt lat="43.3501495573705" lon="11.977455418403933"><ele>282.2</ele><time>2026-04-19T10:37:58Z</time></trkpt><trkpt lat="43.35017757933964" lon="11.977586107066255"><ele>282.4</ele><time>2026-04-19T10:38:00Z</time></trkpt><trkpt lat="43.350209917268884" lon="11.977721453896464"><ele>282.6</ele><time>2026-04-19T10:38:02Z</time></trkpt><trkpt lat="43.35023999552789" lon="11.97785408720352"><ele>282.8</ele><time>2026-04-19T10:38:04Z</time></trkpt><trkpt lat="43.3502617081147" lon="11.97799045521091"><ele>283.0</ele><time>2026-04-19T10:38:06Z</time></trkpt><trkpt lat="43.350282829771" lon="11.978132060463558"><ele>283.0</ele><time>2026-04-19T10:38:08Z</time></trkpt><trkpt lat="43.35029292470448" lon="11.978278248059487"><ele>283.0</ele><time>2026-04-19T10:38:10Z</time></trkpt><trkpt lat="43.35030162560701" lon="11.978431761632292"><ele>283.0</ele><time>2026-04-19T10:38:12Z</time></trkpt><trkpt lat="43.35031921252856" lon="11.978584198117229"><ele>283.0</ele><time>2026-04-19T10:38:14Z</time></trkpt><trkpt lat="43.35032925570673" lon="11.978736590086926"><ele>283.0</ele><time>2026-04-19T10:38:16Z</time></trkpt><trkpt lat="43.350344235588686" lon="11.978886954338869"><ele>283.4</ele><time>2026-04-19T10:38:18Z</time></trkpt><trkpt lat="43.350356814676246" lon="11.979033866236401"><ele>283.8</ele><time>2026-04-19T10:38:20Z</time></trkpt><trkpt lat="43.35036883909617" lon="11.979184065911511"><ele>284.2</ele><time>2026-04-19T10:38:22Z</time></trkpt><trkpt lat="43.35038186238326" lon="11.979329494969022"><ele>284.6</ele><time>2026-04-19T10:38:24Z</time></trkpt><trkpt lat="43.35039842868533" lon="11.979478038271965"><ele>285.0</ele><time>2026-04-19T10:38:26Z</time></trkpt><trkpt lat="43.350409346210796" lon="11.979624980179098"><ele>285.0</ele><time>2026-04-19T10:38:28Z</time></trkpt><trkpt lat="43.35042718589092" lon="11.97977177049723"><ele>285.0</ele><time>2026-04-19T10:38:30Z</time></trkpt><trkpt lat="43.35044137039137" lon="11.97991868368233"><ele>285.0</ele><time>2026-04-19T10:38:32.001Z</time></trkpt><trkpt lat="43.35045645169089" lon="11.980068177512903"><ele>285.0</ele><time>2026-04-19T10:38:34.001Z</time></trkpt><trkpt lat="43.35047931131577" lon="11.980211800502634"><ele>285.0</ele><time>2026-04-19T10:38:36.001Z</time></trkpt><trkpt lat="43.350503174904716" lon="11.980358980707429"><ele>285.0</ele><time>2026-04-19T10:38:38.001Z</time></trkpt><trkpt lat="43.350518529383166" lon="11.980515360536094"><ele>285.0</ele><time>2026-04-19T10:38:40.001Z</time></trkpt><trkpt lat="43.35053126287653" lon="11.980601899348876"><ele>285.0</ele><time>2026-04-19T10:38:41.001Z</time></trkpt><trkpt lat="43.350551468524465" lon="11.980692692898742"><ele>285.0</ele><time>2026-04-19T10:38:42.001Z</time></trkpt><trkpt lat="43.3505979144147" lon="11.98080557176676"><ele>285.0</ele><time>2026-04-19T10:38:44.001Z</time></trkpt><trkpt lat="43.35062417644708" lon="11.980920323150615"><ele>285.0</ele><time>2026-04-19T10:38:47.001Z</time></trkpt><trkpt lat="43.350652381020964" lon="11.981009838630861"><ele>285.3333333333333</ele><time>2026-04-19T10:38:49.001Z</time></trkpt><trkpt lat="43.35067840940508" lon="11.981108160463059"><ele>285.6666666666667</ele><time>2026-04-19T10:38:51.001Z</time></trkpt><trkpt lat="43.35070856896689" lon="11.981207397011762"><ele>286.0</ele><time>2026-04-19T10:38:53.001Z</time></trkpt><trkpt lat="43.350739655763824" lon="11.981312803806615"><ele>286.33333333333337</ele><time>2026-04-19T10:38:55.001Z</time></trkpt><trkpt lat="43.35077642279955" lon="11.98141504628981"><ele>286.6666666666667</ele><time>2026-04-19T10:38:57.001Z</time></trkpt><trkpt lat="43.35081478611552" lon="11.9815307234182"><ele>287.0</ele><time>2026-04-19T10:38:59.001Z</time></trkpt><trkpt lat="43.350851662546226" lon="11.981653933261331"><ele>287.2</ele><time>2026-04-19T10:39:01.001Z</time></trkpt><trkpt lat="43.35088993628679" lon="11.981787175782985"><ele>287.4</ele><time>2026-04-19T10:39:03.001Z</time></trkpt><trkpt lat="43.350932179031396" lon="11.981914074605886"><ele>287.6</ele><time>2026-04-19T10:39:05.001Z</time></trkpt><trkpt lat="43.35097308235146" lon="11.982045251788017"><ele>287.8</ele><time>2026-04-19T10:39:07.001Z</time></trkpt><trkpt lat="43.351018192562115" lon="11.982168135334092"><ele>288.0</ele><time>2026-04-19T10:39:09.001Z</time></trkpt><trkpt lat="43.35106776412273" lon="11.982292434474056"><ele>288.0</ele><time>2026-04-19T10:39:11.001Z</time></trkpt><trkpt lat="43.3511074009806" lon="11.982422306036014"><ele>288.0</ele><time>2026-04-19T10:39:13.001Z</time></trkpt><trkpt lat="43.35116497631993" lon="11.982551098243778"><ele>288.0</ele><time>2026-04-19T10:39:15.001Z</time></trkpt><trkpt lat="43.351210508294535" lon="11.982682565744497"><ele>288.0</ele><time>2026-04-19T10:39:17.001Z</time></trkpt><trkpt lat="43.35126140037755" lon="11.982805959464526"><ele>288.0</ele><time>2026-04-19T10:39:19.001Z</time></trkpt><trkpt lat="43.35130650210553" lon="11.982936990745124"><ele>288.2</ele><time>2026-04-19T10:39:21.001Z</time></trkpt><trkpt lat="43.35135677622459" lon="11.983063260835555"><ele>288.4</ele><time>2026-04-19T10:39:23.001Z</time></trkpt><trkpt lat="43.35140454572271" lon="11.983186403370995"><ele>288.59999999999997</ele><time>2026-04-19T10:39:25.001Z</time></trkpt><trkpt lat="43.35145053315888" lon="11.983309577879302"><ele>288.8</ele><time>2026-04-19T10:39:27.001Z</time></trkpt><trkpt lat="43.35149698939506" lon="11.983430649315233"><ele>289.0</ele><time>2026-04-19T10:39:29.001Z</time></trkpt><trkpt lat="43.35154259278599" lon="11.983554856441518"><ele>289.2</ele><time>2026-04-19T10:39:31.001Z</time></trkpt><trkpt lat="43.35158995493566" lon="11.983680823071735"><ele>289.4</ele><time>2026-04-19T10:39:33.001Z</time></trkpt><trkpt lat="43.35163547538719" lon="11.983801425410244"><ele>289.6</ele><time>2026-04-19T10:39:35.001Z</time></trkpt><trkpt lat="43.35167936799716" lon="11.98392128993183"><ele>289.8</ele><time>2026-04-19T10:39:37.002Z</time></trkpt><trkpt lat="43.351729710635475" lon="11.984049489204915"><ele>290.0</ele><time>2026-04-19T10:39:39.002Z</time></trkpt><trkpt lat="43.351777549521564" lon="11.984164603710367"><ele>290.2</ele><time>2026-04-19T10:39:41.002Z</time></trkpt><trkpt lat="43.351824737665254" lon="11.984282528178179"><ele>290.4</ele><time>2026-04-19T10:39:43.002Z</time></trkpt><trkpt lat="43.35187800836422" lon="11.984402519975019"><ele>290.6</ele><time>2026-04-19T10:39:45.002Z</time></trkpt><trkpt lat="43.351924981443084" lon="11.984515926037338"><ele>290.8</ele><time>2026-04-19T10:39:47.002Z</time></trkpt><trkpt lat="43.35197754489453" lon="11.984632922455521"><ele>291.0</ele><time>2026-04-19T10:39:49.002Z</time></trkpt><trkpt lat="43.35202529209813" lon="11.984755577217594"><ele>291.0</ele><time>2026-04-19T10:39:51.002Z</time></trkpt><trkpt lat="43.35207961260313" lon="11.984865929890022"><ele>291.0</ele><time>2026-04-19T10:39:53.002Z</time></trkpt><trkpt lat="43.35212729583879" lon="11.984977216484172"><ele>291.0</ele><time>2026-04-19T10:39:55.002Z</time></trkpt><trkpt lat="43.352170926791615" lon="11.985091943942003"><ele>291.0</ele><time>2026-04-19T10:39:57Z</time></trkpt><trkpt lat="43.35221561109616" lon="11.985204346113578"><ele>291.0</ele><time>2026-04-19T10:39:59Z</time></trkpt><trkpt lat="43.352260278763964" lon="11.985330782195414"><ele>291.2</ele><time>2026-04-19T10:40:01Z</time></trkpt><trkpt lat="43.35230468810745" lon="11.985440565789983"><ele>291.40000000000003</ele><time>2026-04-19T10:40:03Z</time></trkpt><trkpt lat="43.352358309699085" lon="11.985536073310104"><ele>291.6</ele><time>2026-04-19T10:40:05Z</time></trkpt><trkpt lat="43.35241046409172" lon="11.985642956468816"><ele>291.8</ele><time>2026-04-19T10:40:07Z</time></trkpt><trkpt lat="43.35245934844902" lon="11.985741168601391"><ele>292.0</ele><time>2026-04-19T10:40:09Z</time></trkpt><trkpt lat="43.352514178445155" lon="11.985849773182295"><ele>292.0</ele><time>2026-04-19T10:40:11Z</time></trkpt><trkpt lat="43.35256057702988" lon="11.985955627688282"><ele>292.0</ele><time>2026-04-19T10:40:13Z</time></trkpt><trkpt lat="43.35261556504181" lon="11.986064791764951"><ele>292.0</ele><time>2026-04-19T10:40:15Z</time></trkpt><trkpt lat="43.352661969162206" lon="11.986174591592755"><ele>292.0</ele><time>2026-04-19T10:40:17Z</time></trkpt><trkpt lat="43.35271617683963" lon="11.98628099485453"><ele>292.0</ele><time>2026-04-19T10:40:19Z</time></trkpt><trkpt lat="43.352760287849506" lon="11.986393693221919"><ele>292.0</ele><time>2026-04-19T10:40:21Z</time></trkpt><trkpt lat="43.35280956721395" lon="11.986498318748366"><ele>292.0</ele><time>2026-04-19T10:40:23Z</time></trkpt><trkpt lat="43.352848389085246" lon="11.98660435964517"><ele>292.0</ele><time>2026-04-19T10:40:25Z</time></trkpt><trkpt lat="43.35290041763204" lon="11.986707300757296"><ele>292.0</ele><time>2026-04-19T10:40:27Z</time></trkpt><trkpt lat="43.352953259268055" lon="11.986793330708446"><ele>292.0</ele><time>2026-04-19T10:40:29Z</time></trkpt><trkpt lat="43.352992716097475" lon="11.986873200386254"><ele>292.0</ele><time>2026-04-19T10:40:31Z</time></trkpt><trkpt lat="43.35303268624898" lon="11.986972426128434"><ele>292.3333333333333</ele><time>2026-04-19T10:40:34Z</time></trkpt><trkpt lat="43.35307044852107" lon="11.98707034839734"><ele>292.66666666666663</ele><time>2026-04-19T10:40:36Z</time></trkpt><trkpt lat="43.35311467921607" lon="11.987173518534826"><ele>293.0</ele><time>2026-04-19T10:40:38Z</time></trkpt><trkpt lat="43.35316174823038" lon="11.987279163598966"><ele>293.3333333333333</ele><time>2026-04-19T10:40:40Z</time></trkpt><trkpt lat="43.353209705495274" lon="11.987387080148185"><ele>293.6666666666667</ele><time>2026-04-19T10:40:42Z</time></trkpt><trkpt lat="43.35325818144927" lon="11.98749467275364"><ele>294.0</ele><time>2026-04-19T10:40:44.001Z</time></trkpt><trkpt lat="43.35330716868464" lon="11.98760603843507"><ele>294.0</ele><time>2026-04-19T10:40:46.001Z</time></trkpt><trkpt lat="43.35335467181925" lon="11.987713148287808"><ele>294.0</ele><time>2026-04-19T10:40:48.001Z</time></trkpt><trkpt lat="43.35339902076256" lon="11.987815466053137"><ele>294.0</ele><time>2026-04-19T10:40:50.001Z</time></trkpt><trkpt lat="43.353441297610004" lon="11.987920157920465"><ele>294.0</ele><time>2026-04-19T10:40:52.001Z</time></trkpt><trkpt lat="43.35348215443523" lon="11.988025399952386"><ele>294.0</ele><time>2026-04-19T10:40:54.001Z</time></trkpt><trkpt lat="43.35352675266321" lon="11.988128594767613"><ele>294.0</ele><time>2026-04-19T10:40:56.001Z</time></trkpt><trkpt lat="43.35356542140181" lon="11.988235147178738"><ele>294.0</ele><time>2026-04-19T10:40:58.001Z</time></trkpt><trkpt lat="43.353607706034" lon="11.988337175438364"><ele>294.0</ele><time>2026-04-19T10:41:00.001Z</time></trkpt><trkpt lat="43.353646447817376" lon="11.988441929477053"><ele>294.0</ele><time>2026-04-19T10:41:02.001Z</time></trkpt><trkpt lat="43.35368546004405" lon="11.988546560093447"><ele>294.0</ele><time>2026-04-19T10:41:04.001Z</time></trkpt><trkpt lat="43.35373014710022" lon="11.988650194802517"><ele>294.0</ele><time>2026-04-19T10:41:06.001Z</time></trkpt><trkpt lat="43.35377290356302" lon="11.988757942721916"><ele>294.0</ele><time>2026-04-19T10:41:08.001Z</time></trkpt><trkpt lat="43.35381481446773" lon="11.9888626285088"><ele>293.8333333333333</ele><time>2026-04-19T10:41:10.001Z</time></trkpt><trkpt lat="43.35385400773113" lon="11.988964363275498"><ele>293.6666666666667</ele><time>2026-04-19T10:41:12.001Z</time></trkpt><trkpt lat="43.35389175017448" lon="11.989069873339519"><ele>293.5</ele><time>2026-04-19T10:41:14.001Z</time></trkpt><trkpt lat="43.353934993617244" lon="11.989168948945624"><ele>293.33333333333337</ele><time>2026-04-19T10:41:16.001Z</time></trkpt><trkpt lat="43.353975715518274" lon="11.98927049799232"><ele>293.1666666666667</ele><time>2026-04-19T10:41:18.001Z</time></trkpt><trkpt lat="43.35402076342082" lon="11.989365233635327"><ele>293.0</ele><time>2026-04-19T10:41:20.001Z</time></trkpt><trkpt lat="43.354060757200926" lon="11.989470288223886"><ele>293.5</ele><time>2026-04-19T10:41:22.001Z</time></trkpt><trkpt lat="43.35409603627809" lon="11.98956333590404"><ele>294.0</ele><time>2026-04-19T10:41:24.001Z</time></trkpt><trkpt lat="43.35413849130548" lon="11.989661013985971"><ele>294.5</ele><time>2026-04-19T10:41:26.001Z</time></trkpt><trkpt lat="43.35417793747022" lon="11.989756298936832"><ele>295.0</ele><time>2026-04-19T10:41:28.001Z</time></trkpt><trkpt lat="43.35421944736946" lon="11.989855053404856"><ele>295.5</ele><time>2026-04-19T10:41:30.001Z</time></trkpt><trkpt lat="43.35425012265837" lon="11.98995137946853"><ele>296.0</ele><time>2026-04-19T10:41:32.001Z</time></trkpt><trkpt lat="43.35429677150114" lon="11.990043723183014"><ele>296.5</ele><time>2026-04-19T10:41:34.001Z</time></trkpt><trkpt lat="43.35433194050079" lon="11.990145263826472"><ele>297.0</ele><time>2026-04-19T10:41:36.001Z</time></trkpt><trkpt lat="43.3543731864279" lon="11.99024120783995"><ele>297.5</ele><time>2026-04-19T10:41:38.001Z</time></trkpt><trkpt lat="43.35441327909605" lon="11.990341234697155"><ele>298.0</ele><time>2026-04-19T10:41:40.001Z</time></trkpt><trkpt lat="43.354455168926535" lon="11.990435215141838"><ele>298.5</ele><time>2026-04-19T10:41:42.001Z</time></trkpt><trkpt lat="43.35449667659637" lon="11.99053079707919"><ele>299.0</ele><time>2026-04-19T10:41:44.001Z</time></trkpt><trkpt lat="43.35453272773167" lon="11.990623711603522"><ele>299.0</ele><time>2026-04-19T10:41:46.001Z</time></trkpt><trkpt lat="43.35457116343555" lon="11.9907189451194"><ele>299.0</ele><time>2026-04-19T10:41:48.002Z</time></trkpt><trkpt lat="43.35460562029288" lon="11.990796396202686"><ele>299.0</ele><time>2026-04-19T10:41:50.002Z</time></trkpt><trkpt lat="43.35464148065793" lon="11.99088607523753"><ele>299.0</ele><time>2026-04-19T10:41:52.002Z</time></trkpt><trkpt lat="43.35468106843536" lon="11.99098538377751"><ele>299.0</ele><time>2026-04-19T10:41:54.002Z</time></trkpt><trkpt lat="43.35472014028961" lon="11.99108494619678"><ele>299.0</ele><time>2026-04-19T10:41:56.002Z</time></trkpt><trkpt lat="43.35476151613029" lon="11.991186403346566"><ele>299.0</ele><time>2026-04-19T10:41:58.002Z</time></trkpt><trkpt lat="43.354803346739935" lon="11.991287093489957"><ele>299.0</ele><time>2026-04-19T10:42:00.002Z</time></trkpt><trkpt lat="43.3548450415402" lon="11.99138295674082"><ele>299.0</ele><time>2026-04-19T10:42:02.002Z</time></trkpt><trkpt lat="43.35488615416858" lon="11.991485063197368"><ele>299.0</ele><time>2026-04-19T10:42:04Z</time></trkpt><trkpt lat="43.35492306133121" lon="11.991580069863993"><ele>299.0</ele><time>2026-04-19T10:42:06Z</time></trkpt><trkpt lat="43.35496522647181" lon="11.991675140865247"><ele>299.0</ele><time>2026-04-19T10:42:08Z</time></trkpt><trkpt lat="43.35500000595805" lon="11.991772485067376"><ele>299.5</ele><time>2026-04-19T10:42:10Z</time></trkpt><trkpt lat="43.355037954984645" lon="11.991859773008692"><ele>300.0</ele><time>2026-04-19T10:42:12Z</time></trkpt><trkpt lat="43.355077265063485" lon="11.991947983331098"><ele>300.5</ele><time>2026-04-19T10:42:14Z</time></trkpt><trkpt lat="43.355157694137326" lon="11.991978988348897"><ele>301.0</ele><time>2026-04-19T10:42:15Z</time></trkpt><trkpt lat="43.35516807253803" lon="11.992072290984307"><ele>301.5</ele><time>2026-04-19T10:42:17Z</time></trkpt><trkpt lat="43.35518694393881" lon="11.99216684572053"><ele>302.0</ele><time>2026-04-19T10:42:19Z</time></trkpt><trkpt lat="43.35523219119358" lon="11.992259385389785"><ele>302.00000000000006</ele><time>2026-04-19T10:42:21Z</time></trkpt><trkpt lat="43.355249031896655" lon="11.992350652212586"><ele>302.0</ele><time>2026-04-19T10:42:23Z</time></trkpt><trkpt lat="43.35524971064975" lon="11.992449371758998"><ele>302.0</ele><time>2026-04-19T10:42:25Z</time></trkpt><trkpt lat="43.3552152205243" lon="11.992530130750316"><ele>302.0</ele><time>2026-04-19T10:42:27Z</time></trkpt><trkpt lat="43.3551909086869" lon="11.992614542415529"><ele>302.0</ele><time>2026-04-19T10:42:29Z</time></trkpt><trkpt lat="43.35517095287044" lon="11.992702562950715"><ele>302.00000000000006</ele><time>2026-04-19T10:42:31Z</time></trkpt><trkpt lat="43.35516110538707" lon="11.992801710208466"><ele>302.0</ele><time>2026-04-19T10:42:33Z</time></trkpt><trkpt lat="43.35515007814686" lon="11.992905350909885"><ele>302.28571428571433</ele><time>2026-04-19T10:42:35Z</time></trkpt><trkpt lat="43.35513948181031" lon="11.993011165466227"><ele>302.57142857142856</ele><time>2026-04-19T10:42:37Z</time></trkpt><trkpt lat="43.35512760445916" lon="11.993113995113038"><ele>302.8571428571429</ele><time>2026-04-19T10:42:39Z</time></trkpt><trkpt lat="43.35511265585534" lon="11.993213447110172"><ele>303.14285714285717</ele><time>2026-04-19T10:42:41Z</time></trkpt><trkpt lat="43.35509816399984" lon="11.993300571740658"><ele>303.42857142857144</ele><time>2026-04-19T10:42:43Z</time></trkpt><trkpt lat="43.35508574465298" lon="11.99339553091472"><ele>303.7142857142857</ele><time>2026-04-19T10:42:45Z</time></trkpt><trkpt lat="43.355059934391065" lon="11.993479109510153"><ele>304.0</ele><time>2026-04-19T10:42:47.001Z</time></trkpt><trkpt lat="43.35501938504216" lon="11.993564506721434"><ele>304.5</ele><time>2026-04-19T10:42:49.001Z</time></trkpt><trkpt lat="43.35495003474824" lon="11.993603485193837"><ele>305.0</ele><time>2026-04-19T10:42:51.001Z</time></trkpt><trkpt lat="43.354968599448604" lon="11.993751091782071"><ele>305.5</ele><time>2026-04-19T10:42:53.001Z</time></trkpt><trkpt lat="43.35496865426286" lon="11.993838135538613"><ele>306.0</ele><time>2026-04-19T10:42:55.001Z</time></trkpt><trkpt lat="43.35496140756253" lon="11.99395078840233"><ele>306.5</ele><time>2026-04-19T10:42:58.001Z</time></trkpt><trkpt lat="43.3549554761717" lon="11.994056552072859"><ele>307.0</ele><time>2026-04-19T10:43:02.001Z</time></trkpt><trkpt lat="43.35494907227318" lon="11.994146674288466"><ele>307.8333333333333</ele><time>2026-04-19T10:43:06.001Z</time></trkpt><trkpt lat="43.35493454885264" lon="11.994255242889967"><ele>308.66666666666663</ele><time>2026-04-19T10:43:10.001Z</time></trkpt><trkpt lat="43.35492582131796" lon="11.994352539854239"><ele>309.5</ele><time>2026-04-19T10:43:13.001Z</time></trkpt><trkpt lat="43.354926782042284" lon="11.994463105910421"><ele>310.3333333333333</ele><time>2026-04-19T10:43:16.001Z</time></trkpt><trkpt lat="43.35493092612374" lon="11.994581782843818"><ele>311.1666666666667</ele><time>2026-04-19T10:43:19.001Z</time></trkpt><trkpt lat="43.35494859790249" lon="11.994691678759997"><ele>312.0</ele><time>2026-04-19T10:43:22.001Z</time></trkpt><trkpt lat="43.35497676492296" lon="11.994787501760245"><ele>312.0</ele><time>2026-04-19T10:43:25.001Z</time></trkpt><trkpt lat="43.354993591325304" lon="11.994879024194745"><ele>312.0</ele><time>2026-04-19T10:43:28.001Z</time></trkpt><trkpt lat="43.355001247845706" lon="11.994976574165403"><ele>312.0</ele><time>2026-04-19T10:43:32.001Z</time></trkpt><trkpt lat="43.3549961233134" lon="11.995072136691162"><ele>312.0</ele><time>2026-04-19T10:43:38.001Z</time></trkpt><trkpt lat="43.35499223297089" lon="11.994949881227576"><ele>312.0</ele><time>2026-04-19T10:43:44.001Z</time></trkpt><trkpt lat="43.35496633222402" lon="11.99482787985757"><ele>312.0</ele><time>2026-04-19T10:43:46.001Z</time></trkpt><trkpt lat="43.35496017295182" lon="11.994741441200226"><ele>312.0</ele><time>2026-04-19T10:43:47.001Z</time></trkpt><trkpt lat="43.35494477573216" lon="11.994576964500931"><ele>312.0</ele><time>2026-04-19T10:43:49.001Z</time></trkpt><trkpt lat="43.35493255317715" lon="11.99448843283986"><ele>312.0</ele><time>2026-04-19T10:43:50.001Z</time></trkpt><trkpt lat="43.35493460452732" lon="11.994311743272824"><ele>312.0</ele><time>2026-04-19T10:43:52.002Z</time></trkpt><trkpt lat="43.354949905934106" lon="11.994165044765296"><ele>312.0</ele><time>2026-04-19T10:43:54.002Z</time></trkpt><trkpt lat="43.354963084605025" lon="11.994008111573196"><ele>311.0</ele><time>2026-04-19T10:43:56.002Z</time></trkpt><trkpt lat="43.354974620700474" lon="11.993857956581337"><ele>310.0</ele><time>2026-04-19T10:43:58.002Z</time></trkpt><trkpt lat="43.35497850192616" lon="11.993721531361722"><ele>309.0</ele><time>2026-04-19T10:44:00.002Z</time></trkpt><trkpt lat="43.35499059472809" lon="11.993627759849742"><ele>308.0</ele><time>2026-04-19T10:44:02.002Z</time></trkpt><trkpt lat="43.35499919917479" lon="11.993518653685628"><ele>307.0</ele><time>2026-04-19T10:44:05.002Z</time></trkpt><trkpt lat="43.354665532923796" lon="11.993398328551581"><ele>307.0</ele><time>2026-04-19T10:44:16Z</time></trkpt><trkpt lat="43.354754348839585" lon="11.993389166142679"><ele>307.0</ele><time>2026-04-19T10:44:21Z</time></trkpt><trkpt lat="43.35485923603404" lon="11.993407017162065"><ele>307.0</ele><time>2026-04-19T10:44:24Z</time></trkpt><trkpt lat="43.3549417044123" lon="11.993456682674335"><ele>307.0</ele><time>2026-04-19T10:44:27Z</time></trkpt><trkpt lat="43.35499318986524" lon="11.99357878870219"><ele>307.0</ele><time>2026-04-19T10:44:31Z</time></trkpt><trkpt lat="43.35496755417381" lon="11.99367909220885"><ele>307.0</ele><time>2026-04-19T10:44:34Z</time></trkpt><trkpt lat="43.354959256357546" lon="11.993776627582962"><ele>307.0</ele><time>2026-04-19T10:44:37Z</time></trkpt><trkpt lat="43.35495432555972" lon="11.993865003048551"><ele>307.0</ele><time>2026-04-19T10:44:40Z</time></trkpt><trkpt lat="43.35495389762922" lon="11.99397197484863"><ele>307.0</ele><time>2026-04-19T10:44:44Z</time></trkpt><trkpt lat="43.354947784211284" lon="11.994077863557862"><ele>307.0</ele><time>2026-04-19T10:44:48Z</time></trkpt><trkpt lat="43.35494411554892" lon="11.994196175573178"><ele>307.0</ele><time>2026-04-19T10:44:52Z</time></trkpt><trkpt lat="43.35492612512408" lon="11.99429499542717"><ele>307.8333333333333</ele><time>2026-04-19T10:44:55Z</time></trkpt><trkpt lat="43.35492256498437" lon="11.994406496993143"><ele>308.66666666666663</ele><time>2026-04-19T10:44:58.001Z</time></trkpt><trkpt lat="43.35492737137317" lon="11.994527273597136"><ele>309.5</ele><time>2026-04-19T10:45:01.001Z</time></trkpt><trkpt lat="43.35494017842266" lon="11.994646252213526"><ele>310.3333333333333</ele><time>2026-04-19T10:45:04.001Z</time></trkpt><trkpt lat="43.354964352476145" lon="11.994750032697947"><ele>311.1666666666667</ele><time>2026-04-19T10:45:07.001Z</time></trkpt><trkpt lat="43.35496979743454" lon="11.994863873444986"><ele>312.0</ele><time>2026-04-19T10:45:11.001Z</time></trkpt><trkpt lat="43.35499130800491" lon="11.994949695130895"><ele>313.2857142857143</ele><time>2026-04-19T10:45:14.001Z</time></trkpt><trkpt lat="43.355000286241854" lon="11.995043418875436"><ele>314.57142857142856</ele><time>2026-04-19T10:45:17.001Z</time></trkpt><trkpt lat="43.355005129059215" lon="11.995148615987285"><ele>315.85714285714283</ele><time>2026-04-19T10:45:21.001Z</time></trkpt><trkpt lat="43.35500638459574" lon="11.995247405661592"><ele>317.1428571428571</ele><time>2026-04-19T10:45:25.001Z</time></trkpt><trkpt lat="43.35500346995524" lon="11.995335755727051"><ele>318.42857142857144</ele><time>2026-04-19T10:45:29.001Z</time></trkpt><trkpt lat="43.355067597261886" lon="11.995401552349495"><ele>319.71428571428567</ele><time>2026-04-19T10:45:32.001Z</time></trkpt><trkpt lat="43.355123414688435" lon="11.995452004159878"><ele>321.0</ele><time>2026-04-19T10:45:35.001Z</time></trkpt><trkpt lat="43.35517300123355" lon="11.99550575651235"><ele>320.99999999999994</ele><time>2026-04-19T10:45:38.001Z</time></trkpt><trkpt lat="43.35523537596475" lon="11.99557438021883"><ele>321.0</ele><time>2026-04-19T10:45:42.001Z</time></trkpt><trkpt lat="43.3552888696092" lon="11.995639503308722"><ele>321.0</ele><time>2026-04-19T10:45:46.001Z</time></trkpt><trkpt lat="43.35533248048502" lon="11.9957043133096"><ele>321.0</ele><time>2026-04-19T10:45:49.001Z</time></trkpt><trkpt lat="43.35538266823568" lon="11.99579050199572"><ele>321.0</ele><time>2026-04-19T10:45:53.001Z</time></trkpt><trkpt lat="43.3554142492272" lon="11.995878846307738"><ele>320.99999999999994</ele><time>2026-04-19T10:45:57.001Z</time></trkpt><trkpt lat="43.355436272276975" lon="11.995971642795107"><ele>321.0</ele><time>2026-04-19T10:46:01.002Z</time></trkpt><trkpt lat="43.355466058311926" lon="11.996059968482182"><ele>321.99999999999994</ele><time>2026-04-19T10:46:05.002Z</time></trkpt><trkpt lat="43.3554900194657" lon="11.996154023073114"><ele>323.0</ele><time>2026-04-19T10:46:09.002Z</time></trkpt><trkpt lat="43.355494861870525" lon="11.99625700639948"><ele>324.0</ele><time>2026-04-19T10:46:13.002Z</time></trkpt><trkpt lat="43.355494621399664" lon="11.996354065153968"><ele>325.0</ele><time>2026-04-19T10:46:17Z</time></trkpt><trkpt lat="43.355497589142466" lon="11.996454110242922"><ele>326.0</ele><time>2026-04-19T10:46:21Z</time></trkpt><trkpt lat="43.35549649156067" lon="11.996553180184929"><ele>326.99999999999994</ele><time>2026-04-19T10:46:25Z</time></trkpt><trkpt lat="43.35549014667584" lon="11.996648786446857"><ele>328.0</ele><time>2026-04-19T10:46:29Z</time></trkpt><trkpt lat="43.35547501097" lon="11.996742732811173"><ele>328.1428571428571</ele><time>2026-04-19T10:46:33Z</time></trkpt><trkpt lat="43.3554490332307" lon="11.996831389719354"><ele>328.2857142857143</ele><time>2026-04-19T10:46:37Z</time></trkpt><trkpt lat="43.35542556947181" lon="11.996920931920068"><ele>328.42857142857144</ele><time>2026-04-19T10:46:41Z</time></trkpt><trkpt lat="43.355404555427235" lon="11.997013999902865"><ele>328.57142857142856</ele><time>2026-04-19T10:46:45Z</time></trkpt><trkpt lat="43.35536992108784" lon="11.997099023181676"><ele>328.7142857142857</ele><time>2026-04-19T10:46:49Z</time></trkpt><trkpt lat="43.3553190004271" lon="11.997165586869155"><ele>328.85714285714283</ele><time>2026-04-19T10:46:53Z</time></trkpt><trkpt lat="43.355275976507805" lon="11.997245762904859"><ele>329.0</ele><time>2026-04-19T10:46:57Z</time></trkpt><trkpt lat="43.355221037397584" lon="11.997329601615846"><ele>329.0</ele><time>2026-04-19T10:47:01Z</time></trkpt><trkpt lat="43.35517723285412" lon="11.997419070105275"><ele>329.0</ele><time>2026-04-19T10:47:05Z</time></trkpt><trkpt lat="43.35513641089696" lon="11.997498177747588"><ele>329.0</ele><time>2026-04-19T10:47:08.001Z</time></trkpt><trkpt lat="43.35510369199457" lon="11.99758217721456"><ele>329.0</ele><time>2026-04-19T10:47:11.001Z</time></trkpt><trkpt lat="43.35508303897881" lon="11.997670163889731"><ele>329.0</ele><time>2026-04-19T10:47:14.001Z</time></trkpt><trkpt lat="43.35505187062121" lon="11.997753630725613"><ele>329.0</ele><time>2026-04-19T10:47:17.001Z</time></trkpt><trkpt lat="43.35506049565028" lon="11.997880668684207"><ele>329.0</ele><time>2026-04-19T10:47:21.001Z</time></trkpt><trkpt lat="43.35507482577542" lon="11.99796571958389"><ele>329.7142857142857</ele><time>2026-04-19T10:47:24.001Z</time></trkpt><trkpt lat="43.35510398751648" lon="11.998044536542148"><ele>330.42857142857144</ele><time>2026-04-19T10:47:27.001Z</time></trkpt><trkpt lat="43.35515841563465" lon="11.998127007716244"><ele>331.1428571428571</ele><time>2026-04-19T10:47:31.001Z</time></trkpt><trkpt lat="43.35520422709595" lon="11.998195058526003"><ele>331.8571428571429</ele><time>2026-04-19T10:47:35.001Z</time></trkpt><trkpt lat="43.35525658484911" lon="11.998258094135938"><ele>332.57142857142856</ele><time>2026-04-19T10:47:39.001Z</time></trkpt><trkpt lat="43.355300846333165" lon="11.998329801725466"><ele>333.2857142857143</ele><time>2026-04-19T10:47:43.001Z</time></trkpt><trkpt lat="43.35533948304264" lon="11.998398873307822"><ele>334.0</ele><time>2026-04-19T10:47:47.001Z</time></trkpt><trkpt lat="43.35536507168223" lon="11.998495590586923"><ele>335.85714285714283</ele><time>2026-04-19T10:47:52.001Z</time></trkpt><trkpt lat="43.355376742069005" lon="11.998596165043892"><ele>337.7142857142857</ele><time>2026-04-19T10:47:58.001Z</time></trkpt><trkpt lat="43.355356928267966" lon="11.99868631452466"><ele>339.57142857142856</ele><time>2026-04-19T10:48:03.001Z</time></trkpt><trkpt lat="43.355324745774254" lon="11.998779715460628"><ele>341.42857142857144</ele><time>2026-04-19T10:48:09.002Z</time></trkpt><trkpt lat="43.355299165292756" lon="11.998870696672592"><ele>343.2857142857143</ele><time>2026-04-19T10:48:15.002Z</time></trkpt><trkpt lat="43.35526601321108" lon="11.998956358407863"><ele>345.14285714285717</ele><time>2026-04-19T10:48:20.999Z</time></trkpt><trkpt lat="43.35524498191989" lon="11.99904377578249"><ele>347.0</ele><time>2026-04-19T10:48:26.999Z</time></trkpt><trkpt lat="43.35518881720851" lon="11.999106997865303"><ele>347.0</ele><time>2026-04-19T10:48:32.999Z</time></trkpt><trkpt lat="43.35512742690494" lon="11.999128625685575"><ele>347.0</ele><time>2026-04-19T10:48:37.999Z</time></trkpt><trkpt lat="43.35506266590678" lon="11.999153304521885"><ele>347.0</ele><time>2026-04-19T10:48:41.999Z</time></trkpt><trkpt lat="43.35499928135406" lon="11.999177262715119"><ele>347.0</ele><time>2026-04-19T10:48:46Z</time></trkpt><trkpt lat="43.35493090381284" lon="11.99920909685631"><ele>347.0</ele><time>2026-04-19T10:48:50Z</time></trkpt><trkpt lat="43.35485336891997" lon="11.999239735930601"><ele>347.0</ele><time>2026-04-19T10:48:54Z</time></trkpt><trkpt lat="43.354788255044056" lon="11.99927047736119"><ele>347.0</ele><time>2026-04-19T10:48:57Z</time></trkpt><trkpt lat="43.35472545859411" lon="11.999305829975196"><ele>348.0</ele><time>2026-04-19T10:49:00Z</time></trkpt><trkpt lat="43.354661212583025" lon="11.999343304439655"><ele>349.0</ele><time>2026-04-19T10:49:03Z</time></trkpt><trkpt lat="43.354596982089305" lon="11.999387824375162"><ele>350.0</ele><time>2026-04-19T10:49:06Z</time></trkpt><trkpt lat="43.354534552626774" lon="11.999444219630574"><ele>351.0</ele><time>2026-04-19T10:49:09Z</time></trkpt><trkpt lat="43.354475514734936" lon="11.999509733778483"><ele>352.0</ele><time>2026-04-19T10:49:12Z</time></trkpt><trkpt lat="43.354417128546835" lon="11.999582480030094"><ele>353.0</ele><time>2026-04-19T10:49:15Z</time></trkpt><trkpt lat="43.35436109721303" lon="11.99964706779713"><ele>354.0</ele><time>2026-04-19T10:49:18Z</time></trkpt><trkpt lat="43.35430458353946" lon="11.999716822223625"><ele>354.0</ele><time>2026-04-19T10:49:21Z</time></trkpt><trkpt lat="43.35425371587673" lon="11.999782056705465"><ele>354.0</ele><time>2026-04-19T10:49:24.001Z</time></trkpt><trkpt lat="43.354189114285475" lon="11.99985606105479"><ele>354.0</ele><time>2026-04-19T10:49:28.001Z</time></trkpt><trkpt lat="43.35413989527301" lon="11.999914964784134"><ele>354.0</ele><time>2026-04-19T10:49:31.001Z</time></trkpt><trkpt lat="43.35409066840362" lon="11.999973239744238"><ele>354.0</ele><time>2026-04-19T10:49:34.001Z</time></trkpt><trkpt lat="43.35403942963623" lon="12.000026491800066"><ele>354.0</ele><time>2026-04-19T10:49:37.001Z</time></trkpt><trkpt lat="43.35399079882034" lon="12.000085951802978"><ele>354.0</ele><time>2026-04-19T10:49:40.001Z</time></trkpt><trkpt lat="43.35394320920011" lon="12.000150338549963"><ele>354.0</ele><time>2026-04-19T10:49:43.001Z</time></trkpt><trkpt lat="43.353898613054405" lon="12.00021669069277"><ele>354.0</ele><time>2026-04-19T10:49:46.001Z</time></trkpt><trkpt lat="43.3538523939193" lon="12.000305463373321"><ele>354.0</ele><time>2026-04-19T10:49:50.001Z</time></trkpt><trkpt lat="43.353819931602665" lon="12.000384600129607"><ele>354.0</ele><time>2026-04-19T10:49:53.001Z</time></trkpt><trkpt lat="43.353783243182534" lon="12.000465889723962"><ele>354.0</ele><time>2026-04-19T10:49:56.001Z</time></trkpt><trkpt lat="43.3537556632895" lon="12.000549210063594"><ele>354.0</ele><time>2026-04-19T10:49:59.001Z</time></trkpt><trkpt lat="43.35372047516937" lon="12.000632785892066"><ele>354.0</ele><time>2026-04-19T10:50:02.001Z</time></trkpt><trkpt lat="43.35369448386791" lon="12.000719695287051"><ele>353.7142857142857</ele><time>2026-04-19T10:50:05.001Z</time></trkpt><trkpt lat="43.35366433494863" lon="12.000802321022217"><ele>353.4285714285714</ele><time>2026-04-19T10:50:08.001Z</time></trkpt><trkpt lat="43.3536342949078" lon="12.000883265628072"><ele>353.1428571428571</ele><time>2026-04-19T10:50:11.001Z</time></trkpt><trkpt lat="43.35360904706851" lon="12.000968062772497"><ele>352.8571428571429</ele><time>2026-04-19T10:50:14.002Z</time></trkpt><trkpt lat="43.3535760499668" lon="12.001049285449044"><ele>352.57142857142856</ele><time>2026-04-19T10:50:17.002Z</time></trkpt><trkpt lat="43.35354176817994" lon="12.001133262432761"><ele>352.2857142857143</ele><time>2026-04-19T10:50:20.002Z</time></trkpt><trkpt lat="43.353504314601004" lon="12.001212993807446"><ele>352.0</ele><time>2026-04-19T10:50:23.002Z</time></trkpt><trkpt lat="43.353459348984025" lon="12.001288922192197"><ele>352.0</ele><time>2026-04-19T10:50:26.002Z</time></trkpt><trkpt lat="43.35342205935422" lon="12.001364634115832"><ele>352.0</ele><time>2026-04-19T10:50:28.999Z</time></trkpt><trkpt lat="43.35337897319215" lon="12.001432661187856"><ele>352.0</ele><time>2026-04-19T10:50:31.999Z</time></trkpt><trkpt lat="43.35333095410114" lon="12.001502662438414"><ele>352.0</ele><time>2026-04-19T10:50:34.999Z</time></trkpt><trkpt lat="43.35328539874582" lon="12.001574762094325"><ele>352.0</ele><time>2026-04-19T10:50:37.999Z</time></trkpt><trkpt lat="43.35323359137182" lon="12.001635870283904"><ele>352.0</ele><time>2026-04-19T10:50:40.999Z</time></trkpt><trkpt lat="43.35317702373067" lon="12.001691300912697"><ele>352.0</ele><time>2026-04-19T10:50:43.999Z</time></trkpt><trkpt lat="43.35311184966596" lon="12.001735913573933"><ele>352.2857142857143</ele><time>2026-04-19T10:50:47Z</time></trkpt><trkpt lat="43.35305477539782" lon="12.00178209550944"><ele>352.57142857142856</ele><time>2026-04-19T10:50:50Z</time></trkpt><trkpt lat="43.353002688662066" lon="12.001831456813177"><ele>352.8571428571429</ele><time>2026-04-19T10:50:53Z</time></trkpt><trkpt lat="43.35295505835791" lon="12.001890376880521"><ele>353.1428571428571</ele><time>2026-04-19T10:50:56Z</time></trkpt><trkpt lat="43.35289529454705" lon="12.001969938954238"><ele>353.4285714285714</ele><time>2026-04-19T10:51:00Z</time></trkpt><trkpt lat="43.35285874054518" lon="12.002044244345212"><ele>353.7142857142857</ele><time>2026-04-19T10:51:03Z</time></trkpt><trkpt lat="43.3528254652606" lon="12.002125338039734"><ele>354.0</ele><time>2026-04-19T10:51:06Z</time></trkpt><trkpt lat="43.35278037220357" lon="12.002219064794343"><ele>354.0</ele><time>2026-04-19T10:51:10Z</time></trkpt><trkpt lat="43.352721791282335" lon="12.00230041234425"><ele>354.0</ele><time>2026-04-19T10:51:14Z</time></trkpt><trkpt lat="43.352663524122704" lon="12.002368977448056"><ele>354.0</ele><time>2026-04-19T10:51:18Z</time></trkpt><trkpt lat="43.35259815388022" lon="12.002433330640994"><ele>354.0</ele><time>2026-04-19T10:51:22.001Z</time></trkpt><trkpt lat="43.352523545189214" lon="12.00248657820964"><ele>354.0</ele><time>2026-04-19T10:51:26.001Z</time></trkpt><trkpt lat="43.35245447483327" lon="12.002543532886197"><ele>354.0</ele><time>2026-04-19T10:51:30.001Z</time></trkpt><trkpt lat="43.352380395601486" lon="12.002591592748043"><ele>355.3333333333333</ele><time>2026-04-19T10:51:34.001Z</time></trkpt><trkpt lat="43.35230917284074" lon="12.00264870622764"><ele>356.6666666666667</ele><time>2026-04-19T10:51:38.001Z</time></trkpt><trkpt lat="43.35224167621304" lon="12.002714440959833"><ele>358.0</ele><time>2026-04-19T10:51:42.001Z</time></trkpt><trkpt lat="43.35218377479482" lon="12.002779030241554"><ele>359.33333333333337</ele><time>2026-04-19T10:51:46.001Z</time></trkpt><trkpt lat="43.352133248262575" lon="12.002870084568901"><ele>360.6666666666667</ele><time>2026-04-19T10:51:50.001Z</time></trkpt><trkpt lat="43.35210275298915" lon="12.002948854763066"><ele>362.0</ele><time>2026-04-19T10:51:53.001Z</time></trkpt><trkpt lat="43.352066829682755" lon="12.003022594008288"><ele>362.0</ele><time>2026-04-19T10:51:56.001Z</time></trkpt><trkpt lat="43.35203429572303" lon="12.003102399406655"><ele>362.0</ele><time>2026-04-19T10:51:59.001Z</time></trkpt><trkpt lat="43.35198983905277" lon="12.003164344301462"><ele>362.0</ele><time>2026-04-19T10:52:02.001Z</time></trkpt><trkpt lat="43.35194031007127" lon="12.003217957236332"><ele>362.0</ele><time>2026-04-19T10:52:05.001Z</time></trkpt><trkpt lat="43.35187079557932" lon="12.003274219968254"><ele>362.0</ele><time>2026-04-19T10:52:09.002Z</time></trkpt><trkpt lat="43.35180464765071" lon="12.00333205935517"><ele>362.0</ele><time>2026-04-19T10:52:13.002Z</time></trkpt><trkpt lat="43.35174574830869" lon="12.003401627000132"><ele>362.0</ele><time>2026-04-19T10:52:17.002Z</time></trkpt><trkpt lat="43.3516843079262" lon="12.003471274482646"><ele>364.1666666666667</ele><time>2026-04-19T10:52:21.002Z</time></trkpt><trkpt lat="43.351620191177425" lon="12.003534828129009"><ele>366.33333333333337</ele><time>2026-04-19T10:52:25.002Z</time></trkpt><trkpt lat="43.35156094121225" lon="12.003602623449805"><ele>368.5</ele><time>2026-04-19T10:52:29.002Z</time></trkpt><trkpt lat="43.35149892291666" lon="12.00367431488477"><ele>370.6666666666667</ele><time>2026-04-19T10:52:32.999Z</time></trkpt><trkpt lat="43.351438200068635" lon="12.003754108940699"><ele>372.8333333333333</ele><time>2026-04-19T10:52:36.999Z</time></trkpt><trkpt lat="43.351379396237625" lon="12.003817736304162"><ele>375.0</ele><time>2026-04-19T10:52:41Z</time></trkpt><trkpt lat="43.35131733652221" lon="12.003861571295584"><ele>377.14285714285717</ele><time>2026-04-19T10:52:44Z</time></trkpt><trkpt lat="43.3512535336271" lon="12.003858711264593"><ele>379.2857142857143</ele><time>2026-04-19T10:52:47Z</time></trkpt><trkpt lat="43.35118337846233" lon="12.003802035654596"><ele>381.42857142857144</ele><time>2026-04-19T10:52:51Z</time></trkpt><trkpt lat="43.35113688158491" lon="12.003734266741507"><ele>383.57142857142856</ele><time>2026-04-19T10:52:54Z</time></trkpt><trkpt lat="43.3511119521662" lon="12.003648202949146"><ele>385.71428571428567</ele><time>2026-04-19T10:52:57Z</time></trkpt><trkpt lat="43.351119757750034" lon="12.003556850509401"><ele>387.85714285714283</ele><time>2026-04-19T10:53:00Z</time></trkpt><trkpt lat="43.35112609310801" lon="12.00344187628336"><ele>390.0</ele><time>2026-04-19T10:53:04Z</time></trkpt><trkpt lat="43.35112835060077" lon="12.003353414472835"><ele>388.0</ele><time>2026-04-19T10:53:07Z</time></trkpt><trkpt lat="43.35112085969262" lon="12.003236444942228"><ele>386.0</ele><time>2026-04-19T10:53:11Z</time></trkpt><trkpt lat="43.35108972336828" lon="12.003136595465831"><ele>384.0</ele><time>2026-04-19T10:53:15Z</time></trkpt><trkpt lat="43.351042386690374" lon="12.003064057439957"><ele>382.0</ele><time>2026-04-19T10:53:18.001Z</time></trkpt><trkpt lat="43.350976178105704" lon="12.003017111468099"><ele>380.0</ele><time>2026-04-19T10:53:21.001Z</time></trkpt><trkpt lat="43.35089851441198" lon="12.002971637396065"><ele>378.0</ele><time>2026-04-19T10:53:24.001Z</time></trkpt><trkpt lat="43.350820958406544" lon="12.002913435919185"><ele>378.0</ele><time>2026-04-19T10:53:27.001Z</time></trkpt><trkpt lat="43.35075781779603" lon="12.00284302041244"><ele>378.0</ele><time>2026-04-19T10:53:30.001Z</time></trkpt><trkpt lat="43.350689481032035" lon="12.002779164645577"><ele>378.0</ele><time>2026-04-19T10:53:34.001Z</time></trkpt><trkpt lat="43.35063556667936" lon="12.002723590270366"><ele>378.0</ele><time>2026-04-19T10:53:37.001Z</time></trkpt><trkpt lat="43.35056475318906" lon="12.002694087386192"><ele>378.0</ele><time>2026-04-19T10:53:40.001Z</time></trkpt><trkpt lat="43.35048543385053" lon="12.002702222081659"><ele>378.0</ele><time>2026-04-19T10:53:43.001Z</time></trkpt><trkpt lat="43.350431134609366" lon="12.002746679852464"><ele>378.0</ele><time>2026-04-19T10:53:45.001Z</time></trkpt><trkpt lat="43.35037629292984" lon="12.002807996370658"><ele>381.0</ele><time>2026-04-19T10:53:47.001Z</time></trkpt><trkpt lat="43.35032222363194" lon="12.002863881886292"><ele>384.0</ele><time>2026-04-19T10:53:49.001Z</time></trkpt><trkpt lat="43.35025947543503" lon="12.002907780052833"><ele>387.0</ele><time>2026-04-19T10:53:51.001Z</time></trkpt><trkpt lat="43.35019394110785" lon="12.002941715558846"><ele>390.0</ele><time>2026-04-19T10:53:53.001Z</time></trkpt><trkpt lat="43.35012578119141" lon="12.00293934357252"><ele>393.0</ele><time>2026-04-19T10:53:55.001Z</time></trkpt><trkpt lat="43.35003716375116" lon="12.00289232048757"><ele>396.0</ele><time>2026-04-19T10:53:58.001Z</time></trkpt><trkpt lat="43.349981319890375" lon="12.00279735659483"><ele>396.0</ele><time>2026-04-19T10:54:01.002Z</time></trkpt><trkpt lat="43.34995622091173" lon="12.002679175614459"><ele>396.0</ele><time>2026-04-19T10:54:04.002Z</time></trkpt><trkpt lat="43.34994179466073" lon="12.002562190787017"><ele>396.0</ele><time>2026-04-19T10:54:07.002Z</time></trkpt><trkpt lat="43.34995182310634" lon="12.002443327402968"><ele>396.0</ele><time>2026-04-19T10:54:10.002Z</time></trkpt><trkpt lat="43.349958188265425" lon="12.002316649408272"><ele>396.0</ele><time>2026-04-19T10:54:13.002Z</time></trkpt><trkpt lat="43.34997833504004" lon="12.00221127049851"><ele>396.0</ele><time>2026-04-19T10:54:16.002Z</time></trkpt><trkpt lat="43.34999223912825" lon="12.002096833666831"><ele>396.1666666666667</ele><time>2026-04-19T10:54:19.002Z</time></trkpt><trkpt lat="43.35001439413838" lon="12.001995209195588"><ele>396.33333333333337</ele><time>2026-04-19T10:54:22.002Z</time></trkpt><trkpt lat="43.350052774394136" lon="12.001902181866784"><ele>396.5</ele><time>2026-04-19T10:54:25.002Z</time></trkpt><trkpt lat="43.35007510236028" lon="12.001799244222745"><ele>396.6666666666667</ele><time>2026-04-19T10:54:28.002Z</time></trkpt><trkpt lat="43.3500930527364" lon="12.001700426517697"><ele>396.83333333333337</ele><time>2026-04-19T10:54:31.002Z</time></trkpt><trkpt lat="43.35010942686585" lon="12.00160662766346"><ele>397.0</ele><time>2026-04-19T10:54:34.002Z</time></trkpt><trkpt lat="43.35011024053562" lon="12.001505256263652"><ele>396.2857142857143</ele><time>2026-04-19T10:54:37.002Z</time></trkpt><trkpt lat="43.35011106249303" lon="12.001408734111477"><ele>395.57142857142856</ele><time>2026-04-19T10:54:40Z</time></trkpt><trkpt lat="43.35010083393375" lon="12.001320929277064"><ele>394.8571428571429</ele><time>2026-04-19T10:54:43Z</time></trkpt><trkpt lat="43.3500712593792" lon="12.001242995172866"><ele>394.1428571428571</ele><time>2026-04-19T10:54:46Z</time></trkpt><trkpt lat="43.350013880864005" lon="12.001177593947482"><ele>393.42857142857144</ele><time>2026-04-19T10:54:49Z</time></trkpt><trkpt lat="43.34994536111349" lon="12.001134147245837"><ele>392.7142857142857</ele><time>2026-04-19T10:54:52Z</time></trkpt><trkpt lat="43.34987968020708" lon="12.001098030423911"><ele>392.0</ele><time>2026-04-19T10:54:55Z</time></trkpt><trkpt lat="43.349808351614946" lon="12.001070107631726"><ele>392.0</ele><time>2026-04-19T10:54:58Z</time></trkpt><trkpt lat="43.3497363299481" lon="12.001038941987654"><ele>392.0</ele><time>2026-04-19T10:55:01Z</time></trkpt><trkpt lat="43.349668527540295" lon="12.001008278341166"><ele>392.0</ele><time>2026-04-19T10:55:04Z</time></trkpt><trkpt lat="43.3495990720389" lon="12.000961653762591"><ele>392.0</ele><time>2026-04-19T10:55:07Z</time></trkpt><trkpt lat="43.34953681042895" lon="12.000916686038652"><ele>392.0</ele><time>2026-04-19T10:55:10Z</time></trkpt><trkpt lat="43.34948653724786" lon="12.000843260711905"><ele>392.0</ele><time>2026-04-19T10:55:13Z</time></trkpt><trkpt lat="43.34944538229004" lon="12.000750419199372"><ele>392.0</ele><time>2026-04-19T10:55:16Z</time></trkpt><trkpt lat="43.34942595781582" lon="12.000656547615682"><ele>395.42857142857144</ele><time>2026-04-19T10:55:19.001Z</time></trkpt><trkpt lat="43.349432980674614" lon="12.000565583752577"><ele>398.8571428571429</ele><time>2026-04-19T10:55:22.001Z</time></trkpt><trkpt lat="43.34942938803947" lon="12.000474399466146"><ele>402.2857142857143</ele><time>2026-04-19T10:55:25.001Z</time></trkpt><trkpt lat="43.34943607062357" lon="12.000387187785881"><ele>405.7142857142857</ele><time>2026-04-19T10:55:28.001Z</time></trkpt><trkpt lat="43.3494489727775" lon="12.00030090432965"><ele>409.14285714285717</ele><time>2026-04-19T10:55:31.001Z</time></trkpt><trkpt lat="43.349466128984275" lon="12.00019828329648"><ele>412.57142857142856</ele><time>2026-04-19T10:55:35.001Z</time></trkpt><trkpt lat="43.34947730672447" lon="12.00009697511323"><ele>416.0</ele><time>2026-04-19T10:55:39.001Z</time></trkpt><trkpt lat="43.3495018232945" lon="12.000000174488203"><ele>416.0</ele><time>2026-04-19T10:55:43.001Z</time></trkpt><trkpt lat="43.34948549125344" lon="11.999893126054353"><ele>416.0</ele><time>2026-04-19T10:55:47.001Z</time></trkpt><trkpt lat="43.34946793170896" lon="11.999796879777374"><ele>416.0</ele><time>2026-04-19T10:55:51.001Z</time></trkpt><trkpt lat="43.34945732435923" lon="11.999702375897115"><ele>416.0</ele><time>2026-04-19T10:55:55.001Z</time></trkpt><trkpt lat="43.34943350990429" lon="11.999600301735645"><ele>416.0</ele><time>2026-04-19T10:55:59.002Z</time></trkpt><trkpt lat="43.34941267134228" lon="11.999502742634496"><ele>416.0</ele><time>2026-04-19T10:56:03.002Z</time></trkpt><trkpt lat="43.349386955880554" lon="11.999412516782618"><ele>416.0</ele><time>2026-04-19T10:56:07.002Z</time></trkpt><trkpt lat="43.34935534631247" lon="11.999322370696571"><ele>415.99999999999994</ele><time>2026-04-19T10:56:11.002Z</time></trkpt><trkpt lat="43.34930812863516" lon="11.999251629702872"><ele>416.0</ele><time>2026-04-19T10:56:15.002Z</time></trkpt><trkpt lat="43.34925517994774" lon="11.99919434615299"><ele>416.0</ele><time>2026-04-19T10:56:19.002Z</time></trkpt><trkpt lat="43.34918093619207" lon="11.999162041001616"><ele>416.0</ele><time>2026-04-19T10:56:23.002Z</time></trkpt><trkpt lat="43.34910129919868" lon="11.999142439726562"><ele>415.99999999999994</ele><time>2026-04-19T10:56:27.002Z</time></trkpt><trkpt lat="43.34902390926274" lon="11.99911965908284"><ele>416.0</ele><time>2026-04-19T10:56:31.002Z</time></trkpt><trkpt lat="43.34895528337519" lon="11.999070977447953"><ele>415.1428571428571</ele><time>2026-04-19T10:56:35.002Z</time></trkpt><trkpt lat="43.348892807418814" lon="11.99900956233786"><ele>414.28571428571433</ele><time>2026-04-19T10:56:39.002Z</time></trkpt><trkpt lat="43.348846069137174" lon="11.99894428111243"><ele>413.42857142857144</ele><time>2026-04-19T10:56:42.003Z</time></trkpt><trkpt lat="43.348794203670366" lon="11.998862031693037"><ele>412.57142857142856</ele><time>2026-04-19T10:56:46Z</time></trkpt><trkpt lat="43.34874169736704" lon="11.998785335500584"><ele>411.71428571428567</ele><time>2026-04-19T10:56:50Z</time></trkpt><trkpt lat="43.348698495348536" lon="11.998701520628511"><ele>410.8571428571429</ele><time>2026-04-19T10:56:54Z</time></trkpt><trkpt lat="43.348642603815065" lon="11.998633406799211"><ele>410.0</ele><time>2026-04-19T10:56:58Z</time></trkpt><trkpt lat="43.348587195131245" lon="11.998562813121197"><ele>410.16666666666663</ele><time>2026-04-19T10:57:02Z</time></trkpt><trkpt lat="43.34853816262744" lon="11.998477386233864"><ele>410.3333333333333</ele><time>2026-04-19T10:57:06Z</time></trkpt><trkpt lat="43.3484909487437" lon="11.998400189011969"><ele>410.5</ele><time>2026-04-19T10:57:10Z</time></trkpt><trkpt lat="43.3484278803578" lon="11.998332730570349"><ele>410.66666666666663</ele><time>2026-04-19T10:57:14Z</time></trkpt><trkpt lat="43.34836134988634" lon="11.998282215260419"><ele>410.8333333333333</ele><time>2026-04-19T10:57:18.001Z</time></trkpt><trkpt lat="43.34828127666068" lon="11.998276224381229"><ele>411.0</ele><time>2026-04-19T10:57:22.001Z</time></trkpt><trkpt lat="43.34820266558048" lon="11.998320377891755"><ele>410.8333333333333</ele><time>2026-04-19T10:57:26.001Z</time></trkpt><trkpt lat="43.348142448284875" lon="11.99840222595555"><ele>410.66666666666663</ele><time>2026-04-19T10:57:30.001Z</time></trkpt><trkpt lat="43.34810737850603" lon="11.998479652384075"><ele>410.5</ele><time>2026-04-19T10:57:33.001Z</time></trkpt><trkpt lat="43.34806075296762" lon="11.998563902441813"><ele>410.3333333333333</ele><time>2026-04-19T10:57:37.001Z</time></trkpt><trkpt lat="43.348028544798844" lon="11.998663169464852"><ele>410.16666666666663</ele><time>2026-04-19T10:57:41.001Z</time></trkpt><trkpt lat="43.34799484678241" lon="11.998748762370914"><ele>410.0</ele><time>2026-04-19T10:57:45.001Z</time></trkpt><trkpt lat="43.347971399609385" lon="11.998844320658424"><ele>410.0</ele><time>2026-04-19T10:57:49.001Z</time></trkpt><trkpt lat="43.347936257171895" lon="11.9989293016601"><ele>410.0</ele><time>2026-04-19T10:57:53.001Z</time></trkpt><trkpt lat="43.34790520338445" lon="11.999020025856032"><ele>410.0</ele><time>2026-04-19T10:57:57.001Z</time></trkpt><trkpt lat="43.347876578885426" lon="11.999115009798729"><ele>410.0</ele><time>2026-04-19T10:58:01.002Z</time></trkpt><trkpt lat="43.34785065577181" lon="11.999212348912922"><ele>410.0</ele><time>2026-04-19T10:58:05.002Z</time></trkpt><trkpt lat="43.34782938355383" lon="11.999296770856203"><ele>410.0</ele><time>2026-04-19T10:58:09.002Z</time></trkpt><trkpt lat="43.34780727302059" lon="11.999380472142189"><ele>410.0</ele><time>2026-04-19T10:58:13.002Z</time></trkpt><trkpt lat="43.34777002278729" lon="11.999467180339375"><ele>412.42857142857144</ele><time>2026-04-19T10:58:18.002Z</time></trkpt><trkpt lat="43.34774481640498" lon="11.999556743819797"><ele>414.85714285714283</ele><time>2026-04-19T10:58:23.002Z</time></trkpt><trkpt lat="43.34771121619205" lon="11.999638372619465"><ele>417.2857142857143</ele><time>2026-04-19T10:58:28.002Z</time></trkpt><trkpt lat="43.347684684379594" lon="11.999730337443049"><ele>419.7142857142857</ele><time>2026-04-19T10:58:33.002Z</time></trkpt><trkpt lat="43.347661093241406" lon="11.999820103050535"><ele>422.1428571428571</ele><time>2026-04-19T10:58:38.002Z</time></trkpt><trkpt lat="43.34764587618087" lon="11.999915047654337"><ele>424.57142857142856</ele><time>2026-04-19T10:58:43.003Z</time></trkpt><trkpt lat="43.347636088537925" lon="12.000016698775633"><ele>427.0</ele><time>2026-04-19T10:58:48.003Z</time></trkpt><trkpt lat="43.34764090301224" lon="12.000116661441243"><ele>427.0</ele><time>2026-04-19T10:58:53Z</time></trkpt><trkpt lat="43.34763961791144" lon="12.000213362388235"><ele>427.0</ele><time>2026-04-19T10:58:58Z</time></trkpt><trkpt lat="43.34762797627844" lon="12.000313038415666"><ele>427.0</ele><time>2026-04-19T10:59:03Z</time></trkpt><trkpt lat="43.34758794251115" lon="12.000399403662069"><ele>427.0</ele><time>2026-04-19T10:59:08Z</time></trkpt><trkpt lat="43.34753049219844" lon="12.000471867290942"><ele>427.0</ele><time>2026-04-19T10:59:13Z</time></trkpt><trkpt lat="43.347470591271254" lon="12.000533546357353"><ele>427.0</ele><time>2026-04-19T10:59:18Z</time></trkpt><trkpt lat="43.34741637944558" lon="12.000601185151968"><ele>427.0</ele><time>2026-04-19T10:59:23Z</time></trkpt><trkpt lat="43.34736328353861" lon="12.000671926473832"><ele>427.0</ele><time>2026-04-19T10:59:28Z</time></trkpt><trkpt lat="43.347316662673514" lon="12.000745694603399"><ele>427.0</ele><time>2026-04-19T10:59:33.001Z</time></trkpt><trkpt lat="43.34727847185364" lon="12.000827636843043"><ele>427.0</ele><time>2026-04-19T10:59:38.001Z</time></trkpt><trkpt lat="43.34725030629463" lon="12.000919897124993"><ele>427.0</ele><time>2026-04-19T10:59:43.001Z</time></trkpt><trkpt lat="43.34722717843681" lon="12.001002009163038"><ele>427.0</ele><time>2026-04-19T10:59:47.001Z</time></trkpt><trkpt lat="43.34720538157318" lon="12.001087065128916"><ele>427.0</ele><time>2026-04-19T10:59:51.001Z</time></trkpt><trkpt lat="43.347161794560755" lon="12.001172842514151"><ele>427.0</ele><time>2026-04-19T10:59:56.001Z</time></trkpt><trkpt lat="43.347106657010364" lon="12.001225690434255"><ele>428.85714285714283</ele><time>2026-04-19T11:00:00.001Z</time></trkpt><trkpt lat="43.347033218851514" lon="12.001259253785866"><ele>430.7142857142857</ele><time>2026-04-19T11:00:05.001Z</time></trkpt><trkpt lat="43.34695688154763" lon="12.001258738252009"><ele>432.57142857142856</ele><time>2026-04-19T11:00:10.001Z</time></trkpt><trkpt lat="43.34688623522448" lon="12.001246309607934"><ele>434.42857142857144</ele><time>2026-04-19T11:00:15.001Z</time></trkpt><trkpt lat="43.346826370669525" lon="12.00120806972669"><ele>436.2857142857143</ele><time>2026-04-19T11:00:19.002Z</time></trkpt><trkpt lat="43.34675893350479" lon="12.00120602854981"><ele>438.1428571428571</ele><time>2026-04-19T11:00:23.002Z</time></trkpt><trkpt lat="43.34669611856307" lon="12.001185879116067"><ele>440.0</ele><time>2026-04-19T11:00:27.002Z</time></trkpt><trkpt lat="43.346625129426144" lon="12.001164294529362"><ele>439.99999999999994</ele><time>2026-04-19T11:00:32.002Z</time></trkpt><trkpt lat="43.346556670162734" lon="12.001143554269104"><ele>440.0</ele><time>2026-04-19T11:00:37.002Z</time></trkpt><trkpt lat="43.34648251621224" lon="12.001131919925779"><ele>440.0</ele><time>2026-04-19T11:00:42.002Z</time></trkpt><trkpt lat="43.34640578892585" lon="12.001112600725873"><ele>440.0</ele><time>2026-04-19T11:00:47.002Z</time></trkpt><trkpt lat="43.34632810021301" lon="12.001113843889623"><ele>439.99999999999994</ele><time>2026-04-19T11:00:52.002Z</time></trkpt><trkpt lat="43.34625287643384" lon="12.001130065678813"><ele>440.0</ele><time>2026-04-19T11:00:56.002Z</time></trkpt><trkpt lat="43.34618143049525" lon="12.001162465877899"><ele>440.71428571428567</ele><time>2026-04-19T11:00:59Z</time></trkpt><trkpt lat="43.346117941798674" lon="12.001202183569735"><ele>441.42857142857144</ele><time>2026-04-19T11:01:01Z</time></trkpt><trkpt lat="43.34605300922709" lon="12.00118958077736"><ele>442.1428571428571</ele><time>2026-04-19T11:01:03Z</time></trkpt><trkpt lat="43.34598045311728" lon="12.001133394552784"><ele>442.85714285714283</ele><time>2026-04-19T11:01:06Z</time></trkpt><trkpt lat="43.345941637535304" lon="12.00106198668952"><ele>443.57142857142856</ele><time>2026-04-19T11:01:08Z</time></trkpt><trkpt lat="43.345919910653805" lon="12.000976660863977"><ele>444.2857142857143</ele><time>2026-04-19T11:01:10Z</time></trkpt><trkpt lat="43.3459204111483" lon="12.000888626945708"><ele>445.0</ele><time>2026-04-19T11:01:12Z</time></trkpt><trkpt lat="43.34589355186941" lon="12.000772320832583"><ele>445.0</ele><time>2026-04-19T11:01:15Z</time></trkpt><trkpt lat="43.345896362070384" lon="12.000657948828565"><ele>445.0</ele><time>2026-04-19T11:01:18Z</time></trkpt><trkpt lat="43.34583779466027" lon="12.000599123506094"><ele>445.0</ele><time>2026-04-19T11:01:20Z</time></trkpt><trkpt lat="43.345784331826515" lon="12.000503352416416"><ele>445.0</ele><time>2026-04-19T11:01:23Z</time></trkpt><trkpt lat="43.34575369342859" lon="12.000426264579954"><ele>445.0</ele><time>2026-04-19T11:01:25Z</time></trkpt><trkpt lat="43.345710407425315" lon="12.000356943841897"><ele>445.0</ele><time>2026-04-19T11:01:27Z</time></trkpt><trkpt lat="43.34566380715926" lon="12.000284684471044"><ele>445.0</ele><time>2026-04-19T11:01:29Z</time></trkpt><trkpt lat="43.34560684264611" lon="12.000222277887808"><ele>445.0</ele><time>2026-04-19T11:01:31Z</time></trkpt><trkpt lat="43.345568157673476" lon="12.0001306564027"><ele>445.0</ele><time>2026-04-19T11:01:33Z</time></trkpt><trkpt lat="43.345515796442086" lon="12.000046278785026"><ele>445.0</ele><time>2026-04-19T11:01:35Z</time></trkpt><trkpt lat="43.34545535925941" lon="11.999980997756786"><ele>445.0</ele><time>2026-04-19T11:01:37.001Z</time></trkpt><trkpt lat="43.345406724629875" lon="11.999905047953263"><ele>445.0</ele><time>2026-04-19T11:01:39.001Z</time></trkpt><trkpt lat="43.345366988097076" lon="11.999823310669528"><ele>445.0</ele><time>2026-04-19T11:01:41.001Z</time></trkpt><trkpt lat="43.345318401168015" lon="11.999755538084155"><ele>445.0</ele><time>2026-04-19T11:01:43.001Z</time></trkpt><trkpt lat="43.34527834245337" lon="11.999685939950602"><ele>446.57142857142856</ele><time>2026-04-19T11:01:45.001Z</time></trkpt><trkpt lat="43.345235096717616" lon="11.999620016567464"><ele>448.1428571428571</ele><time>2026-04-19T11:01:47.001Z</time></trkpt><trkpt lat="43.34519378974908" lon="11.999549669944697"><ele>449.71428571428567</ele><time>2026-04-19T11:01:49.001Z</time></trkpt><trkpt lat="43.34515296066852" lon="11.999482182213074"><ele>451.2857142857143</ele><time>2026-04-19T11:01:51.001Z</time></trkpt><trkpt lat="43.345112579282976" lon="11.999414333154531"><ele>452.8571428571428</ele><time>2026-04-19T11:01:53.001Z</time></trkpt><trkpt lat="43.34506802485418" lon="11.99934572219779"><ele>454.4285714285714</ele><time>2026-04-19T11:01:55.001Z</time></trkpt><trkpt lat="43.3450248407343" lon="11.999276447808443"><ele>456.0</ele><time>2026-04-19T11:01:57.001Z</time></trkpt><trkpt lat="43.344982226969016" lon="11.999210423550194"><ele>454.6666666666667</ele><time>2026-04-19T11:01:59.001Z</time></trkpt><trkpt lat="43.344923858894845" lon="11.999118929748905"><ele>453.33333333333337</ele><time>2026-04-19T11:02:02.001Z</time></trkpt><trkpt lat="43.34485966320727" lon="11.999030327622535"><ele>452.0</ele><time>2026-04-19T11:02:05.001Z</time></trkpt><trkpt lat="43.34479088775469" lon="11.998963416352208"><ele>450.6666666666667</ele><time>2026-04-19T11:02:08.001Z</time></trkpt><trkpt lat="43.34471392068382" lon="11.998908499334487"><ele>449.33333333333337</ele><time>2026-04-19T11:02:11.001Z</time></trkpt><trkpt lat="43.34463175143606" lon="11.99886650872836"><ele>448.0</ele><time>2026-04-19T11:02:14.001Z</time></trkpt><trkpt lat="43.344557061276426" lon="11.998827468477042"><ele>449.1666666666667</ele><time>2026-04-19T11:02:17.002Z</time></trkpt><trkpt lat="43.34447564160006" lon="11.998776648168965"><ele>450.33333333333337</ele><time>2026-04-19T11:02:20.002Z</time></trkpt><trkpt lat="43.34440659964473" lon="11.998700544611884"><ele>451.5</ele><time>2026-04-19T11:02:23.002Z</time></trkpt><trkpt lat="43.344348984202206" lon="11.998615490358102"><ele>452.66666666666663</ele><time>2026-04-19T11:02:26.002Z</time></trkpt><trkpt lat="43.34431446203296" lon="11.998507973133155"><ele>453.8333333333333</ele><time>2026-04-19T11:02:29.002Z</time></trkpt><trkpt lat="43.34426278961977" lon="11.998418126643642"><ele>455.0</ele><time>2026-04-19T11:02:32.002Z</time></trkpt><trkpt lat="43.344210193288035" lon="11.99831964012407"><ele>454.99999999999994</ele><time>2026-04-19T11:02:35.002Z</time></trkpt><trkpt lat="43.34416614534794" lon="11.998221340453101"><ele>455.0</ele><time>2026-04-19T11:02:38.002Z</time></trkpt><trkpt lat="43.344113176356984" lon="11.998124849300487"><ele>455.0</ele><time>2026-04-19T11:02:41.002Z</time></trkpt><trkpt lat="43.34404739206872" lon="11.998032340668846"><ele>455.0</ele><time>2026-04-19T11:02:44.002Z</time></trkpt><trkpt lat="43.34399888037664" lon="11.99797598973533"><ele>454.99999999999994</ele><time>2026-04-19T11:02:46.002Z</time></trkpt><trkpt lat="43.3439387372563" lon="11.997926665020877"><ele>455.0</ele><time>2026-04-19T11:02:48.002Z</time></trkpt><trkpt lat="43.34387428530295" lon="11.997875264877782"><ele>457.66666666666663</ele><time>2026-04-19T11:02:50.002Z</time></trkpt><trkpt lat="43.343805070459226" lon="11.997836102432975"><ele>460.3333333333333</ele><time>2026-04-19T11:02:52.002Z</time></trkpt><trkpt lat="43.34373719768724" lon="11.997804918241378"><ele>463.0</ele><time>2026-04-19T11:02:54.002Z</time></trkpt><trkpt lat="43.34366365945624" lon="11.997784360671822"><ele>465.66666666666663</ele><time>2026-04-19T11:02:56.002Z</time></trkpt><trkpt lat="43.34358584290646" lon="11.997775107673098"><ele>468.3333333333333</ele><time>2026-04-19T11:02:58.003Z</time></trkpt><trkpt lat="43.34350858918726" lon="11.997772624807057"><ele>471.0</ele><time>2026-04-19T11:03:00.003Z</time></trkpt><trkpt lat="43.34343117254323" lon="11.997773386798434"><ele>471.00000000000006</ele><time>2026-04-19T11:03:02.003Z</time></trkpt><trkpt lat="43.34335491397631" lon="11.997777472357244"><ele>471.0</ele><time>2026-04-19T11:03:04Z</time></trkpt><trkpt lat="43.34328328356676" lon="11.997788563730921"><ele>471.00000000000006</ele><time>2026-04-19T11:03:06Z</time></trkpt><trkpt lat="43.34321585531273" lon="11.997801639243873"><ele>471.00000000000006</ele><time>2026-04-19T11:03:08Z</time></trkpt><trkpt lat="43.34314375215402" lon="11.997810205013742"><ele>471.0</ele><time>2026-04-19T11:03:10Z</time></trkpt><trkpt lat="43.343072692499916" lon="11.997801653431086"><ele>471.00000000000006</ele><time>2026-04-19T11:03:12Z</time></trkpt><trkpt lat="43.34301157562566" lon="11.997738561406132"><ele>471.00000000000006</ele><time>2026-04-19T11:03:14Z</time></trkpt><trkpt lat="43.34298208694002" lon="11.997641204331261"><ele>468.8571428571429</ele><time>2026-04-19T11:03:16Z</time></trkpt><trkpt lat="43.342975568441176" lon="11.997539428538744"><ele>466.7142857142857</ele><time>2026-04-19T11:03:18Z</time></trkpt><trkpt lat="43.34298236732249" lon="11.997440345082879"><ele>464.57142857142856</ele><time>2026-04-19T11:03:20Z</time></trkpt><trkpt lat="43.34299989290615" lon="11.997352337792924"><ele>462.42857142857144</ele><time>2026-04-19T11:03:22Z</time></trkpt><trkpt lat="43.34303515949273" lon="11.997277985034716"><ele>460.2857142857142</ele><time>2026-04-19T11:03:24Z</time></trkpt><trkpt lat="43.343069105184995" lon="11.997164551593443"><ele>458.1428571428571</ele><time>2026-04-19T11:03:27Z</time></trkpt><trkpt lat="43.34310845199829" lon="11.997068605509707"><ele>456.0</ele><time>2026-04-19T11:03:30Z</time></trkpt><trkpt lat="43.34313818877173" lon="11.996967132532804"><ele>456.0</ele><time>2026-04-19T11:03:33Z</time></trkpt><trkpt lat="43.34318723363626" lon="11.996883875193742"><ele>455.99999999999994</ele><time>2026-04-19T11:03:36Z</time></trkpt><trkpt lat="43.34321932894835" lon="11.996799279268126"><ele>456.0</ele><time>2026-04-19T11:03:39Z</time></trkpt><trkpt lat="43.3432526438942" lon="11.99671448278474"><ele>456.0</ele><time>2026-04-19T11:03:42Z</time></trkpt><trkpt lat="43.34328228374644" lon="11.996632258970283"><ele>455.99999999999994</ele><time>2026-04-19T11:03:45.001Z</time></trkpt><trkpt lat="43.34330212462803" lon="11.996549199164727"><ele>456.0</ele><time>2026-04-19T11:03:48.001Z</time></trkpt><trkpt lat="43.343311050528165" lon="11.996438757617595"><ele>456.0</ele><time>2026-04-19T11:03:52.001Z</time></trkpt><trkpt lat="43.34328424410563" lon="11.996338199069458"><ele>456.2857142857143</ele><time>2026-04-19T11:03:56.001Z</time></trkpt><trkpt lat="43.343264080081674" lon="11.996234378755213"><ele>456.57142857142856</ele><time>2026-04-19T11:04:00.001Z</time></trkpt><trkpt lat="43.34321036800865" lon="11.996162142635006"><ele>456.85714285714283</ele><time>2026-04-19T11:04:04.001Z</time></trkpt><trkpt lat="43.34315927782924" lon="11.99610113269501"><ele>457.1428571428571</ele><time>2026-04-19T11:04:08.001Z</time></trkpt><trkpt lat="43.34309629957279" lon="11.996047467381487"><ele>457.42857142857144</ele><time>2026-04-19T11:04:12.001Z</time></trkpt><trkpt lat="43.34302873749123" lon="11.996000718426629"><ele>457.71428571428567</ele><time>2026-04-19T11:04:16.001Z</time></trkpt><trkpt lat="43.342962759122564" lon="11.99596032131577"><ele>458.0</ele><time>2026-04-19T11:04:20.001Z</time></trkpt><trkpt lat="43.34289620499051" lon="11.995918982551888"><ele>462.16666666666663</ele><time>2026-04-19T11:04:24.002Z</time></trkpt><trkpt lat="43.34282724673381" lon="11.995870130037938"><ele>466.3333333333333</ele><time>2026-04-19T11:04:28.002Z</time></trkpt><trkpt lat="43.34276027526233" lon="11.995832965096575"><ele>470.5</ele><time>2026-04-19T11:04:32.002Z</time></trkpt><trkpt lat="43.34269543648774" lon="11.995772074564917"><ele>474.66666666666663</ele><time>2026-04-19T11:04:36.002Z</time></trkpt><trkpt lat="43.342639359459305" lon="11.995686075829317"><ele>478.8333333333333</ele><time>2026-04-19T11:04:40.002Z</time></trkpt><trkpt lat="43.34261935364962" lon="11.995600879710858"><ele>483.0</ele><time>2026-04-19T11:04:43.002Z</time></trkpt><trkpt lat="43.34257895839025" lon="11.995502012266162"><ele>483.0</ele><time>2026-04-19T11:04:47.002Z</time></trkpt><trkpt lat="43.34253315748059" lon="11.995409104097407"><ele>483.0</ele><time>2026-04-19T11:04:51.002Z</time></trkpt><trkpt lat="43.34248972312752" lon="11.995313464379146"><ele>483.0</ele><time>2026-04-19T11:04:55.002Z</time></trkpt><trkpt lat="43.34246542922141" lon="11.99520897694221"><ele>483.0</ele><time>2026-04-19T11:04:59.002Z</time></trkpt><trkpt lat="43.34242292418404" lon="11.995120290102419"><ele>483.0</ele><time>2026-04-19T11:05:03.003Z</time></trkpt><trkpt lat="43.34238454648877" lon="11.995019942306774"><ele>483.0</ele><time>2026-04-19T11:05:07.003Z</time></trkpt><trkpt lat="43.3423370658945" lon="11.994925207359234"><ele>481.42857142857144</ele><time>2026-04-19T11:05:11Z</time></trkpt><trkpt lat="43.34231359310655" lon="11.994839985565111"><ele>479.8571428571429</ele><time>2026-04-19T11:05:14Z</time></trkpt><trkpt lat="43.342289883647936" lon="11.994759570389261"><ele>478.2857142857143</ele><time>2026-04-19T11:05:17Z</time></trkpt><trkpt lat="43.34225854268845" lon="11.994673583098571"><ele>476.7142857142857</ele><time>2026-04-19T11:05:20Z</time></trkpt><trkpt lat="43.342241935436974" lon="11.99457340216678"><ele>475.14285714285717</ele><time>2026-04-19T11:05:24Z</time></trkpt><trkpt lat="43.342232993926864" lon="11.994460756609229"><ele>473.57142857142856</ele><time>2026-04-19T11:05:28Z</time></trkpt><trkpt lat="43.34221759523834" lon="11.99436358127008"><ele>472.0</ele><time>2026-04-19T11:05:31Z</time></trkpt><trkpt lat="43.34223623011446" lon="11.994269990620953"><ele>472.0</ele><time>2026-04-19T11:05:34Z</time></trkpt><trkpt lat="43.34224251326659" lon="11.994179985906316"><ele>472.0</ele><time>2026-04-19T11:05:37Z</time></trkpt><trkpt lat="43.34224884674017" lon="11.994078560006946"><ele>472.0</ele><time>2026-04-19T11:05:40Z</time></trkpt><trkpt lat="43.342253890297165" lon="11.993981239944505"><ele>472.0</ele><time>2026-04-19T11:05:43.001Z</time></trkpt><trkpt lat="43.342257594422556" lon="11.993885239468494"><ele>472.0</ele><time>2026-04-19T11:05:46.001Z</time></trkpt><trkpt lat="43.342258424736876" lon="11.993789628902277"><ele>472.0</ele><time>2026-04-19T11:05:49.001Z</time></trkpt><trkpt lat="43.34225291483063" lon="11.99369138210151"><ele>472.0</ele><time>2026-04-19T11:05:52.001Z</time></trkpt><trkpt lat="43.34223882392546" lon="11.99360003597462"><ele>471.57142857142856</ele><time>2026-04-19T11:05:55.001Z</time></trkpt><trkpt lat="43.34221575384036" lon="11.993505327311091"><ele>471.14285714285717</ele><time>2026-04-19T11:05:58.001Z</time></trkpt><trkpt lat="43.34217341803216" lon="11.993424358711492"><ele>470.7142857142857</ele><time>2026-04-19T11:06:01.001Z</time></trkpt><trkpt lat="43.34215962785417" lon="11.993332638475694"><ele>470.2857142857143</ele><time>2026-04-19T11:06:04.001Z</time></trkpt><trkpt lat="43.342129258541775" lon="11.99324926833526"><ele>469.8571428571429</ele><time>2026-04-19T11:06:07.001Z</time></trkpt><trkpt lat="43.342098547496235" lon="11.99316706868091"><ele>469.42857142857144</ele><time>2026-04-19T11:06:10.001Z</time></trkpt><trkpt lat="43.34206395890972" lon="11.993085085464669"><ele>469.0</ele><time>2026-04-19T11:06:13.001Z</time></trkpt><trkpt lat="43.3420235897651" lon="11.992997272737552"><ele>470.7142857142857</ele><time>2026-04-19T11:06:16.001Z</time></trkpt><trkpt lat="43.341973767849204" lon="11.992928820721643"><ele>472.42857142857144</ele><time>2026-04-19T11:06:19.001Z</time></trkpt><trkpt lat="43.341934446221046" lon="11.992853210708535"><ele>474.1428571428571</ele><time>2026-04-19T11:06:22.002Z</time></trkpt><trkpt lat="43.34189079528441" lon="11.992778976366797"><ele>475.85714285714283</ele><time>2026-04-19T11:06:25.002Z</time></trkpt><trkpt lat="43.341851240158704" lon="11.992705074693404"><ele>477.57142857142856</ele><time>2026-04-19T11:06:28.002Z</time></trkpt><trkpt lat="43.341800737890466" lon="11.992634635913358"><ele>479.2857142857142</ele><time>2026-04-19T11:06:31.002Z</time></trkpt><trkpt lat="43.341753246375454" lon="11.992557578164183"><ele>480.99999999999994</ele><time>2026-04-19T11:06:34.002Z</time></trkpt><trkpt lat="43.34169917383134" lon="11.992496025977356"><ele>480.99999999999994</ele><time>2026-04-19T11:06:37.002Z</time></trkpt><trkpt lat="43.341641732688615" lon="11.992445425935074"><ele>481.0</ele><time>2026-04-19T11:06:40.002Z</time></trkpt><trkpt lat="43.341574263813875" lon="11.992405745162898"><ele>480.99999999999994</ele><time>2026-04-19T11:06:43.002Z</time></trkpt><trkpt lat="43.341501827800364" lon="11.992384860005343"><ele>480.99999999999994</ele><time>2026-04-19T11:06:46.002Z</time></trkpt><trkpt lat="43.34143411931248" lon="11.992366005524055"><ele>481.0</ele><time>2026-04-19T11:06:49.002Z</time></trkpt><trkpt lat="43.34136784126958" lon="11.992341480739844"><ele>480.99999999999994</ele><time>2026-04-19T11:06:52.002Z</time></trkpt><trkpt lat="43.3412976430553" lon="11.992315772759603"><ele>480.99999999999994</ele><time>2026-04-19T11:06:55.002Z</time></trkpt><trkpt lat="43.34122285495482" lon="11.992300567892741"><ele>482.33333333333337</ele><time>2026-04-19T11:06:58.002Z</time></trkpt><trkpt lat="43.341143327195326" lon="11.99227775573356"><ele>483.6666666666667</ele><time>2026-04-19T11:07:02.003Z</time></trkpt><trkpt lat="43.34108070590877" lon="11.992255313358736"><ele>485.0</ele><time>2026-04-19T11:07:05.003Z</time></trkpt><trkpt lat="43.34100065285266" lon="11.992231169477032"><ele>486.33333333333337</ele><time>2026-04-19T11:07:09.003Z</time></trkpt><trkpt lat="43.34093757284823" lon="11.992212534082048"><ele>487.6666666666667</ele><time>2026-04-19T11:07:12.003Z</time></trkpt><trkpt lat="43.3408546821358" lon="11.992198575593262"><ele>489.0</ele><time>2026-04-19T11:07:16Z</time></trkpt><trkpt lat="43.34077576141853" lon="11.992199787921834"><ele>489.0</ele><time>2026-04-19T11:07:20Z</time></trkpt><trkpt lat="43.34069463593534" lon="11.992222573926355"><ele>489.0</ele><time>2026-04-19T11:07:24Z</time></trkpt><trkpt lat="43.34061970269291" lon="11.992270026836978"><ele>489.0</ele><time>2026-04-19T11:07:28Z</time></trkpt><trkpt lat="43.340550705122226" lon="11.992318678844928"><ele>489.0</ele><time>2026-04-19T11:07:32Z</time></trkpt><trkpt lat="43.340491956627154" lon="11.992400726173697"><ele>489.0</ele><time>2026-04-19T11:07:36Z</time></trkpt><trkpt lat="43.34044035028192" lon="11.992483975664658"><ele>489.0</ele><time>2026-04-19T11:07:40Z</time></trkpt><trkpt lat="43.340392991596126" lon="11.99257212106628"><ele>490.14285714285717</ele><time>2026-04-19T11:07:44.001Z</time></trkpt><trkpt lat="43.34034172591251" lon="11.992659363072955"><ele>491.28571428571433</ele><time>2026-04-19T11:07:48.001Z</time></trkpt><trkpt lat="43.34030985855989" lon="11.99273571273276"><ele>492.42857142857144</ele><time>2026-04-19T11:07:51.001Z</time></trkpt><trkpt lat="43.340260657381684" lon="11.992819893621588"><ele>493.57142857142856</ele><time>2026-04-19T11:07:55.001Z</time></trkpt><trkpt lat="43.34021534980239" lon="11.992911563651205"><ele>494.7142857142857</ele><time>2026-04-19T11:07:59.001Z</time></trkpt><trkpt lat="43.34017334727361" lon="11.99298473014123"><ele>495.8571428571429</ele><time>2026-04-19T11:08:02.001Z</time></trkpt><trkpt lat="43.340135427816826" lon="11.993060501703857"><ele>497.0</ele><time>2026-04-19T11:08:05.001Z</time></trkpt><trkpt lat="43.340092574915836" lon="11.993126443273926"><ele>497.0</ele><time>2026-04-19T11:08:08.001Z</time></trkpt><trkpt lat="43.340035046189264" lon="11.993208785440874"><ele>497.0</ele><time>2026-04-19T11:08:12.001Z</time></trkpt><trkpt lat="43.33999245079697" lon="11.993272535064714"><ele>497.0</ele><time>2026-04-19T11:08:15.001Z</time></trkpt><trkpt lat="43.3399391452969" lon="11.993324968994155"><ele>497.0</ele><time>2026-04-19T11:08:18.001Z</time></trkpt><trkpt lat="43.339881849429574" lon="11.993364037736825"><ele>497.0</ele><time>2026-04-19T11:08:21.001Z</time></trkpt><trkpt lat="43.33982309139007" lon="11.993395119087012"><ele>497.0</ele><time>2026-04-19T11:08:24.001Z</time></trkpt><trkpt lat="43.33974172370564" lon="11.993408608815919"><ele>497.0</ele><time>2026-04-19T11:08:28.002Z</time></trkpt><trkpt lat="43.33967971266558" lon="11.993389591117685"><ele>499.1428571428571</ele><time>2026-04-19T11:08:31.002Z</time></trkpt><trkpt lat="43.33960560788934" lon="11.99333838089111"><ele>501.2857142857143</ele><time>2026-04-19T11:08:35.002Z</time></trkpt><trkpt lat="43.33954567348572" lon="11.993261363856279"><ele>503.42857142857144</ele><time>2026-04-19T11:08:39.002Z</time></trkpt><trkpt lat="43.33950338882294" lon="11.993190087220327"><ele>505.57142857142856</ele><time>2026-04-19T11:08:42.002Z</time></trkpt><trkpt lat="43.33946251093418" lon="11.993121156799424"><ele>507.71428571428567</ele><time>2026-04-19T11:08:45.002Z</time></trkpt><trkpt lat="43.339422487275044" lon="11.993052832995819"><ele>509.85714285714283</ele><time>2026-04-19T11:08:48.002Z</time></trkpt><trkpt lat="43.3393799313521" lon="11.992985257647163"><ele>512.0</ele><time>2026-04-19T11:08:51.002Z</time></trkpt><trkpt lat="43.33931357928905" lon="11.992912872394998"><ele>512.0</ele><time>2026-04-19T11:08:55.002Z</time></trkpt><trkpt lat="43.33926146409506" lon="11.992862540967087"><ele>511.99999999999994</ele><time>2026-04-19T11:08:58.002Z</time></trkpt><trkpt lat="43.33919572575209" lon="11.992837917770656"><ele>512.0</ele><time>2026-04-19T11:09:01.002Z</time></trkpt><trkpt lat="43.339132712022725" lon="11.992818061073427"><ele>512.0</ele><time>2026-04-19T11:09:04.002Z</time></trkpt><trkpt lat="43.33904966849975" lon="11.992825837183464"><ele>511.99999999999994</ele><time>2026-04-19T11:09:08.003Z</time></trkpt><trkpt lat="43.33897304481165" lon="11.99286088529589"><ele>512.0</ele><time>2026-04-19T11:09:12.003Z</time></trkpt><trkpt lat="43.338906678644655" lon="11.992885669048375"><ele>512.0</ele><time>2026-04-19T11:09:16.003Z</time></trkpt><trkpt lat="43.338849076204745" lon="11.992920650797934"><ele>513.5714285714286</ele><time>2026-04-19T11:09:19.003Z</time></trkpt><trkpt lat="43.338777646219334" lon="11.99294590500856"><ele>515.1428571428571</ele><time>2026-04-19T11:09:23Z</time></trkpt><trkpt lat="43.3387009075141" lon="11.992964028485522"><ele>516.7142857142857</ele><time>2026-04-19T11:09:27Z</time></trkpt><trkpt lat="43.33862940175244" lon="11.992966312942285"><ele>518.2857142857142</ele><time>2026-04-19T11:09:31Z</time></trkpt><trkpt lat="43.33855097326641" lon="11.992927914858832"><ele>519.8571428571429</ele><time>2026-04-19T11:09:35Z</time></trkpt><trkpt lat="43.33849988989516" lon="11.992876958303494"><ele>521.4285714285713</ele><time>2026-04-19T11:09:38Z</time></trkpt><trkpt lat="43.33845692691808" lon="11.992807840393727"><ele>523.0</ele><time>2026-04-19T11:09:41Z</time></trkpt><trkpt lat="43.33839539731872" lon="11.992753651467071"><ele>522.9999999999999</ele><time>2026-04-19T11:09:57.001Z</time></trkpt><trkpt lat="43.338348109591706" lon="11.992696186516104"><ele>523.0</ele><time>2026-04-19T11:10:00.001Z</time></trkpt><trkpt lat="43.33828559795428" lon="11.992619838339902"><ele>523.0</ele><time>2026-04-19T11:10:04.001Z</time></trkpt><trkpt lat="43.33823575063917" lon="11.992555177760474"><ele>523.0</ele><time>2026-04-19T11:10:07.001Z</time></trkpt><trkpt lat="43.33818635235035" lon="11.992490484940326"><ele>523.0</ele><time>2026-04-19T11:10:10.001Z</time></trkpt><trkpt lat="43.33814024359677" lon="11.992425306575582"><ele>522.9999999999999</ele><time>2026-04-19T11:10:13.001Z</time></trkpt><trkpt lat="43.33809746462003" lon="11.992345569629501"><ele>523.0</ele><time>2026-04-19T11:10:16.001Z</time></trkpt><trkpt lat="43.338051273808965" lon="11.99225631113893"><ele>522.5714285714286</ele><time>2026-04-19T11:10:19.001Z</time></trkpt><trkpt lat="43.338015178468694" lon="11.992171646259742"><ele>522.1428571428571</ele><time>2026-04-19T11:10:22.001Z</time></trkpt><trkpt lat="43.33798518119759" lon="11.992070410798505"><ele>521.7142857142858</ele><time>2026-04-19T11:10:25.001Z</time></trkpt><trkpt lat="43.33795491296837" lon="11.991979313769319"><ele>521.2857142857142</ele><time>2026-04-19T11:10:28.001Z</time></trkpt><trkpt lat="43.337927721066876" lon="11.991890749049082"><ele>520.8571428571429</ele><time>2026-04-19T11:10:31.002Z</time></trkpt><trkpt lat="43.33789766550588" lon="11.991794960429392"><ele>520.4285714285714</ele><time>2026-04-19T11:10:34.002Z</time></trkpt><trkpt lat="43.33786386920693" lon="11.991700566113456"><ele>520.0</ele><time>2026-04-19T11:10:37.002Z</time></trkpt><trkpt lat="43.3378373379095" lon="11.991606304974168"><ele>520.0000000000001</ele><time>2026-04-19T11:10:40.002Z</time></trkpt><trkpt lat="43.337802477608555" lon="11.991513328890855"><ele>520.0</ele><time>2026-04-19T11:10:43.002Z</time></trkpt><trkpt lat="43.33776577387736" lon="11.991422593574748"><ele>520.0</ele><time>2026-04-19T11:10:46.002Z</time></trkpt><trkpt lat="43.3377358887089" lon="11.991333579662212"><ele>520.0</ele><time>2026-04-19T11:10:49.002Z</time></trkpt><trkpt lat="43.33771448684657" lon="11.991238858365481"><ele>520.0</ele><time>2026-04-19T11:10:52.002Z</time></trkpt><trkpt lat="43.33768130281333" lon="11.991144185937129"><ele>520.0000000000001</ele><time>2026-04-19T11:10:55.002Z</time></trkpt><trkpt lat="43.33764085409262" lon="11.991053209954456"><ele>520.0</ele><time>2026-04-19T11:10:58.002Z</time></trkpt><trkpt lat="43.337611417111965" lon="11.990954623619915"><ele>520.0000000000001</ele><time>2026-04-19T11:11:01.002Z</time></trkpt><trkpt lat="43.33758546340086" lon="11.990859489946583"><ele>520.0</ele><time>2026-04-19T11:11:04.002Z</time></trkpt><trkpt lat="43.33755313018405" lon="11.990766873699696"><ele>520.0</ele><time>2026-04-19T11:11:07.002Z</time></trkpt><trkpt lat="43.33752126597271" lon="11.990678175974612"><ele>520.0</ele><time>2026-04-19T11:11:10.002Z</time></trkpt><trkpt lat="43.33748999556113" lon="11.99058872839831"><ele>520.0</ele><time>2026-04-19T11:11:13.003Z</time></trkpt><trkpt lat="43.3374599972972" lon="11.990500290269262"><ele>520.0000000000001</ele><time>2026-04-19T11:11:16.003Z</time></trkpt><trkpt lat="43.33742506298089" lon="11.990418213343835"><ele>520.0</ele><time>2026-04-19T11:11:19.003Z</time></trkpt><trkpt lat="43.33740011377686" lon="11.990325191145718"><ele>518.5714285714287</ele><time>2026-04-19T11:11:22.003Z</time></trkpt><trkpt lat="43.33734106076666" lon="11.990262520402752"><ele>517.1428571428571</ele><time>2026-04-19T11:11:25.003Z</time></trkpt><trkpt lat="43.337281427615636" lon="11.99019592925187"><ele>515.7142857142858</ele><time>2026-04-19T11:11:29Z</time></trkpt><trkpt lat="43.337222696214184" lon="11.99016189301758"><ele>514.2857142857143</ele><time>2026-04-19T11:11:32Z</time></trkpt><trkpt lat="43.33716110077798" lon="11.990133383401059"><ele>512.8571428571429</ele><time>2026-04-19T11:11:35Z</time></trkpt><trkpt lat="43.337079831044996" lon="11.99013507757357"><ele>511.42857142857144</ele><time>2026-04-19T11:11:39Z</time></trkpt><trkpt lat="43.33699884999335" lon="11.990149785597552"><ele>510.0</ele><time>2026-04-19T11:11:43Z</time></trkpt><trkpt lat="43.33692732949683" lon="11.99018565982252"><ele>513.0</ele><time>2026-04-19T11:11:47Z</time></trkpt><trkpt lat="43.33686859921945" lon="11.990249642859828"><ele>516.0</ele><time>2026-04-19T11:11:51Z</time></trkpt><trkpt lat="43.33682273618032" lon="11.9903277976136"><ele>519.0</ele><time>2026-04-19T11:11:55.001Z</time></trkpt><trkpt lat="43.33676992585705" lon="11.99040121578064"><ele>522.0</ele><time>2026-04-19T11:11:59.001Z</time></trkpt><trkpt lat="43.33674521925521" lon="11.99048196338518"><ele>525.0</ele><time>2026-04-19T11:12:02.001Z</time></trkpt><trkpt lat="43.33674824432855" lon="11.990581682418766"><ele>528.0</ele><time>2026-04-19T11:12:05.001Z</time></trkpt><trkpt lat="43.33674327035411" lon="11.990669824167673"><ele>531.0</ele><time>2026-04-19T11:12:08.001Z</time></trkpt><trkpt lat="43.33674283510372" lon="11.990757094344941"><ele>534.0</ele><time>2026-04-19T11:12:11.001Z</time></trkpt><trkpt lat="43.336769487652134" lon="11.990863642978985"><ele>537.0</ele><time>2026-04-19T11:12:15.001Z</time></trkpt><trkpt lat="43.33679105318274" lon="11.990945951641645"><ele>540.0</ele><time>2026-04-19T11:12:18.001Z</time></trkpt><trkpt lat="43.336833447054595" lon="11.991037758444811"><ele>543.0</ele><time>2026-04-19T11:12:22.001Z</time></trkpt><trkpt lat="43.33687426495305" lon="11.991136772267128"><ele>546.0</ele><time>2026-04-19T11:12:26.001Z</time></trkpt><trkpt lat="43.33690894043991" lon="11.99123486769796"><ele>549.0</ele><time>2026-04-19T11:12:30.001Z</time></trkpt><trkpt lat="43.336951424979354" lon="11.991321826443164"><ele>549.0</ele><time>2026-04-19T11:12:34.001Z</time></trkpt><trkpt lat="43.336999159325266" lon="11.991411204730381"><ele>549.0</ele><time>2026-04-19T11:12:38.001Z</time></trkpt><trkpt lat="43.33704105478848" lon="11.991492985463303"><ele>549.0</ele><time>2026-04-19T11:12:42.002Z</time></trkpt><trkpt lat="43.33708372158487" lon="11.991575464456028"><ele>549.0</ele><time>2026-04-19T11:12:46.002Z</time></trkpt><trkpt lat="43.337121786979026" lon="11.99166457938021"><ele>549.0</ele><time>2026-04-19T11:12:50.002Z</time></trkpt><trkpt lat="43.33716577564761" lon="11.991743468386632"><ele>549.0</ele><time>2026-04-19T11:12:54.002Z</time></trkpt><trkpt lat="43.337207181325546" lon="11.991821347973945"><ele>549.0</ele><time>2026-04-19T11:12:58.002Z</time></trkpt><trkpt lat="43.337244896310395" lon="11.991901644528927"><ele>549.4285714285714</ele><time>2026-04-19T11:13:02.002Z</time></trkpt><trkpt lat="43.33728169838794" lon="11.991982057590768"><ele>549.8571428571429</ele><time>2026-04-19T11:13:06.002Z</time></trkpt><trkpt lat="43.33731953039784" lon="11.992060571446459"><ele>550.2857142857143</ele><time>2026-04-19T11:13:10.002Z</time></trkpt><trkpt lat="43.33736339529764" lon="11.992136815862608"><ele>550.7142857142858</ele><time>2026-04-19T11:13:14.002Z</time></trkpt><trkpt lat="43.33739633706254" lon="11.992219462739458"><ele>551.1428571428572</ele><time>2026-04-19T11:13:18.002Z</time></trkpt><trkpt lat="43.33743390163554" lon="11.99230342187026"><ele>551.5714285714286</ele><time>2026-04-19T11:13:22.003Z</time></trkpt><trkpt lat="43.337456337487" lon="11.992406992458228"><ele>552.0</ele><time>2026-04-19T11:13:27.003Z</time></trkpt><trkpt lat="43.337487253967026" lon="11.992506656637241"><ele>552.0</ele><time>2026-04-19T11:13:32.003Z</time></trkpt><trkpt lat="43.33751421338281" lon="11.992606339012278"><ele>552.0</ele><time>2026-04-19T11:13:37Z</time></trkpt><trkpt lat="43.337533162370946" lon="11.992702639360939"><ele>552.0</ele><time>2026-04-19T11:13:42Z</time></trkpt><trkpt lat="43.337548813792516" lon="11.992800147915094"><ele>552.0</ele><time>2026-04-19T11:13:47Z</time></trkpt><trkpt lat="43.337562819844315" lon="11.992899210001221"><ele>552.0</ele><time>2026-04-19T11:13:52Z</time></trkpt><trkpt lat="43.33757004490321" lon="11.99299761781222"><ele>552.0</ele><time>2026-04-19T11:13:57Z</time></trkpt><trkpt lat="43.337582772104305" lon="11.993097946416523"><ele>552.0</ele><time>2026-04-19T11:14:02.001Z</time></trkpt><trkpt lat="43.337589108883336" lon="11.993204614091916"><ele>552.0</ele><time>2026-04-19T11:14:07.001Z</time></trkpt><trkpt lat="43.337582522374134" lon="11.993307253412915"><ele>552.0</ele><time>2026-04-19T11:14:12.001Z</time></trkpt><trkpt lat="43.33759274276172" lon="11.993405807548841"><ele>552.0</ele><time>2026-04-19T11:14:17.001Z</time></trkpt><trkpt lat="43.3376093474579" lon="11.993501158707437"><ele>552.0</ele><time>2026-04-19T11:14:22.001Z</time></trkpt><trkpt lat="43.337632046344474" lon="11.993595122083804"><ele>552.0</ele><time>2026-04-19T11:14:27.001Z</time></trkpt><trkpt lat="43.33765930216421" lon="11.993684612331744"><ele>552.0</ele><time>2026-04-19T11:14:32.001Z</time></trkpt><trkpt lat="43.33770816953677" lon="11.993766395039131"><ele>552.0</ele><time>2026-04-19T11:14:37.001Z</time></trkpt><trkpt lat="43.337744833710715" lon="11.99385746072083"><ele>551.0</ele><time>2026-04-19T11:14:42.001Z</time></trkpt><trkpt lat="43.337788160787014" lon="11.993941415427129"><ele>550.0</ele><time>2026-04-19T11:14:47.002Z</time></trkpt><trkpt lat="43.33783584738024" lon="11.99401667962179"><ele>549.0</ele><time>2026-04-19T11:14:52.002Z</time></trkpt><trkpt lat="43.33788508988465" lon="11.99407207827773"><ele>548.0</ele><time>2026-04-19T11:14:56.002Z</time></trkpt><trkpt lat="43.337944877559345" lon="11.994104425445775"><ele>547.0</ele><time>2026-04-19T11:15:00.002Z</time></trkpt><trkpt lat="43.33800854755125" lon="11.994162765137403"><ele>546.0</ele><time>2026-04-19T11:15:05.002Z</time></trkpt><trkpt lat="43.33807630388626" lon="11.994165682159814"><ele>545.0</ele><time>2026-04-19T11:15:09.002Z</time></trkpt><trkpt lat="43.33814377000018" lon="11.99418721770976"><ele>545.0</ele><time>2026-04-19T11:15:13.002Z</time></trkpt><trkpt lat="43.33821436780302" lon="11.994181498597662"><ele>545.0</ele><time>2026-04-19T11:15:17.002Z</time></trkpt><trkpt lat="43.33829156209477" lon="11.994170604926504"><ele>545.0</ele><time>2026-04-19T11:15:21.002Z</time></trkpt><trkpt lat="43.33836715730058" lon="11.99418249578022"><ele>545.0</ele><time>2026-04-19T11:15:25.002Z</time></trkpt><trkpt lat="43.33843751466182" lon="11.99417243137515"><ele>545.0</ele><time>2026-04-19T11:15:29.003Z</time></trkpt><trkpt lat="43.338504652000935" lon="11.994172029747563"><ele>545.0</ele><time>2026-04-19T11:15:32.003Z</time></trkpt><trkpt lat="43.33857613084457" lon="11.9941632837533"><ele>545.0</ele><time>2026-04-19T11:15:35.003Z</time></trkpt><trkpt lat="43.33864021520161" lon="11.994204761086323"><ele>547.8571428571429</ele><time>2026-04-19T11:15:38.003Z</time></trkpt><trkpt lat="43.338694179127074" lon="11.994263030213459"><ele>550.7142857142858</ele><time>2026-04-19T11:15:41Z</time></trkpt><trkpt lat="43.33874279688891" lon="11.994327366744415"><ele>553.5714285714286</ele><time>2026-04-19T11:15:44Z</time></trkpt><trkpt lat="43.338773435740315" lon="11.99441119145135"><ele>556.4285714285714</ele><time>2026-04-19T11:15:47Z</time></trkpt><trkpt lat="43.338793196114686" lon="11.99449797720734"><ele>559.2857142857142</ele><time>2026-04-19T11:15:50Z</time></trkpt><trkpt lat="43.33880997592397" lon="11.994611164928392"><ele>562.1428571428571</ele><time>2026-04-19T11:15:54Z</time></trkpt><trkpt lat="43.338803952142705" lon="11.994723603322726"><ele>565.0</ele><time>2026-04-19T11:15:58Z</time></trkpt><trkpt lat="43.3388100974337" lon="11.994835790859801"><ele>565.0</ele><time>2026-04-19T11:16:02Z</time></trkpt><trkpt lat="43.33882754656371" lon="11.994936287156836"><ele>565.0</ele><time>2026-04-19T11:16:06Z</time></trkpt><trkpt lat="43.338841852087384" lon="11.99504028767795"><ele>565.0</ele><time>2026-04-19T11:16:10Z</time></trkpt><trkpt lat="43.33889213728625" lon="11.99513189670514"><ele>565.0</ele><time>2026-04-19T11:16:14.001Z</time></trkpt><trkpt lat="43.33894272544692" lon="11.995212043181045"><ele>565.0</ele><time>2026-04-19T11:16:18.001Z</time></trkpt><trkpt lat="43.33901337999649" lon="11.995270173114797"><ele>565.0</ele><time>2026-04-19T11:16:22.001Z</time></trkpt><trkpt lat="43.33907743539385" lon="11.995295945866062"><ele>564.8571428571428</ele><time>2026-04-19T11:16:25.001Z</time></trkpt><trkpt lat="43.33914246958857" lon="11.99532102028221"><ele>564.7142857142857</ele><time>2026-04-19T11:16:28.001Z</time></trkpt><trkpt lat="43.33920840820768" lon="11.995335866890501"><ele>564.5714285714286</ele><time>2026-04-19T11:16:31.001Z</time></trkpt><trkpt lat="43.33927293316622" lon="11.99537122164283"><ele>564.4285714285713</ele><time>2026-04-19T11:16:34.001Z</time></trkpt><trkpt lat="43.33932868993374" lon="11.995419630465303"><ele>564.2857142857142</ele><time>2026-04-19T11:16:37.001Z</time></trkpt><trkpt lat="43.33937370018933" lon="11.995489384170309"><ele>564.1428571428571</ele><time>2026-04-19T11:16:40.001Z</time></trkpt><trkpt lat="43.33941849013502" lon="11.995556615926578"><ele>564.0</ele><time>2026-04-19T11:16:43.001Z</time></trkpt><trkpt lat="43.339448834146395" lon="11.99563770776797"><ele>564.0</ele><time>2026-04-19T11:16:46.001Z</time></trkpt><trkpt lat="43.33948446380005" lon="11.995712469198756"><ele>564.0</ele><time>2026-04-19T11:16:49.001Z</time></trkpt><trkpt lat="43.33952652619212" lon="11.995776868685748"><ele>564.0</ele><time>2026-04-19T11:16:52.001Z</time></trkpt><trkpt lat="43.339563972499825" lon="11.99585155534202"><ele>564.0</ele><time>2026-04-19T11:16:55.001Z</time></trkpt><trkpt lat="43.33960165856145" lon="11.995921229564082"><ele>564.0</ele><time>2026-04-19T11:16:58.002Z</time></trkpt><trkpt lat="43.339656255675784" lon="11.995979022603727"><ele>564.0</ele><time>2026-04-19T11:17:02.002Z</time></trkpt><trkpt lat="43.33969747242108" lon="11.99607208200707"><ele>564.0</ele><time>2026-04-19T11:17:06.002Z</time></trkpt><trkpt lat="43.33973520740247" lon="11.996163404891114"><ele>563.5</ele><time>2026-04-19T11:17:10.002Z</time></trkpt><trkpt lat="43.339778159473695" lon="11.996249990315238"><ele>563.0</ele><time>2026-04-19T11:17:14.002Z</time></trkpt><trkpt lat="43.33982586620014" lon="11.99633785633087"><ele>562.5</ele><time>2026-04-19T11:17:18.002Z</time></trkpt><trkpt lat="43.33988295171559" lon="11.996417766256368"><ele>562.0</ele><time>2026-04-19T11:17:22.002Z</time></trkpt><trkpt lat="43.339922647949756" lon="11.996503945743296"><ele>561.5</ele><time>2026-04-19T11:17:26.002Z</time></trkpt><trkpt lat="43.339967898352235" lon="11.996574304752981"><ele>561.0</ele><time>2026-04-19T11:17:30.002Z</time></trkpt><trkpt lat="43.340009265953455" lon="11.996657394588928"><ele>563.2857142857142</ele><time>2026-04-19T11:17:35.002Z</time></trkpt><trkpt lat="43.34004977301741" lon="11.99673057473399"><ele>565.5714285714286</ele><time>2026-04-19T11:17:39.002Z</time></trkpt><trkpt lat="43.34009244974844" lon="11.996809727423024"><ele>567.8571428571429</ele><time>2026-04-19T11:17:43.003Z</time></trkpt><trkpt lat="43.34013488129857" lon="11.996887416976156"><ele>570.1428571428571</ele><time>2026-04-19T11:17:46.999Z</time></trkpt><trkpt lat="43.34017414637107" lon="11.996965148627254"><ele>572.4285714285714</ele><time>2026-04-19T11:17:50.999Z</time></trkpt><trkpt lat="43.340218689167706" lon="11.997043541679247"><ele>574.7142857142857</ele><time>2026-04-19T11:17:54.999Z</time></trkpt><trkpt lat="43.340258428584775" lon="11.997121309858251"><ele>577.0</ele><time>2026-04-19T11:17:58.999Z</time></trkpt><trkpt lat="43.34030014722587" lon="11.9971960739415"><ele>577.0</ele><time>2026-04-19T11:18:03Z</time></trkpt><trkpt lat="43.34034369993965" lon="11.99726627792122"><ele>577.0</ele><time>2026-04-19T11:18:07Z</time></trkpt><trkpt lat="43.340385699145614" lon="11.99734342771139"><ele>577.0</ele><time>2026-04-19T11:18:11Z</time></trkpt><trkpt lat="43.340429146505976" lon="11.997419071766808"><ele>577.0</ele><time>2026-04-19T11:18:15Z</time></trkpt><trkpt lat="43.340467520947854" lon="11.997491775377213"><ele>577.0</ele><time>2026-04-19T11:18:19Z</time></trkpt><trkpt lat="43.34050677307377" lon="11.997569451648156"><ele>577.0</ele><time>2026-04-19T11:18:23Z</time></trkpt><trkpt lat="43.34054788026099" lon="11.997641693941585"><ele>577.0</ele><time>2026-04-19T11:18:27Z</time></trkpt><trkpt lat="43.34058535313063" lon="11.997714884742583"><ele>575.4285714285714</ele><time>2026-04-19T11:18:31Z</time></trkpt><trkpt lat="43.34062384465611" lon="11.997784492754793"><ele>573.8571428571429</ele><time>2026-04-19T11:18:35.001Z</time></trkpt><trkpt lat="43.34066213658319" lon="11.997857244155746"><ele>572.2857142857143</ele><time>2026-04-19T11:18:39.001Z</time></trkpt><trkpt lat="43.34071026050281" lon="11.997944071420395"><ele>570.7142857142858</ele><time>2026-04-19T11:18:44.001Z</time></trkpt><trkpt lat="43.3407369547093" lon="11.998027460537905"><ele>569.1428571428572</ele><time>2026-04-19T11:18:48.001Z</time></trkpt><trkpt lat="43.34076527090196" lon="11.998107529566813"><ele>567.5714285714286</ele><time>2026-04-19T11:18:52.001Z</time></trkpt><trkpt lat="43.34073709291132" lon="11.998196021691632"><ele>566.0</ele><time>2026-04-19T11:18:57.001Z</time></trkpt><trkpt lat="43.34072773556415" lon="11.9981067916713"><ele>566.0</ele><time>2026-04-19T11:19:04.001Z</time></trkpt><trkpt lat="43.340695534168006" lon="11.998023480217894"><ele>566.0</ele><time>2026-04-19T11:19:09.001Z</time></trkpt><trkpt lat="43.34059830973269" lon="11.998054701821795"><ele>566.0</ele><time>2026-04-19T11:19:11.001Z</time></trkpt><trkpt lat="43.34055358216631" lon="11.99799153031834"><ele>566.0</ele><time>2026-04-19T11:19:15.002Z</time></trkpt><trkpt lat="43.34048915409675" lon="11.99793055715984"><ele>566.0</ele><time>2026-04-19T11:19:20.002Z</time></trkpt><trkpt lat="43.34043763758726" lon="11.997866412767468"><ele>566.0</ele><time>2026-04-19T11:19:25.002Z</time></trkpt><trkpt lat="43.34038888247461" lon="11.997794128735707"><ele>567.5714285714286</ele><time>2026-04-19T11:19:29.002Z</time></trkpt><trkpt lat="43.34033317959483" lon="11.997732918896164"><ele>569.1428571428572</ele><time>2026-04-19T11:19:33.002Z</time></trkpt><trkpt lat="43.34027615875455" lon="11.997673989486305"><ele>570.7142857142858</ele><time>2026-04-19T11:19:37.002Z</time></trkpt><trkpt lat="43.340219923183916" lon="11.997599583988238"><ele>572.2857142857143</ele><time>2026-04-19T11:19:41.002Z</time></trkpt><trkpt lat="43.340169894492256" lon="11.997521640340667"><ele>573.8571428571429</ele><time>2026-04-19T11:19:45.002Z</time></trkpt><trkpt lat="43.340125298841436" lon="11.997453797640217"><ele>575.4285714285714</ele><time>2026-04-19T11:19:48.002Z</time></trkpt><trkpt lat="43.34008011833733" lon="11.997387312936738"><ele>577.0</ele><time>2026-04-19T11:19:50.999Z</time></trkpt><trkpt lat="43.34002660435946" lon="11.997322753424143"><ele>577.0</ele><time>2026-04-19T11:19:53.999Z</time></trkpt><trkpt lat="43.339977958552794" lon="11.997234710866453"><ele>577.0</ele><time>2026-04-19T11:19:56.999Z</time></trkpt><trkpt lat="43.33992043609649" lon="11.99714401989107"><ele>577.0</ele><time>2026-04-19T11:19:59.999Z</time></trkpt><trkpt lat="43.33986602067745" lon="11.997051208501953"><ele>577.0</ele><time>2026-04-19T11:20:02.999Z</time></trkpt><trkpt lat="43.33979991747233" lon="11.996964939658339"><ele>577.0</ele><time>2026-04-19T11:20:06Z</time></trkpt><trkpt lat="43.339739256232576" lon="11.996869064808246"><ele>577.0</ele><time>2026-04-19T11:20:09Z</time></trkpt><trkpt lat="43.33967109781351" lon="11.996811065172047"><ele>578.2857142857142</ele><time>2026-04-19T11:20:12Z</time></trkpt><trkpt lat="43.33960891577894" lon="11.996742849959483"><ele>579.5714285714286</ele><time>2026-04-19T11:20:15Z</time></trkpt><trkpt lat="43.33955171646596" lon="11.996676953421572"><ele>580.8571428571429</ele><time>2026-04-19T11:20:18Z</time></trkpt><trkpt lat="43.339502744947836" lon="11.996610338403167"><ele>582.1428571428571</ele><time>2026-04-19T11:20:21Z</time></trkpt><trkpt lat="43.339450725895965" lon="11.996538151692553"><ele>583.4285714285714</ele><time>2026-04-19T11:20:24Z</time></trkpt><trkpt lat="43.33940151749729" lon="11.99645611603728"><ele>584.7142857142857</ele><time>2026-04-19T11:20:27Z</time></trkpt><trkpt lat="43.33935769665915" lon="11.996377425406932"><ele>586.0</ele><time>2026-04-19T11:20:30Z</time></trkpt><trkpt lat="43.339318646176814" lon="11.99630872110474"><ele>585.9999999999999</ele><time>2026-04-19T11:20:33Z</time></trkpt><trkpt lat="43.33927296620642" lon="11.996224692260519"><ele>586.0</ele><time>2026-04-19T11:20:37.001Z</time></trkpt><trkpt lat="43.33922278896864" lon="11.996152221019228"><ele>586.0</ele><time>2026-04-19T11:20:41.001Z</time></trkpt><trkpt lat="43.33916206777816" lon="11.996084717636789"><ele>586.0</ele><time>2026-04-19T11:20:46.001Z</time></trkpt><trkpt lat="43.33910475106654" lon="11.996040482608713"><ele>586.0</ele><time>2026-04-19T11:20:50.001Z</time></trkpt><trkpt lat="43.33902910085164" lon="11.99600656905067"><ele>585.9999999999999</ele><time>2026-04-19T11:20:55.001Z</time></trkpt><trkpt lat="43.338965838977444" lon="11.995975465326948"><ele>586.0</ele><time>2026-04-19T11:20:59.001Z</time></trkpt><trkpt lat="43.33889811442712" lon="11.995954112752855"><ele>586.8571428571428</ele><time>2026-04-19T11:21:03.001Z</time></trkpt><trkpt lat="43.33883471865059" lon="11.995912420130768"><ele>587.7142857142857</ele><time>2026-04-19T11:21:07.001Z</time></trkpt><trkpt lat="43.338764593759166" lon="11.995896479633412"><ele>588.5714285714286</ele><time>2026-04-19T11:21:11.002Z</time></trkpt><trkpt lat="43.338694521131245" lon="11.995882731857598"><ele>589.4285714285713</ele><time>2026-04-19T11:21:15.002Z</time></trkpt><trkpt lat="43.33862521088259" lon="11.995886437025854"><ele>590.2857142857142</ele><time>2026-04-19T11:21:19.002Z</time></trkpt><trkpt lat="43.338562835745044" lon="11.995851514633191"><ele>591.1428571428571</ele><time>2026-04-19T11:21:23.002Z</time></trkpt><trkpt lat="43.338490278674925" lon="11.995853426766196"><ele>592.0</ele><time>2026-04-19T11:21:27.002Z</time></trkpt><trkpt lat="43.338427303294736" lon="11.995838307442552"><ele>592.0</ele><time>2026-04-19T11:21:31.002Z</time></trkpt><trkpt lat="43.33835426915848" lon="11.995826035610982"><ele>592.0</ele><time>2026-04-19T11:21:36.002Z</time></trkpt><trkpt lat="43.33828981634391" lon="11.995797488843088"><ele>592.0</ele><time>2026-04-19T11:21:40.002Z</time></trkpt><trkpt lat="43.338220696595236" lon="11.995834656653214"><ele>592.0</ele><time>2026-04-19T11:21:44.002Z</time></trkpt><trkpt lat="43.338154434561446" lon="11.99586733592754"><ele>592.0</ele><time>2026-04-19T11:21:48.002Z</time></trkpt><trkpt lat="43.338090342913425" lon="11.99592160931492"><ele>592.0</ele><time>2026-04-19T11:21:52.003Z</time></trkpt><trkpt lat="43.338037098602854" lon="11.995975447176846"><ele>592.0</ele><time>2026-04-19T11:21:55.003Z</time></trkpt><trkpt lat="43.33798572362333" lon="11.996035317658306"><ele>590.0</ele><time>2026-04-19T11:21:58Z</time></trkpt><trkpt lat="43.337933086650395" lon="11.9960933046694"><ele>588.0</ele><time>2026-04-19T11:22:02Z</time></trkpt><trkpt lat="43.33787818036442" lon="11.996139475526096"><ele>586.0</ele><time>2026-04-19T11:22:05Z</time></trkpt><trkpt lat="43.33781989027823" lon="11.99620641083439"><ele>584.0</ele><time>2026-04-19T11:22:09Z</time></trkpt><trkpt lat="43.3377644357978" lon="11.99628681256806"><ele>582.0</ele><time>2026-04-19T11:28:46.001Z</time></trkpt><trkpt lat="43.33770898768871" lon="11.996333144111269"><ele>580.0</ele><time>2026-04-19T11:28:48.001Z</time></trkpt><trkpt lat="43.337624557884475" lon="11.996384552567683"><ele>578.0</ele><time>2026-04-19T11:28:50.001Z</time></trkpt><trkpt lat="43.33752960205804" lon="11.996421569875597"><ele>578.0</ele><time>2026-04-19T11:28:52.001Z</time></trkpt><trkpt lat="43.337430362330096" lon="11.99645113642359"><ele>578.0</ele><time>2026-04-19T11:28:54.001Z</time></trkpt><trkpt lat="43.3373297738883" lon="11.996486487579597"><ele>578.0</ele><time>2026-04-19T11:28:56.001Z</time></trkpt><trkpt lat="43.337229713086195" lon="11.996502441149481"><ele>578.0</ele><time>2026-04-19T11:28:58.001Z</time></trkpt><trkpt lat="43.33717073072623" lon="11.996536373959788"><ele>578.0</ele><time>2026-04-19T11:29:00.001Z</time></trkpt><trkpt lat="43.33707647914198" lon="11.996539839856073"><ele>575.6</ele><time>2026-04-19T11:29:03.001Z</time></trkpt><trkpt lat="43.33700637330881" lon="11.996513899328859"><ele>573.1999999999999</ele><time>2026-04-19T11:29:05.001Z</time></trkpt><trkpt lat="43.33690922426252" lon="11.996512406165627"><ele>570.8</ele><time>2026-04-19T11:29:07.001Z</time></trkpt><trkpt lat="43.33678723940023" lon="11.996481629543455"><ele>568.4</ele><time>2026-04-19T11:29:09.001Z</time></trkpt><trkpt lat="43.336662813814655" lon="11.996446406606262"><ele>566.0</ele><time>2026-04-19T11:29:11.001Z</time></trkpt><trkpt lat="43.336591594606205" lon="11.99643575918923"><ele>566.0</ele><time>2026-04-19T11:29:12.001Z</time></trkpt><trkpt lat="43.336525028046644" lon="11.996418070920539"><ele>566.0</ele><time>2026-04-19T11:29:13.001Z</time></trkpt><trkpt lat="43.33645523861483" lon="11.996402002243654"><ele>566.0</ele><time>2026-04-19T11:29:14.001Z</time></trkpt><trkpt lat="43.33638417998595" lon="11.996375277674433"><ele>566.0</ele><time>2026-04-19T11:29:15.001Z</time></trkpt><trkpt lat="43.33631652299156" lon="11.996369740699352"><ele>566.0</ele><time>2026-04-19T11:29:16.001Z</time></trkpt><trkpt lat="43.336254036797115" lon="11.99635383336069"><ele>566.0</ele><time>2026-04-19T11:29:17.001Z</time></trkpt><trkpt lat="43.336135090922554" lon="11.996369247743756"><ele>561.75</ele><time>2026-04-19T11:29:19.001Z</time></trkpt><trkpt lat="43.33603494294923" lon="11.996379697676574"><ele>557.5</ele><time>2026-04-19T11:29:21.001Z</time></trkpt><trkpt lat="43.33593507738701" lon="11.996330126562963"><ele>553.25</ele><time>2026-04-19T11:29:23.002Z</time></trkpt><trkpt lat="43.335891664029084" lon="11.996192526724764"><ele>549.0</ele><time>2026-04-19T11:29:25.002Z</time></trkpt><trkpt lat="43.33583773822841" lon="11.995983255828175"><ele>549.1666666666666</ele><time>2026-04-19T11:29:28.002Z</time></trkpt><trkpt lat="43.33579814632687" lon="11.995825854624503"><ele>549.3333333333334</ele><time>2026-04-19T11:29:30.002Z</time></trkpt><trkpt lat="43.33568201390945" lon="11.995770278420958"><ele>549.5</ele><time>2026-04-19T11:29:32.002Z</time></trkpt><trkpt lat="43.33561441886049" lon="11.995788690613853"><ele>549.6666666666667</ele><time>2026-04-19T11:29:33.002Z</time></trkpt><trkpt lat="43.33555130016287" lon="11.995822033025057"><ele>549.8333333333334</ele><time>2026-04-19T11:29:34.002Z</time></trkpt><trkpt lat="43.33549244320583" lon="11.995864528658931"><ele>550.0</ele><time>2026-04-19T11:29:35.002Z</time></trkpt><trkpt lat="43.3353804994703" lon="11.995917273274534"><ele>550.0</ele><time>2026-04-19T11:29:37.002Z</time></trkpt><trkpt lat="43.33527356457791" lon="11.995907320578947"><ele>550.0</ele><time>2026-04-19T11:29:39.002Z</time></trkpt><trkpt lat="43.33518870721519" lon="11.995795528413135"><ele>550.0</ele><time>2026-04-19T11:29:41.002Z</time></trkpt><trkpt lat="43.33512488391418" lon="11.995673194471737"><ele>550.0</ele><time>2026-04-19T11:29:43.002Z</time></trkpt><trkpt lat="43.33507939097935" lon="11.995606002077492"><ele>550.0</ele><time>2026-04-19T11:29:44.002Z</time></trkpt><trkpt lat="43.335060968181764" lon="11.99551879994274"><ele>550.0</ele><time>2026-04-19T11:29:45.002Z</time></trkpt><trkpt lat="43.33501342597915" lon="11.995460574675116"><ele>550.0</ele><time>2026-04-19T11:29:46.002Z</time></trkpt><trkpt lat="43.33492002244166" lon="11.995361064439116"><ele>550.0</ele><time>2026-04-19T11:29:48.002Z</time></trkpt><trkpt lat="43.33484949513682" lon="11.995385981933362"><ele>550.0</ele><time>2026-04-19T11:29:49.002Z</time></trkpt><trkpt lat="43.334793333939935" lon="11.995453087519442"><ele>550.0</ele><time>2026-04-19T11:29:50.002Z</time></trkpt><trkpt lat="43.33475138245631" lon="11.995525192441571"><ele>550.0</ele><time>2026-04-19T11:29:51.002Z</time></trkpt><trkpt lat="43.334711230906294" lon="11.995597793680265"><ele>547.6</ele><time>2026-04-19T11:29:52.002Z</time></trkpt><trkpt lat="43.33462562656141" lon="11.99569554179817"><ele>545.2</ele><time>2026-04-19T11:29:54.002Z</time></trkpt><trkpt lat="43.334508989921815" lon="11.995691177925442"><ele>542.8</ele><time>2026-04-19T11:29:56.002Z</time></trkpt><trkpt lat="43.33438832354564" lon="11.995669413232896"><ele>540.4</ele><time>2026-04-19T11:29:58.002Z</time></trkpt><trkpt lat="43.33432572765912" lon="11.995656812452554"><ele>538.0</ele><time>2026-04-19T11:29:59.002Z</time></trkpt><trkpt lat="43.33426294803278" lon="11.995644256459084"><ele>538.0</ele><time>2026-04-19T11:30:00.003Z</time></trkpt><trkpt lat="43.334198338964896" lon="11.995627961876895"><ele>538.0</ele><time>2026-04-19T11:30:01.003Z</time></trkpt><trkpt lat="43.33413165054866" lon="11.995605981075808"><ele>538.0</ele><time>2026-04-19T11:30:02.003Z</time></trkpt><trkpt lat="43.33407088967854" lon="11.995578872456703"><ele>538.0</ele><time>2026-04-19T11:30:03.003Z</time></trkpt><trkpt lat="43.334011142186256" lon="11.995539079900277"><ele>538.0</ele><time>2026-04-19T11:30:04.003Z</time></trkpt><trkpt lat="43.33395348578799" lon="11.995496021565746"><ele>538.0</ele><time>2026-04-19T11:30:05.003Z</time></trkpt><trkpt lat="43.33388741591713" lon="11.995444707988886"><ele>538.0</ele><time>2026-04-19T11:30:06.003Z</time></trkpt><trkpt lat="43.333806472962934" lon="11.995415153395792"><ele>537.3333333333334</ele><time>2026-04-19T11:30:07.003Z</time></trkpt><trkpt lat="43.33372431939154" lon="11.995396216825997"><ele>536.6666666666667</ele><time>2026-04-19T11:30:08.003Z</time></trkpt><trkpt lat="43.33363394521424" lon="11.995386484534531"><ele>536.0</ele><time>2026-04-19T11:30:09.003Z</time></trkpt><trkpt lat="43.33354665417929" lon="11.995355767742966"><ele>535.3333333333334</ele><time>2026-04-19T11:30:10.003Z</time></trkpt><trkpt lat="43.333458534543894" lon="11.995326473184983"><ele>534.6666666666666</ele><time>2026-04-19T11:30:11.003Z</time></trkpt><trkpt lat="43.33336762239763" lon="11.995297928878758"><ele>534.0</ele><time>2026-04-19T11:30:12.003Z</time></trkpt><trkpt lat="43.333275052488354" lon="11.995283776429746"><ele>534.0</ele><time>2026-04-19T11:30:13.003Z</time></trkpt><trkpt lat="43.333189167907506" lon="11.995261134682844"><ele>534.0</ele><time>2026-04-19T11:30:14.003Z</time></trkpt><trkpt lat="43.33311699348773" lon="11.995226371233404"><ele>534.0</ele><time>2026-04-19T11:30:15.003Z</time></trkpt><trkpt lat="43.33304793483907" lon="11.995211027165581"><ele>534.0</ele><time>2026-04-19T11:30:16.003Z</time></trkpt><trkpt lat="43.3329848921543" lon="11.99518912503615"><ele>534.0</ele><time>2026-04-19T11:30:17.003Z</time></trkpt><trkpt lat="43.33288570331451" lon="11.995126339011668"><ele>534.0</ele><time>2026-04-19T11:30:19.003Z</time></trkpt><trkpt lat="43.33283569933969" lon="11.995043320032872"><ele>535.0</ele><time>2026-04-19T11:30:21Z</time></trkpt><trkpt lat="43.332768805513034" lon="11.994982799851416"><ele>536.0</ele><time>2026-04-19T11:30:24Z</time></trkpt><trkpt lat="43.33270123603896" lon="11.994973335403323"><ele>537.0</ele><time>2026-04-19T11:30:30Z</time></trkpt><trkpt lat="43.33259260003343" lon="11.99499923387098"><ele>538.0</ele><time>2026-04-19T11:33:03.001Z</time></trkpt><trkpt lat="43.33252718447801" lon="11.99491071020493"><ele>539.0</ele><time>2026-04-19T11:33:04.001Z</time></trkpt><trkpt lat="43.332433567937116" lon="11.994890816281185"><ele>540.0</ele><time>2026-04-19T11:33:06.001Z</time></trkpt><trkpt lat="43.332409544307446" lon="11.994768008540332"><ele>540.0</ele><time>2026-04-19T11:33:07.001Z</time></trkpt><trkpt lat="43.33233354661724" lon="11.994724760744749"><ele>540.0</ele><time>2026-04-19T11:33:10.001Z</time></trkpt><trkpt lat="43.33226015921181" lon="11.994681487152281"><ele>540.0</ele><time>2026-04-19T11:33:13.001Z</time></trkpt><trkpt lat="43.3322003824107" lon="11.99462462846095"><ele>540.0</ele><time>2026-04-19T11:33:16.001Z</time></trkpt><trkpt lat="43.33212751145154" lon="11.994588989946877"><ele>540.0</ele><time>2026-04-19T11:33:20.001Z</time></trkpt><trkpt lat="43.33203336277558" lon="11.994589321852139"><ele>540.0</ele><time>2026-04-19T11:33:23.001Z</time></trkpt><trkpt lat="43.33196625302055" lon="11.994631791988615"><ele>540.5714285714286</ele><time>2026-04-19T11:33:30.001Z</time></trkpt><trkpt lat="43.331902155188395" lon="11.994657925463878"><ele>541.1428571428571</ele><time>2026-04-19T11:33:37.002Z</time></trkpt><trkpt lat="43.331845922176264" lon="11.994702653251373"><ele>541.7142857142857</ele><time>2026-04-19T11:33:41.002Z</time></trkpt><trkpt lat="43.33177374320532" lon="11.99472582796267"><ele>542.2857142857142</ele><time>2026-04-19T11:33:45.002Z</time></trkpt><trkpt lat="43.331696303983485" lon="11.994737221902776"><ele>542.8571428571429</ele><time>2026-04-19T11:33:49.002Z</time></trkpt><trkpt lat="43.331618207922915" lon="11.994707555026197"><ele>543.4285714285713</ele><time>2026-04-19T11:33:53.002Z</time></trkpt><trkpt lat="43.33155262679515" lon="11.994650986271852"><ele>544.0</ele><time>2026-04-19T11:33:57.002Z</time></trkpt><trkpt lat="43.33147739136725" lon="11.994604976011468"><ele>543.9999999999999</ele><time>2026-04-19T11:34:01.002Z</time></trkpt><trkpt lat="43.33141094060839" lon="11.994561940491277"><ele>544.0</ele><time>2026-04-19T11:34:05.002Z</time></trkpt><trkpt lat="43.331348781884095" lon="11.994545114259664"><ele>544.0</ele><time>2026-04-19T11:34:08.002Z</time></trkpt><trkpt lat="43.331276957020265" lon="11.994529898463131"><ele>544.0</ele><time>2026-04-19T11:34:14.002Z</time></trkpt><trkpt lat="43.33120561814526" lon="11.994503927295968"><ele>544.0</ele><time>2026-04-19T11:34:19.003Z</time></trkpt><trkpt lat="43.3311414362575" lon="11.994452316027013"><ele>543.9999999999999</ele><time>2026-04-19T11:34:23.003Z</time></trkpt><trkpt lat="43.331063491831564" lon="11.994440007040458"><ele>544.0</ele><time>2026-04-19T11:34:27.003Z</time></trkpt><trkpt lat="43.33099931042516" lon="11.994481715608538"><ele>543.9999999999999</ele><time>2026-04-19T11:34:30.003Z</time></trkpt><trkpt lat="43.33094570583474" lon="11.994529510791962"><ele>544.0</ele><time>2026-04-19T11:34:33Z</time></trkpt><trkpt lat="43.33090317255937" lon="11.994593928762539"><ele>544.0</ele><time>2026-04-19T11:34:37Z</time></trkpt><trkpt lat="43.33084057368107" lon="11.994633606260207"><ele>544.0</ele><time>2026-04-19T11:34:42Z</time></trkpt><trkpt lat="43.33077206397812" lon="11.994609045833966"><ele>544.0</ele><time>2026-04-19T11:34:46Z</time></trkpt><trkpt lat="43.33069940944293" lon="11.99458668284959"><ele>543.9999999999999</ele><time>2026-04-19T11:34:51Z</time></trkpt><trkpt lat="43.33064033263403" lon="11.994554847253768"><ele>544.0</ele><time>2026-04-19T11:34:55.001Z</time></trkpt><trkpt lat="43.330576445602844" lon="11.99452981895443"><ele>547.7142857142857</ele><time>2026-04-19T11:34:59.001Z</time></trkpt><trkpt lat="43.33050842875513" lon="11.99450330132284"><ele>551.4285714285714</ele><time>2026-04-19T11:35:03.001Z</time></trkpt><trkpt lat="43.330440624709865" lon="11.994481188107708"><ele>555.1428571428571</ele><time>2026-04-19T11:35:07.001Z</time></trkpt><trkpt lat="43.33040079274078" lon="11.994410480018718"><ele>558.8571428571429</ele><time>2026-04-19T11:35:11.001Z</time></trkpt><trkpt lat="43.33034674682488" lon="11.994349056188817"><ele>562.5714285714286</ele><time>2026-04-19T11:35:16.001Z</time></trkpt><trkpt lat="43.330281990842586" lon="11.99431404130549"><ele>566.2857142857142</ele><time>2026-04-19T11:35:22.001Z</time></trkpt><trkpt lat="43.33022230440911" lon="11.9942650019671"><ele>570.0</ele><time>2026-04-19T11:35:27.001Z</time></trkpt><trkpt lat="43.33015747436844" lon="11.994224254121352"><ele>570.0</ele><time>2026-04-19T11:35:32.001Z</time></trkpt><trkpt lat="43.33009363659374" lon="11.994181323116809"><ele>570.0</ele><time>2026-04-19T11:35:37.001Z</time></trkpt><trkpt lat="43.330029632517395" lon="11.994140489898406"><ele>570.0</ele><time>2026-04-19T11:35:42.002Z</time></trkpt><trkpt lat="43.329970480032166" lon="11.994109774371504"><ele>570.0</ele><time>2026-04-19T11:35:46.002Z</time></trkpt><trkpt lat="43.32990831365467" lon="11.994085260370275"><ele>570.0</ele><time>2026-04-19T11:35:50.002Z</time></trkpt><trkpt lat="43.32983407019962" lon="11.99404481310038"><ele>570.0</ele><time>2026-04-19T11:35:55.002Z</time></trkpt><trkpt lat="43.32977399216379" lon="11.994013770594194"><ele>570.0</ele><time>2026-04-19T11:35:59.002Z</time></trkpt><trkpt lat="43.32970804706069" lon="11.993961735370577"><ele>570.1428571428571</ele><time>2026-04-19T11:36:04.002Z</time></trkpt><trkpt lat="43.32964591885028" lon="11.993915207930387"><ele>570.2857142857143</ele><time>2026-04-19T11:36:09.002Z</time></trkpt><trkpt lat="43.329596194249405" lon="11.993850076108675"><ele>570.4285714285714</ele><time>2026-04-19T11:36:14.002Z</time></trkpt><trkpt lat="43.32952924897768" lon="11.99379549444615"><ele>570.5714285714286</ele><time>2026-04-19T11:36:19.002Z</time></trkpt><trkpt lat="43.329474351339016" lon="11.993745495988787"><ele>570.7142857142857</ele><time>2026-04-19T11:36:24.003Z</time></trkpt><trkpt lat="43.32940966550458" lon="11.99370479962159"><ele>570.8571428571429</ele><time>2026-04-19T11:36:28.003Z</time></trkpt><trkpt lat="43.32934338667037" lon="11.99367148868723"><ele>571.0</ele><time>2026-04-19T11:36:33.003Z</time></trkpt><trkpt lat="43.32927583085512" lon="11.993649232186723"><ele>571.0</ele><time>2026-04-19T11:36:38.003Z</time></trkpt><trkpt lat="43.329213763455044" lon="11.993612409278509"><ele>571.0</ele><time>2026-04-19T11:36:43Z</time></trkpt><trkpt lat="43.32913916803526" lon="11.993560434370368"><ele>571.0</ele><time>2026-04-19T11:36:49Z</time></trkpt><trkpt lat="43.32908874096927" lon="11.993481517304366"><ele>571.0</ele><time>2026-04-19T11:36:55Z</time></trkpt><trkpt lat="43.32903681557138" lon="11.993420876783933"><ele>571.0</ele><time>2026-04-19T11:37:01.001Z</time></trkpt><trkpt lat="43.32898796843763" lon="11.993361923313088"><ele>571.0</ele><time>2026-04-19T11:37:20.001Z</time></trkpt><trkpt lat="43.32891534553611" lon="11.993338781361809"><ele>571.0</ele><time>2026-04-19T11:37:24.001Z</time></trkpt><trkpt lat="43.3288501989335" lon="11.993320125208546"><ele>570.8571428571429</ele><time>2026-04-19T11:37:28.001Z</time></trkpt><trkpt lat="43.32878158242229" lon="11.993297929704358"><ele>570.7142857142857</ele><time>2026-04-19T11:37:32.001Z</time></trkpt><trkpt lat="43.32871086372404" lon="11.993270674687754"><ele>570.5714285714286</ele><time>2026-04-19T11:37:37.001Z</time></trkpt><trkpt lat="43.328663863524056" lon="11.993212896192611"><ele>570.4285714285714</ele><time>2026-04-19T11:37:41.001Z</time></trkpt><trkpt lat="43.328599506191665" lon="11.993165835136825"><ele>570.2857142857143</ele><time>2026-04-19T11:37:45.001Z</time></trkpt><trkpt lat="43.32854057687734" lon="11.993122388877527"><ele>570.1428571428571</ele><time>2026-04-19T11:37:48.001Z</time></trkpt><trkpt lat="43.32847380976647" lon="11.993084758935955"><ele>570.0</ele><time>2026-04-19T11:37:52.002Z</time></trkpt><trkpt lat="43.32841236969297" lon="11.993051346348444"><ele>570.0</ele><time>2026-04-19T11:37:56.002Z</time></trkpt><trkpt lat="43.32833288036339" lon="11.99304871463961"><ele>570.0</ele><time>2026-04-19T11:38:01.002Z</time></trkpt><trkpt lat="43.328265970621786" lon="11.993022907864058"><ele>570.0</ele><time>2026-04-19T11:38:06.002Z</time></trkpt><trkpt lat="43.3282033022803" lon="11.992997121171316"><ele>570.0</ele><time>2026-04-19T11:38:10.002Z</time></trkpt><trkpt lat="43.328148004521495" lon="11.992948650823156"><ele>570.0</ele><time>2026-04-19T11:38:15.002Z</time></trkpt><trkpt lat="43.32808565167228" lon="11.992898259693979"><ele>570.0</ele><time>2026-04-19T11:38:20.002Z</time></trkpt><trkpt lat="43.32802826786213" lon="11.992836988563628"><ele>570.0</ele><time>2026-04-19T11:38:25.002Z</time></trkpt><trkpt lat="43.32798631394571" lon="11.992770024194266"><ele>571.7142857142857</ele><time>2026-04-19T11:38:55Z</time></trkpt><trkpt lat="43.327911123657664" lon="11.992777026916164"><ele>573.4285714285714</ele><time>2026-04-19T11:39:00Z</time></trkpt><trkpt lat="43.3278434707993" lon="11.992817955210807"><ele>575.1428571428571</ele><time>2026-04-19T11:39:06Z</time></trkpt><trkpt lat="43.32777161054153" lon="11.99282893830692"><ele>576.8571428571429</ele><time>2026-04-19T11:39:10.001Z</time></trkpt><trkpt lat="43.32770380990938" lon="11.992818317023925"><ele>578.5714285714286</ele><time>2026-04-19T11:39:14.001Z</time></trkpt><trkpt lat="43.32763579754323" lon="11.99280463336467"><ele>580.2857142857142</ele><time>2026-04-19T11:39:19.001Z</time></trkpt><trkpt lat="43.32757046044724" lon="11.99279561273643"><ele>582.0</ele><time>2026-04-19T11:39:24.001Z</time></trkpt><trkpt lat="43.32751820950339" lon="11.992745038709474"><ele>582.0</ele><time>2026-04-19T11:39:29.001Z</time></trkpt><trkpt lat="43.32747214331059" lon="11.992682343852257"><ele>582.0</ele><time>2026-04-19T11:39:37.001Z</time></trkpt><trkpt lat="43.32740847301557" lon="11.992653260121429"><ele>582.0</ele><time>2026-04-19T11:39:49.001Z</time></trkpt><trkpt lat="43.327345014487086" lon="11.992601645102168"><ele>582.0</ele><time>2026-04-19T11:39:55.001Z</time></trkpt><trkpt lat="43.327294824811794" lon="11.992537460565092"><ele>582.0</ele><time>2026-04-19T11:40:27.002Z</time></trkpt><trkpt lat="43.327226682850956" lon="11.992519934547433"><ele>582.0</ele><time>2026-04-19T11:40:35.002Z</time></trkpt><trkpt lat="43.327161407888866" lon="11.992501549072644"><ele>582.0</ele><time>2026-04-19T11:40:43.002Z</time></trkpt><trkpt lat="43.327094928635454" lon="11.992489612944718"><ele>582.2857142857142</ele><time>2026-04-19T11:40:52.001Z</time></trkpt><trkpt lat="43.32703449885358" lon="11.992451133842248"><ele>582.5714285714286</ele><time>2026-04-19T11:41:02Z</time></trkpt><trkpt lat="43.32697177152782" lon="11.992422974145029"><ele>582.8571428571429</ele><time>2026-04-19T11:41:10.001Z</time></trkpt><trkpt lat="43.326912134719045" lon="11.99237296103475"><ele>583.1428571428571</ele><time>2026-04-19T11:41:19.001Z</time></trkpt><trkpt lat="43.32687195863722" lon="11.992301782806736"><ele>583.4285714285714</ele><time>2026-04-19T11:41:27.001Z</time></trkpt><trkpt lat="43.32684557342223" lon="11.992220565099501"><ele>583.7142857142857</ele><time>2026-04-19T11:41:34.001Z</time></trkpt><trkpt lat="43.32681667339973" lon="11.99213709509479"><ele>584.0</ele><time>2026-04-19T11:41:41.001Z</time></trkpt><trkpt lat="43.326778679500244" lon="11.992052313031309"><ele>584.0</ele><time>2026-04-19T11:42:06.001Z</time></trkpt><trkpt lat="43.326745335786235" lon="11.99197427430132"><ele>584.0</ele><time>2026-04-19T11:42:14.002Z</time></trkpt><trkpt lat="43.32671564257377" lon="11.991885713614206"><ele>584.0</ele><time>2026-04-19T11:42:24.002Z</time></trkpt><trkpt lat="43.32671724589022" lon="11.991793148960143"><ele>584.0</ele><time>2026-04-19T11:42:31.002Z</time></trkpt><trkpt lat="43.32672377528459" lon="11.99170402618498"><ele>584.0</ele><time>2026-04-19T11:42:38.002Z</time></trkpt><trkpt lat="43.32671359978327" lon="11.991614925529081"><ele>584.0</ele><time>2026-04-19T11:42:44.002Z</time></trkpt><trkpt lat="43.32668355214551" lon="11.991532255321635"><ele>584.0</ele><time>2026-04-19T11:42:53.002Z</time></trkpt><trkpt lat="43.32664436834324" lon="11.991461536275764"><ele>585.0</ele><time>2026-04-19T11:42:59Z</time></trkpt><trkpt lat="43.326605779202694" lon="11.991386349759514"><ele>586.0</ele><time>2026-04-19T11:43:06Z</time></trkpt><trkpt lat="43.32656905925728" lon="11.991310250625746"><ele>587.0</ele><time>2026-04-19T11:43:13Z</time></trkpt><trkpt lat="43.326540656401036" lon="11.991222171742915"><ele>588.0</ele><time>2026-04-19T11:43:20Z</time></trkpt><trkpt lat="43.32652067165296" lon="11.991130136310641"><ele>589.0</ele><time>2026-04-19T11:43:27Z</time></trkpt><trkpt lat="43.326503425916094" lon="11.99103923560776"><ele>590.0</ele><time>2026-04-19T11:43:34.001Z</time></trkpt><trkpt lat="43.326485406329844" lon="11.990944860710409"><ele>591.0</ele><time>2026-04-19T11:43:41.001Z</time></trkpt><trkpt lat="43.326496441232834" lon="11.99085280000757"><ele>593.0</ele><time>2026-04-19T11:43:48.001Z</time></trkpt><trkpt lat="43.326506827151995" lon="11.990754178489434"><ele>595.0</ele><time>2026-04-19T11:43:55.001Z</time></trkpt><trkpt lat="43.32649211059653" lon="11.990660043201814"><ele>597.0</ele><time>2026-04-19T11:44:02.001Z</time></trkpt><trkpt lat="43.32647119330812" lon="11.990572447896131"><ele>599.0</ele><time>2026-04-19T11:44:09.001Z</time></trkpt><trkpt lat="43.32649363844556" lon="11.990483118209553"><ele>601.0</ele><time>2026-04-19T11:44:17.001Z</time></trkpt><trkpt lat="43.3265464843468" lon="11.990425511233186"><ele>603.0</ele><time>2026-04-19T11:44:25.002Z</time></trkpt><trkpt lat="43.32657584343894" lon="11.990341533097213"><ele>605.0</ele><time>2026-04-19T11:44:34.002Z</time></trkpt><trkpt lat="43.32654629524118" lon="11.990258379306672"><ele>605.0</ele><time>2026-04-19T11:45:34Z</time></trkpt><trkpt lat="43.32653531376637" lon="11.990170963867778"><ele>605.0</ele><time>2026-04-19T11:45:43.001Z</time></trkpt><trkpt lat="43.32652559409806" lon="11.990082048343888"><ele>605.0</ele><time>2026-04-19T11:45:51.001Z</time></trkpt><trkpt lat="43.32650990331995" lon="11.98999082263814"><ele>605.0</ele><time>2026-04-19T11:46:00.001Z</time></trkpt><trkpt lat="43.32648744653985" lon="11.98989997692694"><ele>605.0</ele><time>2026-04-19T11:46:10.001Z</time></trkpt><trkpt lat="43.32647400737198" lon="11.989813035916805"><ele>605.0</ele><time>2026-04-19T11:46:18.001Z</time></trkpt><trkpt lat="43.32646280813885" lon="11.989723868909147"><ele>605.0</ele><time>2026-04-19T11:46:25.001Z</time></trkpt><trkpt lat="43.3264515492404" lon="11.989632543385078"><ele>605.8571428571429</ele><time>2026-04-19T11:46:33.002Z</time></trkpt><trkpt lat="43.326440021643116" lon="11.989544267673539"><ele>606.7142857142858</ele><time>2026-04-19T11:46:40.002Z</time></trkpt><trkpt lat="43.3264091675165" lon="11.989465914120798"><ele>607.5714285714287</ele><time>2026-04-19T11:46:49.002Z</time></trkpt><trkpt lat="43.326367196935756" lon="11.989401207422134"><ele>608.4285714285714</ele><time>2026-04-19T11:46:59.002Z</time></trkpt><trkpt lat="43.326357236810935" lon="11.98930403970636"><ele>609.2857142857143</ele><time>2026-04-19T11:47:07.002Z</time></trkpt><trkpt lat="43.326303154943986" lon="11.989217402927967"><ele>610.1428571428572</ele><time>2026-04-19T11:49:09.002Z</time></trkpt><trkpt lat="43.32630741623255" lon="11.989127670941482"><ele>611.0</ele><time>2026-04-19T11:49:19Z</time></trkpt><trkpt lat="43.32628079626003" lon="11.989029415941223"><ele>611.0000000000001</ele><time>2026-04-19T11:49:23Z</time></trkpt><trkpt lat="43.32621543353946" lon="11.9890112497645"><ele>611.0</ele><time>2026-04-19T11:49:30Z</time></trkpt><trkpt lat="43.32617202355611" lon="11.989074788027365"><ele>611.0</ele><time>2026-04-19T11:49:35Z</time></trkpt><trkpt lat="43.32611760991954" lon="11.989142256600651"><ele>611.0</ele><time>2026-04-19T11:49:40Z</time></trkpt><trkpt lat="43.32605020919897" lon="11.98920323877317"><ele>611.0</ele><time>2026-04-19T11:49:45Z</time></trkpt><trkpt lat="43.32599225927118" lon="11.989243182363884"><ele>611.0000000000001</ele><time>2026-04-19T11:49:49Z</time></trkpt><trkpt lat="43.32591957319137" lon="11.989286059142778"><ele>611.0</ele><time>2026-04-19T11:49:54.001Z</time></trkpt><trkpt lat="43.32584683279797" lon="11.98928111885413"><ele>611.0000000000001</ele><time>2026-04-19T11:49:59.001Z</time></trkpt><trkpt lat="43.32578226090419" lon="11.989265723189037"><ele>611.0</ele><time>2026-04-19T11:50:04.001Z</time></trkpt><trkpt lat="43.32572439392871" lon="11.98922666724827"><ele>611.0</ele><time>2026-04-19T11:50:08.001Z</time></trkpt><trkpt lat="43.32566010024106" lon="11.98917910118922"><ele>611.0</ele><time>2026-04-19T11:50:13.001Z</time></trkpt><trkpt lat="43.32561561249425" lon="11.989109831513854"><ele>611.0</ele><time>2026-04-19T11:50:18.001Z</time></trkpt><trkpt lat="43.32555936098411" lon="11.989057915162665"><ele>611.0000000000001</ele><time>2026-04-19T11:50:22.001Z</time></trkpt><trkpt lat="43.32550194779579" lon="11.98901706887544"><ele>611.0</ele><time>2026-04-19T11:50:25.001Z</time></trkpt><trkpt lat="43.32545051198568" lon="11.988963156657956"><ele>611.8571428571429</ele><time>2026-04-19T11:50:29.001Z</time></trkpt><trkpt lat="43.32539341655753" lon="11.988925326074476"><ele>612.7142857142858</ele><time>2026-04-19T11:50:33.001Z</time></trkpt><trkpt lat="43.32532645401811" lon="11.98888836948695"><ele>613.5714285714287</ele><time>2026-04-19T11:50:36.001Z</time></trkpt><trkpt lat="43.325265656122596" lon="11.98885407865739"><ele>614.4285714285714</ele><time>2026-04-19T11:50:38.001Z</time></trkpt><trkpt lat="43.3251870224833" lon="11.988787944591827"><ele>615.2857142857142</ele><time>2026-04-19T11:50:41.001Z</time></trkpt><trkpt lat="43.32513775002166" lon="11.988711482658175"><ele>616.1428571428572</ele><time>2026-04-19T11:50:44.002Z</time></trkpt><trkpt lat="43.32507912595295" lon="11.988672566873817"><ele>617.0</ele><time>2026-04-19T11:50:47.002Z</time></trkpt><trkpt lat="43.32500885829285" lon="11.988640810773385"><ele>617.0</ele><time>2026-04-19T11:50:50.002Z</time></trkpt><trkpt lat="43.324926065501145" lon="11.988635283612608"><ele>617.0</ele><time>2026-04-19T11:50:54.002Z</time></trkpt><trkpt lat="43.32485513268884" lon="11.988644684726243"><ele>617.0</ele><time>2026-04-19T11:50:59.002Z</time></trkpt><trkpt lat="43.324788428898046" lon="11.988640593547636"><ele>617.0</ele><time>2026-04-19T11:51:24Z</time></trkpt><trkpt lat="43.32472378187052" lon="11.988665712069304"><ele>617.0</ele><time>2026-04-19T11:51:32Z</time></trkpt><trkpt lat="43.324661232884566" lon="11.988650288901432"><ele>617.0</ele><time>2026-04-19T11:51:41Z</time></trkpt><trkpt lat="43.32459146944745" lon="11.988667367197053"><ele>617.0</ele><time>2026-04-19T11:51:49Z</time></trkpt><trkpt lat="43.32452706295381" lon="11.98870398624148"><ele>617.1428571428572</ele><time>2026-04-19T11:51:58Z</time></trkpt><trkpt lat="43.324469051553045" lon="11.988659448420515"><ele>617.2857142857142</ele><time>2026-04-19T11:52:15.001Z</time></trkpt><trkpt lat="43.32441417325225" lon="11.988604775011916"><ele>617.4285714285714</ele><time>2026-04-19T11:52:54.002Z</time></trkpt><trkpt lat="43.32435760460775" lon="11.988555562025969"><ele>617.5714285714287</ele><time>2026-04-19T11:53:01.002Z</time></trkpt><trkpt lat="43.324318124177736" lon="11.988472825805703"><ele>617.7142857142858</ele><time>2026-04-19T11:53:07.002Z</time></trkpt><trkpt lat="43.32427956913535" lon="11.988400868281623"><ele>617.8571428571429</ele><time>2026-04-19T11:53:13.002Z</time></trkpt><trkpt lat="43.32424918622616" lon="11.98830083469345"><ele>618.0</ele><time>2026-04-19T11:53:20.002Z</time></trkpt><trkpt lat="43.324265743853445" lon="11.988204530764442"><ele>617.7142857142858</ele><time>2026-04-19T11:53:27Z</time></trkpt><trkpt lat="43.32433127811352" lon="11.988190420738007"><ele>617.4285714285714</ele><time>2026-04-19T11:53:33Z</time></trkpt><trkpt lat="43.32439412532176" lon="11.988178150290166"><ele>617.1428571428571</ele><time>2026-04-19T11:53:41Z</time></trkpt><trkpt lat="43.32446260990674" lon="11.98815212282118"><ele>616.8571428571429</ele><time>2026-04-19T11:53:55Z</time></trkpt><trkpt lat="43.324524190994445" lon="11.988117571807187"><ele>616.5714285714286</ele><time>2026-04-19T11:54:00Z</time></trkpt><trkpt lat="43.324583185109326" lon="11.98815971408882"><ele>616.2857142857143</ele><time>2026-04-19T11:54:15Z</time></trkpt><trkpt lat="43.32462338693838" lon="11.988090987497305"><ele>616.0</ele><time>2026-04-19T11:54:26Z</time></trkpt><trkpt lat="43.324608331890126" lon="11.988004085097298"><ele>616.0</ele><time>2026-04-19T11:54:39Z</time></trkpt><trkpt lat="43.32456942133181" lon="11.9879323537221"><ele>616.0</ele><time>2026-04-19T11:54:50Z</time></trkpt><trkpt lat="43.32454087854282" lon="11.987848786853485"><ele>616.0</ele><time>2026-04-19T11:54:59Z</time></trkpt><trkpt lat="43.324532388822696" lon="11.987762339074502"><ele>616.0</ele><time>2026-04-19T11:55:08.001Z</time></trkpt><trkpt lat="43.324525600556434" lon="11.987669138729329"><ele>616.0</ele><time>2026-04-19T11:57:12.002Z</time></trkpt><trkpt lat="43.32445816626384" lon="11.987634008398265"><ele>616.0</ele><time>2026-04-19T11:57:15.002Z</time></trkpt><trkpt lat="43.32438485364003" lon="11.987635240601515"><ele>616.0</ele><time>2026-04-19T11:57:19.002Z</time></trkpt><trkpt lat="43.32431703600596" lon="11.987626939211648"><ele>616.0</ele><time>2026-04-19T11:57:23.002Z</time></trkpt><trkpt lat="43.32425283930677" lon="11.987585388948132"><ele>616.0</ele><time>2026-04-19T11:57:27.002Z</time></trkpt><trkpt lat="43.32419614498662" lon="11.987519405068781"><ele>616.0</ele><time>2026-04-19T11:57:30.002Z</time></trkpt><trkpt lat="43.324151632848576" lon="11.987445981343148"><ele>616.0</ele><time>2026-04-19T11:57:32.002Z</time></trkpt><trkpt lat="43.324095838663744" lon="11.987364471160603"><ele>616.0</ele><time>2026-04-19T11:57:34.002Z</time></trkpt><trkpt lat="43.324006210344436" lon="11.98733647163171"><ele>616.0</ele><time>2026-04-19T11:57:36.002Z</time></trkpt><trkpt lat="43.32394789756629" lon="11.987375206990954"><ele>618.0</ele><time>2026-04-19T11:57:38.002Z</time></trkpt><trkpt lat="43.32386575538787" lon="11.98739750575288"><ele>620.0</ele><time>2026-04-19T11:57:42.999Z</time></trkpt><trkpt lat="43.32380594075255" lon="11.987369591228726"><ele>622.0</ele><time>2026-04-19T11:57:46.999Z</time></trkpt><trkpt lat="43.3237307829096" lon="11.987328918880957"><ele>624.0</ele><time>2026-04-19T11:57:51.999Z</time></trkpt><trkpt lat="43.323668215115454" lon="11.98730854936803"><ele>626.0</ele><time>2026-04-19T11:57:54.999Z</time></trkpt><trkpt lat="43.323587608772854" lon="11.987274381208222"><ele>628.0</ele><time>2026-04-19T11:57:58.999Z</time></trkpt><trkpt lat="43.323508453607225" lon="11.987210459275937"><ele>628.0</ele><time>2026-04-19T11:58:02Z</time></trkpt><trkpt lat="43.32344940380277" lon="11.98714812613475"><ele>628.0</ele><time>2026-04-19T11:58:06Z</time></trkpt><trkpt lat="43.32338341598968" lon="11.987092314123498"><ele>628.0</ele><time>2026-04-19T11:58:10Z</time></trkpt><trkpt lat="43.323317779175845" lon="11.987023242502078"><ele>628.0</ele><time>2026-04-19T11:58:14Z</time></trkpt><trkpt lat="43.32323545251262" lon="11.986945264653171"><ele>628.0</ele><time>2026-04-19T11:58:18Z</time></trkpt><trkpt lat="43.323157508730574" lon="11.986945961473738"><ele>628.0</ele><time>2026-04-19T11:58:20Z</time></trkpt><trkpt lat="43.32309231011229" lon="11.986959905352911"><ele>629.2857142857142</ele><time>2026-04-19T11:58:22Z</time></trkpt><trkpt lat="43.323023984459546" lon="11.986945811308557"><ele>630.5714285714286</ele><time>2026-04-19T11:58:26Z</time></trkpt><trkpt lat="43.32294811196948" lon="11.98692083223284"><ele>631.8571428571429</ele><time>2026-04-19T11:58:32Z</time></trkpt><trkpt lat="43.32287768601631" lon="11.986891540385129"><ele>633.1428571428571</ele><time>2026-04-19T11:58:37.001Z</time></trkpt><trkpt lat="43.32281007909059" lon="11.986876499138488"><ele>634.4285714285714</ele><time>2026-04-19T11:58:42.001Z</time></trkpt><trkpt lat="43.3227455988943" lon="11.986830581554344"><ele>635.7142857142857</ele><time>2026-04-19T11:58:47.001Z</time></trkpt><trkpt lat="43.322686431687316" lon="11.986798460957232"><ele>637.0</ele><time>2026-04-19T11:58:51.001Z</time></trkpt><trkpt lat="43.32262235330502" lon="11.986764390466902"><ele>637.0</ele><time>2026-04-19T11:58:54.001Z</time></trkpt><trkpt lat="43.322563079926354" lon="11.986729063930266"><ele>637.0</ele><time>2026-04-19T11:58:57.001Z</time></trkpt><trkpt lat="43.32250300120853" lon="11.986697168574263"><ele>637.0</ele><time>2026-04-19T11:59:00.001Z</time></trkpt><trkpt lat="43.32242657600867" lon="11.986654418005266"><ele>637.0</ele><time>2026-04-19T11:59:05.001Z</time></trkpt><trkpt lat="43.32236420368137" lon="11.986592733642572"><ele>637.0</ele><time>2026-04-19T11:59:09.001Z</time></trkpt><trkpt lat="43.32231487403598" lon="11.986538047469947"><ele>637.0</ele><time>2026-04-19T11:59:13.002Z</time></trkpt><trkpt lat="43.32226136141521" lon="11.986459670034245"><ele>637.0</ele><time>2026-04-19T11:59:18.002Z</time></trkpt><trkpt lat="43.32219997361681" lon="11.98642556092954"><ele>640.1666666666667</ele><time>2026-04-19T11:59:23.002Z</time></trkpt><trkpt lat="43.32211510277609" lon="11.986398884433061"><ele>643.3333333333334</ele><time>2026-04-19T11:59:28.002Z</time></trkpt><trkpt lat="43.32205043632916" lon="11.986372144929371"><ele>646.5</ele><time>2026-04-19T11:59:33.002Z</time></trkpt><trkpt lat="43.32198473053835" lon="11.986327035476318"><ele>649.6666666666666</ele><time>2026-04-19T11:59:40.002Z</time></trkpt><trkpt lat="43.321919987433354" lon="11.986274172473928"><ele>652.8333333333333</ele><time>2026-04-19T11:59:44.999Z</time></trkpt><trkpt lat="43.321849305130264" lon="11.986222592590465"><ele>656.0</ele><time>2026-04-19T11:59:49.999Z</time></trkpt><trkpt lat="43.32178702190842" lon="11.986184844842239"><ele>655.9999999999999</ele><time>2026-04-19T11:59:53.999Z</time></trkpt><trkpt lat="43.32171953191527" lon="11.98616467560613"><ele>656.0</ele><time>2026-04-19T11:59:57.999Z</time></trkpt><trkpt lat="43.32163447944755" lon="11.986152747250866"><ele>656.0</ele><time>2026-04-19T12:00:04Z</time></trkpt><trkpt lat="43.32156285820009" lon="11.98614104046675"><ele>656.0</ele><time>2026-04-19T12:00:10Z</time></trkpt><trkpt lat="43.3214997328005" lon="11.9861647930264"><ele>656.0</ele><time>2026-04-19T12:00:15Z</time></trkpt><trkpt lat="43.321416330455996" lon="11.986174792588846"><ele>655.9999999999999</ele><time>2026-04-19T12:00:19Z</time></trkpt><trkpt lat="43.321353272324785" lon="11.986182385252372"><ele>656.0</ele><time>2026-04-19T12:00:22Z</time></trkpt><trkpt lat="43.32127366368976" lon="11.986181275801785"><ele>655.9999999999999</ele><time>2026-04-19T12:00:27Z</time></trkpt><trkpt lat="43.32119011270332" lon="11.98618192106862"><ele>656.0</ele><time>2026-04-19T12:00:33.001Z</time></trkpt><trkpt lat="43.32117947602691" lon="11.986091795029633"><ele>656.0</ele><time>2026-04-19T12:00:39.001Z</time></trkpt><trkpt lat="43.321229466204414" lon="11.98601588968989"><ele>656.0</ele><time>2026-04-19T12:00:54.001Z</time></trkpt><trkpt lat="43.32125541316887" lon="11.985926945799143"><ele>656.0</ele><time>2026-04-19T12:01:02.001Z</time></trkpt><trkpt lat="43.32131920393437" lon="11.985935872499597"><ele>655.9999999999999</ele><time>2026-04-19T12:01:14.002Z</time></trkpt><trkpt lat="43.32137921023037" lon="11.985895501126022"><ele>656.0</ele><time>2026-04-19T12:01:23.002Z</time></trkpt><trkpt lat="43.32144230246405" lon="11.985868314316676"><ele>656.0</ele><time>2026-04-19T12:01:31.002Z</time></trkpt><trkpt lat="43.321506883897605" lon="11.985850819559232"><ele>656.0</ele><time>2026-04-19T12:01:39.002Z</time></trkpt><trkpt lat="43.32157366264989" lon="11.985839204370983"><ele>656.0</ele><time>2026-04-19T12:01:47.003Z</time></trkpt><trkpt lat="43.321665134665665" lon="11.98579518252546"><ele>656.0</ele><time>2026-04-19T12:02:00Z</time></trkpt><trkpt lat="43.32172744452846" lon="11.98578262029666"><ele>656.0</ele><time>2026-04-19T12:02:08Z</time></trkpt><trkpt lat="43.32185177663507" lon="11.98576099791592"><ele>656.0</ele><time>2026-04-19T12:02:27.001Z</time></trkpt><trkpt lat="43.32191653698092" lon="11.985729202899055"><ele>657.9999999999999</ele><time>2026-04-19T12:02:37.001Z</time></trkpt><trkpt lat="43.321979603997754" lon="11.985723137745342"><ele>660.0</ele><time>2026-04-19T12:02:46.001Z</time></trkpt><trkpt lat="43.322084722029516" lon="11.98572186105313"><ele>662.0</ele><time>2026-04-19T12:03:03.002Z</time></trkpt><trkpt lat="43.322147847238256" lon="11.985696321407884"><ele>664.0</ele><time>2026-04-19T12:03:14.002Z</time></trkpt><trkpt lat="43.3222044584076" lon="11.985643309864557"><ele>666.0</ele><time>2026-04-19T12:03:50.003Z</time></trkpt><trkpt lat="43.32225156897103" lon="11.985585479667751"><ele>667.9999999999999</ele><time>2026-04-19T12:04:01.001Z</time></trkpt><trkpt lat="43.32229071486301" lon="11.985508303695172"><ele>670.0</ele><time>2026-04-19T12:04:13.001Z</time></trkpt><trkpt lat="43.32232669936984" lon="11.985435483708043"><ele>670.5</ele><time>2026-04-19T12:04:43.001Z</time></trkpt><trkpt lat="43.32244933232908" lon="11.98531949570259"><ele>671.0</ele><time>2026-04-19T12:05:10.002Z</time></trkpt><trkpt lat="43.32251226248855" lon="11.985286246716521"><ele>671.5</ele><time>2026-04-19T12:05:18.002Z</time></trkpt><trkpt lat="43.3225782647992" lon="11.98531189304263"><ele>672.0</ele><time>2026-04-19T12:05:27.002Z</time></trkpt><trkpt lat="43.322623338008235" lon="11.985378545391784"><ele>672.5</ele><time>2026-04-19T12:05:36.002Z</time></trkpt><trkpt lat="43.32266904995012" lon="11.985438476699867"><ele>673.0</ele><time>2026-04-19T12:05:44.003Z</time></trkpt><trkpt lat="43.32273327399616" lon="11.985465488011183"><ele>673.0</ele><time>2026-04-19T12:05:54.003Z</time></trkpt><trkpt lat="43.322801096839775" lon="11.98547324711304"><ele>673.0</ele><time>2026-04-19T12:06:03.001Z</time></trkpt><trkpt lat="43.322858837970706" lon="11.985431264351583"><ele>673.0</ele><time>2026-04-19T12:06:12.001Z</time></trkpt><trkpt lat="43.322926135963286" lon="11.985408593016476"><ele>673.0</ele><time>2026-04-19T12:07:24.002Z</time></trkpt><trkpt lat="43.32297857860035" lon="11.985358501412064"><ele>673.0</ele><time>2026-04-19T12:07:31.002Z</time></trkpt><trkpt lat="43.3230375025197" lon="11.9853263354431"><ele>673.0</ele><time>2026-04-19T12:07:39.002Z</time></trkpt><trkpt lat="43.32309853843027" lon="11.985270293583929"><ele>673.0</ele><time>2026-04-19T12:07:47.002Z</time></trkpt><trkpt lat="43.323148872468046" lon="11.985217012184421"><ele>674.2857142857143</ele><time>2026-04-19T12:07:55.003Z</time></trkpt><trkpt lat="43.32320618549661" lon="11.985162946751585"><ele>675.5714285714286</ele><time>2026-04-19T12:08:07.003Z</time></trkpt><trkpt lat="43.32325947530594" lon="11.985113929380827"><ele>676.8571428571429</ele><time>2026-04-19T12:08:14Z</time></trkpt><trkpt lat="43.323319672416744" lon="11.98506150707124"><ele>678.1428571428571</ele><time>2026-04-19T12:08:23Z</time></trkpt><trkpt lat="43.32336650385329" lon="11.984999437207433"><ele>679.4285714285714</ele><time>2026-04-19T12:08:31Z</time></trkpt><trkpt lat="43.32341152916757" lon="11.984930831513616"><ele>680.7142857142857</ele><time>2026-04-19T12:08:43.001Z</time></trkpt><trkpt lat="43.32346262391072" lon="11.984874842207265"><ele>682.0</ele><time>2026-04-19T12:08:52.001Z</time></trkpt><trkpt lat="43.323518598082245" lon="11.984824466963843"><ele>685.4285714285714</ele><time>2026-04-19T12:09:02.001Z</time></trkpt><trkpt lat="43.32358026933631" lon="11.984779943011091"><ele>688.8571428571429</ele><time>2026-04-19T12:09:11.001Z</time></trkpt><trkpt lat="43.32362555957589" lon="11.984715321527446"><ele>692.2857142857142</ele><time>2026-04-19T12:09:18.001Z</time></trkpt><trkpt lat="43.32367390217827" lon="11.984657551810848"><ele>695.7142857142858</ele><time>2026-04-19T12:09:25.002Z</time></trkpt><trkpt lat="43.323721736618296" lon="11.98458594553951"><ele>699.1428571428572</ele><time>2026-04-19T12:09:35.002Z</time></trkpt><trkpt lat="43.32376665298439" lon="11.98451810595888"><ele>702.5714285714286</ele><time>2026-04-19T12:09:42.002Z</time></trkpt><trkpt lat="43.32381556539346" lon="11.98445214624723"><ele>706.0</ele><time>2026-04-19T12:09:51.002Z</time></trkpt><trkpt lat="43.32384544603955" lon="11.984372085772"><ele>706.0</ele><time>2026-04-19T12:09:59.002Z</time></trkpt><trkpt lat="43.323873166276655" lon="11.984285685740838"><ele>706.0</ele><time>2026-04-19T12:10:07.002Z</time></trkpt><trkpt lat="43.32388819858823" lon="11.984191853239347"><ele>706.0</ele><time>2026-04-19T12:10:14.003Z</time></trkpt><trkpt lat="43.32389938077269" lon="11.984093158326827"><ele>706.0</ele><time>2026-04-19T12:10:22Z</time></trkpt><trkpt lat="43.32391023022282" lon="11.983994161275369"><ele>706.0</ele><time>2026-04-19T12:10:29Z</time></trkpt><trkpt lat="43.3239306451816" lon="11.983904662035444"><ele>706.0</ele><time>2026-04-19T12:10:38Z</time></trkpt><trkpt lat="43.3239875271054" lon="11.9838448530808"><ele>706.0</ele><time>2026-04-19T12:14:21.002Z</time></trkpt><trkpt lat="43.32406870784153" lon="11.983911621213851"><ele>707.1666666666667</ele><time>2026-04-19T12:14:25.002Z</time></trkpt><trkpt lat="43.32416082488395" lon="11.983947024495267"><ele>708.3333333333334</ele><time>2026-04-19T12:14:27.997Z</time></trkpt><trkpt lat="43.32422671528301" lon="11.983947699708233"><ele>709.5</ele><time>2026-04-19T12:14:29.997Z</time></trkpt><trkpt lat="43.32429545227348" lon="11.983988734909673"><ele>710.6666666666666</ele><time>2026-04-19T12:14:33.998Z</time></trkpt><trkpt lat="43.32435660253874" lon="11.984021820223273"><ele>711.8333333333333</ele><time>2026-04-19T12:14:37.998Z</time></trkpt><trkpt lat="43.32442565315617" lon="11.984057560924644"><ele>713.0</ele><time>2026-04-19T12:14:40.998Z</time></trkpt><trkpt lat="43.32450573560898" lon="11.984099262258457"><ele>713.0</ele><time>2026-04-19T12:14:43.998Z</time></trkpt><trkpt lat="43.32457716325633" lon="11.984143651570177"><ele>713.0</ele><time>2026-04-19T12:14:46.998Z</time></trkpt><trkpt lat="43.3246466806081" lon="11.98416582492894"><ele>713.0</ele><time>2026-04-19T12:14:49.999Z</time></trkpt><trkpt lat="43.3247187482563" lon="11.984187321470246"><ele>713.0</ele><time>2026-04-19T12:14:52.999Z</time></trkpt><trkpt lat="43.3247872082822" lon="11.984211109880526"><ele>713.0</ele><time>2026-04-19T12:14:55.999Z</time></trkpt><trkpt lat="43.32486075738989" lon="11.984233454054461"><ele>713.0</ele><time>2026-04-19T12:14:58.999Z</time></trkpt><trkpt lat="43.324940950591554" lon="11.984245210711947"><ele>713.5714285714286</ele><time>2026-04-19T12:15:01.999Z</time></trkpt><trkpt lat="43.32500784808064" lon="11.98427667786926"><ele>714.1428571428572</ele><time>2026-04-19T12:15:05Z</time></trkpt><trkpt lat="43.32508635907785" lon="11.984314279479745"><ele>714.7142857142858</ele><time>2026-04-19T12:15:09Z</time></trkpt><trkpt lat="43.32515154347447" lon="11.98432506329026"><ele>715.2857142857142</ele><time>2026-04-19T12:15:12Z</time></trkpt><trkpt lat="43.32522957365738" lon="11.98430053146679"><ele>715.8571428571429</ele><time>2026-04-19T12:15:15Z</time></trkpt><trkpt lat="43.325302926733734" lon="11.984290399209224"><ele>716.4285714285714</ele><time>2026-04-19T12:15:18Z</time></trkpt><trkpt lat="43.32537590093895" lon="11.984299822966712"><ele>717.0</ele><time>2026-04-19T12:15:21Z</time></trkpt><trkpt lat="43.32544829516501" lon="11.984292933801994"><ele>717.0</ele><time>2026-04-19T12:15:25Z</time></trkpt><trkpt lat="43.32552845612739" lon="11.984306656522701"><ele>717.0</ele><time>2026-04-19T12:15:30Z</time></trkpt><trkpt lat="43.325588394895725" lon="11.984369333462288"><ele>717.0</ele><time>2026-04-19T12:15:35.001Z</time></trkpt><trkpt lat="43.32563579244786" lon="11.984435798258376"><ele>717.0</ele><time>2026-04-19T12:15:40.001Z</time></trkpt><trkpt lat="43.32569477098501" lon="11.98447740841148"><ele>717.0</ele><time>2026-04-19T12:15:45.001Z</time></trkpt><trkpt lat="43.325787910890355" lon="11.984499949385809"><ele>717.0</ele><time>2026-04-19T12:15:51.001Z</time></trkpt><trkpt lat="43.32585594095073" lon="11.98451506480267"><ele>718.3333333333334</ele><time>2026-04-19T12:15:52.001Z</time></trkpt><trkpt lat="43.32591164786705" lon="11.984451954508502"><ele>719.6666666666666</ele><time>2026-04-19T12:16:01.001Z</time></trkpt><trkpt lat="43.325984265567" lon="11.984412037428035"><ele>721.0</ele><time>2026-04-19T12:16:05.002Z</time></trkpt><trkpt lat="43.32605994738902" lon="11.984357569390992"><ele>722.3333333333333</ele><time>2026-04-19T12:16:08.002Z</time></trkpt><trkpt lat="43.32614441709369" lon="11.9843403793326"><ele>723.6666666666666</ele><time>2026-04-19T12:16:10.002Z</time></trkpt><trkpt lat="43.32623067899085" lon="11.984349637633716"><ele>725.0</ele><time>2026-04-19T12:16:12.002Z</time></trkpt><trkpt lat="43.3263068228191" lon="11.984335158402349"><ele>725.0</ele><time>2026-04-19T12:16:14.002Z</time></trkpt><trkpt lat="43.32638366900414" lon="11.984321959572185"><ele>725.0</ele><time>2026-04-19T12:16:16.002Z</time></trkpt><trkpt lat="43.326466117110314" lon="11.984326481086741"><ele>725.0</ele><time>2026-04-19T12:16:19.002Z</time></trkpt><trkpt lat="43.32655310967594" lon="11.984375091816222"><ele>725.0</ele><time>2026-04-19T12:16:24.002Z</time></trkpt><trkpt lat="43.326623190228894" lon="11.984406898490715"><ele>725.0</ele><time>2026-04-19T12:16:27.002Z</time></trkpt><trkpt lat="43.32671229898099" lon="11.984439319569145"><ele>725.0</ele><time>2026-04-19T12:16:30.002Z</time></trkpt><trkpt lat="43.326775722056375" lon="11.984479514829415"><ele>724.0</ele><time>2026-04-19T12:16:32.999Z</time></trkpt><trkpt lat="43.326856643396226" lon="11.984525326682256"><ele>723.0</ele><time>2026-04-19T12:16:35.999Z</time></trkpt><trkpt lat="43.3269498838691" lon="11.984519805443089"><ele>722.0</ele><time>2026-04-19T12:16:38.999Z</time></trkpt><trkpt lat="43.32701346981482" lon="11.984555941765276"><ele>721.0</ele><time>2026-04-19T12:16:41Z</time></trkpt><trkpt lat="43.32706918116017" lon="11.984611936526557"><ele>720.0</ele><time>2026-04-19T12:16:43Z</time></trkpt><trkpt lat="43.32715642961114" lon="11.984660391861162"><ele>719.0</ele><time>2026-04-19T12:16:46Z</time></trkpt><trkpt lat="43.32721637960064" lon="11.98473362049415"><ele>719.1666666666666</ele><time>2026-04-19T12:16:49Z</time></trkpt><trkpt lat="43.327303809417046" lon="11.984782631869065"><ele>719.3333333333333</ele><time>2026-04-19T12:16:52Z</time></trkpt><trkpt lat="43.3273797174953" lon="11.984806194503307"><ele>719.5</ele><time>2026-04-19T12:16:54Z</time></trkpt><trkpt lat="43.327455558949865" lon="11.984798162722015"><ele>719.6666666666666</ele><time>2026-04-19T12:16:57Z</time></trkpt><trkpt lat="43.327477347183006" lon="11.984700382103922"><ele>719.8333333333334</ele><time>2026-04-19T12:17:01Z</time></trkpt><trkpt lat="43.32744340081663" lon="11.984620035383266"><ele>720.0</ele><time>2026-04-19T12:17:04Z</time></trkpt><trkpt lat="43.32746062930215" lon="11.984725294519794"><ele>720.0</ele><time>2026-04-19T12:17:23.001Z</time></trkpt><trkpt lat="43.327442922970285" lon="11.98480855662246"><ele>720.0</ele><time>2026-04-19T12:17:26.001Z</time></trkpt><trkpt lat="43.3274731101131" lon="11.984903785930097"><ele>720.0</ele><time>2026-04-19T12:17:33.001Z</time></trkpt><trkpt lat="43.327527891853684" lon="11.984970042983681"><ele>720.0</ele><time>2026-04-19T12:17:36.002Z</time></trkpt><trkpt lat="43.327582967002364" lon="11.985033989497357"><ele>720.0</ele><time>2026-04-19T12:17:39.002Z</time></trkpt><trkpt lat="43.32764201587337" lon="11.985105495005618"><ele>720.0</ele><time>2026-04-19T12:17:43.002Z</time></trkpt><trkpt lat="43.32767283933324" lon="11.985208434339015"><ele>720.0</ele><time>2026-04-19T12:17:47.002Z</time></trkpt><trkpt lat="43.32770046837764" lon="11.985306629098153"><ele>720.0</ele><time>2026-04-19T12:18:05.002Z</time></trkpt><trkpt lat="43.327698790528736" lon="11.985208542146953"><ele>720.0</ele><time>2026-04-19T12:18:09.003Z</time></trkpt><trkpt lat="43.32766291113716" lon="11.985134177228222"><ele>720.0</ele><time>2026-04-19T12:18:11.003Z</time></trkpt><trkpt lat="43.32762000516758" lon="11.985061509151619"><ele>720.0</ele><time>2026-04-19T12:18:14.003Z</time></trkpt><trkpt lat="43.32756096688286" lon="11.985023046410067"><ele>720.0</ele><time>2026-04-19T12:18:18.003Z</time></trkpt><trkpt lat="43.32750873547044" lon="11.984932235601946"><ele>720.0</ele><time>2026-04-19T12:18:22.003Z</time></trkpt><trkpt lat="43.32746154678794" lon="11.9848579364904"><ele>720.0</ele><time>2026-04-19T12:18:25.003Z</time></trkpt><trkpt lat="43.32745606198825" lon="11.984753949568892"><ele>720.0</ele><time>2026-04-19T12:18:33.003Z</time></trkpt><trkpt lat="43.327463276554425" lon="11.984655711150573"><ele>720.0</ele><time>2026-04-19T12:18:50Z</time></trkpt><trkpt lat="43.32744251200187" lon="11.984551329002194"><ele>720.0</ele><time>2026-04-19T12:18:54Z</time></trkpt><trkpt lat="43.32743056497212" lon="11.984435546526973"><ele>720.0</ele><time>2026-04-19T12:18:58Z</time></trkpt><trkpt lat="43.32741985872859" lon="11.984334338261885"><ele>720.0</ele><time>2026-04-19T12:19:01Z</time></trkpt><trkpt lat="43.32741033568674" lon="11.984231742009925"><ele>720.0</ele><time>2026-04-19T12:19:04Z</time></trkpt><trkpt lat="43.32738861841882" lon="11.984149156658178"><ele>720.0</ele><time>2026-04-19T12:19:09Z</time></trkpt><trkpt lat="43.32737073865162" lon="11.984058433340223"><ele>719.3333333333334</ele><time>2026-04-19T12:19:13.001Z</time></trkpt><trkpt lat="43.327347626621346" lon="11.983971103307423"><ele>718.6666666666666</ele><time>2026-04-19T12:19:57.002Z</time></trkpt><trkpt lat="43.32729970899148" lon="11.983890685729614"><ele>718.0</ele><time>2026-04-19T12:20:00.002Z</time></trkpt><trkpt lat="43.32725810101819" lon="11.983782752766624"><ele>717.3333333333333</ele><time>2026-04-19T12:20:03.002Z</time></trkpt><trkpt lat="43.327240264190664" lon="11.983687727479998"><ele>716.6666666666666</ele><time>2026-04-19T12:20:05.002Z</time></trkpt><trkpt lat="43.327208543899765" lon="11.983604533578134"><ele>716.0</ele><time>2026-04-19T12:20:07.002Z</time></trkpt><trkpt lat="43.327170832916146" lon="11.983507359905557"><ele>717.4</ele><time>2026-04-19T12:20:09.002Z</time></trkpt><trkpt lat="43.32712602335166" lon="11.983414032023957"><ele>718.8</ele><time>2026-04-19T12:20:11.002Z</time></trkpt><trkpt lat="43.3270830586171" lon="11.983303600286568"><ele>720.1999999999999</ele><time>2026-04-19T12:20:13.002Z</time></trkpt><trkpt lat="43.327039237581054" lon="11.983179575721685"><ele>721.5999999999999</ele><time>2026-04-19T12:20:15.002Z</time></trkpt><trkpt lat="43.326968875106" lon="11.983070088797014"><ele>723.0</ele><time>2026-04-19T12:20:17.002Z</time></trkpt><trkpt lat="43.32697008006267" lon="11.982905466061634"><ele>723.0</ele><time>2026-04-19T12:20:19.003Z</time></trkpt><trkpt lat="43.32690804448619" lon="11.982753737028931"><ele>723.0</ele><time>2026-04-19T12:20:21.003Z</time></trkpt><trkpt lat="43.326874248417255" lon="11.98267294062665"><ele>723.0</ele><time>2026-04-19T12:20:22.003Z</time></trkpt><trkpt lat="43.32683729406947" lon="11.98258640348682"><ele>723.0</ele><time>2026-04-19T12:20:23.003Z</time></trkpt><trkpt lat="43.32680394354343" lon="11.982508305609844"><ele>723.0</ele><time>2026-04-19T12:20:24.003Z</time></trkpt><trkpt lat="43.32676827729408" lon="11.98242469964293"><ele>723.0</ele><time>2026-04-19T12:20:25.003Z</time></trkpt><trkpt lat="43.326733369532526" lon="11.982341020423389"><ele>720.5714285714287</ele><time>2026-04-19T12:20:26.003Z</time></trkpt><trkpt lat="43.32670157096335" lon="11.982264794195721"><ele>718.1428571428571</ele><time>2026-04-19T12:20:27.003Z</time></trkpt><trkpt lat="43.32666934494974" lon="11.98218754350224"><ele>715.7142857142858</ele><time>2026-04-19T12:20:28.003Z</time></trkpt><trkpt lat="43.32663190420333" lon="11.982097792222103"><ele>713.2857142857143</ele><time>2026-04-19T12:20:29.003Z</time></trkpt><trkpt lat="43.32659174143677" lon="11.982001515658041"><ele>710.8571428571429</ele><time>2026-04-19T12:20:30.003Z</time></trkpt><trkpt lat="43.32654914448459" lon="11.981899404354746"><ele>708.4285714285714</ele><time>2026-04-19T12:20:31.003Z</time></trkpt><trkpt lat="43.326508185808294" lon="11.98181888994456"><ele>706.0</ele><time>2026-04-19T12:20:32.003Z</time></trkpt><trkpt lat="43.32644264966966" lon="11.981665994975037"><ele>703.1666666666667</ele><time>2026-04-19T12:20:34.003Z</time></trkpt><trkpt lat="43.32640286213805" lon="11.981590751568854"><ele>700.3333333333334</ele><time>2026-04-19T12:20:35.003Z</time></trkpt><trkpt lat="43.326355172465405" lon="11.981477265249051"><ele>697.5</ele><time>2026-04-19T12:20:37.003Z</time></trkpt><trkpt lat="43.3263100667514" lon="11.981388500599863"><ele>694.6666666666666</ele><time>2026-04-19T12:20:42.003Z</time></trkpt><trkpt lat="43.32626152831718" lon="11.981323199904262"><ele>691.8333333333333</ele><time>2026-04-19T12:20:44.003Z</time></trkpt><trkpt lat="43.32619614772177" lon="11.981245034254535"><ele>689.0</ele><time>2026-04-19T12:20:45.999Z</time></trkpt><trkpt lat="43.32613443979026" lon="11.981158478306916"><ele>689.0</ele><time>2026-04-19T12:20:47.999Z</time></trkpt><trkpt lat="43.32609662056656" lon="11.981076196138286"><ele>689.0</ele><time>2026-04-19T12:20:49.999Z</time></trkpt><trkpt lat="43.326164842091046" lon="11.981008167764896"><ele>689.0</ele><time>2026-04-19T12:20:52.999Z</time></trkpt><trkpt lat="43.32623347522244" lon="11.981037867294079"><ele>689.0</ele><time>2026-04-19T12:20:54.999Z</time></trkpt><trkpt lat="43.32631566803107" lon="11.981108859646183"><ele>689.0</ele><time>2026-04-19T12:20:56.999Z</time></trkpt><trkpt lat="43.32637717841718" lon="11.981139345092053"><ele>689.0</ele><time>2026-04-19T12:20:59Z</time></trkpt><trkpt lat="43.32644291400417" lon="11.98122285824321"><ele>688.5</ele><time>2026-04-19T12:21:02Z</time></trkpt><trkpt lat="43.32650539532483" lon="11.981263427879476"><ele>688.0</ele><time>2026-04-19T12:21:04Z</time></trkpt><trkpt lat="43.3265683736064" lon="11.981338682842967"><ele>687.5</ele><time>2026-04-19T12:21:06Z</time></trkpt><trkpt lat="43.3266714007301" lon="11.981433584282303"><ele>687.0</ele><time>2026-04-19T12:21:08Z</time></trkpt><trkpt lat="43.32672634875283" lon="11.981478402911822"><ele>686.5</ele><time>2026-04-19T12:21:09Z</time></trkpt><trkpt lat="43.326792547166114" lon="11.981511361927346"><ele>686.0</ele><time>2026-04-19T12:21:10Z</time></trkpt><trkpt lat="43.3268662090383" lon="11.981516473709918"><ele>686.0</ele><time>2026-04-19T12:21:11Z</time></trkpt><trkpt lat="43.32694752304511" lon="11.981499043323128"><ele>686.0</ele><time>2026-04-19T12:21:12Z</time></trkpt><trkpt lat="43.32702387194113" lon="11.98147871937986"><ele>686.0</ele><time>2026-04-19T12:21:13Z</time></trkpt><trkpt lat="43.327101567083204" lon="11.981438135481891"><ele>686.0</ele><time>2026-04-19T12:21:14Z</time></trkpt><trkpt lat="43.327177518571965" lon="11.981376719025933"><ele>686.0</ele><time>2026-04-19T12:21:15Z</time></trkpt><trkpt lat="43.32725547172739" lon="11.981335656768682"><ele>686.0</ele><time>2026-04-19T12:21:16Z</time></trkpt><trkpt lat="43.327328468115944" lon="11.98126481131112"><ele>685.4</ele><time>2026-04-19T12:21:17Z</time></trkpt><trkpt lat="43.3273933349679" lon="11.981171152568374"><ele>684.8</ele><time>2026-04-19T12:21:18Z</time></trkpt><trkpt lat="43.327452916300295" lon="11.981091890906786"><ele>684.1999999999999</ele><time>2026-04-19T12:21:19Z</time></trkpt><trkpt lat="43.32751114619115" lon="11.980979458172941"><ele>683.5999999999999</ele><time>2026-04-19T12:21:20Z</time></trkpt><trkpt lat="43.327562170774335" lon="11.980890075369949"><ele>683.0</ele><time>2026-04-19T12:21:21.001Z</time></trkpt><trkpt lat="43.32760107438837" lon="11.980747644948439"><ele>679.5999999999999</ele><time>2026-04-19T12:21:22.001Z</time></trkpt><trkpt lat="43.32761915170333" lon="11.980650682499988"><ele>676.1999999999999</ele><time>2026-04-19T12:21:23.001Z</time></trkpt><trkpt lat="43.327614995001355" lon="11.9805241052942"><ele>672.8</ele><time>2026-04-19T12:21:24.001Z</time></trkpt><trkpt lat="43.32762133824458" lon="11.980380712911828"><ele>669.4</ele><time>2026-04-19T12:21:25.001Z</time></trkpt><trkpt lat="43.32764071803507" lon="11.980246662524811"><ele>666.0</ele><time>2026-04-19T12:21:26.001Z</time></trkpt><trkpt lat="43.32764567073795" lon="11.980104538643316"><ele>662.8</ele><time>2026-04-19T12:21:27.001Z</time></trkpt><trkpt lat="43.327650231758426" lon="11.979956296065223"><ele>659.5999999999999</ele><time>2026-04-19T12:21:28.001Z</time></trkpt><trkpt lat="43.32765489250347" lon="11.97980179477592"><ele>656.4</ele><time>2026-04-19T12:21:29.001Z</time></trkpt><trkpt lat="43.32765868061348" lon="11.979657290954181"><ele>653.2</ele><time>2026-04-19T12:21:30.001Z</time></trkpt><trkpt lat="43.327649351783855" lon="11.979515822024844"><ele>650.0</ele><time>2026-04-19T12:21:31.001Z</time></trkpt><trkpt lat="43.32766676279626" lon="11.979376491029534"><ele>650.0</ele><time>2026-04-19T12:21:32.001Z</time></trkpt><trkpt lat="43.327670832190634" lon="11.979250630229519"><ele>650.0</ele><time>2026-04-19T12:21:33.001Z</time></trkpt><trkpt lat="43.32767523195251" lon="11.979129806964977"><ele>650.0</ele><time>2026-04-19T12:21:34.001Z</time></trkpt><trkpt lat="43.327679674748865" lon="11.979018444745762"><ele>650.0</ele><time>2026-04-19T12:21:35.001Z</time></trkpt><trkpt lat="43.327684058953054" lon="11.978908552065619"><ele>650.0</ele><time>2026-04-19T12:21:36.001Z</time></trkpt><trkpt lat="43.32768737338836" lon="11.97879934843715"><ele>650.0</ele><time>2026-04-19T12:21:37.001Z</time></trkpt><trkpt lat="43.32768968092873" lon="11.978683298413435"><ele>648.3333333333333</ele><time>2026-04-19T12:21:38.001Z</time></trkpt><trkpt lat="43.327691414978105" lon="11.97856728528531"><ele>646.6666666666666</ele><time>2026-04-19T12:21:39.001Z</time></trkpt><trkpt lat="43.32769204923283" lon="11.978466915164589"><ele>645.0</ele><time>2026-04-19T12:21:40.001Z</time></trkpt><trkpt lat="43.32767660443037" lon="11.978373300009583"><ele>643.3333333333334</ele><time>2026-04-19T12:21:41.001Z</time></trkpt><trkpt lat="43.32768224833488" lon="11.978262585847453"><ele>641.6666666666667</ele><time>2026-04-19T12:21:42.001Z</time></trkpt><trkpt lat="43.32768316046899" lon="11.97815493588849"><ele>640.0</ele><time>2026-04-19T12:21:43.001Z</time></trkpt><trkpt lat="43.3276807052867" lon="11.978049164867652"><ele>638.6666666666667</ele><time>2026-04-19T12:21:44.001Z</time></trkpt><trkpt lat="43.327676213107196" lon="11.977942777083046"><ele>637.3333333333334</ele><time>2026-04-19T12:21:45.001Z</time></trkpt><trkpt lat="43.32769705732803" lon="11.977777838226533"><ele>636.0</ele><time>2026-04-19T12:21:47.001Z</time></trkpt><trkpt lat="43.32771396191763" lon="11.977640333320927"><ele>634.6666666666666</ele><time>2026-04-19T12:21:49.001Z</time></trkpt><trkpt lat="43.327736084120694" lon="11.977553232520574"><ele>633.3333333333333</ele><time>2026-04-19T12:21:51.001Z</time></trkpt><trkpt lat="43.32777002304858" lon="11.977476899448883"><ele>632.0</ele><time>2026-04-19T12:21:55.002Z</time></trkpt><trkpt lat="43.32784269811645" lon="11.97745011778698"><ele>631.6</ele><time>2026-04-19T12:22:12.002Z</time></trkpt><trkpt lat="43.327924067183424" lon="11.97741563065452"><ele>631.2</ele><time>2026-04-19T12:22:14.002Z</time></trkpt><trkpt lat="43.32803601419993" lon="11.977376022211592"><ele>630.8</ele><time>2026-04-19T12:22:16.002Z</time></trkpt><trkpt lat="43.3280973073831" lon="11.977353712772445"><ele>630.4</ele><time>2026-04-19T12:22:17.002Z</time></trkpt><trkpt lat="43.328225254406476" lon="11.97730460928888"><ele>630.0</ele><time>2026-04-19T12:22:19.002Z</time></trkpt><trkpt lat="43.32828943782419" lon="11.977272202504167"><ele>630.0</ele><time>2026-04-19T12:22:20.002Z</time></trkpt><trkpt lat="43.32835025754664" lon="11.977221570002392"><ele>630.0</ele><time>2026-04-19T12:22:21.002Z</time></trkpt><trkpt lat="43.32840661331276" lon="11.977155093442509"><ele>630.0</ele><time>2026-04-19T12:22:22.002Z</time></trkpt><trkpt lat="43.32845402516993" lon="11.977061996657039"><ele>630.0</ele><time>2026-04-19T12:22:23.002Z</time></trkpt><trkpt lat="43.32848999223802" lon="11.976934887911021"><ele>630.0</ele><time>2026-04-19T12:22:24.002Z</time></trkpt><trkpt lat="43.32850752655511" lon="11.976814894388502"><ele>630.0</ele><time>2026-04-19T12:22:25.003Z</time></trkpt><trkpt lat="43.32851910966584" lon="11.976681613526102"><ele>627.6</ele><time>2026-04-19T12:22:26.003Z</time></trkpt><trkpt lat="43.328521410437226" lon="11.97654895367996"><ele>625.2</ele><time>2026-04-19T12:22:27.003Z</time></trkpt><trkpt lat="43.32852577764455" lon="11.976400170631981"><ele>622.8</ele><time>2026-04-19T12:22:28.003Z</time></trkpt><trkpt lat="43.32853403520947" lon="11.976288096648098"><ele>620.4</ele><time>2026-04-19T12:22:29.003Z</time></trkpt><trkpt lat="43.328546943077555" lon="11.976159257841806"><ele>618.0</ele><time>2026-04-19T12:22:30.003Z</time></trkpt><trkpt lat="43.32856351122487" lon="11.976027846632755"><ele>618.0</ele><time>2026-04-19T12:22:31.003Z</time></trkpt><trkpt lat="43.32858386852863" lon="11.975894025323685"><ele>618.0</ele><time>2026-04-19T12:22:32.003Z</time></trkpt><trkpt lat="43.3286077138079" lon="11.975762002881156"><ele>618.0</ele><time>2026-04-19T12:22:33.003Z</time></trkpt><trkpt lat="43.32863342554801" lon="11.975629711461997"><ele>618.0</ele><time>2026-04-19T12:22:34.003Z</time></trkpt><trkpt lat="43.3286599774677" lon="11.975503894528533"><ele>618.0</ele><time>2026-04-19T12:22:35.003Z</time></trkpt><trkpt lat="43.328687792318114" lon="11.975373231753148"><ele>615.8</ele><time>2026-04-19T12:22:36.003Z</time></trkpt><trkpt lat="43.32871617564462" lon="11.97524674070218"><ele>613.5999999999999</ele><time>2026-04-19T12:22:37.003Z</time></trkpt><trkpt lat="43.328744781899736" lon="11.975119256496031"><ele>611.4000000000001</ele><time>2026-04-19T12:22:38.003Z</time></trkpt><trkpt lat="43.328773840481745" lon="11.974992584646667"><ele>609.2</ele><time>2026-04-19T12:22:39.003Z</time></trkpt><trkpt lat="43.32878737033405" lon="11.974865121392979"><ele>607.0</ele><time>2026-04-19T12:22:40.003Z</time></trkpt><trkpt lat="43.328820705366795" lon="11.974770596107511"><ele>607.4</ele><time>2026-04-19T12:22:41.003Z</time></trkpt><trkpt lat="43.32884750115432" lon="11.974651795922654"><ele>607.8000000000001</ele><time>2026-04-19T12:22:43.003Z</time></trkpt><trkpt lat="43.328880105733994" lon="11.97451947579897"><ele>608.2</ele><time>2026-04-19T12:22:46.003Z</time></trkpt><trkpt lat="43.328909102851966" lon="11.97440081660576"><ele>608.6</ele><time>2026-04-19T12:22:48.003Z</time></trkpt><trkpt lat="43.32893060300763" lon="11.97425845146227"><ele>609.0</ele><time>2026-04-19T12:22:50.003Z</time></trkpt><trkpt lat="43.328951348217295" lon="11.97417608195569"><ele>608.4285714285714</ele><time>2026-04-19T12:22:51.001Z</time></trkpt><trkpt lat="43.32898813352911" lon="11.974098635230563"><ele>607.8571428571429</ele><time>2026-04-19T12:22:52.001Z</time></trkpt><trkpt lat="43.329011751005666" lon="11.974006245567187"><ele>607.2857142857142</ele><time>2026-04-19T12:22:53.001Z</time></trkpt><trkpt lat="43.32903660588285" lon="11.973909015735881"><ele>606.7142857142858</ele><time>2026-04-19T12:22:54.001Z</time></trkpt><trkpt lat="43.32906069780628" lon="11.97381477035504"><ele>606.1428571428571</ele><time>2026-04-19T12:22:55.001Z</time></trkpt><trkpt lat="43.32907465951511" lon="11.973707675753813"><ele>605.5714285714286</ele><time>2026-04-19T12:22:56.001Z</time></trkpt><trkpt lat="43.32911524136193" lon="11.973618195753199"><ele>605.0</ele><time>2026-04-19T12:22:57Z</time></trkpt><trkpt lat="43.32914571285209" lon="11.97351964582345"><ele>605.0</ele><time>2026-04-19T12:22:58Z</time></trkpt><trkpt lat="43.32917977682409" lon="11.973421125850404"><ele>605.0</ele><time>2026-04-19T12:22:59Z</time></trkpt><trkpt lat="43.3292186232698" lon="11.973320281168887"><ele>605.0</ele><time>2026-04-19T12:23:00Z</time></trkpt><trkpt lat="43.329259908303136" lon="11.973223104645248"><ele>605.0</ele><time>2026-04-19T12:23:01Z</time></trkpt><trkpt lat="43.32928966187149" lon="11.973137872102537"><ele>605.0</ele><time>2026-04-19T12:23:02Z</time></trkpt><trkpt lat="43.32934287933448" lon="11.973041448850596"><ele>605.0</ele><time>2026-04-19T12:23:03Z</time></trkpt><trkpt lat="43.32938804342176" lon="11.972945340029714"><ele>603.6666666666666</ele><time>2026-04-19T12:23:04Z</time></trkpt><trkpt lat="43.32941993020402" lon="11.972840221376746"><ele>602.3333333333333</ele><time>2026-04-19T12:23:05Z</time></trkpt><trkpt lat="43.329465432438106" lon="11.972737074053937"><ele>601.0</ele><time>2026-04-19T12:23:06Z</time></trkpt><trkpt lat="43.32951847787892" lon="11.972640964923468"><ele>599.6666666666666</ele><time>2026-04-19T12:23:07Z</time></trkpt><trkpt lat="43.32956441950582" lon="11.972529399367271"><ele>598.3333333333334</ele><time>2026-04-19T12:23:08Z</time></trkpt><trkpt lat="43.329599873501934" lon="11.972416527896527"><ele>597.0</ele><time>2026-04-19T12:23:09Z</time></trkpt><trkpt lat="43.32963891052714" lon="11.972306056013403"><ele>596.1666666666666</ele><time>2026-04-19T12:23:10Z</time></trkpt><trkpt lat="43.329668742922685" lon="11.972187073987383"><ele>595.3333333333334</ele><time>2026-04-19T12:23:11Z</time></trkpt><trkpt lat="43.32969670644144" lon="11.972074444237665"><ele>594.5</ele><time>2026-04-19T12:23:12Z</time></trkpt><trkpt lat="43.32971688751895" lon="11.971961083939258"><ele>593.6666666666667</ele><time>2026-04-19T12:23:13Z</time></trkpt><trkpt lat="43.32973418054294" lon="11.971848962563504"><ele>592.8333333333334</ele><time>2026-04-19T12:23:14Z</time></trkpt><trkpt lat="43.329760538608596" lon="11.971732370051747"><ele>592.0</ele><time>2026-04-19T12:23:15Z</time></trkpt><trkpt lat="43.329776507707024" lon="11.971622887702104"><ele>590.8333333333334</ele><time>2026-04-19T12:23:16Z</time></trkpt><trkpt lat="43.32979396243542" lon="11.971508889147016"><ele>589.6666666666667</ele><time>2026-04-19T12:23:17Z</time></trkpt><trkpt lat="43.32980864050141" lon="11.971396844517722"><ele>588.5</ele><time>2026-04-19T12:23:18.001Z</time></trkpt><trkpt lat="43.32982312423386" lon="11.971285944463416"><ele>587.3333333333334</ele><time>2026-04-19T12:23:19.001Z</time></trkpt><trkpt lat="43.32984389134548" lon="11.971176009042114"><ele>586.1666666666666</ele><time>2026-04-19T12:23:20.001Z</time></trkpt><trkpt lat="43.329858609486934" lon="11.971067764552515"><ele>585.0</ele><time>2026-04-19T12:23:21.001Z</time></trkpt><trkpt lat="43.32986559943902" lon="11.970951582478854"><ele>583.8</ele><time>2026-04-19T12:23:22.001Z</time></trkpt><trkpt lat="43.32987108594439" lon="11.970836194333671"><ele>582.6</ele><time>2026-04-19T12:23:23.001Z</time></trkpt><trkpt lat="43.32987397551473" lon="11.970718916077711"><ele>581.4</ele><time>2026-04-19T12:23:24.001Z</time></trkpt><trkpt lat="43.32987057136752" lon="11.970598793272494"><ele>580.2</ele><time>2026-04-19T12:23:25.001Z</time></trkpt><trkpt lat="43.329869403458915" lon="11.970459772467283"><ele>579.0</ele><time>2026-04-19T12:23:26.001Z</time></trkpt><trkpt lat="43.32986704382386" lon="11.97032588513843"><ele>579.0</ele><time>2026-04-19T12:23:27.001Z</time></trkpt><trkpt lat="43.329856524394835" lon="11.970183912458774"><ele>579.0</ele><time>2026-04-19T12:23:28.001Z</time></trkpt><trkpt lat="43.32984193651437" lon="11.970039214925606"><ele>579.0</ele><time>2026-04-19T12:23:29.001Z</time></trkpt><trkpt lat="43.329823896804726" lon="11.969888143750984"><ele>579.0</ele><time>2026-04-19T12:23:30.001Z</time></trkpt><trkpt lat="43.329802540878504" lon="11.96974466414733"><ele>579.0</ele><time>2026-04-19T12:23:31.001Z</time></trkpt><trkpt lat="43.32977110036396" lon="11.969596939431584"><ele>576.75</ele><time>2026-04-19T12:23:32.001Z</time></trkpt><trkpt lat="43.32972945801095" lon="11.969449353804432"><ele>574.5</ele><time>2026-04-19T12:23:33.001Z</time></trkpt><trkpt lat="43.329674354378696" lon="11.969297564213734"><ele>572.25</ele><time>2026-04-19T12:23:34.001Z</time></trkpt><trkpt lat="43.3296280897445" lon="11.96915500711772"><ele>570.0</ele><time>2026-04-19T12:23:35.001Z</time></trkpt><trkpt lat="43.329580030764255" lon="11.969008373494226"><ele>567.2</ele><time>2026-04-19T12:23:36.001Z</time></trkpt><trkpt lat="43.329549667472946" lon="11.968846515511625"><ele>564.4</ele><time>2026-04-19T12:23:37.001Z</time></trkpt><trkpt lat="43.32949960528378" lon="11.968710546067465"><ele>561.6</ele><time>2026-04-19T12:23:38.001Z</time></trkpt><trkpt lat="43.32945417547926" lon="11.968569094146472"><ele>558.8</ele><time>2026-04-19T12:23:39.001Z</time></trkpt><trkpt lat="43.329415750325595" lon="11.968436945466365"><ele>556.0</ele><time>2026-04-19T12:23:40.001Z</time></trkpt><trkpt lat="43.32937819492285" lon="11.96830993030233"><ele>556.0</ele><time>2026-04-19T12:23:41.001Z</time></trkpt><trkpt lat="43.3293399663272" lon="11.968180687995492"><ele>556.0</ele><time>2026-04-19T12:23:42.001Z</time></trkpt><trkpt lat="43.329319702119925" lon="11.968046152136068"><ele>556.0</ele><time>2026-04-19T12:23:43.001Z</time></trkpt><trkpt lat="43.329280685450705" lon="11.967923545132006"><ele>556.0</ele><time>2026-04-19T12:23:44.001Z</time></trkpt><trkpt lat="43.32927516430927" lon="11.967812884571167"><ele>556.0</ele><time>2026-04-19T12:23:45.001Z</time></trkpt><trkpt lat="43.329249971411194" lon="11.967678961696059"><ele>556.0</ele><time>2026-04-19T12:23:46.001Z</time></trkpt><trkpt lat="43.329230732313945" lon="11.96755332858022"><ele>556.0</ele><time>2026-04-19T12:23:47.001Z</time></trkpt><trkpt lat="43.32923446492863" lon="11.96742049389265"><ele>556.0</ele><time>2026-04-19T12:23:48.001Z</time></trkpt><trkpt lat="43.32927001546218" lon="11.967284701334671"><ele>556.0</ele><time>2026-04-19T12:23:49.001Z</time></trkpt><trkpt lat="43.32930135879125" lon="11.967152746652847"><ele>556.0</ele><time>2026-04-19T12:23:50.001Z</time></trkpt><trkpt lat="43.32933862688032" lon="11.96701588884111"><ele>554.2</ele><time>2026-04-19T12:23:51.001Z</time></trkpt><trkpt lat="43.32937737113983" lon="11.966873945067025"><ele>552.4000000000001</ele><time>2026-04-19T12:23:52.001Z</time></trkpt><trkpt lat="43.329414540172756" lon="11.966740698999848"><ele>550.6</ele><time>2026-04-19T12:23:53.001Z</time></trkpt><trkpt lat="43.32945366494894" lon="11.966610959588966"><ele>548.8000000000001</ele><time>2026-04-19T12:23:54.001Z</time></trkpt><trkpt lat="43.329481628755744" lon="11.966473648501402"><ele>547.0</ele><time>2026-04-19T12:23:55.001Z</time></trkpt><trkpt lat="43.32953008025506" lon="11.966358627079664"><ele>546.0</ele><time>2026-04-19T12:23:56.001Z</time></trkpt><trkpt lat="43.3295670453698" lon="11.966261195763416"><ele>545.0</ele><time>2026-04-19T12:23:57.001Z</time></trkpt><trkpt lat="43.329558087640216" lon="11.96614304615829"><ele>544.0</ele><time>2026-04-19T12:23:59.001Z</time></trkpt><trkpt lat="43.32958371153427" lon="11.9660530413698"><ele>543.0</ele><time>2026-04-19T12:24:02.002Z</time></trkpt><trkpt lat="43.329612369103465" lon="11.965966942831178"><ele>542.0</ele><time>2026-04-19T12:24:06.002Z</time></trkpt><trkpt lat="43.32974026974137" lon="11.966029591482593"><ele>541.0</ele><time>2026-04-19T12:24:07.002Z</time></trkpt><trkpt lat="43.32975211643373" lon="11.966162725308402"><ele>541.0</ele><time>2026-04-19T12:24:15.002Z</time></trkpt><trkpt lat="43.32975927204962" lon="11.966070979601321"><ele>541.0</ele><time>2026-04-19T12:24:17.002Z</time></trkpt><trkpt lat="43.32971034931803" lon="11.966010734896315"><ele>541.0</ele><time>2026-04-19T12:24:23.002Z</time></trkpt><trkpt lat="43.329647149682685" lon="11.96601014836738"><ele>541.0</ele><time>2026-04-19T12:24:36.002Z</time></trkpt><trkpt lat="43.32957665711084" lon="11.966126851151284"><ele>541.0</ele><time>2026-04-19T12:24:38.002Z</time></trkpt><trkpt lat="43.329516946377176" lon="11.966067687828888"><ele>541.0</ele><time>2026-04-19T12:24:41.002Z</time></trkpt><trkpt lat="43.32944083621928" lon="11.966031820645169"><ele>541.0</ele><time>2026-04-19T12:24:44.003Z</time></trkpt><trkpt lat="43.3293777575135" lon="11.966001296678519"><ele>541.0</ele><time>2026-04-19T12:24:46.003Z</time></trkpt><trkpt lat="43.32929127606695" lon="11.9659740466069"><ele>541.0</ele><time>2026-04-19T12:24:48.003Z</time></trkpt><trkpt lat="43.329183957823126" lon="11.966001814039693"><ele>541.0</ele><time>2026-04-19T12:24:50.003Z</time></trkpt><trkpt lat="43.329071766750005" lon="11.966066906890473"><ele>541.0</ele><time>2026-04-19T12:24:52.003Z</time></trkpt><trkpt lat="43.32901691170835" lon="11.966115914646839"><ele>541.0</ele><time>2026-04-19T12:24:53.003Z</time></trkpt><trkpt lat="43.32895634782933" lon="11.966153585580225"><ele>541.0</ele><time>2026-04-19T12:24:54.003Z</time></trkpt><trkpt lat="43.32889279731082" lon="11.966181133517004"><ele>541.0</ele><time>2026-04-19T12:24:55.003Z</time></trkpt><trkpt lat="43.32878228484294" lon="11.966234443870082"><ele>541.0</ele><time>2026-04-19T12:24:57Z</time></trkpt><trkpt lat="43.32869965261921" lon="11.966319444426533"><ele>541.0</ele><time>2026-04-19T12:24:59Z</time></trkpt><trkpt lat="43.328659074694045" lon="11.966462327647797"><ele>538.2</ele><time>2026-04-19T12:25:01Z</time></trkpt><trkpt lat="43.32865889975422" lon="11.966558341843744"><ele>535.4000000000001</ele><time>2026-04-19T12:25:02Z</time></trkpt><trkpt lat="43.328686401928245" lon="11.966652062620076"><ele>532.6</ele><time>2026-04-19T12:25:03Z</time></trkpt><trkpt lat="43.32868508121169" lon="11.966819481184851"><ele>529.8000000000001</ele><time>2026-04-19T12:25:05Z</time></trkpt><trkpt lat="43.32869057644932" lon="11.966909142472698"><ele>527.0</ele><time>2026-04-19T12:25:06Z</time></trkpt><trkpt lat="43.32867697669947" lon="11.967087035036064"><ele>527.0000000000001</ele><time>2026-04-19T12:25:08Z</time></trkpt><trkpt lat="43.328659190229295" lon="11.967174347471254"><ele>527.0</ele><time>2026-04-19T12:25:09Z</time></trkpt><trkpt lat="43.32861680060303" lon="11.967244015457467"><ele>527.0</ele><time>2026-04-19T12:25:10Z</time></trkpt><trkpt lat="43.328544933171834" lon="11.967299949824548"><ele>527.0</ele><time>2026-04-19T12:25:11Z</time></trkpt><trkpt lat="43.32847296541344" lon="11.967338422194194"><ele>527.0</ele><time>2026-04-19T12:25:12Z</time></trkpt><trkpt lat="43.3284049940761" lon="11.967389853877279"><ele>527.0000000000001</ele><time>2026-04-19T12:25:13Z</time></trkpt><trkpt lat="43.32834790799791" lon="11.967457970346826"><ele>527.0</ele><time>2026-04-19T12:25:14Z</time></trkpt><trkpt lat="43.32828724386191" lon="11.967516491550162"><ele>527.8571428571429</ele><time>2026-04-19T12:25:15Z</time></trkpt><trkpt lat="43.328221612745594" lon="11.967560815912956"><ele>528.7142857142858</ele><time>2026-04-19T12:25:16Z</time></trkpt><trkpt lat="43.328161706360795" lon="11.967605489266935"><ele>529.5714285714286</ele><time>2026-04-19T12:25:17Z</time></trkpt><trkpt lat="43.32809534787093" lon="11.967637250172578"><ele>530.4285714285714</ele><time>2026-04-19T12:25:18Z</time></trkpt><trkpt lat="43.32803928428541" lon="11.967708301478291"><ele>531.2857142857142</ele><time>2026-04-19T12:25:19Z</time></trkpt><trkpt lat="43.32798887500244" lon="11.967791171263784"><ele>532.1428571428571</ele><time>2026-04-19T12:25:20Z</time></trkpt><trkpt lat="43.327950227682614" lon="11.967884244162338"><ele>533.0</ele><time>2026-04-19T12:25:21Z</time></trkpt><trkpt lat="43.32791933705832" lon="11.967987568912443"><ele>529.1666666666666</ele><time>2026-04-19T12:25:22Z</time></trkpt><trkpt lat="43.327897106111195" lon="11.968094593527937"><ele>525.3333333333333</ele><time>2026-04-19T12:25:23Z</time></trkpt><trkpt lat="43.32789039955418" lon="11.968210198810134"><ele>521.5</ele><time>2026-04-19T12:25:24.001Z</time></trkpt><trkpt lat="43.32788065852589" lon="11.968322290022204"><ele>517.6666666666666</ele><time>2026-04-19T12:25:25.001Z</time></trkpt><trkpt lat="43.32786521763083" lon="11.968438473985392"><ele>513.8333333333334</ele><time>2026-04-19T12:25:26.001Z</time></trkpt><trkpt lat="43.32785311043894" lon="11.968551138039254"><ele>510.0</ele><time>2026-04-19T12:25:27.001Z</time></trkpt><trkpt lat="43.32782135028637" lon="11.968657105302254"><ele>510.0</ele><time>2026-04-19T12:25:28.001Z</time></trkpt><trkpt lat="43.32783641320747" lon="11.968755529989707"><ele>510.00000000000006</ele><time>2026-04-19T12:25:29.001Z</time></trkpt><trkpt lat="43.32782330386225" lon="11.968853743972282"><ele>510.0</ele><time>2026-04-19T12:25:30.001Z</time></trkpt><trkpt lat="43.327804138276335" lon="11.968951489020613"><ele>510.0</ele><time>2026-04-19T12:25:31.001Z</time></trkpt><trkpt lat="43.32778142285426" lon="11.969037190508056"><ele>510.00000000000006</ele><time>2026-04-19T12:25:32.001Z</time></trkpt><trkpt lat="43.32774787482726" lon="11.96912185455745"><ele>510.0</ele><time>2026-04-19T12:25:33.001Z</time></trkpt><trkpt lat="43.32771624080577" lon="11.969196727940972"><ele>510.0</ele><time>2026-04-19T12:25:34.001Z</time></trkpt><trkpt lat="43.32767997534827" lon="11.969275906812685"><ele>511.6</ele><time>2026-04-19T12:25:35.001Z</time></trkpt><trkpt lat="43.32761196956938" lon="11.96940684534646"><ele>513.2</ele><time>2026-04-19T12:25:37.001Z</time></trkpt><trkpt lat="43.32751820036756" lon="11.969509893348858"><ele>514.8</ele><time>2026-04-19T12:25:39.001Z</time></trkpt><trkpt lat="43.327449970175806" lon="11.96953633167302"><ele>516.4</ele><time>2026-04-19T12:25:40.001Z</time></trkpt><trkpt lat="43.32738052194725" lon="11.969498360752477"><ele>518.0</ele><time>2026-04-19T12:25:41.001Z</time></trkpt><trkpt lat="43.327308010300044" lon="11.969501187815522"><ele>518.0</ele><time>2026-04-19T12:25:42.001Z</time></trkpt><trkpt lat="43.327239936687086" lon="11.969471960135788"><ele>518.0</ele><time>2026-04-19T12:25:43.001Z</time></trkpt><trkpt lat="43.32717156026561" lon="11.969431113210616"><ele>518.0</ele><time>2026-04-19T12:25:44.001Z</time></trkpt><trkpt lat="43.3271039196592" lon="11.969407289192407"><ele>518.0</ele><time>2026-04-19T12:25:45.001Z</time></trkpt><trkpt lat="43.3270334686281" lon="11.96940782721443"><ele>518.0</ele><time>2026-04-19T12:25:46.001Z</time></trkpt><trkpt lat="43.32696025332816" lon="11.969425146238274"><ele>518.0</ele><time>2026-04-19T12:25:47.001Z</time></trkpt><trkpt lat="43.32688931070187" lon="11.969465699753918"><ele>518.0</ele><time>2026-04-19T12:25:48.001Z</time></trkpt><trkpt lat="43.32682457107283" lon="11.969526464806064"><ele>514.8333333333333</ele><time>2026-04-19T12:25:49.001Z</time></trkpt><trkpt lat="43.32677099174862" lon="11.96958820714075"><ele>511.66666666666663</ele><time>2026-04-19T12:25:50.001Z</time></trkpt><trkpt lat="43.32671056903605" lon="11.969634710496969"><ele>508.5</ele><time>2026-04-19T12:25:51.001Z</time></trkpt><trkpt lat="43.326654245784844" lon="11.969682771448882"><ele>505.33333333333337</ele><time>2026-04-19T12:25:52.001Z</time></trkpt><trkpt lat="43.326588971588414" lon="11.969690101799156"><ele>502.1666666666667</ele><time>2026-04-19T12:25:53.001Z</time></trkpt><trkpt lat="43.32646226113743" lon="11.969725726003269"><ele>499.0</ele><time>2026-04-19T12:25:55.001Z</time></trkpt><trkpt lat="43.326391982158995" lon="11.969724070746983"><ele>496.0</ele><time>2026-04-19T12:25:56.001Z</time></trkpt><trkpt lat="43.32632089550516" lon="11.9697126228819"><ele>493.0</ele><time>2026-04-19T12:25:57.001Z</time></trkpt><trkpt lat="43.32623626225706" lon="11.96969223310633"><ele>490.0</ele><time>2026-04-19T12:25:58.001Z</time></trkpt><trkpt lat="43.32615335643788" lon="11.969685621895616"><ele>487.0</ele><time>2026-04-19T12:25:59.001Z</time></trkpt><trkpt lat="43.32601405357969" lon="11.969658364221695"><ele>484.0</ele><time>2026-04-19T12:26:01.001Z</time></trkpt><trkpt lat="43.32589868074547" lon="11.969661885521926"><ele>484.00000000000006</ele><time>2026-04-19T12:26:03.001Z</time></trkpt><trkpt lat="43.325850509750964" lon="11.969772822258442"><ele>484.0</ele><time>2026-04-19T12:26:05.001Z</time></trkpt><trkpt lat="43.32587499602285" lon="11.969858018330369"><ele>484.0</ele><time>2026-04-19T12:26:06.001Z</time></trkpt><trkpt lat="43.32594443215963" lon="11.969999074386614"><ele>484.0</ele><time>2026-04-19T12:26:08.001Z</time></trkpt><trkpt lat="43.32599303409799" lon="11.970070511577749"><ele>484.00000000000006</ele><time>2026-04-19T12:26:09.002Z</time></trkpt><trkpt lat="43.32602376550709" lon="11.97014994848155"><ele>484.0</ele><time>2026-04-19T12:26:10.002Z</time></trkpt><trkpt lat="43.32605460713802" lon="11.970232979251263"><ele>483.2857142857143</ele><time>2026-04-19T12:26:11.002Z</time></trkpt><trkpt lat="43.326076995794956" lon="11.970330770431305"><ele>482.57142857142856</ele><time>2026-04-19T12:26:12.002Z</time></trkpt><trkpt lat="43.32608077660765" lon="11.970433220653184"><ele>481.85714285714283</ele><time>2026-04-19T12:26:13.002Z</time></trkpt><trkpt lat="43.326058342248594" lon="11.970528367569859"><ele>481.1428571428571</ele><time>2026-04-19T12:26:14.002Z</time></trkpt><trkpt lat="43.32602254714404" lon="11.970615284422967"><ele>480.42857142857144</ele><time>2026-04-19T12:26:15.002Z</time></trkpt><trkpt lat="43.32596982058017" lon="11.970683954332063"><ele>479.71428571428567</ele><time>2026-04-19T12:26:16.002Z</time></trkpt><trkpt lat="43.32589480692794" lon="11.970719005908965"><ele>479.0</ele><time>2026-04-19T12:26:17.002Z</time></trkpt><trkpt lat="43.32581717411685" lon="11.970721120238279"><ele>478.99999999999994</ele><time>2026-04-19T12:26:18.002Z</time></trkpt><trkpt lat="43.32573727982687" lon="11.970691621000109"><ele>479.0</ele><time>2026-04-19T12:26:19.002Z</time></trkpt><trkpt lat="43.32566386615715" lon="11.970645527217776"><ele>479.0</ele><time>2026-04-19T12:26:20.002Z</time></trkpt><trkpt lat="43.32557905896365" lon="11.97060555142702"><ele>479.0</ele><time>2026-04-19T12:26:21.002Z</time></trkpt><trkpt lat="43.32549219765474" lon="11.970575194768088"><ele>478.99999999999994</ele><time>2026-04-19T12:26:22.002Z</time></trkpt><trkpt lat="43.32540931009956" lon="11.970564050028432"><ele>479.0</ele><time>2026-04-19T12:26:23.002Z</time></trkpt><trkpt lat="43.32533439636783" lon="11.970512503284521"><ele>476.49999999999994</ele><time>2026-04-19T12:26:24.002Z</time></trkpt><trkpt lat="43.325288428396966" lon="11.970406174192815"><ele>474.0</ele><time>2026-04-19T12:26:25.002Z</time></trkpt><trkpt lat="43.32527182347897" lon="11.970301507394083"><ele>471.5</ele><time>2026-04-19T12:26:26.002Z</time></trkpt><trkpt lat="43.32525321721982" lon="11.970191974912295"><ele>469.0</ele><time>2026-04-19T12:26:27.002Z</time></trkpt><trkpt lat="43.3252317740763" lon="11.970074822795299"><ele>466.49999999999994</ele><time>2026-04-19T12:26:28.002Z</time></trkpt><trkpt lat="43.32520809701376" lon="11.969963435276625"><ele>464.0</ele><time>2026-04-19T12:26:29.002Z</time></trkpt><trkpt lat="43.325184890083456" lon="11.969854977999494"><ele>463.8333333333333</ele><time>2026-04-19T12:26:30.002Z</time></trkpt><trkpt lat="43.325167797243694" lon="11.96974576817137"><ele>463.66666666666663</ele><time>2026-04-19T12:26:31.002Z</time></trkpt><trkpt lat="43.32515687945144" lon="11.96963145623617"><ele>463.5</ele><time>2026-04-19T12:26:32.002Z</time></trkpt><trkpt lat="43.325162172861404" lon="11.969518686538935"><ele>463.33333333333337</ele><time>2026-04-19T12:26:33.002Z</time></trkpt><trkpt lat="43.32517008180839" lon="11.969403027518954"><ele>463.1666666666667</ele><time>2026-04-19T12:26:34.002Z</time></trkpt><trkpt lat="43.32518323591192" lon="11.96931322938145"><ele>463.0</ele><time>2026-04-19T12:26:35.002Z</time></trkpt><trkpt lat="43.32518806730069" lon="11.969169017102551"><ele>463.00000000000006</ele><time>2026-04-19T12:26:36.002Z</time></trkpt><trkpt lat="43.32520122993553" lon="11.969047939741351"><ele>463.0</ele><time>2026-04-19T12:26:37.002Z</time></trkpt><trkpt lat="43.32522960911665" lon="11.96892921319775"><ele>463.0</ele><time>2026-04-19T12:26:38.002Z</time></trkpt><trkpt lat="43.325233054508715" lon="11.968811671914741"><ele>463.0</ele><time>2026-04-19T12:26:39.002Z</time></trkpt><trkpt lat="43.32522933960676" lon="11.968718748605149"><ele>463.00000000000006</ele><time>2026-04-19T12:26:40.002Z</time></trkpt><trkpt lat="43.32516730037903" lon="11.968644784362061"><ele>463.0</ele><time>2026-04-19T12:26:41.002Z</time></trkpt><trkpt lat="43.32507458252936" lon="11.968665712055838"><ele>463.0</ele><time>2026-04-19T12:26:42.002Z</time></trkpt><trkpt lat="43.325007550932874" lon="11.968730875442812"><ele>462.99999999999994</ele><time>2026-04-19T12:26:43.002Z</time></trkpt><trkpt lat="43.3249754079726" lon="11.968840329753727"><ele>462.99999999999994</ele><time>2026-04-19T12:26:44.002Z</time></trkpt><trkpt lat="43.324971832517235" lon="11.968961169491447"><ele>463.0</ele><time>2026-04-19T12:26:45.002Z</time></trkpt><trkpt lat="43.32495887205308" lon="11.969076534756933"><ele>463.0</ele><time>2026-04-19T12:26:46.002Z</time></trkpt><trkpt lat="43.32492413055898" lon="11.969238316511646"><ele>462.79999999999995</ele><time>2026-04-19T12:26:47.002Z</time></trkpt><trkpt lat="43.32490784888897" lon="11.969418498229736"><ele>462.59999999999997</ele><time>2026-04-19T12:26:48.002Z</time></trkpt><trkpt lat="43.32492725789088" lon="11.969566746856719"><ele>462.40000000000003</ele><time>2026-04-19T12:26:50.002Z</time></trkpt><trkpt lat="43.324917937985646" lon="11.969670538798965"><ele>462.20000000000005</ele><time>2026-04-19T12:26:51.002Z</time></trkpt><trkpt lat="43.324875580417114" lon="11.969810565580184"><ele>462.0</ele><time>2026-04-19T12:26:53.003Z</time></trkpt><trkpt lat="43.324803626859634" lon="11.96980361050299"><ele>462.0</ele><time>2026-04-19T12:26:54.003Z</time></trkpt><trkpt lat="43.32474746733693" lon="11.969718053862819"><ele>462.0</ele><time>2026-04-19T12:26:55.003Z</time></trkpt><trkpt lat="43.324767483183635" lon="11.969584878875814"><ele>462.0</ele><time>2026-04-19T12:26:56.003Z</time></trkpt><trkpt lat="43.32475880761894" lon="11.96947351421332"><ele>462.0</ele><time>2026-04-19T12:26:57.003Z</time></trkpt><trkpt lat="43.32476416400991" lon="11.969365304164329"><ele>462.0</ele><time>2026-04-19T12:26:58.003Z</time></trkpt><trkpt lat="43.32476593702258" lon="11.969233471364445"><ele>462.0</ele><time>2026-04-19T12:26:59.003Z</time></trkpt><trkpt lat="43.32477265761333" lon="11.969127162804552"><ele>462.1666666666667</ele><time>2026-04-19T12:27:00.003Z</time></trkpt><trkpt lat="43.32477264448946" lon="11.969007275231247"><ele>462.33333333333337</ele><time>2026-04-19T12:27:01.003Z</time></trkpt><trkpt lat="43.32477287665384" lon="11.968887280014533"><ele>462.5</ele><time>2026-04-19T12:27:02.003Z</time></trkpt><trkpt lat="43.324769644337145" lon="11.968764442120035"><ele>462.6666666666667</ele><time>2026-04-19T12:27:03.001Z</time></trkpt><trkpt lat="43.32477307878619" lon="11.968644583355772"><ele>462.83333333333337</ele><time>2026-04-19T12:27:04.001Z</time></trkpt><trkpt lat="43.32477286375651" lon="11.968524436347643"><ele>463.0</ele><time>2026-04-19T12:27:05.001Z</time></trkpt><trkpt lat="43.32476744259615" lon="11.968367238428305"><ele>461.2</ele><time>2026-04-19T12:27:06.001Z</time></trkpt><trkpt lat="43.32477038048992" lon="11.968167550431666"><ele>459.4</ele><time>2026-04-19T12:27:08.001Z</time></trkpt><trkpt lat="43.324766859808825" lon="11.968055749525112"><ele>457.59999999999997</ele><time>2026-04-19T12:27:09.001Z</time></trkpt><trkpt lat="43.32475467184734" lon="11.967917975630131"><ele>455.79999999999995</ele><time>2026-04-19T12:27:11.001Z</time></trkpt><trkpt lat="43.324791973802164" lon="11.967825999089309"><ele>454.0</ele><time>2026-04-19T12:27:58.001Z</time></trkpt><trkpt lat="43.3248635170197" lon="11.96776620042654"><ele>454.0</ele><time>2026-04-19T12:28:01.001Z</time></trkpt><trkpt lat="43.324940075897935" lon="11.967797120250333"><ele>454.0</ele><time>2026-04-19T12:28:03.001Z</time></trkpt><trkpt lat="43.325036472677525" lon="11.967841896165954"><ele>454.0</ele><time>2026-04-19T12:28:05.001Z</time></trkpt><trkpt lat="43.3251531964955" lon="11.967915920515592"><ele>454.0</ele><time>2026-04-19T12:28:07.001Z</time></trkpt><trkpt lat="43.32522039302383" lon="11.967957207512093"><ele>454.0</ele><time>2026-04-19T12:28:08.001Z</time></trkpt><trkpt lat="43.3252782710208" lon="11.968027162691062"><ele>454.0</ele><time>2026-04-19T12:28:09.001Z</time></trkpt><trkpt lat="43.325347243140875" lon="11.968077740273662"><ele>454.00000000000006</ele><time>2026-04-19T12:28:10.001Z</time></trkpt><trkpt lat="43.3254156806019" lon="11.968117335151907"><ele>454.0</ele><time>2026-04-19T12:28:11.001Z</time></trkpt><trkpt lat="43.3254864548207" lon="11.968158498883621"><ele>454.0</ele><time>2026-04-19T12:28:12.001Z</time></trkpt><trkpt lat="43.325557552717775" lon="11.968178368268461"><ele>454.00000000000006</ele><time>2026-04-19T12:28:13.001Z</time></trkpt><trkpt lat="43.325622903213" lon="11.96814864660478"><ele>454.0</ele><time>2026-04-19T12:28:14.001Z</time></trkpt><trkpt lat="43.32567166629185" lon="11.968085222669893"><ele>454.0</ele><time>2026-04-19T12:28:15.002Z</time></trkpt><trkpt lat="43.325703178844506" lon="11.968007359396735"><ele>455.33333333333337</ele><time>2026-04-19T12:28:16.002Z</time></trkpt><trkpt lat="43.325671587020075" lon="11.96790177542212"><ele>456.6666666666667</ele><time>2026-04-19T12:28:17.002Z</time></trkpt><trkpt lat="43.32564494858791" lon="11.967821716967626"><ele>458.0</ele><time>2026-04-19T12:28:18.002Z</time></trkpt><trkpt lat="43.32561318975001" lon="11.967738052962979"><ele>459.33333333333337</ele><time>2026-04-19T12:28:19.002Z</time></trkpt><trkpt lat="43.32558508592538" lon="11.967643797955592"><ele>460.6666666666667</ele><time>2026-04-19T12:28:20.002Z</time></trkpt><trkpt lat="43.32556326241814" lon="11.96754298880722"><ele>462.0</ele><time>2026-04-19T12:28:21.002Z</time></trkpt><trkpt lat="43.32553055420868" lon="11.967433838961433"><ele>457.8333333333333</ele><time>2026-04-19T12:28:22.002Z</time></trkpt><trkpt lat="43.32550034404575" lon="11.9673179747146"><ele>453.66666666666663</ele><time>2026-04-19T12:28:23.002Z</time></trkpt><trkpt lat="43.3254779234726" lon="11.967197552279826"><ele>449.5</ele><time>2026-04-19T12:28:24.002Z</time></trkpt><trkpt lat="43.32546095682872" lon="11.967085969312231"><ele>445.3333333333333</ele><time>2026-04-19T12:28:25.002Z</time></trkpt><trkpt lat="43.325456505295634" lon="11.96697746742162"><ele>441.16666666666663</ele><time>2026-04-19T12:28:26.002Z</time></trkpt><trkpt lat="43.325469602391635" lon="11.96686816146913"><ele>437.0</ele><time>2026-04-19T12:28:27.002Z</time></trkpt><trkpt lat="43.32548109673767" lon="11.966760658474401"><ele>436.99999999999994</ele><time>2026-04-19T12:28:28.002Z</time></trkpt><trkpt lat="43.32545878719631" lon="11.966666571591654"><ele>437.0</ele><time>2026-04-19T12:28:29.002Z</time></trkpt><trkpt lat="43.32539771042948" lon="11.966596751958374"><ele>437.0</ele><time>2026-04-19T12:28:30.002Z</time></trkpt><trkpt lat="43.3253097009466" lon="11.966614063244274"><ele>437.0</ele><time>2026-04-19T12:28:31.002Z</time></trkpt><trkpt lat="43.32524019515031" lon="11.96662420547275"><ele>436.99999999999994</ele><time>2026-04-19T12:28:32.002Z</time></trkpt><trkpt lat="43.32520713150969" lon="11.96678596664551"><ele>437.0</ele><time>2026-04-19T12:28:33.002Z</time></trkpt><trkpt lat="43.325226502630635" lon="11.966904856436049"><ele>436.99999999999994</ele><time>2026-04-19T12:28:34.002Z</time></trkpt><trkpt lat="43.32526975041548" lon="11.967002006707007"><ele>437.0</ele><time>2026-04-19T12:28:35.002Z</time></trkpt><trkpt lat="43.3253058061266" lon="11.967084727584647"><ele>437.0</ele><time>2026-04-19T12:28:36.002Z</time></trkpt><trkpt lat="43.32533597866575" lon="11.967168091092345"><ele>437.0</ele><time>2026-04-19T12:28:37.002Z</time></trkpt><trkpt lat="43.32535277861693" lon="11.967261547965204"><ele>436.99999999999994</ele><time>2026-04-19T12:28:38.002Z</time></trkpt><trkpt lat="43.32527468441483" lon="11.967405245730045"><ele>437.0</ele><time>2026-04-19T12:28:40.002Z</time></trkpt><trkpt lat="43.32515272397934" lon="11.967380555884304"><ele>437.0</ele><time>2026-04-19T12:28:41.002Z</time></trkpt><trkpt lat="43.32507652797455" lon="11.96730727898711"><ele>437.00000000000006</ele><time>2026-04-19T12:28:42.002Z</time></trkpt><trkpt lat="43.32504643911071" lon="11.967179122976322"><ele>437.00000000000006</ele><time>2026-04-19T12:28:43.002Z</time></trkpt><trkpt lat="43.32508765768296" lon="11.96705220276085"><ele>437.0</ele><time>2026-04-19T12:28:44.002Z</time></trkpt><trkpt lat="43.325076735679225" lon="11.966936041405322"><ele>437.0</ele><time>2026-04-19T12:28:45.002Z</time></trkpt><trkpt lat="43.32508094554298" lon="11.96682704230372"><ele>437.0</ele><time>2026-04-19T12:28:46.002Z</time></trkpt><trkpt lat="43.32507434311305" lon="11.966707642635646"><ele>437.00000000000006</ele><time>2026-04-19T12:28:47.002Z</time></trkpt><trkpt lat="43.325072050724835" lon="11.966584117984365"><ele>437.00000000000006</ele><time>2026-04-19T12:28:48.002Z</time></trkpt><trkpt lat="43.32505940317156" lon="11.966461371042977"><ele>437.0</ele><time>2026-04-19T12:28:49.002Z</time></trkpt><trkpt lat="43.32504258066318" lon="11.96633184832135"><ele>437.0</ele><time>2026-04-19T12:28:50.002Z</time></trkpt><trkpt lat="43.32503157248681" lon="11.966202537854398"><ele>434.0</ele><time>2026-04-19T12:28:51.002Z</time></trkpt><trkpt lat="43.325016105658094" lon="11.96607535533408"><ele>431.00000000000006</ele><time>2026-04-19T12:28:52.002Z</time></trkpt><trkpt lat="43.32502879302253" lon="11.965946749133494"><ele>428.0</ele><time>2026-04-19T12:28:53.002Z</time></trkpt><trkpt lat="43.32504321166812" lon="11.965831129396767"><ele>425.0</ele><time>2026-04-19T12:28:54.002Z</time></trkpt><trkpt lat="43.32507937365621" lon="11.96572013429164"><ele>422.0</ele><time>2026-04-19T12:28:55.002Z</time></trkpt><trkpt lat="43.32515521951332" lon="11.965630617623097"><ele>420.20000000000005</ele><time>2026-04-19T12:28:56.002Z</time></trkpt><trkpt lat="43.32519271978403" lon="11.965508621529032"><ele>418.4</ele><time>2026-04-19T12:28:57.002Z</time></trkpt><trkpt lat="43.32522183817704" lon="11.965406182884033"><ele>416.6</ele><time>2026-04-19T12:28:58.002Z</time></trkpt><trkpt lat="43.32519217237316" lon="11.965286021205891"><ele>414.79999999999995</ele><time>2026-04-19T12:28:59.002Z</time></trkpt><trkpt lat="43.32511779068885" lon="11.965194892143128"><ele>413.0</ele><time>2026-04-19T12:29:00.002Z</time></trkpt><trkpt lat="43.325020676645316" lon="11.965162306587594"><ele>413.0</ele><time>2026-04-19T12:29:01.002Z</time></trkpt><trkpt lat="43.32491811640966" lon="11.965182469747065"><ele>413.0</ele><time>2026-04-19T12:29:02.003Z</time></trkpt><trkpt lat="43.32482497293673" lon="11.96520278457631"><ele>413.0</ele><time>2026-04-19T12:29:03.003Z</time></trkpt><trkpt lat="43.32473113587594" lon="11.965214500504448"><ele>413.0</ele><time>2026-04-19T12:29:04.003Z</time></trkpt><trkpt lat="43.324633191141125" lon="11.965227078263325"><ele>413.0</ele><time>2026-04-19T12:29:05.003Z</time></trkpt><trkpt lat="43.32455095803581" lon="11.965239082565535"><ele>409.99999999999994</ele><time>2026-04-19T12:29:06.003Z</time></trkpt><trkpt lat="43.32447344681739" lon="11.965231570145248"><ele>407.0</ele><time>2026-04-19T12:29:07.003Z</time></trkpt><trkpt lat="43.32439578829313" lon="11.965226730459225"><ele>404.0</ele><time>2026-04-19T12:29:08.003Z</time></trkpt><trkpt lat="43.32432083780941" lon="11.965212823431106"><ele>401.0</ele><time>2026-04-19T12:29:09Z</time></trkpt><trkpt lat="43.32424726603475" lon="11.965180521559141"><ele>397.99999999999994</ele><time>2026-04-19T12:29:10Z</time></trkpt><trkpt lat="43.32417924294129" lon="11.965112517008212"><ele>395.0</ele><time>2026-04-19T12:29:11Z</time></trkpt><trkpt lat="43.32412136498163" lon="11.9650075297761"><ele>394.66666666666663</ele><time>2026-04-19T12:29:12Z</time></trkpt><trkpt lat="43.32410481177001" lon="11.964883303756745"><ele>394.3333333333333</ele><time>2026-04-19T12:29:13Z</time></trkpt><trkpt lat="43.32409639199206" lon="11.96475712594476"><ele>394.0</ele><time>2026-04-19T12:29:14Z</time></trkpt><trkpt lat="43.32408985181916" lon="11.964637695223631"><ele>393.66666666666663</ele><time>2026-04-19T12:29:15Z</time></trkpt><trkpt lat="43.32408549235071" lon="11.964533005980003"><ele>393.3333333333333</ele><time>2026-04-19T12:29:16Z</time></trkpt><trkpt lat="43.324046345958415" lon="11.964432104398249"><ele>393.0</ele><time>2026-04-19T12:29:17Z</time></trkpt><trkpt lat="43.32392592850368" lon="11.964400058473492"><ele>390.0</ele><time>2026-04-19T12:29:18Z</time></trkpt><trkpt lat="43.323851999647246" lon="11.964335128670854"><ele>387.0</ele><time>2026-04-19T12:29:19Z</time></trkpt><trkpt lat="43.32383049438058" lon="11.964204593858744"><ele>384.0</ele><time>2026-04-19T12:29:20Z</time></trkpt><trkpt lat="43.323820159085955" lon="11.964072785403639"><ele>381.0</ele><time>2026-04-19T12:29:21Z</time></trkpt><trkpt lat="43.32381770717513" lon="11.96394456799133"><ele>378.0</ele><time>2026-04-19T12:29:22Z</time></trkpt><trkpt lat="43.32382661842144" lon="11.963837498405304"><ele>377.3333333333333</ele><time>2026-04-19T12:29:23Z</time></trkpt><trkpt lat="43.3238617231574" lon="11.96375110810357"><ele>376.6666666666667</ele><time>2026-04-19T12:29:24Z</time></trkpt><trkpt lat="43.32391963035506" lon="11.96369603733098"><ele>376.0</ele><time>2026-04-19T12:29:25Z</time></trkpt><trkpt lat="43.32399890918546" lon="11.963691992079195"><ele>375.33333333333337</ele><time>2026-04-19T12:29:26Z</time></trkpt><trkpt lat="43.32407863111104" lon="11.9636472942306"><ele>374.6666666666667</ele><time>2026-04-19T12:29:27Z</time></trkpt><trkpt lat="43.32413011774948" lon="11.963495843071204"><ele>374.0</ele><time>2026-04-19T12:29:28Z</time></trkpt><trkpt lat="43.32408929146383" lon="11.96339021789739"><ele>376.6</ele><time>2026-04-19T12:29:29Z</time></trkpt><trkpt lat="43.32401030663637" lon="11.963282652481519"><ele>379.2</ele><time>2026-04-19T12:29:30Z</time></trkpt><trkpt lat="43.32399424615574" lon="11.963162689575181"><ele>381.8</ele><time>2026-04-19T12:29:31Z</time></trkpt><trkpt lat="43.3239694946222" lon="11.963048530264556"><ele>384.40000000000003</ele><time>2026-04-19T12:29:32Z</time></trkpt><trkpt lat="43.32400471445587" lon="11.962933453756541"><ele>387.0</ele><time>2026-04-19T12:29:33Z</time></trkpt><trkpt lat="43.324061025536544" lon="11.962811427064397"><ele>387.0</ele><time>2026-04-19T12:29:34Z</time></trkpt><trkpt lat="43.3241291037649" lon="11.962787423589473"><ele>387.0</ele><time>2026-04-19T12:29:35Z</time></trkpt><trkpt lat="43.32418070941461" lon="11.962708564617062"><ele>387.0</ele><time>2026-04-19T12:29:36Z</time></trkpt><trkpt lat="43.32422085653731" lon="11.962630978738781"><ele>387.0</ele><time>2026-04-19T12:29:37Z</time></trkpt><trkpt lat="43.324207728062746" lon="11.962528323466733"><ele>387.0</ele><time>2026-04-19T12:29:38Z</time></trkpt><trkpt lat="43.32414061136002" lon="11.962441477144981"><ele>387.0</ele><time>2026-04-19T12:29:39Z</time></trkpt><trkpt lat="43.32404904505878" lon="11.962428366730231"><ele>386.5</ele><time>2026-04-19T12:29:40.001Z</time></trkpt><trkpt lat="43.32396551597119" lon="11.962411298124605"><ele>386.0</ele><time>2026-04-19T12:29:41.001Z</time></trkpt><trkpt lat="43.32388276395796" lon="11.962385505572234"><ele>385.5</ele><time>2026-04-19T12:29:42.001Z</time></trkpt><trkpt lat="43.323804196226135" lon="11.9623485302341"><ele>385.0</ele><time>2026-04-19T12:29:43.001Z</time></trkpt><trkpt lat="43.32374490650964" lon="11.962263976492112"><ele>384.5</ele><time>2026-04-19T12:29:44.001Z</time></trkpt><trkpt lat="43.32375485506547" lon="11.962135711917053"><ele>384.0</ele><time>2026-04-19T12:29:45.001Z</time></trkpt><trkpt lat="43.323715327422136" lon="11.962015390009523"><ele>379.6</ele><time>2026-04-19T12:29:46.001Z</time></trkpt><trkpt lat="43.32366840353118" lon="11.961862511919263"><ele>375.2</ele><time>2026-04-19T12:29:47.001Z</time></trkpt><trkpt lat="43.323616280964956" lon="11.9617860681149"><ele>370.8</ele><time>2026-04-19T12:29:48.001Z</time></trkpt><trkpt lat="43.32354055853738" lon="11.961685927557223"><ele>366.40000000000003</ele><time>2026-04-19T12:29:49.001Z</time></trkpt><trkpt lat="43.32348610318041" lon="11.961576720934596"><ele>362.0</ele><time>2026-04-19T12:29:50.001Z</time></trkpt><trkpt lat="43.32341327636181" lon="11.961442775943416"><ele>362.0</ele><time>2026-04-19T12:29:51.001Z</time></trkpt><trkpt lat="43.323343721397514" lon="11.961315056834245"><ele>362.0</ele><time>2026-04-19T12:29:52.001Z</time></trkpt><trkpt lat="43.32328823966227" lon="11.961174212297955"><ele>362.0</ele><time>2026-04-19T12:29:53.001Z</time></trkpt><trkpt lat="43.32324241310202" lon="11.961051419691694"><ele>362.0</ele><time>2026-04-19T12:29:54.001Z</time></trkpt><trkpt lat="43.32317648821632" lon="11.960891797445395"><ele>362.5</ele><time>2026-04-19T12:29:55.001Z</time></trkpt><trkpt lat="43.32313758380963" lon="11.960729938039787"><ele>363.0</ele><time>2026-04-19T12:29:56.001Z</time></trkpt><trkpt lat="43.32310705098348" lon="11.960570851359229"><ele>363.5</ele><time>2026-04-19T12:29:57.001Z</time></trkpt><trkpt lat="43.323070302150256" lon="11.960416752738446"><ele>364.0</ele><time>2026-04-19T12:29:58.001Z</time></trkpt><trkpt lat="43.32307602001131" lon="11.96025908239155"><ele>364.0</ele><time>2026-04-19T12:29:59.001Z</time></trkpt><trkpt lat="43.32307936253444" lon="11.960111099457484"><ele>364.0</ele><time>2026-04-19T12:30:00.001Z</time></trkpt><trkpt lat="43.323085460119636" lon="11.959967100869168"><ele>364.0</ele><time>2026-04-19T12:30:01.001Z</time></trkpt><trkpt lat="43.32309850540894" lon="11.959831777051749"><ele>364.0</ele><time>2026-04-19T12:30:02.001Z</time></trkpt><trkpt lat="43.32309485541651" lon="11.959698646897492"><ele>364.0</ele><time>2026-04-19T12:30:03.001Z</time></trkpt><trkpt lat="43.323081617956234" lon="11.959574988362613"><ele>358.6</ele><time>2026-04-19T12:30:04.001Z</time></trkpt><trkpt lat="43.322982257369404" lon="11.959504081457041"><ele>353.2</ele><time>2026-04-19T12:30:05.001Z</time></trkpt><trkpt lat="43.32287767001655" lon="11.959509760007323"><ele>347.8</ele><time>2026-04-19T12:30:06.001Z</time></trkpt><trkpt lat="43.32279709953549" lon="11.959598373065237"><ele>342.40000000000003</ele><time>2026-04-19T12:30:07.001Z</time></trkpt><trkpt lat="43.32276178305023" lon="11.959730190654026"><ele>337.0</ele><time>2026-04-19T12:30:08.001Z</time></trkpt><trkpt lat="43.32277389437689" lon="11.959866009686065"><ele>337.0</ele><time>2026-04-19T12:30:09.001Z</time></trkpt><trkpt lat="43.32279781351466" lon="11.959982685374934"><ele>337.0</ele><time>2026-04-19T12:30:10.001Z</time></trkpt><trkpt lat="43.322818531823096" lon="11.960096668492959"><ele>337.0</ele><time>2026-04-19T12:30:11.001Z</time></trkpt><trkpt lat="43.322840265592866" lon="11.96021179368"><ele>337.0</ele><time>2026-04-19T12:30:12.001Z</time></trkpt><trkpt lat="43.322856807087646" lon="11.960313497981064"><ele>337.0</ele><time>2026-04-19T12:30:13.001Z</time></trkpt><trkpt lat="43.322808155972616" lon="11.960430790091051"><ele>337.0</ele><time>2026-04-19T12:30:15.001Z</time></trkpt><trkpt lat="43.32271321121232" lon="11.9604526062635"><ele>337.0</ele><time>2026-04-19T12:30:17.001Z</time></trkpt><trkpt lat="43.322635904293804" lon="11.960372321770816"><ele>337.0</ele><time>2026-04-19T12:30:19.001Z</time></trkpt><trkpt lat="43.32264945476559" lon="11.960270348859128"><ele>337.0</ele><time>2026-04-19T12:30:20.001Z</time></trkpt><trkpt lat="43.32264243361772" lon="11.960183709193284"><ele>337.0</ele><time>2026-04-19T12:30:21.001Z</time></trkpt><trkpt lat="43.322621443493944" lon="11.96006498472531"><ele>337.0</ele><time>2026-04-19T12:30:22.001Z</time></trkpt><trkpt lat="43.3226004075289" lon="11.959885464268291"><ele>337.0</ele><time>2026-04-19T12:30:24.001Z</time></trkpt><trkpt lat="43.32257410257936" lon="11.959771032721978"><ele>337.0</ele><time>2026-04-19T12:30:25.001Z</time></trkpt><trkpt lat="43.32252792708975" lon="11.959668945441038"><ele>337.0</ele><time>2026-04-19T12:30:26.001Z</time></trkpt><trkpt lat="43.32246760577644" lon="11.95958240140688"><ele>337.0</ele><time>2026-04-19T12:30:27.001Z</time></trkpt><trkpt lat="43.322396318153736" lon="11.959508999498699"><ele>337.0</ele><time>2026-04-19T12:30:28.002Z</time></trkpt><trkpt lat="43.32231850929328" lon="11.959442711031775"><ele>337.0</ele><time>2026-04-19T12:30:29.002Z</time></trkpt><trkpt lat="43.32224952970844" lon="11.959364977851548"><ele>336.8333333333333</ele><time>2026-04-19T12:30:30.002Z</time></trkpt><trkpt lat="43.32217874446724" lon="11.95928441083787"><ele>336.66666666666663</ele><time>2026-04-19T12:30:31.002Z</time></trkpt><trkpt lat="43.32213042693533" lon="11.959185538708445"><ele>336.5</ele><time>2026-04-19T12:30:32.002Z</time></trkpt><trkpt lat="43.32207149366318" lon="11.95910511445876"><ele>336.3333333333333</ele><time>2026-04-19T12:30:33.002Z</time></trkpt><trkpt lat="43.32203651604288" lon="11.959007291412656"><ele>336.1666666666667</ele><time>2026-04-19T12:30:34.002Z</time></trkpt><trkpt lat="43.321970204283424" lon="11.958951340489902"><ele>336.0</ele><time>2026-04-19T12:30:35.002Z</time></trkpt><trkpt lat="43.32188696257133" lon="11.958976323615104"><ele>334.0</ele><time>2026-04-19T12:30:36.002Z</time></trkpt><trkpt lat="43.32178772581021" lon="11.958961379032896"><ele>332.0</ele><time>2026-04-19T12:30:37.002Z</time></trkpt><trkpt lat="43.32166113950756" lon="11.958926977055807"><ele>330.0</ele><time>2026-04-19T12:30:38.002Z</time></trkpt><trkpt lat="43.32154199935179" lon="11.958893939464728"><ele>328.0</ele><time>2026-04-19T12:30:39.002Z</time></trkpt><trkpt lat="43.32143983570591" lon="11.958831467247194"><ele>329.2</ele><time>2026-04-19T12:30:41.002Z</time></trkpt><trkpt lat="43.32135652170304" lon="11.958752778168032"><ele>330.4</ele><time>2026-04-19T12:30:42.002Z</time></trkpt><trkpt lat="43.32127760513841" lon="11.958692945272771"><ele>331.59999999999997</ele><time>2026-04-19T12:30:43.002Z</time></trkpt><trkpt lat="43.32119307670054" lon="11.958616424976112"><ele>332.79999999999995</ele><time>2026-04-19T12:30:44.002Z</time></trkpt><trkpt lat="43.321108879446946" lon="11.958560566333775"><ele>334.0</ele><time>2026-04-19T12:30:45.002Z</time></trkpt><trkpt lat="43.321022919885685" lon="11.958495467173309"><ele>334.0</ele><time>2026-04-19T12:30:46.002Z</time></trkpt><trkpt lat="43.32093255261332" lon="11.958437791846194"><ele>334.0</ele><time>2026-04-19T12:30:47.002Z</time></trkpt><trkpt lat="43.32087658715382" lon="11.958340405966869"><ele>334.0</ele><time>2026-04-19T12:30:48.002Z</time></trkpt><trkpt lat="43.320786685346505" lon="11.958252095408037"><ele>334.0</ele><time>2026-04-19T12:30:49.002Z</time></trkpt><trkpt lat="43.32072386606803" lon="11.958168847953235"><ele>334.0</ele><time>2026-04-19T12:30:50.002Z</time></trkpt><trkpt lat="43.32069248881642" lon="11.95809012544276"><ele>334.0</ele><time>2026-04-19T12:30:51.002Z</time></trkpt><trkpt lat="43.32058296012533" lon="11.957987094241775"><ele>334.0</ele><time>2026-04-19T12:30:52.002Z</time></trkpt><trkpt lat="43.32050372317465" lon="11.957895255426298"><ele>334.0</ele><time>2026-04-19T12:30:53.002Z</time></trkpt><trkpt lat="43.32043070547123" lon="11.957797227676332"><ele>334.0</ele><time>2026-04-19T12:30:54.002Z</time></trkpt><trkpt lat="43.320347350708325" lon="11.957712046915574"><ele>334.0</ele><time>2026-04-19T12:30:55.002Z</time></trkpt><trkpt lat="43.32028262695765" lon="11.957597199965752"><ele>331.4</ele><time>2026-04-19T12:30:56.002Z</time></trkpt><trkpt lat="43.320200885228374" lon="11.957502355627044"><ele>328.79999999999995</ele><time>2026-04-19T12:30:57.002Z</time></trkpt><trkpt lat="43.32015334867472" lon="11.95737351186561"><ele>326.20000000000005</ele><time>2026-04-19T12:30:58.002Z</time></trkpt><trkpt lat="43.320099896628676" lon="11.957256167088513"><ele>323.6</ele><time>2026-04-19T12:30:59.002Z</time></trkpt><trkpt lat="43.3200263567004" lon="11.957154110382508"><ele>321.0</ele><time>2026-04-19T12:31:00.002Z</time></trkpt><trkpt lat="43.31995159474549" lon="11.95700153159014"><ele>321.0</ele><time>2026-04-19T12:31:01.002Z</time></trkpt><trkpt lat="43.31991086390742" lon="11.956921656703424"><ele>321.0</ele><time>2026-04-19T12:31:02.002Z</time></trkpt><trkpt lat="43.319859988051434" lon="11.956799658378106"><ele>321.0</ele><time>2026-04-19T12:31:03.002Z</time></trkpt><trkpt lat="43.31980805564608" lon="11.956687178003097"><ele>321.0</ele><time>2026-04-19T12:31:04.002Z</time></trkpt><trkpt lat="43.3197799869574" lon="11.956556110085197"><ele>321.0</ele><time>2026-04-19T12:31:05.002Z</time></trkpt><trkpt lat="43.31973086251358" lon="11.956443648815805"><ele>320.0</ele><time>2026-04-19T12:31:06.002Z</time></trkpt><trkpt lat="43.319689795469195" lon="11.956321042423424"><ele>319.0</ele><time>2026-04-19T12:31:07.002Z</time></trkpt><trkpt lat="43.319650665557326" lon="11.956193242529718"><ele>318.0</ele><time>2026-04-19T12:31:08.002Z</time></trkpt><trkpt lat="43.31961647055608" lon="11.956022416149342"><ele>317.0</ele><time>2026-04-19T12:31:09.002Z</time></trkpt><trkpt lat="43.319569323977916" lon="11.955924655020818"><ele>316.0</ele><time>2026-04-19T12:31:10.002Z</time></trkpt><trkpt lat="43.31952045834032" lon="11.955811179185707"><ele>314.8</ele><time>2026-04-19T12:31:11.002Z</time></trkpt><trkpt lat="43.31948272077035" lon="11.955617237036298"><ele>313.6</ele><time>2026-04-19T12:31:12.002Z</time></trkpt><trkpt lat="43.3194362266635" lon="11.955537504309875"><ele>312.4</ele><time>2026-04-19T12:31:13.002Z</time></trkpt><trkpt lat="43.319397777528515" lon="11.955415125264505"><ele>311.2</ele><time>2026-04-19T12:31:14.002Z</time></trkpt><trkpt lat="43.31935526023877" lon="11.955289411095476"><ele>310.0</ele><time>2026-04-19T12:31:15.001Z</time></trkpt><trkpt lat="43.31931059224404" lon="11.955164605271337"><ele>309.4</ele><time>2026-04-19T12:31:16.001Z</time></trkpt><trkpt lat="43.31926646557867" lon="11.955036103778145"><ele>308.8</ele><time>2026-04-19T12:31:17.001Z</time></trkpt><trkpt lat="43.31922093530165" lon="11.954912791436065"><ele>308.2</ele><time>2026-04-19T12:31:18.001Z</time></trkpt><trkpt lat="43.31917665564065" lon="11.954787495545379"><ele>307.6</ele><time>2026-04-19T12:31:19.001Z</time></trkpt><trkpt lat="43.3191406450199" lon="11.954658950182896"><ele>307.0</ele><time>2026-04-19T12:31:20.001Z</time></trkpt><trkpt lat="43.31909975986085" lon="11.954538423673098"><ele>307.0</ele><time>2026-04-19T12:31:21.001Z</time></trkpt><trkpt lat="43.31905118614276" lon="11.95441309262527"><ele>307.0</ele><time>2026-04-19T12:31:22.001Z</time></trkpt><trkpt lat="43.319009597501044" lon="11.954286789510473"><ele>307.0</ele><time>2026-04-19T12:31:23.001Z</time></trkpt><trkpt lat="43.318967567626" lon="11.954155955278917"><ele>307.0</ele><time>2026-04-19T12:31:24.001Z</time></trkpt><trkpt lat="43.318922657234765" lon="11.954025021209434"><ele>307.0</ele><time>2026-04-19T12:31:25.001Z</time></trkpt><trkpt lat="43.31888077951345" lon="11.953898146414607"><ele>305.8</ele><time>2026-04-19T12:31:26.001Z</time></trkpt><trkpt lat="43.31883599451457" lon="11.953772790631906"><ele>304.6</ele><time>2026-04-19T12:31:27.001Z</time></trkpt><trkpt lat="43.31879470840484" lon="11.953652486539484"><ele>303.40000000000003</ele><time>2026-04-19T12:31:28.001Z</time></trkpt><trkpt lat="43.31875576016714" lon="11.953533011012166"><ele>302.2</ele><time>2026-04-19T12:31:29.001Z</time></trkpt><trkpt lat="43.31871655749365" lon="11.953417972755071"><ele>301.0</ele><time>2026-04-19T12:31:30.001Z</time></trkpt><trkpt lat="43.31868581625776" lon="11.953232691754634"><ele>300.40000000000003</ele><time>2026-04-19T12:31:31.001Z</time></trkpt><trkpt lat="43.31862445688188" lon="11.95311814543383"><ele>299.8</ele><time>2026-04-19T12:31:33.001Z</time></trkpt><trkpt lat="43.318645062518854" lon="11.952978019151523"><ele>299.20000000000005</ele><time>2026-04-19T12:31:34.001Z</time></trkpt><trkpt lat="43.31863689528154" lon="11.952840352463125"><ele>298.6</ele><time>2026-04-19T12:31:35.001Z</time></trkpt><trkpt lat="43.31864697129863" lon="11.952692477766554"><ele>298.0</ele><time>2026-04-19T12:31:36.001Z</time></trkpt><trkpt lat="43.31867062267157" lon="11.952569156203523"><ele>297.8</ele><time>2026-04-19T12:31:37.001Z</time></trkpt><trkpt lat="43.31868400107685" lon="11.9524343535353"><ele>297.6</ele><time>2026-04-19T12:31:38.001Z</time></trkpt><trkpt lat="43.31868562679637" lon="11.952282251371795"><ele>297.4</ele><time>2026-04-19T12:31:39.001Z</time></trkpt><trkpt lat="43.31871357107602" lon="11.952149549989418"><ele>297.2</ele><time>2026-04-19T12:31:40.001Z</time></trkpt><trkpt lat="43.31873501650086" lon="11.95201771135484"><ele>297.0</ele><time>2026-04-19T12:31:41.001Z</time></trkpt><trkpt lat="43.31875665429034" lon="11.951873548804024"><ele>297.0</ele><time>2026-04-19T12:31:42.001Z</time></trkpt><trkpt lat="43.31877618629787" lon="11.951729409408218"><ele>297.0</ele><time>2026-04-19T12:31:43.001Z</time></trkpt><trkpt lat="43.31878915585038" lon="11.951604130777563"><ele>297.0</ele><time>2026-04-19T12:31:44.001Z</time></trkpt><trkpt lat="43.318792267304126" lon="11.95146735559012"><ele>297.0</ele><time>2026-04-19T12:31:45.001Z</time></trkpt><trkpt lat="43.31879691160438" lon="11.951339855177654"><ele>297.0</ele><time>2026-04-19T12:31:46.001Z</time></trkpt><trkpt lat="43.318808998385975" lon="11.951207490779037"><ele>296.0</ele><time>2026-04-19T12:31:47.001Z</time></trkpt><trkpt lat="43.31882786712054" lon="11.951048307385417"><ele>295.0</ele><time>2026-04-19T12:31:48.001Z</time></trkpt><trkpt lat="43.31880938046829" lon="11.950947310486951"><ele>294.0</ele><time>2026-04-19T12:31:49.001Z</time></trkpt><trkpt lat="43.31878072069199" lon="11.950829093703549"><ele>293.0</ele><time>2026-04-19T12:31:50.001Z</time></trkpt><trkpt lat="43.31874251157932" lon="11.950717139373126"><ele>292.0</ele><time>2026-04-19T12:31:51.001Z</time></trkpt><trkpt lat="43.31870207872058" lon="11.950610884125489"><ele>291.5</ele><time>2026-04-19T12:31:52.001Z</time></trkpt><trkpt lat="43.31865642866031" lon="11.950513281226838"><ele>291.0</ele><time>2026-04-19T12:31:53.001Z</time></trkpt><trkpt lat="43.318611654893985" lon="11.950413366920666"><ele>290.5</ele><time>2026-04-19T12:31:54.001Z</time></trkpt><trkpt lat="43.31856875213472" lon="11.950316765864525"><ele>290.0</ele><time>2026-04-19T12:31:55.001Z</time></trkpt><trkpt lat="43.31852400272992" lon="11.950219158227918"><ele>289.5</ele><time>2026-04-19T12:31:56.001Z</time></trkpt><trkpt lat="43.31847999725074" lon="11.950121907067548"><ele>289.0</ele><time>2026-04-19T12:31:57.001Z</time></trkpt><trkpt lat="43.318453363169354" lon="11.950012780056902"><ele>288.66666666666663</ele><time>2026-04-19T12:31:58.001Z</time></trkpt><trkpt lat="43.31844164175432" lon="11.949898825602618"><ele>288.3333333333333</ele><time>2026-04-19T12:31:59.001Z</time></trkpt><trkpt lat="43.31847670770671" lon="11.949807439092991"><ele>288.0</ele><time>2026-04-19T12:32:00.001Z</time></trkpt><trkpt lat="43.31847306269458" lon="11.949685204876712"><ele>287.6666666666667</ele><time>2026-04-19T12:32:01.001Z</time></trkpt><trkpt lat="43.31845329205179" lon="11.949581697619083"><ele>287.33333333333337</ele><time>2026-04-19T12:32:02.001Z</time></trkpt><trkpt lat="43.31846528716716" lon="11.949476008636484"><ele>287.0</ele><time>2026-04-19T12:32:03.001Z</time></trkpt><trkpt lat="43.31845048820554" lon="11.949374661765795"><ele>287.0</ele><time>2026-04-19T12:32:04.001Z</time></trkpt><trkpt lat="43.3184577177575" lon="11.949273034208021"><ele>287.0</ele><time>2026-04-19T12:32:05.001Z</time></trkpt><trkpt lat="43.31844826610529" lon="11.949168627148223"><ele>287.0</ele><time>2026-04-19T12:32:06.001Z</time></trkpt><trkpt lat="43.318434201559356" lon="11.949065262305584"><ele>287.0</ele><time>2026-04-19T12:32:07.001Z</time></trkpt><trkpt lat="43.31841535247315" lon="11.948962727786059"><ele>287.0</ele><time>2026-04-19T12:32:08.001Z</time></trkpt><trkpt lat="43.31836702519529" lon="11.948867797078185"><ele>287.0</ele><time>2026-04-19T12:32:09.001Z</time></trkpt><trkpt lat="43.31835642024904" lon="11.948725284165308"><ele>286.6</ele><time>2026-04-19T12:32:10.001Z</time></trkpt><trkpt lat="43.318336316026034" lon="11.948550050766988"><ele>286.2</ele><time>2026-04-19T12:32:12.001Z</time></trkpt><trkpt lat="43.31832655548326" lon="11.94844160793995"><ele>285.8</ele><time>2026-04-19T12:32:13.001Z</time></trkpt><trkpt lat="43.318320132973" lon="11.94833309434505"><ele>285.4</ele><time>2026-04-19T12:32:14.001Z</time></trkpt><trkpt lat="43.318319163606574" lon="11.948223623665095"><ele>285.0</ele><time>2026-04-19T12:32:15.001Z</time></trkpt><trkpt lat="43.31835302696139" lon="11.948116434720111"><ele>284.5</ele><time>2026-04-19T12:32:16.001Z</time></trkpt><trkpt lat="43.31838989522126" lon="11.948010022532552"><ele>284.0</ele><time>2026-04-19T12:32:17.001Z</time></trkpt><trkpt lat="43.31842652146654" lon="11.947903107936362"><ele>283.5</ele><time>2026-04-19T12:32:18.001Z</time></trkpt><trkpt lat="43.31846466373342" lon="11.947802893944228"><ele>283.0</ele><time>2026-04-19T12:32:19.001Z</time></trkpt><trkpt lat="43.31850425228812" lon="11.947708762264817"><ele>282.5</ele><time>2026-04-19T12:32:20.001Z</time></trkpt><trkpt lat="43.31854910724009" lon="11.947614096306088"><ele>282.0</ele><time>2026-04-19T12:32:21.001Z</time></trkpt><trkpt lat="43.318596482508894" lon="11.947522695183693"><ele>282.0</ele><time>2026-04-19T12:32:22.001Z</time></trkpt><trkpt lat="43.318641727195114" lon="11.94742750799485"><ele>282.0</ele><time>2026-04-19T12:32:23.001Z</time></trkpt><trkpt lat="43.31867048990601" lon="11.947319355834736"><ele>282.0</ele><time>2026-04-19T12:32:24.001Z</time></trkpt><trkpt lat="43.318714056200214" lon="11.947224582750389"><ele>282.0</ele><time>2026-04-19T12:32:25.001Z</time></trkpt><trkpt lat="43.318742806821874" lon="11.94713155951005"><ele>282.0</ele><time>2026-04-19T12:32:26.001Z</time></trkpt><trkpt lat="43.31878833328754" lon="11.947048125881775"><ele>282.0</ele><time>2026-04-19T12:32:27.001Z</time></trkpt><trkpt lat="43.31881595193525" lon="11.946944313410636"><ele>282.0</ele><time>2026-04-19T12:32:28.001Z</time></trkpt><trkpt lat="43.31883119429954" lon="11.946838984008588"><ele>282.0</ele><time>2026-04-19T12:32:29.001Z</time></trkpt><trkpt lat="43.31884577030881" lon="11.946735527887498"><ele>282.0</ele><time>2026-04-19T12:32:30.001Z</time></trkpt><trkpt lat="43.318859142594114" lon="11.946633427490736"><ele>282.0</ele><time>2026-04-19T12:32:31.001Z</time></trkpt><trkpt lat="43.318878260360435" lon="11.946533600323983"><ele>282.0</ele><time>2026-04-19T12:32:32.002Z</time></trkpt><trkpt lat="43.318897211372544" lon="11.946442828944626"><ele>282.0</ele><time>2026-04-19T12:32:33.002Z</time></trkpt><trkpt lat="43.31891985976474" lon="11.946343838640715"><ele>282.14285714285717</ele><time>2026-04-19T12:32:34.002Z</time></trkpt><trkpt lat="43.318927373235184" lon="11.946240550712973"><ele>282.2857142857143</ele><time>2026-04-19T12:32:35.002Z</time></trkpt><trkpt lat="43.318964240679065" lon="11.94614986159564"><ele>282.42857142857144</ele><time>2026-04-19T12:32:36.002Z</time></trkpt><trkpt lat="43.31898373012759" lon="11.946064678294919"><ele>282.57142857142856</ele><time>2026-04-19T12:32:37.002Z</time></trkpt><trkpt lat="43.31900498023576" lon="11.945970346083953"><ele>282.7142857142857</ele><time>2026-04-19T12:32:38.002Z</time></trkpt><trkpt lat="43.319023956241836" lon="11.945884523409664"><ele>282.8571428571429</ele><time>2026-04-19T12:32:39.002Z</time></trkpt><trkpt lat="43.31904355214916" lon="11.945795896942913"><ele>283.0</ele><time>2026-04-19T12:32:40.002Z</time></trkpt><trkpt lat="43.31908008758181" lon="11.94563065664076"><ele>283.0</ele><time>2026-04-19T12:32:42.002Z</time></trkpt><trkpt lat="43.3191137555956" lon="11.945463286057548"><ele>283.0</ele><time>2026-04-19T12:32:44.002Z</time></trkpt><trkpt lat="43.31912986536084" lon="11.945368771225429"><ele>283.0</ele><time>2026-04-19T12:32:45.002Z</time></trkpt><trkpt lat="43.319144312374306" lon="11.945274991535763"><ele>283.0</ele><time>2026-04-19T12:32:46.002Z</time></trkpt><trkpt lat="43.319158655112034" lon="11.94517652595251"><ele>283.0</ele><time>2026-04-19T12:32:47.002Z</time></trkpt><trkpt lat="43.319172487029945" lon="11.945081567311641"><ele>283.0</ele><time>2026-04-19T12:32:48.002Z</time></trkpt><trkpt lat="43.31918689077523" lon="11.944982682809078"><ele>282.2857142857143</ele><time>2026-04-19T12:32:49.002Z</time></trkpt><trkpt lat="43.31920084527349" lon="11.944884768271542"><ele>281.5714285714286</ele><time>2026-04-19T12:32:50.002Z</time></trkpt><trkpt lat="43.31921449114838" lon="11.944786907026298"><ele>280.8571428571429</ele><time>2026-04-19T12:32:51.002Z</time></trkpt><trkpt lat="43.319228367894475" lon="11.944687389998165"><ele>280.14285714285717</ele><time>2026-04-19T12:32:52.002Z</time></trkpt><trkpt lat="43.31924191950413" lon="11.944588920829833"><ele>279.42857142857144</ele><time>2026-04-19T12:32:53.002Z</time></trkpt><trkpt lat="43.31925477117874" lon="11.944491341761168"><ele>278.7142857142857</ele><time>2026-04-19T12:32:54.002Z</time></trkpt><trkpt lat="43.31926811354859" lon="11.944390036895063"><ele>278.0</ele><time>2026-04-19T12:32:55.002Z</time></trkpt><trkpt lat="43.31928485429813" lon="11.944297405335908"><ele>277.7142857142857</ele><time>2026-04-19T12:32:56.002Z</time></trkpt><trkpt lat="43.319309094394285" lon="11.944199986197477"><ele>277.42857142857144</ele><time>2026-04-19T12:32:57.002Z</time></trkpt><trkpt lat="43.319336251204774" lon="11.944113650468601"><ele>277.14285714285717</ele><time>2026-04-19T12:32:58.002Z</time></trkpt><trkpt lat="43.31936816435958" lon="11.944031527434062"><ele>276.8571428571429</ele><time>2026-04-19T12:32:59.002Z</time></trkpt><trkpt lat="43.3194070118262" lon="11.943949075366318"><ele>276.5714285714286</ele><time>2026-04-19T12:33:00.002Z</time></trkpt><trkpt lat="43.31944789866494" lon="11.94387324436806"><ele>276.2857142857143</ele><time>2026-04-19T12:33:01.002Z</time></trkpt><trkpt lat="43.31949243976008" lon="11.94380147174098"><ele>276.0</ele><time>2026-04-19T12:33:02.002Z</time></trkpt><trkpt lat="43.319539559436336" lon="11.94374072489832"><ele>276.0</ele><time>2026-04-19T12:33:03.002Z</time></trkpt><trkpt lat="43.31959227882563" lon="11.943681126925206"><ele>276.0</ele><time>2026-04-19T12:33:04.002Z</time></trkpt><trkpt lat="43.31964474921068" lon="11.943625387362035"><ele>276.0</ele><time>2026-04-19T12:33:05.002Z</time></trkpt><trkpt lat="43.31969978575968" lon="11.943566920560707"><ele>276.0</ele><time>2026-04-19T12:33:06.002Z</time></trkpt><trkpt lat="43.31980731200204" lon="11.943449416710566"><ele>276.0</ele><time>2026-04-19T12:33:08.002Z</time></trkpt><trkpt lat="43.319884738855826" lon="11.943315905616904"><ele>276.6</ele><time>2026-04-19T12:33:10.002Z</time></trkpt><trkpt lat="43.319964235509666" lon="11.943195019619996"><ele>277.20000000000005</ele><time>2026-04-19T12:33:12.002Z</time></trkpt><trkpt lat="43.32000728051573" lon="11.943046861783195"><ele>277.79999999999995</ele><time>2026-04-19T12:33:14.002Z</time></trkpt><trkpt lat="43.320009966907854" lon="11.942899157994674"><ele>278.4</ele><time>2026-04-19T12:33:16.002Z</time></trkpt><trkpt lat="43.32000778439165" lon="11.942759949380092"><ele>279.0</ele><time>2026-04-19T12:33:18.002Z</time></trkpt><trkpt lat="43.320001147639324" lon="11.942625915804392"><ele>279.0</ele><time>2026-04-19T12:33:20.002Z</time></trkpt><trkpt lat="43.31999515881441" lon="11.942503076028563"><ele>279.0</ele><time>2026-04-19T12:33:22.001Z</time></trkpt><trkpt lat="43.319995206915074" lon="11.942383570750401"><ele>279.0</ele><time>2026-04-19T12:33:24.001Z</time></trkpt><trkpt lat="43.320016331229716" lon="11.942263791249712"><ele>279.0</ele><time>2026-04-19T12:33:26.001Z</time></trkpt><trkpt lat="43.32002096832372" lon="11.942146720916975"><ele>279.0</ele><time>2026-04-19T12:33:28.001Z</time></trkpt><trkpt lat="43.32005418951355" lon="11.942041610591142"><ele>279.0</ele><time>2026-04-19T12:33:30.001Z</time></trkpt><trkpt lat="43.32007088972611" lon="11.941932830403225"><ele>279.0</ele><time>2026-04-19T12:33:32.001Z</time></trkpt><trkpt lat="43.32010066795632" lon="11.941823257919504"><ele>279.0</ele><time>2026-04-19T12:33:34.001Z</time></trkpt><trkpt lat="43.32014928031982" lon="11.941731075496334"><ele>279.0</ele><time>2026-04-19T12:33:36.001Z</time></trkpt><trkpt lat="43.32018786245797" lon="11.941633230453423"><ele>279.0</ele><time>2026-04-19T12:33:38.001Z</time></trkpt><trkpt lat="43.320234961065196" lon="11.941540634456238"><ele>279.0</ele><time>2026-04-19T12:33:40.001Z</time></trkpt><trkpt lat="43.32028693657676" lon="11.94144381210717"><ele>279.0</ele><time>2026-04-19T12:33:42.001Z</time></trkpt><trkpt lat="43.320329374790944" lon="11.941334971180753"><ele>278.8</ele><time>2026-04-19T12:33:44.001Z</time></trkpt><trkpt lat="43.32038795956544" lon="11.94123080967101"><ele>278.59999999999997</ele><time>2026-04-19T12:33:46.001Z</time></trkpt><trkpt lat="43.320441868726206" lon="11.941117561052891"><ele>278.4</ele><time>2026-04-19T12:33:48.001Z</time></trkpt><trkpt lat="43.320481009063066" lon="11.940984783341246"><ele>278.2</ele><time>2026-04-19T12:33:50.001Z</time></trkpt><trkpt lat="43.320509366698566" lon="11.940845319598582"><ele>278.0</ele><time>2026-04-19T12:33:52.001Z</time></trkpt><trkpt lat="43.32053873944029" lon="11.940703573610415"><ele>278.25</ele><time>2026-04-19T12:33:54.001Z</time></trkpt><trkpt lat="43.32056847649382" lon="11.940558570294021"><ele>278.5</ele><time>2026-04-19T12:33:56.001Z</time></trkpt><trkpt lat="43.32063370325412" lon="11.940377696398361"><ele>278.75</ele><time>2026-04-19T12:33:59.001Z</time></trkpt><trkpt lat="43.320698179949616" lon="11.940227662385407"><ele>279.0</ele><time>2026-04-19T12:34:01.001Z</time></trkpt><trkpt lat="43.320760160274794" lon="11.940114679878173"><ele>278.2</ele><time>2026-04-19T12:34:03.001Z</time></trkpt><trkpt lat="43.320822015153716" lon="11.939993978848404"><ele>277.4</ele><time>2026-04-19T12:34:05.001Z</time></trkpt><trkpt lat="43.320889124565966" lon="11.939884498396836"><ele>276.6</ele><time>2026-04-19T12:34:07.001Z</time></trkpt><trkpt lat="43.32095733167012" lon="11.939774291796294"><ele>275.8</ele><time>2026-04-19T12:34:09.001Z</time></trkpt><trkpt lat="43.32103657507692" lon="11.93967984269547"><ele>275.0</ele><time>2026-04-19T12:34:11.001Z</time></trkpt><trkpt lat="43.32110966236991" lon="11.939591028772307"><ele>275.0</ele><time>2026-04-19T12:34:13.001Z</time></trkpt><trkpt lat="43.3212011310239" lon="11.93952049103413"><ele>275.0</ele><time>2026-04-19T12:34:15.001Z</time></trkpt><trkpt lat="43.32129000793055" lon="11.939436803962518"><ele>275.0</ele><time>2026-04-19T12:34:17.001Z</time></trkpt><trkpt lat="43.32140576698595" lon="11.939399280579769"><ele>275.0</ele><time>2026-04-19T12:34:19.001Z</time></trkpt><trkpt lat="43.321522591833265" lon="11.939397875151965"><ele>275.0</ele><time>2026-04-19T12:34:21.001Z</time></trkpt><trkpt lat="43.32164185681754" lon="11.939402703897727"><ele>275.0</ele><time>2026-04-19T12:34:23.001Z</time></trkpt><trkpt lat="43.32176040600851" lon="11.93941565575253"><ele>275.0</ele><time>2026-04-19T12:34:25.001Z</time></trkpt><trkpt lat="43.32188003162783" lon="11.93941888871719"><ele>275.0</ele><time>2026-04-19T12:34:27.001Z</time></trkpt><trkpt lat="43.321999148544016" lon="11.939406492609162"><ele>275.0</ele><time>2026-04-19T12:34:29.001Z</time></trkpt><trkpt lat="43.322102395887136" lon="11.939327021759773"><ele>274.33333333333337</ele><time>2026-04-19T12:34:31.001Z</time></trkpt><trkpt lat="43.32217573167088" lon="11.939190539634547"><ele>273.6666666666667</ele><time>2026-04-19T12:34:33.001Z</time></trkpt><trkpt lat="43.32222282958578" lon="11.93913287977267"><ele>273.0</ele><time>2026-04-19T12:34:34.001Z</time></trkpt><trkpt lat="43.32225993837435" lon="11.939058041449195"><ele>272.3333333333333</ele><time>2026-04-19T12:34:35.001Z</time></trkpt><trkpt lat="43.32227933907024" lon="11.938974560899561"><ele>271.66666666666663</ele><time>2026-04-19T12:34:36.001Z</time></trkpt><trkpt lat="43.32234767308028" lon="11.938837387381708"><ele>271.0</ele><time>2026-04-19T12:34:38.001Z</time></trkpt><trkpt lat="43.322408410463176" lon="11.938696209385197"><ele>271.0</ele><time>2026-04-19T12:34:40.001Z</time></trkpt><trkpt lat="43.322475111078724" lon="11.938555586532708"><ele>271.0</ele><time>2026-04-19T12:34:42.001Z</time></trkpt><trkpt lat="43.32254337818397" lon="11.938416127898904"><ele>271.0</ele><time>2026-04-19T12:34:44.002Z</time></trkpt><trkpt lat="43.32259623675552" lon="11.938366153196155"><ele>271.0</ele><time>2026-04-19T12:34:45.002Z</time></trkpt><trkpt lat="43.322684547878225" lon="11.93824877714932"><ele>271.0</ele><time>2026-04-19T12:34:47.002Z</time></trkpt><trkpt lat="43.32278922035892" lon="11.938165384325469"><ele>270.25</ele><time>2026-04-19T12:34:49.002Z</time></trkpt><trkpt lat="43.32290508887518" lon="11.938109804024972"><ele>269.5</ele><time>2026-04-19T12:34:51.002Z</time></trkpt><trkpt lat="43.32301810649017" lon="11.938058022891525"><ele>268.75</ele><time>2026-04-19T12:34:53.002Z</time></trkpt><trkpt lat="43.323131590638305" lon="11.938009435749462"><ele>268.0</ele><time>2026-04-19T12:34:55.002Z</time></trkpt><trkpt lat="43.32324198801183" lon="11.937955674218552"><ele>268.0</ele><time>2026-04-19T12:34:57.002Z</time></trkpt><trkpt lat="43.323353619641516" lon="11.937906067540228"><ele>268.0</ele><time>2026-04-19T12:34:59.002Z</time></trkpt><trkpt lat="43.32346217294854" lon="11.937855719081274"><ele>268.0</ele><time>2026-04-19T12:35:01.002Z</time></trkpt><trkpt lat="43.32357328832037" lon="11.93779994284549"><ele>268.0</ele><time>2026-04-19T12:35:03.002Z</time></trkpt><trkpt lat="43.323685770969135" lon="11.937743939305275"><ele>268.0</ele><time>2026-04-19T12:35:05.002Z</time></trkpt><trkpt lat="43.32380332168721" lon="11.937694435598146"><ele>268.0</ele><time>2026-04-19T12:35:07.002Z</time></trkpt><trkpt lat="43.32392189384575" lon="11.937640244486586"><ele>268.0</ele><time>2026-04-19T12:35:09.002Z</time></trkpt><trkpt lat="43.32398282329326" lon="11.93761193085879"><ele>268.0</ele><time>2026-04-19T12:35:10.002Z</time></trkpt><trkpt lat="43.324045341680545" lon="11.937580896438911"><ele>268.0</ele><time>2026-04-19T12:35:11.002Z</time></trkpt><trkpt lat="43.324106655458955" lon="11.937552782881662"><ele>268.0</ele><time>2026-04-19T12:35:12.002Z</time></trkpt><trkpt lat="43.324168857245134" lon="11.937523829560208"><ele>267.57142857142856</ele><time>2026-04-19T12:35:13.002Z</time></trkpt><trkpt lat="43.32423165838091" lon="11.937494559080127"><ele>267.1428571428571</ele><time>2026-04-19T12:35:14.002Z</time></trkpt><trkpt lat="43.32429550057448" lon="11.93746655355795"><ele>266.71428571428567</ele><time>2026-04-19T12:35:15.002Z</time></trkpt><trkpt lat="43.324356781465724" lon="11.937430399833197"><ele>266.2857142857143</ele><time>2026-04-19T12:35:16.002Z</time></trkpt><trkpt lat="43.324417148272666" lon="11.937395513395483"><ele>265.85714285714283</ele><time>2026-04-19T12:35:17.002Z</time></trkpt><trkpt lat="43.324480071830465" lon="11.93736604391844"><ele>265.4285714285714</ele><time>2026-04-19T12:35:18.002Z</time></trkpt><trkpt lat="43.32454046537484" lon="11.93733345290325"><ele>265.0</ele><time>2026-04-19T12:35:19.002Z</time></trkpt><trkpt lat="43.32459673374232" lon="11.93729033363597"><ele>264.99999999999994</ele><time>2026-04-19T12:35:20.002Z</time></trkpt><trkpt lat="43.32465297556058" lon="11.93723931448617"><ele>265.0</ele><time>2026-04-19T12:35:21.002Z</time></trkpt><trkpt lat="43.324708262054884" lon="11.93718783056348"><ele>265.0</ele><time>2026-04-19T12:35:22.002Z</time></trkpt><trkpt lat="43.324759901884256" lon="11.937128720753277"><ele>265.0</ele><time>2026-04-19T12:35:23.002Z</time></trkpt><trkpt lat="43.324806939891666" lon="11.937062677440437"><ele>265.0</ele><time>2026-04-19T12:35:24.002Z</time></trkpt><trkpt lat="43.324853085168144" lon="11.93699380194176"><ele>264.99999999999994</ele><time>2026-04-19T12:35:25.002Z</time></trkpt><trkpt lat="43.324901178090194" lon="11.93692811063613"><ele>265.0</ele><time>2026-04-19T12:35:26.002Z</time></trkpt><trkpt lat="43.324958335243714" lon="11.936875477650808"><ele>265.1428571428571</ele><time>2026-04-19T12:35:27.001Z</time></trkpt><trkpt lat="43.324994980781995" lon="11.936788992542594"><ele>265.2857142857143</ele><time>2026-04-19T12:35:28Z</time></trkpt><trkpt lat="43.325054702829085" lon="11.936731853882659"><ele>265.42857142857144</ele><time>2026-04-19T12:35:29.001Z</time></trkpt><trkpt lat="43.3250997059848" lon="11.936659379294653"><ele>265.57142857142856</ele><time>2026-04-19T12:35:30Z</time></trkpt><trkpt lat="43.325130910160766" lon="11.936569261618523"><ele>265.7142857142857</ele><time>2026-04-19T12:35:31Z</time></trkpt><trkpt lat="43.325180484931394" lon="11.936502802552795"><ele>265.85714285714283</ele><time>2026-04-19T12:35:32Z</time></trkpt><trkpt lat="43.32521095693181" lon="11.936400372631534"><ele>266.0</ele><time>2026-04-19T12:35:33Z</time></trkpt><trkpt lat="43.32522967822563" lon="11.936310588748334"><ele>265.42857142857144</ele><time>2026-04-19T12:35:34Z</time></trkpt><trkpt lat="43.32523584566473" lon="11.93620510786688"><ele>264.8571428571429</ele><time>2026-04-19T12:35:35Z</time></trkpt><trkpt lat="43.325242544222235" lon="11.936110656316652"><ele>264.2857142857143</ele><time>2026-04-19T12:35:36Z</time></trkpt><trkpt lat="43.325256071263155" lon="11.936015682169089"><ele>263.7142857142857</ele><time>2026-04-19T12:35:37Z</time></trkpt><trkpt lat="43.32527518517589" lon="11.935923839774475"><ele>263.14285714285717</ele><time>2026-04-19T12:35:38Z</time></trkpt><trkpt lat="43.325300478480074" lon="11.935830676520684"><ele>262.57142857142856</ele><time>2026-04-19T12:35:39Z</time></trkpt><trkpt lat="43.32535930651736" lon="11.935772135599173"><ele>262.0</ele><time>2026-04-19T12:35:40Z</time></trkpt><trkpt lat="43.325513172586426" lon="11.935744583116195"><ele>261.7142857142857</ele><time>2026-04-19T12:35:42Z</time></trkpt><trkpt lat="43.32558793252161" lon="11.93573349952154"><ele>261.42857142857144</ele><time>2026-04-19T12:35:43Z</time></trkpt><trkpt lat="43.325663523314454" lon="11.935719298327248"><ele>261.14285714285717</ele><time>2026-04-19T12:35:44Z</time></trkpt><trkpt lat="43.325738144622655" lon="11.935709801544764"><ele>260.8571428571429</ele><time>2026-04-19T12:35:45Z</time></trkpt><trkpt lat="43.32581154577729" lon="11.935696547674238"><ele>260.57142857142856</ele><time>2026-04-19T12:35:46Z</time></trkpt><trkpt lat="43.32588388131083" lon="11.935683948011874"><ele>260.28571428571433</ele><time>2026-04-19T12:35:47Z</time></trkpt><trkpt lat="43.32595742291299" lon="11.935668699528668"><ele>260.0</ele><time>2026-04-19T12:35:48Z</time></trkpt><trkpt lat="43.326029569461305" lon="11.93565178263827"><ele>260.00000000000006</ele><time>2026-04-19T12:35:49Z</time></trkpt><trkpt lat="43.3260999931326" lon="11.935632848955871"><ele>260.0</ele><time>2026-04-19T12:35:50Z</time></trkpt><trkpt lat="43.326171369501715" lon="11.93561039080011"><ele>260.0</ele><time>2026-04-19T12:35:51Z</time></trkpt><trkpt lat="43.32624066388359" lon="11.935590399643033"><ele>260.0</ele><time>2026-04-19T12:35:52Z</time></trkpt><trkpt lat="43.326306533716874" lon="11.935568372602532"><ele>260.0</ele><time>2026-04-19T12:35:53Z</time></trkpt><trkpt lat="43.32637223421405" lon="11.935545465249787"><ele>260.00000000000006</ele><time>2026-04-19T12:35:54Z</time></trkpt><trkpt lat="43.3264363810129" lon="11.93552707571175"><ele>260.0</ele><time>2026-04-19T12:35:55Z</time></trkpt><trkpt lat="43.32649787173358" lon="11.935506664224054"><ele>260.0</ele><time>2026-04-19T12:35:56Z</time></trkpt><trkpt lat="43.32655937226018" lon="11.935482645069373"><ele>260.0</ele><time>2026-04-19T12:35:57Z</time></trkpt><trkpt lat="43.326676774237974" lon="11.93543331969992"><ele>260.0</ele><time>2026-04-19T12:35:59.001Z</time></trkpt><trkpt lat="43.326734465949784" lon="11.93539667482795"><ele>260.0</ele><time>2026-04-19T12:36:00.001Z</time></trkpt><trkpt lat="43.326801022336014" lon="11.935386919998905"><ele>260.0</ele><time>2026-04-19T12:36:01.001Z</time></trkpt><trkpt lat="43.326886822462086" lon="11.93533708284974"><ele>260.0</ele><time>2026-04-19T12:36:03.001Z</time></trkpt><trkpt lat="43.32699052626204" lon="11.935291534804731"><ele>260.0</ele><time>2026-04-19T12:36:05.001Z</time></trkpt><trkpt lat="43.327096100725214" lon="11.935232462924377"><ele>260.0</ele><time>2026-04-19T12:36:07.001Z</time></trkpt><trkpt lat="43.327195925907795" lon="11.93517773147043"><ele>260.0</ele><time>2026-04-19T12:36:09.001Z</time></trkpt><trkpt lat="43.327306897168256" lon="11.935132495051333"><ele>260.0</ele><time>2026-04-19T12:36:11.001Z</time></trkpt><trkpt lat="43.32740269560923" lon="11.935068595917265"><ele>260.0</ele><time>2026-04-19T12:36:13.001Z</time></trkpt><trkpt lat="43.32749993942983" lon="11.935000501447261"><ele>259.5</ele><time>2026-04-19T12:36:15.001Z</time></trkpt><trkpt lat="43.32758941656077" lon="11.934912251268035"><ele>259.0</ele><time>2026-04-19T12:36:17.001Z</time></trkpt><trkpt lat="43.327690677275164" lon="11.93484592462442"><ele>258.5</ele><time>2026-04-19T12:36:19.001Z</time></trkpt><trkpt lat="43.327795525712524" lon="11.934777518965488"><ele>258.0</ele><time>2026-04-19T12:36:21.001Z</time></trkpt><trkpt lat="43.3278961927695" lon="11.934707099004015"><ele>258.0</ele><time>2026-04-19T12:36:23.001Z</time></trkpt><trkpt lat="43.32799976426307" lon="11.93463960743672"><ele>258.0</ele><time>2026-04-19T12:36:25.001Z</time></trkpt><trkpt lat="43.32810058600261" lon="11.934566239681908"><ele>258.0</ele><time>2026-04-19T12:36:27.001Z</time></trkpt><trkpt lat="43.32820411989217" lon="11.934510754740861"><ele>258.0</ele><time>2026-04-19T12:36:29.001Z</time></trkpt><trkpt lat="43.32830348870257" lon="11.934437864414472"><ele>258.0</ele><time>2026-04-19T12:36:31.001Z</time></trkpt><trkpt lat="43.3284086990938" lon="11.934380243574983"><ele>258.0</ele><time>2026-04-19T12:36:33.001Z</time></trkpt><trkpt lat="43.32851213327974" lon="11.93432319016835"><ele>258.0</ele><time>2026-04-19T12:36:35.001Z</time></trkpt><trkpt lat="43.328620762565535" lon="11.934272561251063"><ele>258.0</ele><time>2026-04-19T12:36:37.001Z</time></trkpt><trkpt lat="43.32872704481716" lon="11.934233123768772"><ele>258.0</ele><time>2026-04-19T12:36:39.001Z</time></trkpt><trkpt lat="43.32883414271726" lon="11.934188007829064"><ele>258.0</ele><time>2026-04-19T12:36:41.001Z</time></trkpt><trkpt lat="43.328949541238764" lon="11.934143668714457"><ele>258.0</ele><time>2026-04-19T12:36:43.001Z</time></trkpt><trkpt lat="43.32906656740658" lon="11.93410606544053"><ele>258.0</ele><time>2026-04-19T12:36:45.001Z</time></trkpt><trkpt lat="43.32912861402204" lon="11.934084340821881"><ele>258.0</ele><time>2026-04-19T12:36:46.001Z</time></trkpt><trkpt lat="43.329191834077015" lon="11.934055105815974"><ele>258.0</ele><time>2026-04-19T12:36:47.001Z</time></trkpt><trkpt lat="43.329253275186126" lon="11.934022124161395"><ele>258.0</ele><time>2026-04-19T12:36:48.001Z</time></trkpt><trkpt lat="43.3293131266852" lon="11.933985584779958"><ele>257.99999999999994</ele><time>2026-04-19T12:36:49.001Z</time></trkpt><trkpt lat="43.32937274185276" lon="11.93394138042067"><ele>258.0</ele><time>2026-04-19T12:36:50.001Z</time></trkpt><trkpt lat="43.3294398717181" lon="11.933917317160592"><ele>258.0</ele><time>2026-04-19T12:36:51.001Z</time></trkpt><trkpt lat="43.32949935258088" lon="11.9338689983738"><ele>258.0</ele><time>2026-04-19T12:36:52.001Z</time></trkpt><trkpt lat="43.32955474409354" lon="11.933817600823803"><ele>258.0</ele><time>2026-04-19T12:36:53.001Z</time></trkpt><trkpt lat="43.329604222446235" lon="11.933753038041063"><ele>257.99999999999994</ele><time>2026-04-19T12:36:54.001Z</time></trkpt><trkpt lat="43.329662625520875" lon="11.93370293411814"><ele>258.0</ele><time>2026-04-19T12:36:55.001Z</time></trkpt><trkpt lat="43.329717647460264" lon="11.93365801901668"><ele>258.0</ele><time>2026-04-19T12:36:56.001Z</time></trkpt><trkpt lat="43.329774541171076" lon="11.933611534324163"><ele>258.0</ele><time>2026-04-19T12:36:57.001Z</time></trkpt><trkpt lat="43.32983010665636" lon="11.933567528104458"><ele>258.0</ele><time>2026-04-19T12:36:58.001Z</time></trkpt><trkpt lat="43.32988828679531" lon="11.933525389303929"><ele>258.0</ele><time>2026-04-19T12:36:59.001Z</time></trkpt><trkpt lat="43.329995954517415" lon="11.93343460018203"><ele>258.0</ele><time>2026-04-19T12:37:01.001Z</time></trkpt><trkpt lat="43.33005141457242" lon="11.93339017741386"><ele>258.0</ele><time>2026-04-19T12:37:02.001Z</time></trkpt><trkpt lat="43.3301571548759" lon="11.933304695920357"><ele>257.5</ele><time>2026-04-19T12:37:04.001Z</time></trkpt><trkpt lat="43.330264080248746" lon="11.933225029382792"><ele>257.0</ele><time>2026-04-19T12:37:06.002Z</time></trkpt><trkpt lat="43.330369902753255" lon="11.933156508402623"><ele>256.5</ele><time>2026-04-19T12:37:08.002Z</time></trkpt><trkpt lat="43.33047562562503" lon="11.933088434040945"><ele>256.0</ele><time>2026-04-19T12:37:10.002Z</time></trkpt><trkpt lat="43.330580350201956" lon="11.933033883734499"><ele>255.75</ele><time>2026-04-19T12:37:12.002Z</time></trkpt><trkpt lat="43.33068707242483" lon="11.932971300140855"><ele>255.5</ele><time>2026-04-19T12:37:14.002Z</time></trkpt><trkpt lat="43.33079451091811" lon="11.932919206791064"><ele>255.25</ele><time>2026-04-19T12:37:16.002Z</time></trkpt><trkpt lat="43.33089928391428" lon="11.932860416112558"><ele>255.0</ele><time>2026-04-19T12:37:18.002Z</time></trkpt><trkpt lat="43.33099998796679" lon="11.932800979294946"><ele>255.0</ele><time>2026-04-19T12:37:20.002Z</time></trkpt><trkpt lat="43.33110005504769" lon="11.932736552528636"><ele>255.0</ele><time>2026-04-19T12:37:22.002Z</time></trkpt><trkpt lat="43.331201592696594" lon="11.932678798090576"><ele>255.0</ele><time>2026-04-19T12:37:24.002Z</time></trkpt><trkpt lat="43.3312994703967" lon="11.932625023810223"><ele>255.0</ele><time>2026-04-19T12:37:26.002Z</time></trkpt><trkpt lat="43.33139739290713" lon="11.932567680236387"><ele>255.0</ele><time>2026-04-19T12:37:28.002Z</time></trkpt><trkpt lat="43.33149379236087" lon="11.93251177094598"><ele>255.0</ele><time>2026-04-19T12:37:30.002Z</time></trkpt><trkpt lat="43.33159311462361" lon="11.932461335308052"><ele>255.0</ele><time>2026-04-19T12:37:32.002Z</time></trkpt><trkpt lat="43.331685958314274" lon="11.932402675973195"><ele>255.0</ele><time>2026-04-19T12:37:34Z</time></trkpt><trkpt lat="43.331777996932736" lon="11.93235068664336"><ele>255.0</ele><time>2026-04-19T12:37:36Z</time></trkpt><trkpt lat="43.33187086543419" lon="11.932299208230203"><ele>255.0</ele><time>2026-04-19T12:37:38Z</time></trkpt><trkpt lat="43.33196604872348" lon="11.932252160237637"><ele>255.0</ele><time>2026-04-19T12:37:40Z</time></trkpt><trkpt lat="43.332057508706555" lon="11.932198953078176"><ele>255.0</ele><time>2026-04-19T12:37:42Z</time></trkpt><trkpt lat="43.33215047400197" lon="11.932143445061355"><ele>255.0</ele><time>2026-04-19T12:37:44Z</time></trkpt><trkpt lat="43.33224263314301" lon="11.932094404053128"><ele>255.0</ele><time>2026-04-19T12:37:46Z</time></trkpt><trkpt lat="43.332326230989686" lon="11.93203126344935"><ele>255.0</ele><time>2026-04-19T12:37:48Z</time></trkpt><trkpt lat="43.33240970000747" lon="11.931965091564077"><ele>255.33333333333334</ele><time>2026-04-19T12:37:50Z</time></trkpt><trkpt lat="43.332493157024146" lon="11.931899818391612"><ele>255.66666666666669</ele><time>2026-04-19T12:37:52Z</time></trkpt><trkpt lat="43.33257166990464" lon="11.931829345364596"><ele>256.0</ele><time>2026-04-19T12:37:54Z</time></trkpt><trkpt lat="43.33265105900763" lon="11.931777503226787"><ele>256.33333333333337</ele><time>2026-04-19T12:37:56Z</time></trkpt><trkpt lat="43.33271816953052" lon="11.931717535471773"><ele>256.6666666666667</ele><time>2026-04-19T12:37:58Z</time></trkpt><trkpt lat="43.33279357663839" lon="11.931647863906317"><ele>257.0</ele><time>2026-04-19T12:38:01Z</time></trkpt><trkpt lat="43.33286063103" lon="11.931582628615656"><ele>257.0</ele><time>2026-04-19T12:38:04Z</time></trkpt><trkpt lat="43.33292295658245" lon="11.931518146091921"><ele>257.0</ele><time>2026-04-19T12:38:07Z</time></trkpt><trkpt lat="43.33297308777474" lon="11.931464239018805"><ele>257.0</ele><time>2026-04-19T12:38:09Z</time></trkpt><trkpt lat="43.33303124827398" lon="11.931374057645057"><ele>257.0</ele><time>2026-04-19T12:38:11Z</time></trkpt><trkpt lat="43.33312428045937" lon="11.931285131112038"><ele>257.0</ele><time>2026-04-19T12:38:13Z</time></trkpt><trkpt lat="43.33321285096326" lon="11.93116911848008"><ele>257.25</ele><time>2026-04-19T12:38:15Z</time></trkpt><trkpt lat="43.33324788207154" lon="11.931096788839955"><ele>257.5</ele><time>2026-04-19T12:38:16Z</time></trkpt><trkpt lat="43.33338313204666" lon="11.930938914201432"><ele>257.75</ele><time>2026-04-19T12:38:19Z</time></trkpt><trkpt lat="43.3334641792693" lon="11.930840244062"><ele>258.0</ele><time>2026-04-19T12:38:21.001Z</time></trkpt><trkpt lat="43.33355404784583" lon="11.930769818098822"><ele>258.0</ele><time>2026-04-19T12:38:23.001Z</time></trkpt><trkpt lat="43.333615434864804" lon="11.930664314271207"><ele>258.0</ele><time>2026-04-19T12:38:25.001Z</time></trkpt><trkpt lat="43.33368022775323" lon="11.930579576294175"><ele>258.0</ele><time>2026-04-19T12:38:27.001Z</time></trkpt><trkpt lat="43.33377150126791" lon="11.930542294322217"><ele>258.0</ele><time>2026-04-19T12:38:29.001Z</time></trkpt><trkpt lat="43.33382781455204" lon="11.930441739513212"><ele>258.0</ele><time>2026-04-19T12:38:31.001Z</time></trkpt><trkpt lat="43.333903747220134" lon="11.930371679336877"><ele>258.0</ele><time>2026-04-19T12:38:33.001Z</time></trkpt><trkpt lat="43.33399243474009" lon="11.930325808185653"><ele>258.0</ele><time>2026-04-19T12:38:35.001Z</time></trkpt><trkpt lat="43.33406680178572" lon="11.930253417652676"><ele>258.0</ele><time>2026-04-19T12:38:37.001Z</time></trkpt><trkpt lat="43.334135424279495" lon="11.93018661788651"><ele>258.0</ele><time>2026-04-19T12:38:39.001Z</time></trkpt><trkpt lat="43.33420501106449" lon="11.930110113911779"><ele>258.0</ele><time>2026-04-19T12:38:41.001Z</time></trkpt><trkpt lat="43.33427373149281" lon="11.930035526479484"><ele>258.0</ele><time>2026-04-19T12:38:43.001Z</time></trkpt><trkpt lat="43.3343439190325" lon="11.929959345333858"><ele>257.8333333333333</ele><time>2026-04-19T12:38:45.001Z</time></trkpt><trkpt lat="43.33441024781963" lon="11.929883228527803"><ele>257.6666666666667</ele><time>2026-04-19T12:38:47.001Z</time></trkpt><trkpt lat="43.33447359797887" lon="11.929813753099328"><ele>257.5</ele><time>2026-04-19T12:38:49.001Z</time></trkpt><trkpt lat="43.3345374488847" lon="11.92974469623295"><ele>257.33333333333337</ele><time>2026-04-19T12:38:51.001Z</time></trkpt><trkpt lat="43.3346019900338" lon="11.929676121291699"><ele>257.1666666666667</ele><time>2026-04-19T12:38:53.001Z</time></trkpt><trkpt lat="43.3346671396034" lon="11.929606899882726"><ele>257.0</ele><time>2026-04-19T12:38:55.001Z</time></trkpt><trkpt lat="43.33473204998637" lon="11.929537932616748"><ele>257.0</ele><time>2026-04-19T12:38:57.001Z</time></trkpt><trkpt lat="43.33480280545213" lon="11.929462824978513"><ele>257.0</ele><time>2026-04-19T12:38:59.001Z</time></trkpt><trkpt lat="43.33487149918187" lon="11.929368700497735"><ele>257.0</ele><time>2026-04-19T12:39:01.001Z</time></trkpt><trkpt lat="43.33496174239006" lon="11.929284065118916"><ele>257.0</ele><time>2026-04-19T12:39:03.001Z</time></trkpt><trkpt lat="43.33503989748846" lon="11.929196441777773"><ele>257.0</ele><time>2026-04-19T12:39:05.001Z</time></trkpt><trkpt lat="43.335105668944024" lon="11.92909677588461"><ele>257.0</ele><time>2026-04-19T12:39:07.001Z</time></trkpt><trkpt lat="43.33517821755538" lon="11.928996197987038"><ele>257.0</ele><time>2026-04-19T12:39:09.001Z</time></trkpt><trkpt lat="43.33524936188274" lon="11.928895742638815"><ele>257.0</ele><time>2026-04-19T12:39:11.001Z</time></trkpt><trkpt lat="43.33531229716936" lon="11.928808231741831"><ele>257.0</ele><time>2026-04-19T12:39:13.001Z</time></trkpt><trkpt lat="43.33537084705253" lon="11.928731883675638"><ele>257.0</ele><time>2026-04-19T12:39:15.001Z</time></trkpt><trkpt lat="43.33541874568093" lon="11.928662197936095"><ele>257.0</ele><time>2026-04-19T12:39:17.001Z</time></trkpt><trkpt lat="43.335462314382845" lon="11.928598708803058"><ele>257.0</ele><time>2026-04-19T12:39:19.001Z</time></trkpt><trkpt lat="43.335537166216824" lon="11.928538624481375"><ele>257.0</ele><time>2026-04-19T12:39:22.002Z</time></trkpt><trkpt lat="43.335588949051456" lon="11.928481276423023"><ele>257.0</ele><time>2026-04-19T12:39:24.002Z</time></trkpt><trkpt lat="43.33564197554364" lon="11.92840285631353"><ele>257.0</ele><time>2026-04-19T12:39:26.002Z</time></trkpt><trkpt lat="43.33570493936053" lon="11.928336264991664"><ele>257.0</ele><time>2026-04-19T12:39:28.002Z</time></trkpt><trkpt lat="43.335762853945596" lon="11.928263942268556"><ele>257.0</ele><time>2026-04-19T12:39:30.002Z</time></trkpt><trkpt lat="43.33582544029348" lon="11.928185326465497"><ele>257.0</ele><time>2026-04-19T12:39:32.002Z</time></trkpt><trkpt lat="43.33587931038713" lon="11.928106716989952"><ele>257.0</ele><time>2026-04-19T12:39:34.002Z</time></trkpt><trkpt lat="43.33592759927639" lon="11.928040607465642"><ele>257.0</ele><time>2026-04-19T12:39:37.002Z</time></trkpt><trkpt lat="43.335987684334874" lon="11.927977169071667"><ele>257.0</ele><time>2026-04-19T12:39:40Z</time></trkpt><trkpt lat="43.336044554875826" lon="11.927912306023172"><ele>257.0</ele><time>2026-04-19T12:39:42Z</time></trkpt><trkpt lat="43.33611484495601" lon="11.927862795676399"><ele>257.0</ele><time>2026-04-19T12:39:44Z</time></trkpt><trkpt lat="43.3361818706264" lon="11.927797346884246"><ele>257.0</ele><time>2026-04-19T12:39:46Z</time></trkpt><trkpt lat="43.336250217397215" lon="11.927731063939133"><ele>257.0</ele><time>2026-04-19T12:39:48Z</time></trkpt><trkpt lat="43.33631867764394" lon="11.927665289356264"><ele>257.0</ele><time>2026-04-19T12:39:50Z</time></trkpt><trkpt lat="43.336387595423524" lon="11.927600962722984"><ele>257.0</ele><time>2026-04-19T12:39:52Z</time></trkpt><trkpt lat="43.33645341362179" lon="11.927539997984963"><ele>257.0</ele><time>2026-04-19T12:39:54Z</time></trkpt><trkpt lat="43.33651626002693" lon="11.927483258299288"><ele>257.0</ele><time>2026-04-19T12:39:56Z</time></trkpt><trkpt lat="43.33657780440989" lon="11.927427693733714"><ele>256.85714285714283</ele><time>2026-04-19T12:39:58Z</time></trkpt><trkpt lat="43.336632763826024" lon="11.927378073605512"><ele>256.7142857142857</ele><time>2026-04-19T12:40:00Z</time></trkpt><trkpt lat="43.33669051848187" lon="11.927326684896418"><ele>256.57142857142856</ele><time>2026-04-19T12:40:02Z</time></trkpt><trkpt lat="43.336750903719974" lon="11.927272540101601"><ele>256.42857142857144</ele><time>2026-04-19T12:40:04Z</time></trkpt><trkpt lat="43.336815011270765" lon="11.927215252913324"><ele>256.2857142857143</ele><time>2026-04-19T12:40:06Z</time></trkpt><trkpt lat="43.33687654162893" lon="11.9271608260115"><ele>256.1428571428571</ele><time>2026-04-19T12:40:08Z</time></trkpt><trkpt lat="43.33694346570457" lon="11.927101628124959"><ele>256.0</ele><time>2026-04-19T12:40:10Z</time></trkpt><trkpt lat="43.3370075042524" lon="11.92704498261558"><ele>255.99999999999997</ele><time>2026-04-19T12:40:12Z</time></trkpt><trkpt lat="43.337072760423375" lon="11.926987260051032"><ele>256.0</ele><time>2026-04-19T12:40:14Z</time></trkpt><trkpt lat="43.3371699622933" lon="11.926901279825252"><ele>256.0</ele><time>2026-04-19T12:40:17Z</time></trkpt><trkpt lat="43.33721960611513" lon="11.926827738269216"><ele>256.0</ele><time>2026-04-19T12:40:19Z</time></trkpt><trkpt lat="43.33727503465307" lon="11.926781896016987"><ele>255.99999999999997</ele><time>2026-04-19T12:40:21Z</time></trkpt><trkpt lat="43.337350400346644" lon="11.926708966479044"><ele>256.0</ele><time>2026-04-19T12:40:24Z</time></trkpt><trkpt lat="43.33741285794472" lon="11.926671211571662"><ele>255.66666666666666</ele><time>2026-04-19T12:40:26Z</time></trkpt><trkpt lat="43.337468228742054" lon="11.9265998927304"><ele>255.33333333333331</ele><time>2026-04-19T12:40:28Z</time></trkpt><trkpt lat="43.33753125248685" lon="11.926544066828312"><ele>255.0</ele><time>2026-04-19T12:40:30Z</time></trkpt><trkpt lat="43.33759577218516" lon="11.926486887546403"><ele>254.66666666666669</ele><time>2026-04-19T12:40:32.001Z</time></trkpt><trkpt lat="43.33765911884422" lon="11.926431568814014"><ele>254.33333333333334</ele><time>2026-04-19T12:40:34.001Z</time></trkpt><trkpt lat="43.33772334935195" lon="11.926376289201313"><ele>254.0</ele><time>2026-04-19T12:40:36.001Z</time></trkpt><trkpt lat="43.33778428565408" lon="11.926319669591166"><ele>254.00000000000003</ele><time>2026-04-19T12:40:38.001Z</time></trkpt><trkpt lat="43.33784694726231" lon="11.926263262981495"><ele>254.0</ele><time>2026-04-19T12:40:40.001Z</time></trkpt><trkpt lat="43.33790543679512" lon="11.926207426357742"><ele>254.0</ele><time>2026-04-19T12:40:42.001Z</time></trkpt><trkpt lat="43.33796282484835" lon="11.926156783377182"><ele>254.0</ele><time>2026-04-19T12:40:44.001Z</time></trkpt><trkpt lat="43.33803103398025" lon="11.926073675733003"><ele>254.00000000000003</ele><time>2026-04-19T12:40:47.001Z</time></trkpt><trkpt lat="43.338080388074005" lon="11.925997802408522"><ele>254.0</ele><time>2026-04-19T12:40:50.001Z</time></trkpt><trkpt lat="43.33812413820303" lon="11.925916958189088"><ele>254.85714285714286</ele><time>2026-04-19T12:40:53.001Z</time></trkpt><trkpt lat="43.33816228690268" lon="11.925831181718278"><ele>255.71428571428572</ele><time>2026-04-19T12:40:56.001Z</time></trkpt><trkpt lat="43.338195327616035" lon="11.925745320711924"><ele>256.57142857142856</ele><time>2026-04-19T12:40:59.001Z</time></trkpt><trkpt lat="43.33823269640776" lon="11.925653111122422"><ele>257.42857142857144</ele><time>2026-04-19T12:41:02.001Z</time></trkpt><trkpt lat="43.33827106236696" lon="11.925563584260937"><ele>258.2857142857143</ele><time>2026-04-19T12:41:05.001Z</time></trkpt><trkpt lat="43.338326615138016" lon="11.925498889030644"><ele>259.14285714285717</ele><time>2026-04-19T12:41:08.001Z</time></trkpt><trkpt lat="43.33838485235547" lon="11.92545954933134"><ele>260.0</ele><time>2026-04-19T12:41:11.001Z</time></trkpt><trkpt lat="43.33844332139296" lon="11.925403501898872"><ele>260.00000000000006</ele><time>2026-04-19T12:41:16.001Z</time></trkpt><trkpt lat="43.338509549110455" lon="11.925341128878555"><ele>260.0</ele><time>2026-04-19T12:41:21.001Z</time></trkpt><trkpt lat="43.338561572041755" lon="11.925275596207843"><ele>260.0</ele><time>2026-04-19T12:41:26.001Z</time></trkpt><trkpt lat="43.33860343983285" lon="11.925203768228297"><ele>260.0</ele><time>2026-04-19T12:41:31.002Z</time></trkpt><trkpt lat="43.33864791881943" lon="11.925120377549566"><ele>260.0</ele><time>2026-04-19T12:41:37.002Z</time></trkpt><trkpt lat="43.338690274304525" lon="11.92504096813744"><ele>260.00000000000006</ele><time>2026-04-19T12:41:43.002Z</time></trkpt><trkpt lat="43.33873168842517" lon="11.924963323489347"><ele>260.0</ele><time>2026-04-19T12:41:49Z</time></trkpt><trkpt lat="43.338770441770166" lon="11.924889430894595"><ele>260.7142857142857</ele><time>2026-04-19T12:41:55Z</time></trkpt><trkpt lat="43.33881142965468" lon="11.924810055523407"><ele>261.42857142857144</ele><time>2026-04-19T12:42:01Z</time></trkpt><trkpt lat="43.33885057773071" lon="11.924732068050616"><ele>262.1428571428571</ele><time>2026-04-19T12:42:07Z</time></trkpt><trkpt lat="43.33888685456973" lon="11.924659800054112"><ele>262.8571428571429</ele><time>2026-04-19T12:42:13Z</time></trkpt><trkpt lat="43.33889137060176" lon="11.924572963019475"><ele>263.57142857142856</ele><time>2026-04-19T12:42:18Z</time></trkpt><trkpt lat="43.338936397380905" lon="11.924489866138414"><ele>264.2857142857143</ele><time>2026-04-19T12:42:26Z</time></trkpt><trkpt lat="43.33897712289422" lon="11.924419953037964"><ele>265.0</ele><time>2026-04-19T12:42:32Z</time></trkpt><trkpt lat="43.339019223692965" lon="11.924344878900168"><ele>266.66666666666663</ele><time>2026-04-19T12:42:39.001Z</time></trkpt><trkpt lat="43.33905436483612" lon="11.92426588930679"><ele>268.3333333333333</ele><time>2026-04-19T12:42:46.001Z</time></trkpt><trkpt lat="43.33909505582293" lon="11.924146056531546"><ele>270.0</ele><time>2026-04-19T12:42:50.001Z</time></trkpt><trkpt lat="43.3391263670358" lon="11.924044250812244"><ele>271.6666666666667</ele><time>2026-04-19T12:43:00.001Z</time></trkpt><trkpt lat="43.339161590197875" lon="11.924117520271981"><ele>273.33333333333337</ele><time>2026-04-19T12:43:05.001Z</time></trkpt><trkpt lat="43.339193653151874" lon="11.924040087315687"><ele>275.0</ele><time>2026-04-19T12:43:07.001Z</time></trkpt><trkpt lat="43.33919350679592" lon="11.923923056264387"><ele>276.83333333333337</ele><time>2026-04-19T12:43:12.001Z</time></trkpt><trkpt lat="43.33925356739514" lon="11.923871392806706"><ele>278.6666666666667</ele><time>2026-04-19T12:43:20.001Z</time></trkpt><trkpt lat="43.3392713022134" lon="11.923988848494552"><ele>280.5</ele><time>2026-04-19T12:43:28.001Z</time></trkpt><trkpt lat="43.33932078163257" lon="11.923803181541583"><ele>282.3333333333333</ele><time>2026-04-19T12:43:29.002Z</time></trkpt><trkpt lat="43.33936503603397" lon="11.923732771533862"><ele>284.16666666666663</ele><time>2026-04-19T12:43:36.002Z</time></trkpt><trkpt lat="43.339407036520626" lon="11.923647821883364"><ele>286.0</ele><time>2026-04-19T12:43:43.002Z</time></trkpt><trkpt lat="43.339471899198905" lon="11.923615677037182"><ele>285.99999999999994</ele><time>2026-04-19T12:43:48.002Z</time></trkpt><trkpt lat="43.33952282813268" lon="11.923672294903856"><ele>286.0</ele><time>2026-04-19T12:43:53.999Z</time></trkpt><trkpt lat="43.33958612200731" lon="11.923722663269888"><ele>286.0</ele><time>2026-04-19T12:44:00.999Z</time></trkpt><trkpt lat="43.33963414951379" lon="11.923784001988498"><ele>286.0</ele><time>2026-04-19T12:44:05.999Z</time></trkpt><trkpt lat="43.339695563435015" lon="11.923806629086029"><ele>286.0</ele><time>2026-04-19T12:44:12Z</time></trkpt><trkpt lat="43.339751619592924" lon="11.923857603206855"><ele>285.99999999999994</ele><time>2026-04-19T12:44:18Z</time></trkpt><trkpt lat="43.33981802258916" lon="11.923893892000475"><ele>286.0</ele><time>2026-04-19T12:44:24Z</time></trkpt><trkpt lat="43.33987425149224" lon="11.923945489723478"><ele>288.71428571428567</ele><time>2026-04-19T12:44:30Z</time></trkpt><trkpt lat="43.33992920681576" lon="11.923988099572"><ele>291.42857142857144</ele><time>2026-04-19T12:44:36Z</time></trkpt><trkpt lat="43.34000156423796" lon="11.924024731593123"><ele>294.1428571428571</ele><time>2026-04-19T12:44:43Z</time></trkpt><trkpt lat="43.34007392380357" lon="11.92400976078573"><ele>296.85714285714283</ele><time>2026-04-19T12:44:49.001Z</time></trkpt><trkpt lat="43.340147821941976" lon="11.924026816165643"><ele>299.57142857142856</ele><time>2026-04-19T12:44:55.001Z</time></trkpt><trkpt lat="43.34021528325059" lon="11.924046303713485"><ele>302.2857142857143</ele><time>2026-04-19T12:45:01.001Z</time></trkpt><trkpt lat="43.34025445548041" lon="11.924119928543204"><ele>305.0</ele><time>2026-04-19T12:45:05.001Z</time></trkpt><trkpt lat="43.340282067342514" lon="11.924199335005087"><ele>305.33333333333337</ele><time>2026-04-19T12:45:09.001Z</time></trkpt><trkpt lat="43.340335625999536" lon="11.924267386800338"><ele>305.6666666666667</ele><time>2026-04-19T12:45:13.001Z</time></trkpt><trkpt lat="43.34038030198378" lon="11.92433913606252"><ele>306.0</ele><time>2026-04-19T12:45:17.001Z</time></trkpt><trkpt lat="43.34041325968836" lon="11.924414446488196"><ele>306.3333333333333</ele><time>2026-04-19T12:45:20.001Z</time></trkpt><trkpt lat="43.340448876864976" lon="11.924496047539474"><ele>306.66666666666663</ele><time>2026-04-19T12:45:23.001Z</time></trkpt><trkpt lat="43.340504716482" lon="11.924550015843256"><ele>307.0</ele><time>2026-04-19T12:45:26.001Z</time></trkpt><trkpt lat="43.34064104008545" lon="11.924489556168155"><ele>307.0</ele><time>2026-04-19T12:45:29.001Z</time></trkpt><trkpt lat="43.34050967794562" lon="11.92468979331944"><ele>294.0</ele><time>2026-04-19T12:47:02.001Z</time></trkpt></trkseg></trk></gpx>